<?xml version='1.0' encoding='UTF-8'?><gpx version="1.1" creator="JPX - https://github.com/jenetics/jpx" xmlns="http://www.topografix.com/GPX/1/1"><trk><trkseg><trkpt lat="44.52766110659067" lon="0.9388493467131059"><ele>93.0</ele><time>2026-04-06T11:01:50Z</time></trkpt><trkpt lat="44.527597320307535" lon="0.9388331696399849"><ele>93.0</ele><time>2026-04-06T11:01:54Z</time></trkpt><trkpt lat="44.52752726166937" lon="0.9388061856638031"><ele>93.0</ele><time>2026-04-06T11:01:56Z</time></trkpt><trkpt lat="44.527416222512144" lon="0.9387512435130584"><ele>93.0</ele><time>2026-04-06T11:01:58Z</time></trkpt><trkpt lat="44.527346753482064" lon="0.9387022771550466"><ele>93.0</ele><time>2026-04-06T11:01:59Z</time></trkpt><trkpt lat="44.5272915386307" lon="0.9386519564741851"><ele>93.0</ele><time>2026-04-06T11:02:00Z</time></trkpt><trkpt lat="44.527225057287524" lon="0.9386053020517928"><ele>93.0</ele><time>2026-04-06T11:02:01Z</time></trkpt><trkpt lat="44.527153966035186" lon="0.9385465651222761"><ele>93.0</ele><time>2026-04-06T11:02:02Z</time></trkpt><trkpt lat="44.527072457738335" lon="0.9384731801941727"><ele>93.0</ele><time>2026-04-06T11:02:03Z</time></trkpt><trkpt lat="44.526987674689806" lon="0.938410769435669"><ele>93.0</ele><time>2026-04-06T11:02:04Z</time></trkpt><trkpt lat="44.52690703450292" lon="0.9383385618603935"><ele>93.0</ele><time>2026-04-06T11:02:05Z</time></trkpt><trkpt lat="44.526816612900724" lon="0.9382613235114192"><ele>92.5</ele><time>2026-04-06T11:02:06Z</time></trkpt><trkpt lat="44.52671292906423" lon="0.9381835321777944"><ele>92.0</ele><time>2026-04-06T11:02:07Z</time></trkpt><trkpt lat="44.526577715510925" lon="0.9381023788873863"><ele>91.5</ele><time>2026-04-06T11:02:08Z</time></trkpt><trkpt lat="44.5264518025316" lon="0.9380173062501768"><ele>91.0</ele><time>2026-04-06T11:02:09Z</time></trkpt><trkpt lat="44.52632464968035" lon="0.9379422735008769"><ele>90.0</ele><time>2026-04-06T11:02:10Z</time></trkpt><trkpt lat="44.52618653396031" lon="0.9378591595877255"><ele>89.0</ele><time>2026-04-06T11:02:11Z</time></trkpt><trkpt lat="44.52604292720089" lon="0.9377754656258294"><ele>88.0</ele><time>2026-04-06T11:02:12Z</time></trkpt><trkpt lat="44.52588878323624" lon="0.9376893298706003"><ele>88.0</ele><time>2026-04-06T11:02:13Z</time></trkpt><trkpt lat="44.52574471259141" lon="0.9376091986417066"><ele>88.0</ele><time>2026-04-06T11:02:14Z</time></trkpt><trkpt lat="44.52560351558113" lon="0.9375151203770191"><ele>88.0</ele><time>2026-04-06T11:02:15Z</time></trkpt><trkpt lat="44.52542238278526" lon="0.9374113153064876"><ele>89.66666666666666</ele><time>2026-04-06T11:02:16Z</time></trkpt><trkpt lat="44.52526577998137" lon="0.9372940868939069"><ele>91.33333333333333</ele><time>2026-04-06T11:02:17Z</time></trkpt><trkpt lat="44.52510771957832" lon="0.937177323726053"><ele>93.0</ele><time>2026-04-06T11:02:18Z</time></trkpt><trkpt lat="44.524945880279596" lon="0.9370617292339231"><ele>93.0</ele><time>2026-04-06T11:02:19Z</time></trkpt><trkpt lat="44.52478339026024" lon="0.9369343213242889"><ele>93.0</ele><time>2026-04-06T11:02:20Z</time></trkpt><trkpt lat="44.524617330542505" lon="0.9368091704614611"><ele>93.0</ele><time>2026-04-06T11:02:21Z</time></trkpt><trkpt lat="44.524449706897876" lon="0.9366885739203724"><ele>94.0</ele><time>2026-04-06T11:02:22Z</time></trkpt><trkpt lat="44.524273735625734" lon="0.936582173949194"><ele>95.0</ele><time>2026-04-06T11:02:23Z</time></trkpt><trkpt lat="44.52409558754534" lon="0.9364756921520304"><ele>96.0</ele><time>2026-04-06T11:02:24Z</time></trkpt><trkpt lat="44.52390997868115" lon="0.9363699834346345"><ele>93.33333333333333</ele><time>2026-04-06T11:02:25Z</time></trkpt><trkpt lat="44.52372408518051" lon="0.9362895124980435"><ele>90.66666666666666</ele><time>2026-04-06T11:02:26Z</time></trkpt><trkpt lat="44.52353105193727" lon="0.9362113759456351"><ele>88.0</ele><time>2026-04-06T11:02:27Z</time></trkpt><trkpt lat="44.52333220180255" lon="0.9361763401116721"><ele>88.0</ele><time>2026-04-06T11:02:28Z</time></trkpt><trkpt lat="44.523134504075564" lon="0.9361639484782059"><ele>88.0</ele><time>2026-04-06T11:02:29Z</time></trkpt><trkpt lat="44.52293967116169" lon="0.9361494641418516"><ele>88.0</ele><time>2026-04-06T11:02:30Z</time></trkpt><trkpt lat="44.522747983734135" lon="0.9361294566011468"><ele>87.33333333333333</ele><time>2026-04-06T11:02:31Z</time></trkpt><trkpt lat="44.52255162292522" lon="0.9361027936989736"><ele>86.66666666666667</ele><time>2026-04-06T11:02:32Z</time></trkpt><trkpt lat="44.52236256332686" lon="0.9360642888457625"><ele>86.0</ele><time>2026-04-06T11:02:33Z</time></trkpt><trkpt lat="44.52217796791788" lon="0.9360284499590333"><ele>86.5</ele><time>2026-04-06T11:02:34Z</time></trkpt><trkpt lat="44.52201803614657" lon="0.9359837300389905"><ele>87.0</ele><time>2026-04-06T11:02:35Z</time></trkpt><trkpt lat="44.521874450725" lon="0.9359494119094987"><ele>87.5</ele><time>2026-04-06T11:02:36Z</time></trkpt><trkpt lat="44.5217454234761" lon="0.935920890255628"><ele>88.0</ele><time>2026-04-06T11:02:37Z</time></trkpt><trkpt lat="44.52162398518978" lon="0.9358817252491919"><ele>90.0</ele><time>2026-04-06T11:02:38Z</time></trkpt><trkpt lat="44.52150000780326" lon="0.9358388908535487"><ele>92.0</ele><time>2026-04-06T11:02:39Z</time></trkpt><trkpt lat="44.521396312062" lon="0.935785093272021"><ele>94.0</ele><time>2026-04-06T11:02:40Z</time></trkpt><trkpt lat="44.52130660294619" lon="0.9357018316681637"><ele>96.0</ele><time>2026-04-06T11:02:41Z</time></trkpt><trkpt lat="44.52123684659862" lon="0.935593527636038"><ele>96.4</ele><time>2026-04-06T11:02:42Z</time></trkpt><trkpt lat="44.52119258192793" lon="0.9354591655724197"><ele>96.8</ele><time>2026-04-06T11:02:43Z</time></trkpt><trkpt lat="44.521196229613636" lon="0.9353077433948845"><ele>97.2</ele><time>2026-04-06T11:02:44Z</time></trkpt><trkpt lat="44.52120859139481" lon="0.9351601514934886"><ele>97.60000000000001</ele><time>2026-04-06T11:02:45Z</time></trkpt><trkpt lat="44.52123711072057" lon="0.935010240727673"><ele>98.0</ele><time>2026-04-06T11:02:46Z</time></trkpt><trkpt lat="44.521292813770046" lon="0.9348752027153321"><ele>98.0</ele><time>2026-04-06T11:02:47Z</time></trkpt><trkpt lat="44.52136682915464" lon="0.9347429204150384"><ele>98.0</ele><time>2026-04-06T11:02:48Z</time></trkpt><trkpt lat="44.52145259243812" lon="0.934593322491442"><ele>98.0</ele><time>2026-04-06T11:02:49Z</time></trkpt><trkpt lat="44.52155550026458" lon="0.9344492517128825"><ele>98.0</ele><time>2026-04-06T11:02:50Z</time></trkpt><trkpt lat="44.521641451816336" lon="0.9342566785928473"><ele>97.0</ele><time>2026-04-06T11:02:51Z</time></trkpt><trkpt lat="44.52171474426978" lon="0.9340506881070305"><ele>96.0</ele><time>2026-04-06T11:02:52Z</time></trkpt><trkpt lat="44.52177063469528" lon="0.9338147349272405"><ele>95.0</ele><time>2026-04-06T11:02:52.999Z</time></trkpt><trkpt lat="44.52180146424793" lon="0.9335594037128979"><ele>93.66666666666667</ele><time>2026-04-06T11:02:53.999Z</time></trkpt><trkpt lat="44.52179851056346" lon="0.9333075590812697"><ele>92.33333333333333</ele><time>2026-04-06T11:02:54.999Z</time></trkpt><trkpt lat="44.52175761120242" lon="0.9330570435684717"><ele>91.0</ele><time>2026-04-06T11:02:55.999Z</time></trkpt><trkpt lat="44.52169141140961" lon="0.9328107005061242"><ele>91.0</ele><time>2026-04-06T11:02:56.999Z</time></trkpt><trkpt lat="44.52161174988174" lon="0.9325747487860878"><ele>91.0</ele><time>2026-04-06T11:02:57.999Z</time></trkpt><trkpt lat="44.52153293030982" lon="0.9323682017220648"><ele>91.0</ele><time>2026-04-06T11:02:58.999Z</time></trkpt><trkpt lat="44.521464508498745" lon="0.932186838849602"><ele>91.5</ele><time>2026-04-06T11:02:59.999Z</time></trkpt><trkpt lat="44.52139173517305" lon="0.9320352649607472"><ele>92.0</ele><time>2026-04-06T11:03:00.999Z</time></trkpt><trkpt lat="44.52130069098249" lon="0.9319182322983622"><ele>92.5</ele><time>2026-04-06T11:03:01.999Z</time></trkpt><trkpt lat="44.52118839487849" lon="0.9318381122491917"><ele>93.0</ele><time>2026-04-06T11:03:02.999Z</time></trkpt><trkpt lat="44.52105378224397" lon="0.9318093365333716"><ele>90.33333333333333</ele><time>2026-04-06T11:03:03.999Z</time></trkpt><trkpt lat="44.520912590290315" lon="0.9317792566171582"><ele>87.66666666666666</ele><time>2026-04-06T11:03:04.999Z</time></trkpt><trkpt lat="44.52076431153949" lon="0.9318772220930481"><ele>85.0</ele><time>2026-04-06T11:03:05.999Z</time></trkpt><trkpt lat="44.520613735189954" lon="0.9319550293008341"><ele>85.0</ele><time>2026-04-06T11:03:06.999Z</time></trkpt><trkpt lat="44.52045759480047" lon="0.932026398584644"><ele>85.0</ele><time>2026-04-06T11:03:07.999Z</time></trkpt><trkpt lat="44.520304205934764" lon="0.9321059881295237"><ele>85.0</ele><time>2026-04-06T11:03:08.999Z</time></trkpt><trkpt lat="44.52013692241807" lon="0.9321698675634364"><ele>86.0</ele><time>2026-04-06T11:03:09.999Z</time></trkpt><trkpt lat="44.51998188961868" lon="0.9322652849755866"><ele>87.0</ele><time>2026-04-06T11:03:10.999Z</time></trkpt><trkpt lat="44.519815144698306" lon="0.9323239412976986"><ele>88.0</ele><time>2026-04-06T11:03:11.999Z</time></trkpt><trkpt lat="44.51965927966852" lon="0.9324368375185594"><ele>88.66666666666666</ele><time>2026-04-06T11:03:12.999Z</time></trkpt><trkpt lat="44.51950615983306" lon="0.9325473606665448"><ele>89.33333333333333</ele><time>2026-04-06T11:03:13.999Z</time></trkpt><trkpt lat="44.51935513322962" lon="0.9326744917691082"><ele>90.0</ele><time>2026-04-06T11:03:14.999Z</time></trkpt><trkpt lat="44.51920626973291" lon="0.9328097992277713"><ele>90.0</ele><time>2026-04-06T11:03:15.999Z</time></trkpt><trkpt lat="44.51905125044518" lon="0.9329177944989797"><ele>90.0</ele><time>2026-04-06T11:03:16.999Z</time></trkpt><trkpt lat="44.518894347537746" lon="0.9330371484127643"><ele>90.0</ele><time>2026-04-06T11:03:17.999Z</time></trkpt><trkpt lat="44.51873097358019" lon="0.9331390423622573"><ele>92.0</ele><time>2026-04-06T11:03:18.999Z</time></trkpt><trkpt lat="44.51858116385409" lon="0.9332138141982506"><ele>94.0</ele><time>2026-04-06T11:03:19.999Z</time></trkpt><trkpt lat="44.51843835081451" lon="0.9332675516152624"><ele>96.0</ele><time>2026-04-06T11:03:20.999Z</time></trkpt><trkpt lat="44.5182984756816" lon="0.933317309436847"><ele>96.0</ele><time>2026-04-06T11:03:21.999Z</time></trkpt><trkpt lat="44.518151502069685" lon="0.9333650644526768"><ele>96.0</ele><time>2026-04-06T11:03:22.999Z</time></trkpt><trkpt lat="44.51799252868228" lon="0.933410282776927"><ele>96.0</ele><time>2026-04-06T11:03:23.999Z</time></trkpt><trkpt lat="44.517838679326694" lon="0.9334659368693259"><ele>96.0</ele><time>2026-04-06T11:03:24.999Z</time></trkpt><trkpt lat="44.5176996432611" lon="0.9334926793203524"><ele>96.0</ele><time>2026-04-06T11:03:25.999Z</time></trkpt><trkpt lat="44.51757396801426" lon="0.9334743808773858"><ele>96.0</ele><time>2026-04-06T11:03:26.999Z</time></trkpt><trkpt lat="44.51743928362966" lon="0.9334722874705829"><ele>96.0</ele><time>2026-04-06T11:03:27.999Z</time></trkpt><trkpt lat="44.517292904542344" lon="0.9334302969585189"><ele>96.0</ele><time>2026-04-06T11:03:28.999Z</time></trkpt><trkpt lat="44.517164116808" lon="0.9333941959780415"><ele>96.0</ele><time>2026-04-06T11:03:29.999Z</time></trkpt><trkpt lat="44.5170584263849" lon="0.9333705721202061"><ele>96.0</ele><time>2026-04-06T11:03:30.999Z</time></trkpt><trkpt lat="44.516989360522885" lon="0.9333553784429899"><ele>96.0</ele><time>2026-04-06T11:03:31.999Z</time></trkpt><trkpt lat="44.5169181029231" lon="0.9333035797828821"><ele>96.0</ele><time>2026-04-06T11:03:33.999Z</time></trkpt><trkpt lat="44.516960248610204" lon="0.933132922720075"><ele>96.6</ele><time>2026-04-06T11:03:34.999Z</time></trkpt><trkpt lat="44.51695725374838" lon="0.9330047587924951"><ele>97.19999999999999</ele><time>2026-04-06T11:03:35.999Z</time></trkpt><trkpt lat="44.51693849176295" lon="0.9328643372942004"><ele>97.80000000000001</ele><time>2026-04-06T11:03:36.999Z</time></trkpt><trkpt lat="44.516936252921134" lon="0.9327072141820621"><ele>98.4</ele><time>2026-04-06T11:03:37.999Z</time></trkpt><trkpt lat="44.51692151359923" lon="0.9325360875640271"><ele>99.0</ele><time>2026-04-06T11:03:38.999Z</time></trkpt><trkpt lat="44.51691082239641" lon="0.9323635932351777"><ele>100.0</ele><time>2026-04-06T11:03:39.999Z</time></trkpt><trkpt lat="44.51690912636489" lon="0.9321668953434207"><ele>101.0</ele><time>2026-04-06T11:03:40.999Z</time></trkpt><trkpt lat="44.516898339559404" lon="0.9319660276792203"><ele>102.0</ele><time>2026-04-06T11:03:41.999Z</time></trkpt><trkpt lat="44.516907535952825" lon="0.9317650650244642"><ele>103.0</ele><time>2026-04-06T11:03:42.999Z</time></trkpt><trkpt lat="44.51691290809249" lon="0.9315660452009673"><ele>105.0</ele><time>2026-04-06T11:03:43.999Z</time></trkpt><trkpt lat="44.516924922566595" lon="0.9313492550518522"><ele>107.0</ele><time>2026-04-06T11:03:44.999Z</time></trkpt><trkpt lat="44.51692953208981" lon="0.9311344211788241"><ele>109.0</ele><time>2026-04-06T11:03:45.999Z</time></trkpt><trkpt lat="44.51695698920669" lon="0.9309135857128398"><ele>111.33333333333334</ele><time>2026-04-06T11:03:46.999Z</time></trkpt><trkpt lat="44.51697994601131" lon="0.9306894224429774"><ele>113.66666666666666</ele><time>2026-04-06T11:03:47.999Z</time></trkpt><trkpt lat="44.517006000769015" lon="0.9304599009981754"><ele>116.0</ele><time>2026-04-06T11:03:48.999Z</time></trkpt><trkpt lat="44.51702552081281" lon="0.930237998452221"><ele>117.25</ele><time>2026-04-06T11:03:49.999Z</time></trkpt><trkpt lat="44.51704464513847" lon="0.9300178379298875"><ele>118.5</ele><time>2026-04-06T11:03:50.999Z</time></trkpt><trkpt lat="44.517033221555565" lon="0.9298281321326705"><ele>119.75</ele><time>2026-04-06T11:03:51.999Z</time></trkpt><trkpt lat="44.51699555181973" lon="0.9296324251908764"><ele>121.0</ele><time>2026-04-06T11:03:52.999Z</time></trkpt><trkpt lat="44.51693350600072" lon="0.9294331548590987"><ele>121.0</ele><time>2026-04-06T11:03:53.999Z</time></trkpt><trkpt lat="44.51684472829711" lon="0.9292531809195105"><ele>121.0</ele><time>2026-04-06T11:03:54.999Z</time></trkpt><trkpt lat="44.51677134619626" lon="0.9290478827963444"><ele>121.0</ele><time>2026-04-06T11:03:55.999Z</time></trkpt><trkpt lat="44.51670734372611" lon="0.9288366281996232"><ele>122.33333333333334</ele><time>2026-04-06T11:03:56.999Z</time></trkpt><trkpt lat="44.516652802421085" lon="0.9286159250109026"><ele>123.66666666666666</ele><time>2026-04-06T11:03:57.999Z</time></trkpt><trkpt lat="44.5166067128288" lon="0.9283888821940581"><ele>125.0</ele><time>2026-04-06T11:03:58.999Z</time></trkpt><trkpt lat="44.51659731831225" lon="0.9281501241305704"><ele>126.0</ele><time>2026-04-06T11:03:59.999Z</time></trkpt><trkpt lat="44.51659807725917" lon="0.9279449691958143"><ele>127.0</ele><time>2026-04-06T11:04:00.999Z</time></trkpt><trkpt lat="44.516636656924184" lon="0.9277411558239295"><ele>128.0</ele><time>2026-04-06T11:04:01.999Z</time></trkpt><trkpt lat="44.51668474496823" lon="0.9275270090744908"><ele>129.75</ele><time>2026-04-06T11:04:02.999Z</time></trkpt><trkpt lat="44.51674350005811" lon="0.9273117831059307"><ele>131.5</ele><time>2026-04-06T11:04:03.999Z</time></trkpt><trkpt lat="44.51680544644273" lon="0.9271320803991723"><ele>133.25</ele><time>2026-04-06T11:04:04.999Z</time></trkpt><trkpt lat="44.516873599999045" lon="0.927000829263177"><ele>135.0</ele><time>2026-04-06T11:04:05.999Z</time></trkpt><trkpt lat="44.51696587199174" lon="0.9268747156877786"><ele>131.66666666666666</ele><time>2026-04-06T11:04:06.999Z</time></trkpt><trkpt lat="44.51708744129508" lon="0.9267836368073886"><ele>128.33333333333331</ele><time>2026-04-06T11:04:07.999Z</time></trkpt><trkpt lat="44.51723712927737" lon="0.926693556057935"><ele>125.0</ele><time>2026-04-06T11:04:08.999Z</time></trkpt><trkpt lat="44.51738825397704" lon="0.926586508564789"><ele>125.0</ele><time>2026-04-06T11:04:09.999Z</time></trkpt><trkpt lat="44.51752203720999" lon="0.9264649128112354"><ele>125.0</ele><time>2026-04-06T11:04:10.999Z</time></trkpt><trkpt lat="44.51764127185113" lon="0.926370897012292"><ele>125.0</ele><time>2026-04-06T11:04:11.999Z</time></trkpt><trkpt lat="44.517746009058854" lon="0.9262787639626981"><ele>125.0</ele><time>2026-04-06T11:04:12.999Z</time></trkpt><trkpt lat="44.51781664685474" lon="0.9261232671205072"><ele>125.0</ele><time>2026-04-06T11:04:13.999Z</time></trkpt><trkpt lat="44.51782363463924" lon="0.9259351612027213"><ele>125.0</ele><time>2026-04-06T11:04:14.999Z</time></trkpt><trkpt lat="44.517805457967896" lon="0.9257392550703303"><ele>125.0</ele><time>2026-04-06T11:04:15.999Z</time></trkpt><trkpt lat="44.51777353300548" lon="0.9255365141418149"><ele>125.0</ele><time>2026-04-06T11:04:16.999Z</time></trkpt><trkpt lat="44.5177204641026" lon="0.9253484139127715"><ele>123.75</ele><time>2026-04-06T11:04:17.999Z</time></trkpt><trkpt lat="44.517658298731" lon="0.925199677768178"><ele>122.5</ele><time>2026-04-06T11:04:18.999Z</time></trkpt><trkpt lat="44.51755397824629" lon="0.9250932759745221"><ele>121.25</ele><time>2026-04-06T11:04:19.999Z</time></trkpt><trkpt lat="44.517439276831375" lon="0.925009672116647"><ele>120.0</ele><time>2026-04-06T11:04:20.999Z</time></trkpt><trkpt lat="44.517302023677544" lon="0.9249471626223537"><ele>119.5</ele><time>2026-04-06T11:04:21.999Z</time></trkpt><trkpt lat="44.517148346671824" lon="0.9248941848385717"><ele>119.0</ele><time>2026-04-06T11:04:22.999Z</time></trkpt><trkpt lat="44.51702930067815" lon="0.924802236879571"><ele>118.5</ele><time>2026-04-06T11:04:23.999Z</time></trkpt><trkpt lat="44.516926378138145" lon="0.9246817456662426"><ele>118.0</ele><time>2026-04-06T11:04:24.999Z</time></trkpt><trkpt lat="44.51683226765068" lon="0.9245270705770195"><ele>118.33333333333334</ele><time>2026-04-06T11:04:25.999Z</time></trkpt><trkpt lat="44.51673911532629" lon="0.9243581471735054"><ele>118.66666666666666</ele><time>2026-04-06T11:04:26.999Z</time></trkpt><trkpt lat="44.516645427657345" lon="0.9241880455471609"><ele>119.0</ele><time>2026-04-06T11:04:27.999Z</time></trkpt><trkpt lat="44.516530200623414" lon="0.9240118160323818"><ele>119.0</ele><time>2026-04-06T11:04:28.999Z</time></trkpt><trkpt lat="44.516439371378056" lon="0.9238124228519898"><ele>119.0</ele><time>2026-04-06T11:04:29.999Z</time></trkpt><trkpt lat="44.516330925912314" lon="0.9236271687419825"><ele>119.0</ele><time>2026-04-06T11:04:30.999Z</time></trkpt><trkpt lat="44.5162345270038" lon="0.9234338617405311"><ele>121.33333333333333</ele><time>2026-04-06T11:04:31.999Z</time></trkpt><trkpt lat="44.51612729001502" lon="0.9232244133769831"><ele>123.66666666666666</ele><time>2026-04-06T11:04:32.999Z</time></trkpt><trkpt lat="44.51603192567174" lon="0.9230167271245864"><ele>126.0</ele><time>2026-04-06T11:04:33.999Z</time></trkpt><trkpt lat="44.51594723911356" lon="0.9227889609254469"><ele>124.0</ele><time>2026-04-06T11:04:34.999Z</time></trkpt><trkpt lat="44.51587112292641" lon="0.9225624835124678"><ele>122.0</ele><time>2026-04-06T11:04:35.999Z</time></trkpt><trkpt lat="44.515801491889285" lon="0.9223855793412002"><ele>120.0</ele><time>2026-04-06T11:04:36.999Z</time></trkpt><trkpt lat="44.51575165359109" lon="0.9222119605974939"><ele>120.0</ele><time>2026-04-06T11:04:37.999Z</time></trkpt><trkpt lat="44.51569944828418" lon="0.9220794465915781"><ele>120.0</ele><time>2026-04-06T11:04:38.999Z</time></trkpt><trkpt lat="44.51565068723747" lon="0.9219543546332358"><ele>120.0</ele><time>2026-04-06T11:04:39.999Z</time></trkpt><trkpt lat="44.51559849858432" lon="0.9218368256415945"><ele>120.0</ele><time>2026-04-06T11:04:40.999Z</time></trkpt><trkpt lat="44.515531604802554" lon="0.9217118758398065"><ele>120.0</ele><time>2026-04-06T11:04:41.999Z</time></trkpt><trkpt lat="44.51545641239775" lon="0.9215657196411168"><ele>119.66666666666666</ele><time>2026-04-06T11:04:42.999Z</time></trkpt><trkpt lat="44.51536848036734" lon="0.9213985538211695"><ele>119.33333333333333</ele><time>2026-04-06T11:04:43.999Z</time></trkpt><trkpt lat="44.515280817382724" lon="0.9212157094502181"><ele>119.0</ele><time>2026-04-06T11:04:44.999Z</time></trkpt><trkpt lat="44.5151824061192" lon="0.9210218618322804"><ele>116.66666666666666</ele><time>2026-04-06T11:04:45.999Z</time></trkpt><trkpt lat="44.51507362796734" lon="0.9208156853019922"><ele>114.33333333333334</ele><time>2026-04-06T11:04:46.999Z</time></trkpt><trkpt lat="44.51497716739088" lon="0.9206150606032075"><ele>112.0</ele><time>2026-04-06T11:04:47.999Z</time></trkpt><trkpt lat="44.51489006701461" lon="0.9204349382420303"><ele>112.0</ele><time>2026-04-06T11:04:48.999Z</time></trkpt><trkpt lat="44.51480991757099" lon="0.9202732684502507"><ele>112.0</ele><time>2026-04-06T11:04:49.999Z</time></trkpt><trkpt lat="44.514724511845614" lon="0.9201506720610434"><ele>112.0</ele><time>2026-04-06T11:04:50.999Z</time></trkpt><trkpt lat="44.5146256360507" lon="0.9200763746647449"><ele>112.0</ele><time>2026-04-06T11:04:51.999Z</time></trkpt><trkpt lat="44.514506590688804" lon="0.9200349327451465"><ele>112.25</ele><time>2026-04-06T11:04:52.999Z</time></trkpt><trkpt lat="44.514370615862575" lon="0.9200263009858441"><ele>112.5</ele><time>2026-04-06T11:04:53.999Z</time></trkpt><trkpt lat="44.51422670491912" lon="0.9200565575193392"><ele>112.75</ele><time>2026-04-06T11:04:54.999Z</time></trkpt><trkpt lat="44.51406800781867" lon="0.9200909233675157"><ele>113.0</ele><time>2026-04-06T11:04:55.999Z</time></trkpt><trkpt lat="44.51390078483917" lon="0.9201107180320859"><ele>112.66666666666666</ele><time>2026-04-06T11:04:56.999Z</time></trkpt><trkpt lat="44.51373742197442" lon="0.9201294467680184"><ele>112.33333333333334</ele><time>2026-04-06T11:04:57.999Z</time></trkpt><trkpt lat="44.513562581966056" lon="0.9201602542326194"><ele>112.0</ele><time>2026-04-06T11:04:58.999Z</time></trkpt><trkpt lat="44.51338966605437" lon="0.920206861163353"><ele>112.0</ele><time>2026-04-06T11:04:59.999Z</time></trkpt><trkpt lat="44.51321615616975" lon="0.9202528466429535"><ele>112.0</ele><time>2026-04-06T11:05:00.999Z</time></trkpt><trkpt lat="44.513046577808105" lon="0.9203266556362181"><ele>112.0</ele><time>2026-04-06T11:05:01.999Z</time></trkpt><trkpt lat="44.51288205178296" lon="0.9204271237778605"><ele>112.66666666666667</ele><time>2026-04-06T11:05:02.999Z</time></trkpt><trkpt lat="44.51273084900454" lon="0.9205280410399411"><ele>113.33333333333334</ele><time>2026-04-06T11:05:03.999Z</time></trkpt><trkpt lat="44.51258617063968" lon="0.9206234684027879"><ele>114.0</ele><time>2026-04-06T11:05:04.999Z</time></trkpt><trkpt lat="44.51243569793596" lon="0.9207239101949707"><ele>114.0</ele><time>2026-04-06T11:05:05.999Z</time></trkpt><trkpt lat="44.51228927426338" lon="0.9208429311646745"><ele>114.0</ele><time>2026-04-06T11:05:06.999Z</time></trkpt><trkpt lat="44.512150034996" lon="0.9209817868239495"><ele>114.0</ele><time>2026-04-06T11:05:07.999Z</time></trkpt><trkpt lat="44.51201772972392" lon="0.9211299816637559"><ele>117.33333333333334</ele><time>2026-04-06T11:05:08.999Z</time></trkpt><trkpt lat="44.51189340556756" lon="0.921259719832293"><ele>120.66666666666667</ele><time>2026-04-06T11:05:09.999Z</time></trkpt><trkpt lat="44.51176237753982" lon="0.921379278729032"><ele>124.0</ele><time>2026-04-06T11:05:10.999Z</time></trkpt><trkpt lat="44.51165747276944" lon="0.9215338952481642"><ele>124.0</ele><time>2026-04-06T11:05:11.999Z</time></trkpt><trkpt lat="44.51153572640982" lon="0.9216846498614465"><ele>124.0</ele><time>2026-04-06T11:05:12.999Z</time></trkpt><trkpt lat="44.5114207065764" lon="0.9218383013431419"><ele>124.0</ele><time>2026-04-06T11:05:13.999Z</time></trkpt><trkpt lat="44.51130913033689" lon="0.9219733362385459"><ele>124.5</ele><time>2026-04-06T11:05:14.999Z</time></trkpt><trkpt lat="44.51120255943726" lon="0.9220783409659186"><ele>125.0</ele><time>2026-04-06T11:05:15.999Z</time></trkpt><trkpt lat="44.51108906085745" lon="0.922125086357196"><ele>125.5</ele><time>2026-04-06T11:05:16.999Z</time></trkpt><trkpt lat="44.51097505305065" lon="0.9221530590720477"><ele>126.0</ele><time>2026-04-06T11:05:17.999Z</time></trkpt><trkpt lat="44.51086362748392" lon="0.9221278420079901"><ele>126.0</ele><time>2026-04-06T11:05:18.999Z</time></trkpt><trkpt lat="44.51073897084025" lon="0.9221108732171275"><ele>126.0</ele><time>2026-04-06T11:05:19.999Z</time></trkpt><trkpt lat="44.51062639132823" lon="0.9221089018220684"><ele>126.0</ele><time>2026-04-06T11:05:20.999Z</time></trkpt><trkpt lat="44.5105184603797" lon="0.9220891917017335"><ele>126.0</ele><time>2026-04-06T11:05:21.999Z</time></trkpt><trkpt lat="44.510410869044705" lon="0.9220712995608746"><ele>125.6</ele><time>2026-04-06T11:05:22.999Z</time></trkpt><trkpt lat="44.51030783632667" lon="0.9220640164406179"><ele>125.19999999999999</ele><time>2026-04-06T11:05:23.999Z</time></trkpt><trkpt lat="44.510208862717924" lon="0.9220516624234623"><ele>124.80000000000001</ele><time>2026-04-06T11:05:24.999Z</time></trkpt><trkpt lat="44.510121424790185" lon="0.9220380164621842"><ele>124.4</ele><time>2026-04-06T11:05:25.999Z</time></trkpt><trkpt lat="44.51002939478244" lon="0.9220255375861607"><ele>124.0</ele><time>2026-04-06T11:05:26.999Z</time></trkpt><trkpt lat="44.509946332217865" lon="0.922011264537091"><ele>124.00000000000001</ele><time>2026-04-06T11:05:27.999Z</time></trkpt><trkpt lat="44.509868618477796" lon="0.9220018471522993"><ele>124.0</ele><time>2026-04-06T11:05:28.999Z</time></trkpt><trkpt lat="44.50976243405277" lon="0.9219759345110863"><ele>124.0</ele><time>2026-04-06T11:05:30.999Z</time></trkpt><trkpt lat="44.50970453251558" lon="0.9219331585597477"><ele>124.0</ele><time>2026-04-06T11:05:33.999Z</time></trkpt><trkpt lat="44.50963445142565" lon="0.921896019850939"><ele>124.00000000000001</ele><time>2026-04-06T11:15:06Z</time></trkpt><trkpt lat="44.50958746510314" lon="0.9218114959368899"><ele>124.0</ele><time>2026-04-06T11:15:49Z</time></trkpt><trkpt lat="44.50952910929717" lon="0.92173963273504"><ele>124.00000000000001</ele><time>2026-04-06T11:15:55Z</time></trkpt><trkpt lat="44.5095719737281" lon="0.9218073831389403"><ele>124.0</ele><time>2026-04-06T11:22:55.999Z</time></trkpt><trkpt lat="44.50964044476269" lon="0.9218665235874902"><ele>124.0</ele><time>2026-04-06T11:23:15.999Z</time></trkpt><trkpt lat="44.509705292631395" lon="0.921881910285583"><ele>124.0</ele><time>2026-04-06T11:23:24.999Z</time></trkpt><trkpt lat="44.50978404311893" lon="0.9219546205936588"><ele>124.00000000000001</ele><time>2026-04-06T11:30:03Z</time></trkpt><trkpt lat="44.50985658881748" lon="0.9219828208415306"><ele>124.0</ele><time>2026-04-06T11:30:04Z</time></trkpt><trkpt lat="44.50994131258064" lon="0.9220002757089946"><ele>124.00000000000001</ele><time>2026-04-06T11:30:05Z</time></trkpt><trkpt lat="44.51000793296596" lon="0.9220154542619206"><ele>124.0</ele><time>2026-04-06T11:30:06Z</time></trkpt><trkpt lat="44.51006378203465" lon="0.9220604498693847"><ele>124.0</ele><time>2026-04-06T11:30:07Z</time></trkpt><trkpt lat="44.51016097442124" lon="0.9220746891172562"><ele>124.0</ele><time>2026-04-06T11:30:09Z</time></trkpt><trkpt lat="44.51024653232945" lon="0.9220862153612867"><ele>124.00000000000001</ele><time>2026-04-06T11:30:11Z</time></trkpt><trkpt lat="44.5103117492888" lon="0.9220950012999287"><ele>124.0</ele><time>2026-04-06T11:30:12Z</time></trkpt><trkpt lat="44.51044872963163" lon="0.9221134550826176"><ele>124.33333333333334</ele><time>2026-04-06T11:30:14Z</time></trkpt><trkpt lat="44.51052293482718" lon="0.9221249747893014"><ele>124.66666666666667</ele><time>2026-04-06T11:30:15Z</time></trkpt><trkpt lat="44.510611336395456" lon="0.9221385937395542"><ele>125.0</ele><time>2026-04-06T11:30:17Z</time></trkpt><trkpt lat="44.51067793016792" lon="0.9221487307713474"><ele>125.33333333333334</ele><time>2026-04-06T11:30:18Z</time></trkpt><trkpt lat="44.510754208390395" lon="0.9221598883536377"><ele>125.66666666666667</ele><time>2026-04-06T11:30:19Z</time></trkpt><trkpt lat="44.5108266355166" lon="0.9221700442335032"><ele>126.0</ele><time>2026-04-06T11:30:20Z</time></trkpt><trkpt lat="44.51103168771218" lon="0.9221846708886305"><ele>127.33333333333334</ele><time>2026-04-06T11:30:21Z</time></trkpt><trkpt lat="44.5113139215237" lon="0.9220009111359692"><ele>128.66666666666669</ele><time>2026-04-06T11:30:22Z</time></trkpt><trkpt lat="44.51137008894261" lon="0.9219348510982814"><ele>130.0</ele><time>2026-04-06T11:30:23Z</time></trkpt><trkpt lat="44.5114238876842" lon="0.9218665801557734"><ele>130.0</ele><time>2026-04-06T11:30:25Z</time></trkpt><trkpt lat="44.51147149904882" lon="0.9218064224423501"><ele>130.0</ele><time>2026-04-06T11:30:27Z</time></trkpt><trkpt lat="44.51157611083609" lon="0.9216742438232365"><ele>130.0</ele><time>2026-04-06T11:30:29Z</time></trkpt><trkpt lat="44.51164520882806" lon="0.9215869374164797"><ele>130.0</ele><time>2026-04-06T11:30:30Z</time></trkpt><trkpt lat="44.51171314255207" lon="0.9215003412288615"><ele>130.0</ele><time>2026-04-06T11:30:31Z</time></trkpt><trkpt lat="44.51178037974083" lon="0.921416794763117"><ele>129.0</ele><time>2026-04-06T11:30:32Z</time></trkpt><trkpt lat="44.51185147806312" lon="0.921334528809664"><ele>128.0</ele><time>2026-04-06T11:30:33Z</time></trkpt><trkpt lat="44.511914240344126" lon="0.9212672121507856"><ele>127.0</ele><time>2026-04-06T11:30:34Z</time></trkpt><trkpt lat="44.51198083530125" lon="0.9211967749511568"><ele>126.0</ele><time>2026-04-06T11:30:35Z</time></trkpt><trkpt lat="44.51204059655813" lon="0.921135572220521"><ele>125.00000000000001</ele><time>2026-04-06T11:30:36Z</time></trkpt><trkpt lat="44.512097460739454" lon="0.9210789020416483"><ele>124.0</ele><time>2026-04-06T11:30:37Z</time></trkpt><trkpt lat="44.51215645040983" lon="0.9210210210066054"><ele>124.00000000000001</ele><time>2026-04-06T11:30:38Z</time></trkpt><trkpt lat="44.51221601150983" lon="0.9209628941272993"><ele>124.0</ele><time>2026-04-06T11:30:39Z</time></trkpt><trkpt lat="44.51229621980742" lon="0.9208862606219956"><ele>124.0</ele><time>2026-04-06T11:30:41Z</time></trkpt><trkpt lat="44.51235513326464" lon="0.920832610521157"><ele>124.0</ele><time>2026-04-06T11:30:43Z</time></trkpt><trkpt lat="44.51244352286258" lon="0.9207589526726906"><ele>124.00000000000001</ele><time>2026-04-06T11:30:45Z</time></trkpt><trkpt lat="44.51250430620341" lon="0.9207133827019911"><ele>124.0</ele><time>2026-04-06T11:30:46Z</time></trkpt><trkpt lat="44.51257868798617" lon="0.9206640079603232"><ele>122.0</ele><time>2026-04-06T11:30:47Z</time></trkpt><trkpt lat="44.51266634363729" lon="0.9206076866366155"><ele>120.0</ele><time>2026-04-06T11:30:48Z</time></trkpt><trkpt lat="44.512771996576824" lon="0.9205409579181688"><ele>118.0</ele><time>2026-04-06T11:30:49Z</time></trkpt><trkpt lat="44.51287175584853" lon="0.9204802234645834"><ele>116.0</ele><time>2026-04-06T11:30:50Z</time></trkpt><trkpt lat="44.51296268565548" lon="0.9204255636945232"><ele>114.0</ele><time>2026-04-06T11:30:51Z</time></trkpt><trkpt lat="44.51303377858443" lon="0.9203835872322382"><ele>113.6</ele><time>2026-04-06T11:30:52Z</time></trkpt><trkpt lat="44.513133817774644" lon="0.9203307963525618"><ele>113.2</ele><time>2026-04-06T11:30:54Z</time></trkpt><trkpt lat="44.51326010126721" lon="0.9202791835943395"><ele>112.79999999999998</ele><time>2026-04-06T11:30:56Z</time></trkpt><trkpt lat="44.5133491515774" lon="0.9202529349832578"><ele>112.39999999999999</ele><time>2026-04-06T11:30:57Z</time></trkpt><trkpt lat="44.51343585619391" lon="0.92023161627859"><ele>112.0</ele><time>2026-04-06T11:30:58Z</time></trkpt><trkpt lat="44.51351360715281" lon="0.9202156223034669"><ele>112.0</ele><time>2026-04-06T11:30:59Z</time></trkpt><trkpt lat="44.513576517058" lon="0.9202047315838789"><ele>111.99999999999999</ele><time>2026-04-06T11:31:00Z</time></trkpt><trkpt lat="44.513680712829675" lon="0.92018645911998"><ele>111.99999999999999</ele><time>2026-04-06T11:31:02Z</time></trkpt><trkpt lat="44.51377737963767" lon="0.9201487903125114"><ele>112.0</ele><time>2026-04-06T11:31:04Z</time></trkpt><trkpt lat="44.51388302453569" lon="0.9201344174949595"><ele>112.0</ele><time>2026-04-06T11:31:06Z</time></trkpt><trkpt lat="44.51399924268082" lon="0.9201115305629043"><ele>112.19999999999999</ele><time>2026-04-06T11:31:08Z</time></trkpt><trkpt lat="44.51408751342934" lon="0.9200936858019632"><ele>112.39999999999999</ele><time>2026-04-06T11:31:10Z</time></trkpt><trkpt lat="44.514168901697026" lon="0.9200776811227075"><ele>112.60000000000001</ele><time>2026-04-06T11:31:12Z</time></trkpt><trkpt lat="44.51426605147847" lon="0.9200628016292156"><ele>112.80000000000001</ele><time>2026-04-06T11:31:14Z</time></trkpt><trkpt lat="44.51438120494374" lon="0.9200715079030171"><ele>113.0</ele><time>2026-04-06T11:31:16Z</time></trkpt><trkpt lat="44.514493474270225" lon="0.920079622815891"><ele>112.80000000000001</ele><time>2026-04-06T11:31:18Z</time></trkpt><trkpt lat="44.51461872079535" lon="0.9201228024558964"><ele>112.60000000000001</ele><time>2026-04-06T11:31:20Z</time></trkpt><trkpt lat="44.51469932448095" lon="0.9201523707114496"><ele>112.39999999999999</ele><time>2026-04-06T11:31:21Z</time></trkpt><trkpt lat="44.51475831531454" lon="0.9202546346429216"><ele>112.19999999999999</ele><time>2026-04-06T11:31:22Z</time></trkpt><trkpt lat="44.51482041699267" lon="0.9203582157624344"><ele>112.0</ele><time>2026-04-06T11:31:23Z</time></trkpt><trkpt lat="44.51487592369268" lon="0.9204648233415333"><ele>112.00000000000001</ele><time>2026-04-06T11:31:24Z</time></trkpt><trkpt lat="44.51493403003618" lon="0.9205453090482361"><ele>112.0</ele><time>2026-04-06T11:31:25Z</time></trkpt><trkpt lat="44.514971995248736" lon="0.9206295996018609"><ele>112.0</ele><time>2026-04-06T11:31:26Z</time></trkpt><trkpt lat="44.51500664295508" lon="0.9207280191582364"><ele>112.0</ele><time>2026-04-06T11:31:27Z</time></trkpt><trkpt lat="44.5150533963033" lon="0.9208221544023403"><ele>112.00000000000001</ele><time>2026-04-06T11:31:28Z</time></trkpt><trkpt lat="44.51511394840245" lon="0.9209060304371868"><ele>112.0</ele><time>2026-04-06T11:31:29Z</time></trkpt><trkpt lat="44.51515572830643" lon="0.9210082412328977"><ele>113.0</ele><time>2026-04-06T11:31:30Z</time></trkpt><trkpt lat="44.51520615398436" lon="0.9211023552624513"><ele>113.99999999999999</ele><time>2026-04-06T11:31:31Z</time></trkpt><trkpt lat="44.51525909924042" lon="0.9212019637965827"><ele>114.99999999999999</ele><time>2026-04-06T11:31:32Z</time></trkpt><trkpt lat="44.51531307036035" lon="0.9212996119473703"><ele>116.0</ele><time>2026-04-06T11:31:33Z</time></trkpt><trkpt lat="44.515364782666765" lon="0.9214103130996885"><ele>117.0</ele><time>2026-04-06T11:31:34Z</time></trkpt><trkpt lat="44.51542070714641" lon="0.9215219177812726"><ele>117.0</ele><time>2026-04-06T11:31:35Z</time></trkpt><trkpt lat="44.51547450823412" lon="0.9216285855765103"><ele>116.99999999999999</ele><time>2026-04-06T11:31:36Z</time></trkpt><trkpt lat="44.51552848203555" lon="0.9217318490159492"><ele>116.99999999999999</ele><time>2026-04-06T11:31:37Z</time></trkpt><trkpt lat="44.51558586201612" lon="0.9218455675014252"><ele>117.0</ele><time>2026-04-06T11:31:38Z</time></trkpt><trkpt lat="44.515639111150655" lon="0.9219590230267423"><ele>117.0</ele><time>2026-04-06T11:31:39Z</time></trkpt><trkpt lat="44.51569001624336" lon="0.9220758839509379"><ele>117.5</ele><time>2026-04-06T11:31:40Z</time></trkpt><trkpt lat="44.51573044411739" lon="0.9221819135067075"><ele>118.0</ele><time>2026-04-06T11:31:41Z</time></trkpt><trkpt lat="44.51575926253149" lon="0.9222783000059839"><ele>118.5</ele><time>2026-04-06T11:31:42Z</time></trkpt><trkpt lat="44.51578683572802" lon="0.922373136604696"><ele>119.0</ele><time>2026-04-06T11:31:43Z</time></trkpt><trkpt lat="44.51581943095759" lon="0.9224759748677223"><ele>119.5</ele><time>2026-04-06T11:31:44Z</time></trkpt><trkpt lat="44.51585443940472" lon="0.922571854698536"><ele>120.0</ele><time>2026-04-06T11:31:45Z</time></trkpt><trkpt lat="44.51588264222566" lon="0.9226598743467241"><ele>121.0</ele><time>2026-04-06T11:31:46Z</time></trkpt><trkpt lat="44.51591220549553" lon="0.9227471083073169"><ele>122.0</ele><time>2026-04-06T11:31:47Z</time></trkpt><trkpt lat="44.51593091344512" lon="0.9228491526853907"><ele>123.0</ele><time>2026-04-06T11:31:48Z</time></trkpt><trkpt lat="44.51597558285558" lon="0.9229277621051809"><ele>124.0</ele><time>2026-04-06T11:31:49Z</time></trkpt><trkpt lat="44.51603543826446" lon="0.923072252573505"><ele>125.0</ele><time>2026-04-06T11:31:51Z</time></trkpt><trkpt lat="44.516063098521684" lon="0.9231753112134867"><ele>126.0</ele><time>2026-04-06T11:31:52Z</time></trkpt><trkpt lat="44.51610400905528" lon="0.9232591001757723"><ele>126.0</ele><time>2026-04-06T11:31:53Z</time></trkpt><trkpt lat="44.51614180822612" lon="0.9233347808879764"><ele>126.0</ele><time>2026-04-06T11:31:54Z</time></trkpt><trkpt lat="44.51617957740296" lon="0.9234087874593253"><ele>126.0</ele><time>2026-04-06T11:31:55Z</time></trkpt><trkpt lat="44.51624990394141" lon="0.9235404223731096"><ele>126.0</ele><time>2026-04-06T11:31:57Z</time></trkpt><trkpt lat="44.516322656217405" lon="0.9236476485434829"><ele>126.0</ele><time>2026-04-06T11:31:59Z</time></trkpt><trkpt lat="44.51638532897906" lon="0.9237645860370823"><ele>125.6</ele><time>2026-04-06T11:32:01Z</time></trkpt><trkpt lat="44.51645061541718" lon="0.9238788722204004"><ele>125.19999999999999</ele><time>2026-04-06T11:32:03Z</time></trkpt><trkpt lat="44.51651104646998" lon="0.9240203502549753"><ele>124.80000000000001</ele><time>2026-04-06T11:32:05Z</time></trkpt><trkpt lat="44.516556427838935" lon="0.9240900065737827"><ele>124.4</ele><time>2026-04-06T11:32:06Z</time></trkpt><trkpt lat="44.5166346135088" lon="0.9242257150593701"><ele>124.0</ele><time>2026-04-06T11:32:08Z</time></trkpt><trkpt lat="44.51668128406886" lon="0.9243147894936738"><ele>124.00000000000001</ele><time>2026-04-06T11:32:09Z</time></trkpt><trkpt lat="44.516739815871084" lon="0.9244054460271508"><ele>124.0</ele><time>2026-04-06T11:32:10Z</time></trkpt><trkpt lat="44.516789181882075" lon="0.9245019035928782"><ele>124.0</ele><time>2026-04-06T11:32:11Z</time></trkpt><trkpt lat="44.51683335636202" lon="0.9245712520113912"><ele>124.0</ele><time>2026-04-06T11:32:12Z</time></trkpt><trkpt lat="44.51690575581533" lon="0.9246926475589191"><ele>124.00000000000001</ele><time>2026-04-06T11:32:14Z</time></trkpt><trkpt lat="44.51696535693391" lon="0.9247919636877014"><ele>124.0</ele><time>2026-04-06T11:32:16Z</time></trkpt><trkpt lat="44.51704251705341" lon="0.9248645102903009"><ele>122.80000000000001</ele><time>2026-04-06T11:32:18Z</time></trkpt><trkpt lat="44.51714233742777" lon="0.9249211905792885"><ele>121.60000000000001</ele><time>2026-04-06T11:32:20Z</time></trkpt><trkpt lat="44.51721520434233" lon="0.9249543585724455"><ele>120.4</ele><time>2026-04-06T11:32:21Z</time></trkpt><trkpt lat="44.51727957217454" lon="0.924978427509463"><ele>119.2</ele><time>2026-04-06T11:32:22Z</time></trkpt><trkpt lat="44.5174073027002" lon="0.9250279377281324"><ele>118.0</ele><time>2026-04-06T11:32:24Z</time></trkpt><trkpt lat="44.51748329477108" lon="0.9250537907703508"><ele>118.4</ele><time>2026-04-06T11:32:25Z</time></trkpt><trkpt lat="44.5175744319292" lon="0.9251456310684901"><ele>118.80000000000001</ele><time>2026-04-06T11:32:27Z</time></trkpt><trkpt lat="44.51764891106971" lon="0.9252636615933574"><ele>119.2</ele><time>2026-04-06T11:32:29Z</time></trkpt><trkpt lat="44.51770178430089" lon="0.9254026280473893"><ele>119.6</ele><time>2026-04-06T11:32:31Z</time></trkpt><trkpt lat="44.517727504254694" lon="0.9254917030031664"><ele>120.0</ele><time>2026-04-06T11:32:32Z</time></trkpt><trkpt lat="44.51774754533639" lon="0.9255823595160934"><ele>120.0</ele><time>2026-04-06T11:32:33Z</time></trkpt><trkpt lat="44.51776354616819" lon="0.9256701467045959"><ele>120.0</ele><time>2026-04-06T11:32:34Z</time></trkpt><trkpt lat="44.517787681706366" lon="0.9258327052414334"><ele>120.0</ele><time>2026-04-06T11:32:36Z</time></trkpt><trkpt lat="44.517794392308645" lon="0.9260015231954614"><ele>120.0</ele><time>2026-04-06T11:32:38Z</time></trkpt><trkpt lat="44.5177600971768" lon="0.9261541376201526"><ele>120.0</ele><time>2026-04-06T11:32:40Z</time></trkpt><trkpt lat="44.517697381579616" lon="0.9263003508897755"><ele>120.83333333333333</ele><time>2026-04-06T11:32:42Z</time></trkpt><trkpt lat="44.51763905623281" lon="0.926365388277318"><ele>121.66666666666666</ele><time>2026-04-06T11:32:43Z</time></trkpt><trkpt lat="44.51756705036056" lon="0.9264322398409623"><ele>122.5</ele><time>2026-04-06T11:32:44Z</time></trkpt><trkpt lat="44.51749496428276" lon="0.926457826152311"><ele>123.33333333333333</ele><time>2026-04-06T11:32:45Z</time></trkpt><trkpt lat="44.517441266927726" lon="0.9265202498555749"><ele>124.16666666666666</ele><time>2026-04-06T11:32:46Z</time></trkpt><trkpt lat="44.51737443913396" lon="0.9265669389506331"><ele>125.0</ele><time>2026-04-06T11:32:47Z</time></trkpt><trkpt lat="44.51729389829151" lon="0.9266179809808652"><ele>125.0</ele><time>2026-04-06T11:32:48Z</time></trkpt><trkpt lat="44.517202665585074" lon="0.9266760375975893"><ele>125.0</ele><time>2026-04-06T11:32:49Z</time></trkpt><trkpt lat="44.517110903497404" lon="0.9267365783166417"><ele>125.0</ele><time>2026-04-06T11:32:50Z</time></trkpt><trkpt lat="44.517019261060256" lon="0.9268076076902088"><ele>125.0</ele><time>2026-04-06T11:32:51Z</time></trkpt><trkpt lat="44.516931772461774" lon="0.9268780877351687"><ele>125.0</ele><time>2026-04-06T11:32:52Z</time></trkpt><trkpt lat="44.5168639102222" lon="0.9269474553411355"><ele>125.49999999999999</ele><time>2026-04-06T11:32:53Z</time></trkpt><trkpt lat="44.51681774648855" lon="0.9270280722793909"><ele>126.0</ele><time>2026-04-06T11:32:54Z</time></trkpt><trkpt lat="44.51678752184344" lon="0.9271102571680332"><ele>126.5</ele><time>2026-04-06T11:32:55Z</time></trkpt><trkpt lat="44.51676357135394" lon="0.9271920879484182"><ele>127.0</ele><time>2026-04-06T11:32:56Z</time></trkpt><trkpt lat="44.51672242035454" lon="0.9272639825125032"><ele>127.49999999999999</ele><time>2026-04-06T11:32:57Z</time></trkpt><trkpt lat="44.51669268979831" lon="0.9274243760422631"><ele>128.0</ele><time>2026-04-06T11:32:59Z</time></trkpt><trkpt lat="44.51664114241721" lon="0.9275621914652024"><ele>128.0</ele><time>2026-04-06T11:33:01Z</time></trkpt><trkpt lat="44.51660683370055" lon="0.9277160948957367"><ele>128.0</ele><time>2026-04-06T11:33:03Z</time></trkpt><trkpt lat="44.516592103755585" lon="0.9278730000695015"><ele>128.0</ele><time>2026-04-06T11:33:05Z</time></trkpt><trkpt lat="44.51656297081213" lon="0.9280126184722052"><ele>128.0</ele><time>2026-04-06T11:33:07Z</time></trkpt><trkpt lat="44.51658097650484" lon="0.9281617669316219"><ele>128.0</ele><time>2026-04-06T11:33:09Z</time></trkpt><trkpt lat="44.51657780935194" lon="0.9282954492839184"><ele>127.4</ele><time>2026-04-06T11:33:11Z</time></trkpt><trkpt lat="44.51659403955802" lon="0.9284183207626662"><ele>126.80000000000001</ele><time>2026-04-06T11:33:13Z</time></trkpt><trkpt lat="44.516615789844984" lon="0.9285448360770376"><ele>126.2</ele><time>2026-04-06T11:33:15Z</time></trkpt><trkpt lat="44.51664717376872" lon="0.9286891464597357"><ele>125.6</ele><time>2026-04-06T11:33:17Z</time></trkpt><trkpt lat="44.516681529432134" lon="0.9288265545420177"><ele>125.0</ele><time>2026-04-06T11:33:19Z</time></trkpt><trkpt lat="44.516718332442416" lon="0.928954699213007"><ele>125.0</ele><time>2026-04-06T11:33:21Z</time></trkpt><trkpt lat="44.51676198677831" lon="0.9290942915513435"><ele>125.0</ele><time>2026-04-06T11:33:23Z</time></trkpt><trkpt lat="44.51681313149223" lon="0.9292451931411001"><ele>125.0</ele><time>2026-04-06T11:33:25Z</time></trkpt><trkpt lat="44.51687554226383" lon="0.929366991433967"><ele>125.0</ele><time>2026-04-06T11:33:27Z</time></trkpt><trkpt lat="44.51693409139237" lon="0.9295349735577744"><ele>124.33333333333333</ele><time>2026-04-06T11:33:29Z</time></trkpt><trkpt lat="44.51695183736903" lon="0.9296324237164446"><ele>123.66666666666666</ele><time>2026-04-06T11:33:30Z</time></trkpt><trkpt lat="44.51698078470677" lon="0.9297329055140107"><ele>123.0</ele><time>2026-04-06T11:33:31Z</time></trkpt><trkpt lat="44.51699362427862" lon="0.9298487686334006"><ele>122.33333333333334</ele><time>2026-04-06T11:33:32Z</time></trkpt><trkpt lat="44.517006561311355" lon="0.9299860874315994"><ele>121.66666666666667</ele><time>2026-04-06T11:33:33Z</time></trkpt><trkpt lat="44.517005982390394" lon="0.9301405698625934"><ele>121.0</ele><time>2026-04-06T11:33:34Z</time></trkpt><trkpt lat="44.51699564584704" lon="0.9303258639357409"><ele>119.75</ele><time>2026-04-06T11:33:35Z</time></trkpt><trkpt lat="44.516974092130795" lon="0.9305312168564726"><ele>118.5</ele><time>2026-04-06T11:33:36Z</time></trkpt><trkpt lat="44.5169513958737" lon="0.930740847730565"><ele>117.25</ele><time>2026-04-06T11:33:37Z</time></trkpt><trkpt lat="44.516939890824766" lon="0.9309297150063875"><ele>116.0</ele><time>2026-04-06T11:33:38Z</time></trkpt><trkpt lat="44.516925074292246" lon="0.9310892776440709"><ele>114.6</ele><time>2026-04-06T11:33:39Z</time></trkpt><trkpt lat="44.51691016755982" lon="0.9312455180869309"><ele>113.19999999999999</ele><time>2026-04-06T11:33:40Z</time></trkpt><trkpt lat="44.51690106279938" lon="0.931394122514568"><ele>111.80000000000001</ele><time>2026-04-06T11:33:41Z</time></trkpt><trkpt lat="44.516887823455924" lon="0.931534582204726"><ele>110.4</ele><time>2026-04-06T11:33:42Z</time></trkpt><trkpt lat="44.51687915340475" lon="0.931667483719753"><ele>109.0</ele><time>2026-04-06T11:33:43Z</time></trkpt><trkpt lat="44.51687541979136" lon="0.9318106906096109"><ele>108.00000000000001</ele><time>2026-04-06T11:33:44Z</time></trkpt><trkpt lat="44.51688183317565" lon="0.9319302370625898"><ele>107.0</ele><time>2026-04-06T11:33:45Z</time></trkpt><trkpt lat="44.51688797915699" lon="0.9320542861282826"><ele>106.0</ele><time>2026-04-06T11:33:46Z</time></trkpt><trkpt lat="44.516894655489175" lon="0.9321750064788484"><ele>105.0</ele><time>2026-04-06T11:33:47Z</time></trkpt><trkpt lat="44.51689705042069" lon="0.9322923826319223"><ele>104.00000000000001</ele><time>2026-04-06T11:33:48Z</time></trkpt><trkpt lat="44.516906164750026" lon="0.9324036188596836"><ele>103.0</ele><time>2026-04-06T11:33:49Z</time></trkpt><trkpt lat="44.516910710587105" lon="0.9325121630151935"><ele>102.42857142857142</ele><time>2026-04-06T11:33:50Z</time></trkpt><trkpt lat="44.516919748600756" lon="0.9326222793739362"><ele>101.85714285714286</ele><time>2026-04-06T11:33:51Z</time></trkpt><trkpt lat="44.51692498845218" lon="0.9327275547875693"><ele>101.28571428571428</ele><time>2026-04-06T11:33:52Z</time></trkpt><trkpt lat="44.51692805319052" lon="0.9328317993791873"><ele>100.71428571428571</ele><time>2026-04-06T11:33:53Z</time></trkpt><trkpt lat="44.51693042482339" lon="0.9329279903328813"><ele>100.14285714285714</ele><time>2026-04-06T11:33:54Z</time></trkpt><trkpt lat="44.5169249336275" lon="0.9330278721449771"><ele>99.57142857142857</ele><time>2026-04-06T11:33:55Z</time></trkpt><trkpt lat="44.51692764189395" lon="0.9331185757101296"><ele>99.0</ele><time>2026-04-06T11:33:56Z</time></trkpt><trkpt lat="44.51693067215251" lon="0.9332566438340363"><ele>99.0</ele><time>2026-04-06T11:33:58Z</time></trkpt><trkpt lat="44.516932584985355" lon="0.9333501654902768"><ele>99.0</ele><time>2026-04-06T11:34:02Z</time></trkpt><trkpt lat="44.51697888239945" lon="0.9334210761816236"><ele>99.0</ele><time>2026-04-06T11:34:04Z</time></trkpt><trkpt lat="44.5171544774779" lon="0.9334285285663945"><ele>99.0</ele><time>2026-04-06T11:34:06Z</time></trkpt><trkpt lat="44.51723187371625" lon="0.9334462789824597"><ele>99.0</ele><time>2026-04-06T11:34:07Z</time></trkpt><trkpt lat="44.517313843058304" lon="0.933465078214974"><ele>98.5</ele><time>2026-04-06T11:34:08Z</time></trkpt><trkpt lat="44.51739559238429" lon="0.9334860818105186"><ele>98.0</ele><time>2026-04-06T11:34:09Z</time></trkpt><trkpt lat="44.517471947660034" lon="0.9335050147779804"><ele>97.5</ele><time>2026-04-06T11:34:10Z</time></trkpt><trkpt lat="44.517555946991955" lon="0.9335189625095865"><ele>97.0</ele><time>2026-04-06T11:34:11Z</time></trkpt><trkpt lat="44.51764502720417" lon="0.9335273779660085"><ele>96.5</ele><time>2026-04-06T11:34:12Z</time></trkpt><trkpt lat="44.51773290350867" lon="0.9335230213598077"><ele>96.0</ele><time>2026-04-06T11:34:13Z</time></trkpt><trkpt lat="44.517814509209714" lon="0.9335090120018142"><ele>96.0</ele><time>2026-04-06T11:34:14Z</time></trkpt><trkpt lat="44.51789511976421" lon="0.9334844855947074"><ele>96.0</ele><time>2026-04-06T11:34:15Z</time></trkpt><trkpt lat="44.51797074515682" lon="0.9334602755827256"><ele>96.0</ele><time>2026-04-06T11:34:16Z</time></trkpt><trkpt lat="44.518046358481" lon="0.9334335185031343"><ele>96.0</ele><time>2026-04-06T11:34:17Z</time></trkpt><trkpt lat="44.518123990641314" lon="0.9334059620545749"><ele>96.0</ele><time>2026-04-06T11:34:18Z</time></trkpt><trkpt lat="44.51820090889089" lon="0.933378659011577"><ele>96.0</ele><time>2026-04-06T11:34:19Z</time></trkpt><trkpt lat="44.51827447940736" lon="0.9333287891480262"><ele>96.0</ele><time>2026-04-06T11:34:20Z</time></trkpt><trkpt lat="44.51835733078673" lon="0.933323135217245"><ele>96.0</ele><time>2026-04-06T11:34:21Z</time></trkpt><trkpt lat="44.51844429314139" lon="0.933290836359723"><ele>96.0</ele><time>2026-04-06T11:34:22Z</time></trkpt><trkpt lat="44.51853112153418" lon="0.9332584210316214"><ele>96.0</ele><time>2026-04-06T11:34:23Z</time></trkpt><trkpt lat="44.51862106041348" lon="0.9332218295201695"><ele>96.0</ele><time>2026-04-06T11:34:24Z</time></trkpt><trkpt lat="44.5187002851004" lon="0.9331628774408232"><ele>96.0</ele><time>2026-04-06T11:34:25Z</time></trkpt><trkpt lat="44.518785518813395" lon="0.9331174283026072"><ele>94.8</ele><time>2026-04-06T11:34:26Z</time></trkpt><trkpt lat="44.51886961620164" lon="0.9330898826793426"><ele>93.6</ele><time>2026-04-06T11:34:27Z</time></trkpt><trkpt lat="44.51895419893896" lon="0.9330329192185225"><ele>92.4</ele><time>2026-04-06T11:34:28Z</time></trkpt><trkpt lat="44.51903652266083" lon="0.9329467871699446"><ele>91.2</ele><time>2026-04-06T11:34:29Z</time></trkpt><trkpt lat="44.51914319482949" lon="0.9328666917817844"><ele>90.0</ele><time>2026-04-06T11:34:30Z</time></trkpt><trkpt lat="44.51926319182527" lon="0.9327720699492216"><ele>90.0</ele><time>2026-04-06T11:34:31Z</time></trkpt><trkpt lat="44.519405528537504" lon="0.9326758773559882"><ele>90.0</ele><time>2026-04-06T11:34:32Z</time></trkpt><trkpt lat="44.51954195397984" lon="0.9325636577038269"><ele>90.0</ele><time>2026-04-06T11:34:33Z</time></trkpt><trkpt lat="44.519679848684596" lon="0.9324603082441596"><ele>89.5</ele><time>2026-04-06T11:34:34Z</time></trkpt><trkpt lat="44.519798203446236" lon="0.9323625550378022"><ele>89.0</ele><time>2026-04-06T11:34:35Z</time></trkpt><trkpt lat="44.51992600150919" lon="0.9323187199902818"><ele>88.5</ele><time>2026-04-06T11:34:36Z</time></trkpt><trkpt lat="44.52006060662142" lon="0.9322555773252424"><ele>88.0</ele><time>2026-04-06T11:34:37Z</time></trkpt><trkpt lat="44.52020662045368" lon="0.9321619890693412"><ele>88.0</ele><time>2026-04-06T11:34:38Z</time></trkpt><trkpt lat="44.52034425346342" lon="0.9321079191636134"><ele>88.0</ele><time>2026-04-06T11:34:39Z</time></trkpt><trkpt lat="44.52047267477239" lon="0.9320454265001468"><ele>88.0</ele><time>2026-04-06T11:34:40Z</time></trkpt><trkpt lat="44.52060145150366" lon="0.9319780094196535"><ele>88.0</ele><time>2026-04-06T11:34:41Z</time></trkpt><trkpt lat="44.52072763072428" lon="0.931917546519671"><ele>87.4</ele><time>2026-04-06T11:34:42Z</time></trkpt><trkpt lat="44.52083550662414" lon="0.9318809564361844"><ele>86.80000000000001</ele><time>2026-04-06T11:34:43Z</time></trkpt><trkpt lat="44.520935461553435" lon="0.9318358875673377"><ele>86.2</ele><time>2026-04-06T11:34:44Z</time></trkpt><trkpt lat="44.52102667752318" lon="0.9318399921255803"><ele>85.6</ele><time>2026-04-06T11:34:45Z</time></trkpt><trkpt lat="44.52110535313164" lon="0.9318456775872356"><ele>85.0</ele><time>2026-04-06T11:34:46Z</time></trkpt><trkpt lat="44.52118358746835" lon="0.9318494938611178"><ele>85.0</ele><time>2026-04-06T11:34:47Z</time></trkpt><trkpt lat="44.521221354342934" lon="0.9319222516982266"><ele>85.0</ele><time>2026-04-06T11:34:48Z</time></trkpt><trkpt lat="44.52129579424942" lon="0.9319758454808489"><ele>85.0</ele><time>2026-04-06T11:34:49Z</time></trkpt><trkpt lat="44.52135652362226" lon="0.9320396999688949"><ele>85.0</ele><time>2026-04-06T11:34:50Z</time></trkpt><trkpt lat="44.52142523455782" lon="0.9320918004236425"><ele>85.0</ele><time>2026-04-06T11:34:51Z</time></trkpt><trkpt lat="44.5215082256003" lon="0.9321636141272627"><ele>85.0</ele><time>2026-04-06T11:34:53Z</time></trkpt><trkpt lat="44.521803245372176" lon="0.9317458586704108"><ele>86.8</ele><time>2026-04-06T11:34:54Z</time></trkpt><trkpt lat="44.521888342187566" lon="0.9317207938783812"><ele>88.6</ele><time>2026-04-06T11:34:56Z</time></trkpt><trkpt lat="44.52196099242686" lon="0.931664952260278"><ele>90.4</ele><time>2026-04-06T11:35:18.001Z</time></trkpt><trkpt lat="44.52208066210977" lon="0.9315642485528205"><ele>92.2</ele><time>2026-04-06T11:35:20.001Z</time></trkpt><trkpt lat="44.522159769674545" lon="0.9314938864877189"><ele>94.0</ele><time>2026-04-06T11:35:21.001Z</time></trkpt><trkpt lat="44.52224235226387" lon="0.9314109990762123"><ele>96.5</ele><time>2026-04-06T11:35:22.001Z</time></trkpt><trkpt lat="44.522327005815136" lon="0.9313615866025751"><ele>99.0</ele><time>2026-04-06T11:35:23.001Z</time></trkpt><trkpt lat="44.522383698843115" lon="0.9313120750314662"><ele>101.5</ele><time>2026-04-06T11:35:24.001Z</time></trkpt><trkpt lat="44.52245835552291" lon="0.9312592903937738"><ele>104.0</ele><time>2026-04-06T11:35:26.001Z</time></trkpt><trkpt lat="44.52252342119435" lon="0.9312203407553529"><ele>106.50000000000001</ele><time>2026-04-06T11:35:29.001Z</time></trkpt><trkpt lat="44.522628574067205" lon="0.9311622932738804"><ele>109.0</ele><time>2026-04-06T11:35:31.001Z</time></trkpt><trkpt lat="44.52268765880576" lon="0.9311265581658102"><ele>109.0</ele><time>2026-04-06T11:35:32.001Z</time></trkpt><trkpt lat="44.52281233821214" lon="0.9310399257084054"><ele>109.0</ele><time>2026-04-06T11:35:34.001Z</time></trkpt><trkpt lat="44.52290413951934" lon="0.9309711757523328"><ele>109.0</ele><time>2026-04-06T11:35:35.001Z</time></trkpt><trkpt lat="44.52300960648182" lon="0.9309372864362091"><ele>109.0</ele><time>2026-04-06T11:35:36.001Z</time></trkpt><trkpt lat="44.523121141916555" lon="0.9309258976200708"><ele>112.25</ele><time>2026-04-06T11:35:37.001Z</time></trkpt><trkpt lat="44.52323681886491" lon="0.9309352893622366"><ele>115.5</ele><time>2026-04-06T11:35:38.001Z</time></trkpt><trkpt lat="44.52336166025838" lon="0.9309517608925963"><ele>118.75</ele><time>2026-04-06T11:35:39.001Z</time></trkpt><trkpt lat="44.52348626030999" lon="0.9309626162424032"><ele>122.0</ele><time>2026-04-06T11:35:40.001Z</time></trkpt><trkpt lat="44.52360995838036" lon="0.9309415764807132"><ele>122.0</ele><time>2026-04-06T11:35:41.001Z</time></trkpt><trkpt lat="44.52369724960547" lon="0.9308961970990933"><ele>121.99999999999999</ele><time>2026-04-06T11:35:42.001Z</time></trkpt><trkpt lat="44.523766438321736" lon="0.9308550702671654"><ele>121.99999999999999</ele><time>2026-04-06T11:35:43.001Z</time></trkpt><trkpt lat="44.523864493522005" lon="0.930733242801796"><ele>122.0</ele><time>2026-04-06T11:35:45.001Z</time></trkpt><trkpt lat="44.523912948811095" lon="0.9306431557913447"><ele>122.0</ele><time>2026-04-06T11:35:46.001Z</time></trkpt><trkpt lat="44.52398375246378" lon="0.9305702815113216"><ele>122.33333333333333</ele><time>2026-04-06T11:35:47.001Z</time></trkpt><trkpt lat="44.5240325693799" lon="0.9305062426682541"><ele>122.66666666666666</ele><time>2026-04-06T11:35:48.001Z</time></trkpt><trkpt lat="44.5240727274436" lon="0.9304260488356232"><ele>123.0</ele><time>2026-04-06T11:35:49.001Z</time></trkpt><trkpt lat="44.52410566169878" lon="0.9303475949134326"><ele>123.33333333333334</ele><time>2026-04-06T11:35:50.001Z</time></trkpt><trkpt lat="44.5241619021134" lon="0.9302740598534103"><ele>123.66666666666667</ele><time>2026-04-06T11:35:51.001Z</time></trkpt><trkpt lat="44.52425281724043" lon="0.9301688421903572"><ele>124.0</ele><time>2026-04-06T11:35:53.001Z</time></trkpt><trkpt lat="44.52430588050034" lon="0.9301069116847711"><ele>123.6</ele><time>2026-04-06T11:35:54.001Z</time></trkpt><trkpt lat="44.524364944380345" lon="0.9300483989062557"><ele>123.2</ele><time>2026-04-06T11:35:55.001Z</time></trkpt><trkpt lat="44.5244407681793" lon="0.9299823362057448"><ele>122.79999999999998</ele><time>2026-04-06T11:35:56.001Z</time></trkpt><trkpt lat="44.524519086112186" lon="0.9298892664438887"><ele>122.39999999999999</ele><time>2026-04-06T11:35:57.001Z</time></trkpt><trkpt lat="44.5246175154951" lon="0.9297856468648475"><ele>122.0</ele><time>2026-04-06T11:35:58.001Z</time></trkpt><trkpt lat="44.52470746549255" lon="0.929681415621668"><ele>123.5</ele><time>2026-04-06T11:35:59.001Z</time></trkpt><trkpt lat="44.524813037261374" lon="0.9295594978510372"><ele>125.0</ele><time>2026-04-06T11:36:00.001Z</time></trkpt><trkpt lat="44.52491406213722" lon="0.929420532099882"><ele>126.5</ele><time>2026-04-06T11:36:01.001Z</time></trkpt><trkpt lat="44.525028435048775" lon="0.9292630074342848"><ele>128.0</ele><time>2026-04-06T11:36:02Z</time></trkpt><trkpt lat="44.52513566527376" lon="0.929098581586611"><ele>128.25</ele><time>2026-04-06T11:36:03Z</time></trkpt><trkpt lat="44.52522260275625" lon="0.9289751535699619"><ele>128.5</ele><time>2026-04-06T11:36:04Z</time></trkpt><trkpt lat="44.525317674806075" lon="0.92882129128253"><ele>128.75</ele><time>2026-04-06T11:36:05Z</time></trkpt><trkpt lat="44.52540110322078" lon="0.9287141027117347"><ele>129.0</ele><time>2026-04-06T11:36:06Z</time></trkpt><trkpt lat="44.52545364751301" lon="0.9285883395814845"><ele>129.83333333333334</ele><time>2026-04-06T11:36:07Z</time></trkpt><trkpt lat="44.52553104517395" lon="0.9284961855338038"><ele>130.66666666666666</ele><time>2026-04-06T11:36:08Z</time></trkpt><trkpt lat="44.52560717476187" lon="0.9284136757684577"><ele>131.5</ele><time>2026-04-06T11:36:09Z</time></trkpt><trkpt lat="44.5256705704041" lon="0.9283181295332096"><ele>132.33333333333331</ele><time>2026-04-06T11:36:10Z</time></trkpt><trkpt lat="44.525732184981266" lon="0.9282502244226771"><ele>133.16666666666666</ele><time>2026-04-06T11:36:11Z</time></trkpt><trkpt lat="44.525785991616" lon="0.928187548980679"><ele>134.0</ele><time>2026-04-06T11:36:12Z</time></trkpt><trkpt lat="44.525844378293385" lon="0.9281204663255571"><ele>134.0</ele><time>2026-04-06T11:36:13Z</time></trkpt><trkpt lat="44.52592701891013" lon="0.9280507115469631"><ele>134.0</ele><time>2026-04-06T11:36:14Z</time></trkpt><trkpt lat="44.526023592011924" lon="0.9279740199636601"><ele>134.0</ele><time>2026-04-06T11:36:15Z</time></trkpt><trkpt lat="44.52613651693005" lon="0.9278889321102068"><ele>134.0</ele><time>2026-04-06T11:36:16Z</time></trkpt><trkpt lat="44.5262507165169" lon="0.9278022812170622"><ele>133.75</ele><time>2026-04-06T11:36:17Z</time></trkpt><trkpt lat="44.526370547131656" lon="0.9277252729605621"><ele>133.5</ele><time>2026-04-06T11:36:18Z</time></trkpt><trkpt lat="44.52650107555915" lon="0.9276367551290035"><ele>133.25</ele><time>2026-04-06T11:36:19Z</time></trkpt><trkpt lat="44.52660569588165" lon="0.9275711299546793"><ele>133.0</ele><time>2026-04-06T11:36:20Z</time></trkpt><trkpt lat="44.52672559044522" lon="0.9274976053179561"><ele>133.0</ele><time>2026-04-06T11:36:21Z</time></trkpt><trkpt lat="44.526841112931756" lon="0.9274297361728447"><ele>133.0</ele><time>2026-04-06T11:36:22Z</time></trkpt><trkpt lat="44.526930915232896" lon="0.9273878059999322"><ele>133.0</ele><time>2026-04-06T11:36:23Z</time></trkpt><trkpt lat="44.527032229995434" lon="0.9273433264665808"><ele>133.0</ele><time>2026-04-06T11:36:24Z</time></trkpt><trkpt lat="44.52714629901235" lon="0.927331142958522"><ele>133.0</ele><time>2026-04-06T11:36:25Z</time></trkpt><trkpt lat="44.52726962764692" lon="0.9273371225486088"><ele>134.25</ele><time>2026-04-06T11:36:26Z</time></trkpt><trkpt lat="44.52740118518981" lon="0.927329817136674"><ele>135.5</ele><time>2026-04-06T11:36:27Z</time></trkpt><trkpt lat="44.52754002975839" lon="0.9273234852593423"><ele>136.75</ele><time>2026-04-06T11:36:28Z</time></trkpt><trkpt lat="44.52769213276782" lon="0.9273357645148936"><ele>138.0</ele><time>2026-04-06T11:36:29Z</time></trkpt><trkpt lat="44.527813621015795" lon="0.927352279278533"><ele>138.6</ele><time>2026-04-06T11:36:30Z</time></trkpt><trkpt lat="44.52790122093616" lon="0.9273870928756259"><ele>139.20000000000002</ele><time>2026-04-06T11:36:31Z</time></trkpt><trkpt lat="44.52802340463827" lon="0.9273806465694201"><ele>139.8</ele><time>2026-04-06T11:36:33Z</time></trkpt><trkpt lat="44.52810785246787" lon="0.9273149251501697"><ele>140.4</ele><time>2026-04-06T11:36:34Z</time></trkpt><trkpt lat="44.52820533112479" lon="0.9272364005252061"><ele>141.0</ele><time>2026-04-06T11:36:35Z</time></trkpt><trkpt lat="44.52831175681594" lon="0.927209120027262"><ele>141.0</ele><time>2026-04-06T11:36:36Z</time></trkpt><trkpt lat="44.52843308620256" lon="0.9272292882732345"><ele>141.0</ele><time>2026-04-06T11:36:37Z</time></trkpt><trkpt lat="44.528535845077904" lon="0.927237138885139"><ele>141.0</ele><time>2026-04-06T11:36:38Z</time></trkpt><trkpt lat="44.528653696862825" lon="0.9272064879049283"><ele>141.0</ele><time>2026-04-06T11:36:40Z</time></trkpt><trkpt lat="44.52876323976463" lon="0.9271550818236283"><ele>141.66666666666666</ele><time>2026-04-06T11:36:42Z</time></trkpt><trkpt lat="44.52883771947257" lon="0.9271424323249754"><ele>142.33333333333334</ele><time>2026-04-06T11:36:44Z</time></trkpt><trkpt lat="44.528918573576384" lon="0.9271066283368188"><ele>143.0</ele><time>2026-04-06T11:36:48Z</time></trkpt><trkpt lat="44.52899947629934" lon="0.9270811635370888"><ele>143.66666666666669</ele><time>2026-04-06T11:36:52Z</time></trkpt><trkpt lat="44.52909037363695" lon="0.927057974503143"><ele>144.33333333333334</ele><time>2026-04-06T11:36:56Z</time></trkpt><trkpt lat="44.529182899127456" lon="0.9270370115401794"><ele>145.0</ele><time>2026-04-06T11:36:58Z</time></trkpt><trkpt lat="44.52927657600524" lon="0.9270236045786241"><ele>145.0</ele><time>2026-04-06T11:37:00Z</time></trkpt><trkpt lat="44.52935898918023" lon="0.927018652106418"><ele>145.0</ele><time>2026-04-06T11:37:01Z</time></trkpt><trkpt lat="44.52951343697701" lon="0.9269866039941205"><ele>145.0</ele><time>2026-04-06T11:37:03Z</time></trkpt><trkpt lat="44.529619019358044" lon="0.9269716656587104"><ele>145.0</ele><time>2026-04-06T11:37:04Z</time></trkpt><trkpt lat="44.5297269907459" lon="0.92694107957666"><ele>145.0</ele><time>2026-04-06T11:37:05Z</time></trkpt><trkpt lat="44.52984402333263" lon="0.926930941703488"><ele>145.0</ele><time>2026-04-06T11:37:06Z</time></trkpt><trkpt lat="44.52994459728267" lon="0.9269061381800169"><ele>145.0</ele><time>2026-04-06T11:37:07Z</time></trkpt><trkpt lat="44.530016221274295" lon="0.9269016783131337"><ele>145.0</ele><time>2026-04-06T11:37:08Z</time></trkpt><trkpt lat="44.530121772617036" lon="0.9269029754210298"><ele>145.0</ele><time>2026-04-06T11:37:09Z</time></trkpt><trkpt lat="44.53020724448143" lon="0.9268963091439714"><ele>145.0</ele><time>2026-04-06T11:37:10Z</time></trkpt><trkpt lat="44.53030829058176" lon="0.9268787618460198"><ele>145.0</ele><time>2026-04-06T11:37:11Z</time></trkpt><trkpt lat="44.53042642719083" lon="0.9268452039883376"><ele>145.0</ele><time>2026-04-06T11:37:12Z</time></trkpt><trkpt lat="44.53053288540216" lon="0.9268224792759626"><ele>145.0</ele><time>2026-04-06T11:37:13Z</time></trkpt><trkpt lat="44.53061507288636" lon="0.9267992625155227"><ele>145.0</ele><time>2026-04-06T11:37:14Z</time></trkpt><trkpt lat="44.53070695545918" lon="0.9267683140091636"><ele>145.16666666666669</ele><time>2026-04-06T11:37:16Z</time></trkpt><trkpt lat="44.53077006870635" lon="0.9267112217808801"><ele>145.33333333333334</ele><time>2026-04-06T11:37:18Z</time></trkpt><trkpt lat="44.530833091189855" lon="0.9266715201556011"><ele>145.5</ele><time>2026-04-06T11:37:21Z</time></trkpt><trkpt lat="44.53075574038737" lon="0.9266901432655078"><ele>145.66666666666666</ele><time>2026-04-06T11:38:04Z</time></trkpt><trkpt lat="44.5306731092791" lon="0.9267534855047552"><ele>145.83333333333331</ele><time>2026-04-06T11:38:14Z</time></trkpt><trkpt lat="44.53060701557508" lon="0.926786739213236"><ele>146.0</ele><time>2026-04-06T11:38:19Z</time></trkpt><trkpt lat="44.53071479669295" lon="0.9267208592512601"><ele>146.0</ele><time>2026-04-06T11:38:24Z</time></trkpt><trkpt lat="44.530815700419204" lon="0.9266599373427341"><ele>146.0</ele><time>2026-04-06T11:38:26Z</time></trkpt><trkpt lat="44.53092597165042" lon="0.9265796948069376"><ele>146.0</ele><time>2026-04-06T11:38:28Z</time></trkpt><trkpt lat="44.53097609492424" lon="0.9265228660879476"><ele>146.0</ele><time>2026-04-06T11:38:29Z</time></trkpt><trkpt lat="44.53109690717698" lon="0.9264722821203843"><ele>146.0</ele><time>2026-04-06T11:38:31Z</time></trkpt><trkpt lat="44.53121278048986" lon="0.9264242598685154"><ele>145.75</ele><time>2026-04-06T11:38:33Z</time></trkpt><trkpt lat="44.5313020040897" lon="0.9263900821009008"><ele>145.5</ele><time>2026-04-06T11:38:34Z</time></trkpt><trkpt lat="44.531410373213745" lon="0.9263763428152982"><ele>145.25</ele><time>2026-04-06T11:38:35Z</time></trkpt><trkpt lat="44.53152583614564" lon="0.9263567390724664"><ele>145.0</ele><time>2026-04-06T11:38:36Z</time></trkpt><trkpt lat="44.53165456430734" lon="0.9263148839808819"><ele>145.0</ele><time>2026-04-06T11:38:37Z</time></trkpt><trkpt lat="44.53177279486313" lon="0.9262941569187175"><ele>145.0</ele><time>2026-04-06T11:38:38Z</time></trkpt><trkpt lat="44.531902342145855" lon="0.9262680729572736"><ele>145.0</ele><time>2026-04-06T11:38:39Z</time></trkpt><trkpt lat="44.532023544564396" lon="0.9262361448613584"><ele>145.0</ele><time>2026-04-06T11:38:40Z</time></trkpt><trkpt lat="44.53211490699545" lon="0.9262132996005883"><ele>145.6</ele><time>2026-04-06T11:38:41Z</time></trkpt><trkpt lat="44.532223917961865" lon="0.9261647706226278"><ele>146.2</ele><time>2026-04-06T11:38:42Z</time></trkpt><trkpt lat="44.532285637251874" lon="0.926215967196171"><ele>146.8</ele><time>2026-04-06T11:38:44Z</time></trkpt><trkpt lat="44.53236249948537" lon="0.9262970637032066"><ele>147.4</ele><time>2026-04-06T11:38:46Z</time></trkpt><trkpt lat="44.53241444278995" lon="0.9263925353225803"><ele>148.0</ele><time>2026-04-06T11:38:47Z</time></trkpt><trkpt lat="44.53247851526968" lon="0.9264791152110281"><ele>148.0</ele><time>2026-04-06T11:38:49Z</time></trkpt><trkpt lat="44.53257028829558" lon="0.9264258462225219"><ele>148.0</ele><time>2026-04-06T11:38:51Z</time></trkpt><trkpt lat="44.532622294991526" lon="0.926350855149916"><ele>148.0</ele><time>2026-04-06T11:38:52Z</time></trkpt><trkpt lat="44.532685743308456" lon="0.9262847301958355"><ele>148.0</ele><time>2026-04-06T11:38:53Z</time></trkpt><trkpt lat="44.53275596071022" lon="0.9262053181947971"><ele>148.0</ele><time>2026-04-06T11:38:54Z</time></trkpt><trkpt lat="44.53282185128454" lon="0.9261349671014698"><ele>148.0</ele><time>2026-04-06T11:38:55Z</time></trkpt><trkpt lat="44.532919452528276" lon="0.9260371742572102"><ele>148.25</ele><time>2026-04-06T11:38:57Z</time></trkpt><trkpt lat="44.532990816516104" lon="0.9259656727362111"><ele>148.5</ele><time>2026-04-06T11:38:59Z</time></trkpt><trkpt lat="44.53305595435656" lon="0.9259756609676775"><ele>148.75</ele><time>2026-04-06T11:39:02Z</time></trkpt><trkpt lat="44.53312737205235" lon="0.9262591673206162"><ele>149.0</ele><time>2026-04-06T11:39:07Z</time></trkpt><trkpt lat="44.53316479078964" lon="0.9263918973619979"><ele>149.0</ele><time>2026-04-06T11:39:08Z</time></trkpt><trkpt lat="44.5331935645807" lon="0.9264992282165865"><ele>149.0</ele><time>2026-04-06T11:39:09Z</time></trkpt><trkpt lat="44.53319887250443" lon="0.926589513695898"><ele>149.0</ele><time>2026-04-06T11:39:10Z</time></trkpt><trkpt lat="44.53319117778674" lon="0.9267135856219118"><ele>149.0</ele><time>2026-04-06T11:39:11Z</time></trkpt><trkpt lat="44.53323055494246" lon="0.9268282658720312"><ele>149.0</ele><time>2026-04-06T11:39:12Z</time></trkpt><trkpt lat="44.53329603438744" lon="0.9269451412107749"><ele>149.0</ele><time>2026-04-06T11:39:13Z</time></trkpt><trkpt lat="44.53334425436653" lon="0.9270377229772261"><ele>148.8</ele><time>2026-04-06T11:39:14Z</time></trkpt><trkpt lat="44.53341639409738" lon="0.9270788817618031"><ele>148.60000000000002</ele><time>2026-04-06T11:39:15Z</time></trkpt><trkpt lat="44.533496608278135" lon="0.9271062554707779"><ele>148.4</ele><time>2026-04-06T11:39:16Z</time></trkpt><trkpt lat="44.5335710892209" lon="0.9272649745455686"><ele>148.20000000000002</ele><time>2026-04-06T11:39:18Z</time></trkpt><trkpt lat="44.53361257238702" lon="0.9273681545941314"><ele>148.0</ele><time>2026-04-06T11:39:19Z</time></trkpt><trkpt lat="44.53365913730466" lon="0.9274463124388337"><ele>148.0</ele><time>2026-04-06T11:39:20Z</time></trkpt><trkpt lat="44.53371963483961" lon="0.9274914614858045"><ele>148.0</ele><time>2026-04-06T11:39:21Z</time></trkpt><trkpt lat="44.533739780321106" lon="0.9276250942355403"><ele>148.0</ele><time>2026-04-06T11:39:23Z</time></trkpt><trkpt lat="44.53371305026422" lon="0.9277165951269728"><ele>148.0</ele><time>2026-04-06T11:39:24Z</time></trkpt><trkpt lat="44.53368836857292" lon="0.9278390265378423"><ele>148.0</ele><time>2026-04-06T11:39:25Z</time></trkpt><trkpt lat="44.53365797236052" lon="0.9279888392210447"><ele>148.0</ele><time>2026-04-06T11:39:26Z</time></trkpt><trkpt lat="44.53365623508169" lon="0.9281463674037917"><ele>147.0</ele><time>2026-04-06T11:39:27Z</time></trkpt><trkpt lat="44.533676877854354" lon="0.9283233555248903"><ele>146.0</ele><time>2026-04-06T11:39:28Z</time></trkpt><trkpt lat="44.53371856034376" lon="0.9284499555903762"><ele>145.0</ele><time>2026-04-06T11:39:29Z</time></trkpt><trkpt lat="44.53374265758172" lon="0.928548928473919"><ele>144.0</ele><time>2026-04-06T11:39:30Z</time></trkpt><trkpt lat="44.53366736357972" lon="0.9286052582382429"><ele>143.0</ele><time>2026-04-06T11:39:33Z</time></trkpt><trkpt lat="44.53357664061347" lon="0.9286277814210531"><ele>141.83333333333331</ele><time>2026-04-06T11:39:35Z</time></trkpt><trkpt lat="44.53351408055196" lon="0.928641774161115"><ele>140.66666666666666</ele><time>2026-04-06T11:39:36Z</time></trkpt><trkpt lat="44.533384400077004" lon="0.9286405336680336"><ele>139.5</ele><time>2026-04-06T11:39:38.001Z</time></trkpt><trkpt lat="44.533394476671354" lon="0.9287418136969591"><ele>138.33333333333334</ele><time>2026-04-06T11:39:40.001Z</time></trkpt><trkpt lat="44.53342282957966" lon="0.9288305464878596"><ele>137.16666666666669</ele><time>2026-04-06T11:39:41.001Z</time></trkpt><trkpt lat="44.533459057233735" lon="0.9289315777537868"><ele>136.0</ele><time>2026-04-06T11:39:42.001Z</time></trkpt><trkpt lat="44.53348340744784" lon="0.9290391467588293"><ele>136.0</ele><time>2026-04-06T11:39:43.001Z</time></trkpt><trkpt lat="44.5335082629085" lon="0.9291528619244771"><ele>136.0</ele><time>2026-04-06T11:39:44.001Z</time></trkpt><trkpt lat="44.53353784269267" lon="0.9292512877458363"><ele>136.0</ele><time>2026-04-06T11:39:45.001Z</time></trkpt><trkpt lat="44.53357623589341" lon="0.9293943148711855"><ele>136.0</ele><time>2026-04-06T11:39:47.001Z</time></trkpt><trkpt lat="44.53356970285329" lon="0.9295380052304938"><ele>136.0</ele><time>2026-04-06T11:39:49.001Z</time></trkpt><trkpt lat="44.53354589445865" lon="0.9296530983809473"><ele>134.83333333333334</ele><time>2026-04-06T11:39:51.001Z</time></trkpt><trkpt lat="44.53353482769395" lon="0.9297952363043883"><ele>133.66666666666669</ele><time>2026-04-06T11:39:53.001Z</time></trkpt><trkpt lat="44.533488081123735" lon="0.9299282703177923"><ele>132.5</ele><time>2026-04-06T11:39:55.001Z</time></trkpt><trkpt lat="44.53349082900807" lon="0.9300181446459663"><ele>131.33333333333334</ele><time>2026-04-06T11:39:56.001Z</time></trkpt><trkpt lat="44.53349842021011" lon="0.9301063456749781"><ele>130.16666666666666</ele><time>2026-04-06T11:39:57.001Z</time></trkpt><trkpt lat="44.53353932170931" lon="0.9301813485465923"><ele>129.0</ele><time>2026-04-06T11:39:58Z</time></trkpt><trkpt lat="44.53357329952421" lon="0.9302602384575386"><ele>128.2</ele><time>2026-04-06T11:39:59Z</time></trkpt><trkpt lat="44.53354754299956" lon="0.9303994607439039"><ele>127.4</ele><time>2026-04-06T11:40:01Z</time></trkpt><trkpt lat="44.533475567030344" lon="0.9305151829732232"><ele>126.6</ele><time>2026-04-06T11:40:03Z</time></trkpt><trkpt lat="44.533409003494384" lon="0.9306127068681835"><ele>125.8</ele><time>2026-04-06T11:40:05Z</time></trkpt><trkpt lat="44.533346994230975" lon="0.9306333953301745"><ele>125.0</ele><time>2026-04-06T11:40:07Z</time></trkpt><trkpt lat="44.53328543802384" lon="0.9305246954351453"><ele>125.0</ele><time>2026-04-06T11:40:09Z</time></trkpt><trkpt lat="44.53315362857736" lon="0.9304263845573519"><ele>125.0</ele><time>2026-04-06T11:40:11Z</time></trkpt><trkpt lat="44.53303062791865" lon="0.930501143665123"><ele>125.0</ele><time>2026-04-06T11:40:13Z</time></trkpt><trkpt lat="44.53295707255279" lon="0.930572325038794"><ele>125.0</ele><time>2026-04-06T11:40:14Z</time></trkpt><trkpt lat="44.53289010416855" lon="0.9306661048016353"><ele>125.33333333333333</ele><time>2026-04-06T11:40:15Z</time></trkpt><trkpt lat="44.532842667544884" lon="0.9307391727256316"><ele>125.66666666666666</ele><time>2026-04-06T11:40:16Z</time></trkpt><trkpt lat="44.53274821689544" lon="0.9307959878196673"><ele>126.0</ele><time>2026-04-06T11:40:22Z</time></trkpt><trkpt lat="44.5327482311397" lon="0.9309092022646838"><ele>126.33333333333334</ele><time>2026-04-06T11:40:26Z</time></trkpt><trkpt lat="44.532713701226626" lon="0.9309955841463281"><ele>126.66666666666667</ele><time>2026-04-06T11:40:28Z</time></trkpt><trkpt lat="44.53263072010084" lon="0.931069204823341"><ele>127.0</ele><time>2026-04-06T11:40:30Z</time></trkpt><trkpt lat="44.53249543231313" lon="0.9310936098350827"><ele>127.00000000000001</ele><time>2026-04-06T11:40:32Z</time></trkpt><trkpt lat="44.53242602917905" lon="0.9311121634698358"><ele>127.0</ele><time>2026-04-06T11:40:33Z</time></trkpt><trkpt lat="44.53240017519569" lon="0.9311974942200812"><ele>127.0</ele><time>2026-04-06T11:40:34Z</time></trkpt><trkpt lat="44.5323680505226" lon="0.9313235641676799"><ele>127.0</ele><time>2026-04-06T11:40:35Z</time></trkpt><trkpt lat="44.53230981537556" lon="0.9314137400082144"><ele>127.00000000000001</ele><time>2026-04-06T11:40:36Z</time></trkpt><trkpt lat="44.53223385322885" lon="0.9314978138144795"><ele>127.0</ele><time>2026-04-06T11:40:37Z</time></trkpt><trkpt lat="44.53215828046099" lon="0.9315979198040075"><ele>127.0</ele><time>2026-04-06T11:40:38Z</time></trkpt><trkpt lat="44.53209095786857" lon="0.9317233026468787"><ele>126.99999999999999</ele><time>2026-04-06T11:40:39Z</time></trkpt><trkpt lat="44.53204633532487" lon="0.931824087744086"><ele>126.99999999999999</ele><time>2026-04-06T11:40:40Z</time></trkpt><trkpt lat="44.53199306145579" lon="0.9319189435013708"><ele>127.0</ele><time>2026-04-06T11:40:41Z</time></trkpt><trkpt lat="44.53196309059395" lon="0.9320085952944771"><ele>127.0</ele><time>2026-04-06T11:40:42Z</time></trkpt><trkpt lat="44.53200167954549" lon="0.9321692173911904"><ele>127.0</ele><time>2026-04-06T11:40:44Z</time></trkpt><trkpt lat="44.53203654360956" lon="0.9322761583843628"><ele>126.99999999999999</ele><time>2026-04-06T11:40:45Z</time></trkpt><trkpt lat="44.532040317211035" lon="0.9324088873011483"><ele>126.99999999999999</ele><time>2026-04-06T11:40:46Z</time></trkpt><trkpt lat="44.53202354603449" lon="0.932538978129938"><ele>127.0</ele><time>2026-04-06T11:40:47Z</time></trkpt><trkpt lat="44.53199402947527" lon="0.9326815110029899"><ele>127.0</ele><time>2026-04-06T11:40:48Z</time></trkpt><trkpt lat="44.53198639426933" lon="0.9327944691798171"><ele>126.33333333333334</ele><time>2026-04-06T11:40:49Z</time></trkpt><trkpt lat="44.53198450387797" lon="0.9328957903589895"><ele>125.66666666666667</ele><time>2026-04-06T11:40:50Z</time></trkpt><trkpt lat="44.53197785174313" lon="0.9329930540481846"><ele>125.0</ele><time>2026-04-06T11:40:51Z</time></trkpt><trkpt lat="44.53194083594825" lon="0.9330848966896853"><ele>124.33333333333334</ele><time>2026-04-06T11:40:52Z</time></trkpt><trkpt lat="44.531837961695345" lon="0.9331825995173458"><ele>123.66666666666667</ele><time>2026-04-06T11:40:54Z</time></trkpt><trkpt lat="44.53177690496334" lon="0.9332439490820672"><ele>123.0</ele><time>2026-04-06T11:40:55Z</time></trkpt><trkpt lat="44.53173864531742" lon="0.9333144034370444"><ele>122.60000000000001</ele><time>2026-04-06T11:40:56Z</time></trkpt><trkpt lat="44.531740312022364" lon="0.9334353470945065"><ele>122.20000000000002</ele><time>2026-04-06T11:40:57Z</time></trkpt><trkpt lat="44.53172694950995" lon="0.9335844703524396"><ele>121.8</ele><time>2026-04-06T11:40:58Z</time></trkpt><trkpt lat="44.531701352437935" lon="0.9337071820945726"><ele>121.4</ele><time>2026-04-06T11:40:59Z</time></trkpt><trkpt lat="44.5316759559461" lon="0.9338278899729503"><ele>121.0</ele><time>2026-04-06T11:41:00Z</time></trkpt><trkpt lat="44.53166792450961" lon="0.9339390806946438"><ele>121.0</ele><time>2026-04-06T11:41:01Z</time></trkpt><trkpt lat="44.531651836002" lon="0.9340338034514267"><ele>120.99999999999999</ele><time>2026-04-06T11:41:02Z</time></trkpt><trkpt lat="44.53161702309386" lon="0.9341270935762446"><ele>121.0</ele><time>2026-04-06T11:41:03Z</time></trkpt><trkpt lat="44.53156170530128" lon="0.9341911126822662"><ele>121.0</ele><time>2026-04-06T11:41:04Z</time></trkpt><trkpt lat="44.53151728310047" lon="0.9342792318206711"><ele>120.99999999999999</ele><time>2026-04-06T11:41:05Z</time></trkpt><trkpt lat="44.53150226589893" lon="0.9343860134827976"><ele>121.0</ele><time>2026-04-06T11:41:06Z</time></trkpt><trkpt lat="44.53151982383555" lon="0.9344788518281764"><ele>121.0</ele><time>2026-04-06T11:41:07Z</time></trkpt><trkpt lat="44.53150799010349" lon="0.9346295282983275"><ele>120.0</ele><time>2026-04-06T11:41:09Z</time></trkpt><trkpt lat="44.531448157349566" lon="0.9347444918264528"><ele>119.0</ele><time>2026-04-06T11:41:10Z</time></trkpt><trkpt lat="44.53140243672562" lon="0.9348865996435872"><ele>118.0</ele><time>2026-04-06T11:41:11Z</time></trkpt><trkpt lat="44.53136347455756" lon="0.9349922999024564"><ele>117.0</ele><time>2026-04-06T11:41:12Z</time></trkpt><trkpt lat="44.53131437849819" lon="0.93511240587297"><ele>116.0</ele><time>2026-04-06T11:41:13Z</time></trkpt><trkpt lat="44.53126721604938" lon="0.9352357682599589"><ele>115.49999999999999</ele><time>2026-04-06T11:41:14Z</time></trkpt><trkpt lat="44.53122416501211" lon="0.9353459637573024"><ele>115.0</ele><time>2026-04-06T11:41:15Z</time></trkpt><trkpt lat="44.53120006696101" lon="0.9354455388814333"><ele>114.5</ele><time>2026-04-06T11:41:16Z</time></trkpt><trkpt lat="44.531153786610915" lon="0.9355315981189507"><ele>114.0</ele><time>2026-04-06T11:41:17Z</time></trkpt><trkpt lat="44.53109790206885" lon="0.9356282680364907"><ele>113.49999999999999</ele><time>2026-04-06T11:41:18Z</time></trkpt><trkpt lat="44.53105447649267" lon="0.935717601025939"><ele>113.0</ele><time>2026-04-06T11:41:19Z</time></trkpt><trkpt lat="44.531029510382005" lon="0.9358469651861047"><ele>112.2</ele><time>2026-04-06T11:41:20Z</time></trkpt><trkpt lat="44.530984212829026" lon="0.9359464180854696"><ele>111.4</ele><time>2026-04-06T11:41:21Z</time></trkpt><trkpt lat="44.530925139847504" lon="0.9360631753680724"><ele>110.60000000000001</ele><time>2026-04-06T11:41:22Z</time></trkpt><trkpt lat="44.53087101256604" lon="0.9361972142171074"><ele>109.80000000000001</ele><time>2026-04-06T11:41:23Z</time></trkpt><trkpt lat="44.530820885483465" lon="0.9363314245423248"><ele>109.0</ele><time>2026-04-06T11:41:24Z</time></trkpt><trkpt lat="44.53076573504396" lon="0.9364529441510083"><ele>109.0</ele><time>2026-04-06T11:41:25Z</time></trkpt><trkpt lat="44.53070809723145" lon="0.9365774398461576"><ele>109.0</ele><time>2026-04-06T11:41:26Z</time></trkpt><trkpt lat="44.53065473645375" lon="0.9367033058806709"><ele>109.0</ele><time>2026-04-06T11:41:27Z</time></trkpt><trkpt lat="44.53060449224442" lon="0.9368100608365095"><ele>109.0</ele><time>2026-04-06T11:41:28Z</time></trkpt><trkpt lat="44.53056832967362" lon="0.9369115410197754"><ele>109.0</ele><time>2026-04-06T11:41:29Z</time></trkpt><trkpt lat="44.530510341495216" lon="0.9370601671696206"><ele>108.0</ele><time>2026-04-06T11:41:31Z</time></trkpt><trkpt lat="44.53052298677062" lon="0.9372873261894318"><ele>107.0</ele><time>2026-04-06T11:41:33Z</time></trkpt><trkpt lat="44.530504897853376" lon="0.9374443290889307"><ele>106.0</ele><time>2026-04-06T11:41:35Z</time></trkpt><trkpt lat="44.530506016462716" lon="0.9375634454661174"><ele>105.0</ele><time>2026-04-06T11:41:37Z</time></trkpt><trkpt lat="44.53060049629306" lon="0.9377135283576797"><ele>104.16666666666667</ele><time>2026-04-06T11:41:39Z</time></trkpt><trkpt lat="44.530665444015085" lon="0.9378233000194927"><ele>103.33333333333334</ele><time>2026-04-06T11:41:40Z</time></trkpt><trkpt lat="44.530726607960055" lon="0.9379424208682757"><ele>102.5</ele><time>2026-04-06T11:41:41Z</time></trkpt><trkpt lat="44.530759576214685" lon="0.938060505147017"><ele>101.66666666666667</ele><time>2026-04-06T11:41:42Z</time></trkpt><trkpt lat="44.530820587352586" lon="0.9381268441281083"><ele>100.83333333333334</ele><time>2026-04-06T11:41:43.001Z</time></trkpt><trkpt lat="44.53087260608666" lon="0.9381828240794435"><ele>100.0</ele><time>2026-04-06T11:41:44.001Z</time></trkpt><trkpt lat="44.53094717604607" lon="0.9382562611756065"><ele>100.00000000000001</ele><time>2026-04-06T11:41:45.001Z</time></trkpt><trkpt lat="44.53098633593374" lon="0.9383307621794672"><ele>100.0</ele><time>2026-04-06T11:41:46.001Z</time></trkpt><trkpt lat="44.531025620113766" lon="0.9384236948275441"><ele>100.0</ele><time>2026-04-06T11:41:48.001Z</time></trkpt><trkpt lat="44.531070276428736" lon="0.9385299265788221"><ele>100.0</ele><time>2026-04-06T11:41:51.001Z</time></trkpt><trkpt lat="44.53114001864983" lon="0.9384942919068259"><ele>100.00000000000001</ele><time>2026-04-06T11:41:55.001Z</time></trkpt><trkpt lat="44.53116438463803" lon="0.9383704751599689"><ele>100.0</ele><time>2026-04-06T11:41:57Z</time></trkpt><trkpt lat="44.53117602068764" lon="0.9382549890550123"><ele>100.0</ele><time>2026-04-06T11:41:59Z</time></trkpt><trkpt lat="44.53121258036117" lon="0.9380869042004786"><ele>100.0</ele><time>2026-04-06T11:42:01Z</time></trkpt><trkpt lat="44.53122791860248" lon="0.9379926887041993"><ele>100.0</ele><time>2026-04-06T11:42:03Z</time></trkpt><trkpt lat="44.53125570826376" lon="0.9379048964240269"><ele>100.0</ele><time>2026-04-06T11:42:04Z</time></trkpt><trkpt lat="44.53127807186886" lon="0.9377483337520187"><ele>100.0</ele><time>2026-04-06T11:42:06Z</time></trkpt><trkpt lat="44.53128669067052" lon="0.9376054183054002"><ele>103.8</ele><time>2026-04-06T11:42:08Z</time></trkpt><trkpt lat="44.53128947988449" lon="0.9375155242123746"><ele>107.6</ele><time>2026-04-06T11:42:09Z</time></trkpt><trkpt lat="44.53129294726682" lon="0.9373837870773004"><ele>111.4</ele><time>2026-04-06T11:42:10Z</time></trkpt><trkpt lat="44.53130892171313" lon="0.9372384170460556"><ele>115.2</ele><time>2026-04-06T11:42:11Z</time></trkpt><trkpt lat="44.53133400226042" lon="0.9370664797964012"><ele>119.0</ele><time>2026-04-06T11:42:12Z</time></trkpt><trkpt lat="44.531382056601515" lon="0.9369106992248474"><ele>119.0</ele><time>2026-04-06T11:42:13Z</time></trkpt><trkpt lat="44.53144422512352" lon="0.9367794443861504"><ele>119.0</ele><time>2026-04-06T11:42:14Z</time></trkpt><trkpt lat="44.53153132855293" lon="0.9366695193665057"><ele>119.0</ele><time>2026-04-06T11:42:15Z</time></trkpt><trkpt lat="44.5316417307052" lon="0.9365569501516139"><ele>119.0</ele><time>2026-04-06T11:42:16Z</time></trkpt><trkpt lat="44.53173649574257" lon="0.9364302908261918"><ele>119.0</ele><time>2026-04-06T11:42:17Z</time></trkpt><trkpt lat="44.5318085059387" lon="0.9362742714339286"><ele>119.0</ele><time>2026-04-06T11:42:18Z</time></trkpt><trkpt lat="44.53186771648332" lon="0.9361090193556357"><ele>119.0</ele><time>2026-04-06T11:42:19Z</time></trkpt><trkpt lat="44.53193513643837" lon="0.9359956186871909"><ele>119.0</ele><time>2026-04-06T11:42:20Z</time></trkpt><trkpt lat="44.532006674057286" lon="0.9358962591298507"><ele>121.0</ele><time>2026-04-06T11:42:21Z</time></trkpt><trkpt lat="44.53210309868373" lon="0.935814100491998"><ele>123.0</ele><time>2026-04-06T11:42:22Z</time></trkpt><trkpt lat="44.532196534661146" lon="0.9357548764661332"><ele>125.0</ele><time>2026-04-06T11:42:23Z</time></trkpt><trkpt lat="44.53229357432977" lon="0.935723085910746"><ele>127.0</ele><time>2026-04-06T11:42:24Z</time></trkpt><trkpt lat="44.5323980239136" lon="0.9357110214593563"><ele>129.0</ele><time>2026-04-06T11:42:25Z</time></trkpt><trkpt lat="44.532508326566244" lon="0.9357298434189869"><ele>129.0</ele><time>2026-04-06T11:42:26Z</time></trkpt><trkpt lat="44.53259493305658" lon="0.9357548037566363"><ele>129.0</ele><time>2026-04-06T11:42:27Z</time></trkpt><trkpt lat="44.53265963008457" lon="0.9357385223241497"><ele>129.0</ele><time>2026-04-06T11:42:28Z</time></trkpt><trkpt lat="44.532721199465406" lon="0.9356929232141237"><ele>129.0</ele><time>2026-04-06T11:42:29Z</time></trkpt><trkpt lat="44.53276660880305" lon="0.9355956103457642"><ele>129.0</ele><time>2026-04-06T11:42:30Z</time></trkpt><trkpt lat="44.53275653589458" lon="0.9354482338981429"><ele>129.0</ele><time>2026-04-06T11:42:31Z</time></trkpt><trkpt lat="44.532746299124184" lon="0.9353390440953082"><ele>129.0</ele><time>2026-04-06T11:42:32Z</time></trkpt><trkpt lat="44.532709054270676" lon="0.9352300697840145"><ele>129.0</ele><time>2026-04-06T11:42:33Z</time></trkpt><trkpt lat="44.532710720024895" lon="0.9351221339792761"><ele>129.0</ele><time>2026-04-06T11:42:34Z</time></trkpt><trkpt lat="44.532740013218145" lon="0.9350133739024453"><ele>129.0</ele><time>2026-04-06T11:42:35Z</time></trkpt><trkpt lat="44.53279709790485" lon="0.9349160150105882"><ele>129.0</ele><time>2026-04-06T11:42:36Z</time></trkpt><trkpt lat="44.53285907936125" lon="0.9348049557891462"><ele>129.0</ele><time>2026-04-06T11:42:37Z</time></trkpt><trkpt lat="44.532895412399434" lon="0.9347162925151842"><ele>130.5</ele><time>2026-04-06T11:42:38Z</time></trkpt><trkpt lat="44.53293568310172" lon="0.9346278257746764"><ele>132.0</ele><time>2026-04-06T11:42:39Z</time></trkpt><trkpt lat="44.532990138261994" lon="0.9345174026385835"><ele>133.5</ele><time>2026-04-06T11:42:41Z</time></trkpt><trkpt lat="44.533024895644644" lon="0.9344402183812723"><ele>135.0</ele><time>2026-04-06T11:42:42Z</time></trkpt><trkpt lat="44.53307544286591" lon="0.9343480496204213"><ele>136.5</ele><time>2026-04-06T11:42:44Z</time></trkpt><trkpt lat="44.533140040219365" lon="0.9342582998495912"><ele>138.0</ele><time>2026-04-06T11:42:46Z</time></trkpt><trkpt lat="44.53322701423122" lon="0.93418134024707"><ele>138.8</ele><time>2026-04-06T11:42:48Z</time></trkpt><trkpt lat="44.53329857042461" lon="0.9340883582320413"><ele>139.60000000000002</ele><time>2026-04-06T11:42:50Z</time></trkpt><trkpt lat="44.53339155829296" lon="0.9340013467133081"><ele>140.39999999999998</ele><time>2026-04-06T11:42:52Z</time></trkpt><trkpt lat="44.53349799950042" lon="0.9339820897258575"><ele>141.2</ele><time>2026-04-06T11:42:54Z</time></trkpt><trkpt lat="44.5336096480527" lon="0.9339395628010909"><ele>142.0</ele><time>2026-04-06T11:42:56Z</time></trkpt><trkpt lat="44.53368180283626" lon="0.9338765893286964"><ele>143.2</ele><time>2026-04-06T11:42:57Z</time></trkpt><trkpt lat="44.53375766975573" lon="0.9338354590276536"><ele>144.39999999999998</ele><time>2026-04-06T11:42:58Z</time></trkpt><trkpt lat="44.533841670020855" lon="0.9337545903497494"><ele>145.60000000000002</ele><time>2026-04-06T11:42:59Z</time></trkpt><trkpt lat="44.53393571148851" lon="0.9336688894560112"><ele>146.8</ele><time>2026-04-06T11:43:00Z</time></trkpt><trkpt lat="44.53402920995178" lon="0.9335946692836038"><ele>148.0</ele><time>2026-04-06T11:43:01Z</time></trkpt><trkpt lat="44.53411375023983" lon="0.9335753499854957"><ele>148.0</ele><time>2026-04-06T11:43:02Z</time></trkpt><trkpt lat="44.53417393519457" lon="0.9335460692794736"><ele>148.0</ele><time>2026-04-06T11:43:03Z</time></trkpt><trkpt lat="44.53424699685786" lon="0.9335781237020149"><ele>148.0</ele><time>2026-04-06T11:43:04Z</time></trkpt><trkpt lat="44.53431108086148" lon="0.9336641189824958"><ele>148.0</ele><time>2026-04-06T11:43:05Z</time></trkpt><trkpt lat="44.53437600916782" lon="0.9337814046248653"><ele>148.0</ele><time>2026-04-06T11:43:06Z</time></trkpt><trkpt lat="44.5344461739887" lon="0.9338474012586894"><ele>148.0</ele><time>2026-04-06T11:43:07Z</time></trkpt><trkpt lat="44.53451937083668" lon="0.9338680035094883"><ele>149.20000000000002</ele><time>2026-04-06T11:43:08Z</time></trkpt><trkpt lat="44.53461645810883" lon="0.9338480282014627"><ele>150.4</ele><time>2026-04-06T11:43:09Z</time></trkpt><trkpt lat="44.53471668847037" lon="0.933798663049249"><ele>151.60000000000002</ele><time>2026-04-06T11:43:10Z</time></trkpt><trkpt lat="44.53482732450162" lon="0.9337284860867556"><ele>152.8</ele><time>2026-04-06T11:43:11Z</time></trkpt><trkpt lat="44.53493232692365" lon="0.9336560759383835"><ele>154.0</ele><time>2026-04-06T11:43:12Z</time></trkpt><trkpt lat="44.53501691596019" lon="0.9336149242040361"><ele>154.0</ele><time>2026-04-06T11:43:13Z</time></trkpt><trkpt lat="44.53508853817116" lon="0.9335776179395435"><ele>154.0</ele><time>2026-04-06T11:43:14Z</time></trkpt><trkpt lat="44.53514810530425" lon="0.9335350103708077"><ele>154.0</ele><time>2026-04-06T11:43:15Z</time></trkpt><trkpt lat="44.53521613347667" lon="0.9335264052653435"><ele>154.0</ele><time>2026-04-06T11:43:16Z</time></trkpt><trkpt lat="44.53529053694752" lon="0.9335372797197486"><ele>154.0</ele><time>2026-04-06T11:43:17Z</time></trkpt><trkpt lat="44.535360510611554" lon="0.9336212148442672"><ele>154.0</ele><time>2026-04-06T11:43:18Z</time></trkpt><trkpt lat="44.53542654549716" lon="0.9337051243300482"><ele>154.2</ele><time>2026-04-06T11:43:19Z</time></trkpt><trkpt lat="44.535490217705075" lon="0.9337242542528347"><ele>154.4</ele><time>2026-04-06T11:43:20Z</time></trkpt><trkpt lat="44.535561210089234" lon="0.9336719537789092"><ele>154.6</ele><time>2026-04-06T11:43:21Z</time></trkpt><trkpt lat="44.53564397125113" lon="0.9335776397170235"><ele>154.8</ele><time>2026-04-06T11:43:22Z</time></trkpt><trkpt lat="44.53574547986867" lon="0.9335040535318049"><ele>155.0</ele><time>2026-04-06T11:43:23Z</time></trkpt><trkpt lat="44.5358415035123" lon="0.9333894625249972"><ele>155.5</ele><time>2026-04-06T11:43:24Z</time></trkpt><trkpt lat="44.5359538043172" lon="0.9332904622679018"><ele>156.0</ele><time>2026-04-06T11:43:25Z</time></trkpt><trkpt lat="44.536073725858586" lon="0.9331829980700518"><ele>156.5</ele><time>2026-04-06T11:43:26Z</time></trkpt><trkpt lat="44.536158359267716" lon="0.9330576863715434"><ele>157.0</ele><time>2026-04-06T11:43:27Z</time></trkpt><trkpt lat="44.53623525053723" lon="0.9329811046911728"><ele>157.16666666666669</ele><time>2026-04-06T11:43:28Z</time></trkpt><trkpt lat="44.53629412832847" lon="0.9329297092412554"><ele>157.33333333333334</ele><time>2026-04-06T11:43:29Z</time></trkpt><trkpt lat="44.536363558365736" lon="0.9328878295591615"><ele>157.5</ele><time>2026-04-06T11:43:31Z</time></trkpt><trkpt lat="44.53644497698932" lon="0.9329525380081785"><ele>157.66666666666666</ele><time>2026-04-06T11:43:33Z</time></trkpt><trkpt lat="44.53650015251058" lon="0.933028357984475"><ele>157.83333333333331</ele><time>2026-04-06T11:43:35Z</time></trkpt><trkpt lat="44.536560730928" lon="0.9331477781377158"><ele>158.0</ele><time>2026-04-06T11:43:37Z</time></trkpt><trkpt lat="44.53662606510072" lon="0.933285874611052"><ele>158.0</ele><time>2026-04-06T11:43:39Z</time></trkpt><trkpt lat="44.536676877477205" lon="0.9333479260306231"><ele>158.0</ele><time>2026-04-06T11:43:40Z</time></trkpt><trkpt lat="44.536709935471784" lon="0.9334433865145881"><ele>158.0</ele><time>2026-04-06T11:43:41Z</time></trkpt><trkpt lat="44.53676265345491" lon="0.9335282782347808"><ele>158.0</ele><time>2026-04-06T11:43:42Z</time></trkpt><trkpt lat="44.536816405242924" lon="0.9336430737198994"><ele>158.0</ele><time>2026-04-06T11:43:43Z</time></trkpt><trkpt lat="44.53685780374106" lon="0.9337358795217976"><ele>158.0</ele><time>2026-04-06T11:43:44Z</time></trkpt><trkpt lat="44.53688519684487" lon="0.9338345807897085"><ele>157.33333333333331</ele><time>2026-04-06T11:43:45Z</time></trkpt><trkpt lat="44.53693724685848" lon="0.9339018413040556"><ele>156.66666666666666</ele><time>2026-04-06T11:43:46Z</time></trkpt><trkpt lat="44.53699266635622" lon="0.9340247129074224"><ele>156.0</ele><time>2026-04-06T11:43:48Z</time></trkpt><trkpt lat="44.53708466192715" lon="0.9340478161756709"><ele>155.33333333333334</ele><time>2026-04-06T11:43:50Z</time></trkpt><trkpt lat="44.53714390140106" lon="0.9339937098031927"><ele>154.66666666666669</ele><time>2026-04-06T11:43:51Z</time></trkpt><trkpt lat="44.537184218520736" lon="0.9339150984341394"><ele>154.0</ele><time>2026-04-06T11:43:52Z</time></trkpt><trkpt lat="44.53724606535562" lon="0.9337769856049937"><ele>153.2</ele><time>2026-04-06T11:43:54Z</time></trkpt><trkpt lat="44.53731656447279" lon="0.9336515409878134"><ele>152.4</ele><time>2026-04-06T11:43:56Z</time></trkpt><trkpt lat="44.53736194074889" lon="0.9335555632035764"><ele>151.6</ele><time>2026-04-06T11:43:58Z</time></trkpt><trkpt lat="44.537419411310076" lon="0.9335056098271285"><ele>150.8</ele><time>2026-04-06T11:44:01Z</time></trkpt><trkpt lat="44.53752335508335" lon="0.9336415413084528"><ele>150.0</ele><time>2026-04-06T11:44:10Z</time></trkpt><trkpt lat="44.53758091730953" lon="0.9337357387886172"><ele>150.0</ele><time>2026-04-06T11:44:13Z</time></trkpt><trkpt lat="44.537646814449204" lon="0.9338170257892249"><ele>150.0</ele><time>2026-04-06T11:44:16Z</time></trkpt><trkpt lat="44.53769533985439" lon="0.9338761570676216"><ele>150.0</ele><time>2026-04-06T11:44:18Z</time></trkpt><trkpt lat="44.53778148112179" lon="0.9339477270262372"><ele>150.0</ele><time>2026-04-06T11:44:20Z</time></trkpt><trkpt lat="44.537866399506264" lon="0.9340571723027342"><ele>150.0</ele><time>2026-04-06T11:44:22Z</time></trkpt><trkpt lat="44.537943144954085" lon="0.9341650849207952"><ele>149.16666666666666</ele><time>2026-04-06T11:44:24Z</time></trkpt><trkpt lat="44.53797812439668" lon="0.9343068006577648"><ele>148.33333333333334</ele><time>2026-04-06T11:44:26Z</time></trkpt><trkpt lat="44.537944618306376" lon="0.9344405247250303"><ele>147.5</ele><time>2026-04-06T11:44:28Z</time></trkpt><trkpt lat="44.53792334887985" lon="0.9345546799585418"><ele>146.66666666666669</ele><time>2026-04-06T11:44:31Z</time></trkpt><trkpt lat="44.53789657771904" lon="0.9346663682117796"><ele>145.83333333333334</ele><time>2026-04-06T11:44:33Z</time></trkpt><trkpt lat="44.537871529178275" lon="0.9347607942926911"><ele>145.0</ele><time>2026-04-06T11:44:35Z</time></trkpt><trkpt lat="44.537853802745246" lon="0.9348622458513434"><ele>145.0</ele><time>2026-04-06T11:44:37Z</time></trkpt><trkpt lat="44.53782159245235" lon="0.9349536818872136"><ele>145.0</ele><time>2026-04-06T11:44:39Z</time></trkpt><trkpt lat="44.53782417443235" lon="0.9350639932293039"><ele>145.0</ele><time>2026-04-06T11:44:41Z</time></trkpt><trkpt lat="44.53786717051731" lon="0.9351300338772581"><ele>145.0</ele><time>2026-04-06T11:44:42Z</time></trkpt><trkpt lat="44.53792603036405" lon="0.9351711714949392"><ele>145.0</ele><time>2026-04-06T11:44:43Z</time></trkpt><trkpt lat="44.53800399199349" lon="0.9351598176522768"><ele>145.0</ele><time>2026-04-06T11:44:44Z</time></trkpt><trkpt lat="44.53808229587068" lon="0.9350623895336466"><ele>143.8</ele><time>2026-04-06T11:44:46Z</time></trkpt><trkpt lat="44.5381852856782" lon="0.934944152869795"><ele>142.6</ele><time>2026-04-06T11:44:48Z</time></trkpt><trkpt lat="44.53824101837764" lon="0.9348795078794435"><ele>141.4</ele><time>2026-04-06T11:44:49Z</time></trkpt><trkpt lat="44.53830968476419" lon="0.9348153313328414"><ele>140.2</ele><time>2026-04-06T11:44:50Z</time></trkpt><trkpt lat="44.53840159867872" lon="0.9347287326256231"><ele>139.0</ele><time>2026-04-06T11:44:51Z</time></trkpt><trkpt lat="44.538522415530394" lon="0.934634536354862"><ele>139.0</ele><time>2026-04-06T11:44:52Z</time></trkpt><trkpt lat="44.53863338957993" lon="0.9345509974539015"><ele>139.0</ele><time>2026-04-06T11:44:53Z</time></trkpt><trkpt lat="44.53874610108824" lon="0.9344761217536218"><ele>139.0</ele><time>2026-04-06T11:44:54Z</time></trkpt><trkpt lat="44.53883614413451" lon="0.9344487296853435"><ele>139.0</ele><time>2026-04-06T11:44:55Z</time></trkpt><trkpt lat="44.53891034818515" lon="0.9344139151594276"><ele>139.0</ele><time>2026-04-06T11:44:56Z</time></trkpt><trkpt lat="44.53899336722121" lon="0.9343673908416854"><ele>137.33333333333334</ele><time>2026-04-06T11:44:57Z</time></trkpt><trkpt lat="44.539058797696946" lon="0.9343034396541704"><ele>135.66666666666669</ele><time>2026-04-06T11:44:58Z</time></trkpt><trkpt lat="44.539112540290425" lon="0.9342249291645275"><ele>134.0</ele><time>2026-04-06T11:44:59Z</time></trkpt><trkpt lat="44.53916382841019" lon="0.9341542340787173"><ele>132.33333333333334</ele><time>2026-04-06T11:45:00Z</time></trkpt><trkpt lat="44.539212598695634" lon="0.9340757821897903"><ele>130.66666666666666</ele><time>2026-04-06T11:45:01Z</time></trkpt><trkpt lat="44.539253349776" lon="0.9339876186273263"><ele>129.0</ele><time>2026-04-06T11:45:02Z</time></trkpt><trkpt lat="44.53928870554197" lon="0.9339003888253075"><ele>129.0</ele><time>2026-04-06T11:45:03Z</time></trkpt><trkpt lat="44.53935065927863" lon="0.9338048473516827"><ele>129.0</ele><time>2026-04-06T11:45:05Z</time></trkpt><trkpt lat="44.53943496338972" lon="0.9337545254628742"><ele>129.0</ele><time>2026-04-06T11:45:07Z</time></trkpt><trkpt lat="44.53953464816366" lon="0.933787872517549"><ele>129.0</ele><time>2026-04-06T11:45:09Z</time></trkpt><trkpt lat="44.53963710887733" lon="0.9338216200113836"><ele>129.0</ele><time>2026-04-06T11:45:11Z</time></trkpt><trkpt lat="44.53971742627202" lon="0.9339302469476647"><ele>128.5</ele><time>2026-04-06T11:45:13Z</time></trkpt><trkpt lat="44.53976683138354" lon="0.9340895577395698"><ele>128.0</ele><time>2026-04-06T11:45:15Z</time></trkpt><trkpt lat="44.5397843170026" lon="0.9341796597953744"><ele>127.5</ele><time>2026-04-06T11:45:16Z</time></trkpt><trkpt lat="44.539776789134216" lon="0.9342740740398285"><ele>127.0</ele><time>2026-04-06T11:45:17Z</time></trkpt><trkpt lat="44.53978574005205" lon="0.9343720722269849"><ele>126.5</ele><time>2026-04-06T11:45:18Z</time></trkpt><trkpt lat="44.53979812937098" lon="0.934480370976367"><ele>126.0</ele><time>2026-04-06T11:45:19Z</time></trkpt><trkpt lat="44.53981437886435" lon="0.9346124468986455"><ele>124.83333333333333</ele><time>2026-04-06T11:45:20Z</time></trkpt><trkpt lat="44.539833066691514" lon="0.9347508614552051"><ele>123.66666666666666</ele><time>2026-04-06T11:45:21Z</time></trkpt><trkpt lat="44.53985422153254" lon="0.9348691119391791"><ele>122.5</ele><time>2026-04-06T11:45:22Z</time></trkpt><trkpt lat="44.539878472525245" lon="0.9349709347578572"><ele>121.33333333333333</ele><time>2026-04-06T11:45:23Z</time></trkpt><trkpt lat="44.53990159674958" lon="0.9350554368899239"><ele>120.16666666666666</ele><time>2026-04-06T11:45:24Z</time></trkpt><trkpt lat="44.539924794102255" lon="0.9351654783867354"><ele>119.0</ele><time>2026-04-06T11:45:26Z</time></trkpt><trkpt lat="44.54005705234332" lon="0.9352115384947944"><ele>118.14285714285714</ele><time>2026-04-06T11:46:01Z</time></trkpt><trkpt lat="44.540128788320885" lon="0.9352050793965412"><ele>117.28571428571428</ele><time>2026-04-06T11:46:02Z</time></trkpt><trkpt lat="44.54019692745675" lon="0.9351995672538045"><ele>116.42857142857143</ele><time>2026-04-06T11:46:03Z</time></trkpt><trkpt lat="44.54026263463832" lon="0.9352087829181503"><ele>115.57142857142857</ele><time>2026-04-06T11:46:04Z</time></trkpt><trkpt lat="44.54032453054549" lon="0.935232786906939"><ele>114.71428571428571</ele><time>2026-04-06T11:46:05Z</time></trkpt><trkpt lat="44.540381653779114" lon="0.9352830883691575"><ele>113.85714285714286</ele><time>2026-04-06T11:46:06Z</time></trkpt><trkpt lat="44.54048780462392" lon="0.9353090626221615"><ele>113.0</ele><time>2026-04-06T11:46:08Z</time></trkpt><trkpt lat="44.54058025021585" lon="0.9353413172526248"><ele>112.80000000000001</ele><time>2026-04-06T11:46:10Z</time></trkpt><trkpt lat="44.540676876016846" lon="0.9353797568680926"><ele>112.60000000000001</ele><time>2026-04-06T11:46:12Z</time></trkpt><trkpt lat="44.540802634143525" lon="0.9353892934017225"><ele>112.39999999999999</ele><time>2026-04-06T11:46:14Z</time></trkpt><trkpt lat="44.54092969544759" lon="0.9353945855531304"><ele>112.19999999999999</ele><time>2026-04-06T11:46:16Z</time></trkpt><trkpt lat="44.54100253441868" lon="0.935405280053617"><ele>112.0</ele><time>2026-04-06T11:46:17Z</time></trkpt><trkpt lat="44.541075565011624" lon="0.9354018896117241"><ele>112.0</ele><time>2026-04-06T11:46:18Z</time></trkpt><trkpt lat="44.541145052701374" lon="0.9353877156269381"><ele>111.99999999999999</ele><time>2026-04-06T11:46:19Z</time></trkpt><trkpt lat="44.54121069098368" lon="0.9353747265744806"><ele>111.99999999999999</ele><time>2026-04-06T11:46:20Z</time></trkpt><trkpt lat="44.5413331013019" lon="0.9353571846079467"><ele>112.0</ele><time>2026-04-06T11:46:22Z</time></trkpt><trkpt lat="44.54144499069362" lon="0.935323134093396"><ele>112.0</ele><time>2026-04-06T11:46:24Z</time></trkpt><trkpt lat="44.54154763101677" lon="0.9352837330585693"><ele>112.16666666666667</ele><time>2026-04-06T11:46:26Z</time></trkpt><trkpt lat="44.54165819668767" lon="0.9352452886172992"><ele>112.33333333333334</ele><time>2026-04-06T11:46:28Z</time></trkpt><trkpt lat="44.541781489789706" lon="0.9352119767220655"><ele>112.5</ele><time>2026-04-06T11:46:30Z</time></trkpt><trkpt lat="44.54184582844694" lon="0.9351954952991575"><ele>112.66666666666666</ele><time>2026-04-06T11:46:31Z</time></trkpt><trkpt lat="44.541914178563" lon="0.9351780471355731"><ele>112.83333333333333</ele><time>2026-04-06T11:46:32Z</time></trkpt><trkpt lat="44.54198265580895" lon="0.9351642873678142"><ele>113.0</ele><time>2026-04-06T11:46:33Z</time></trkpt><trkpt lat="44.54209441176886" lon="0.9351338743585372"><ele>113.0</ele><time>2026-04-06T11:46:35Z</time></trkpt><trkpt lat="44.5421976068283" lon="0.9351137088792576"><ele>113.00000000000001</ele><time>2026-04-06T11:46:37Z</time></trkpt><trkpt lat="44.54229854333635" lon="0.9350988753335681"><ele>113.00000000000001</ele><time>2026-04-06T11:46:39Z</time></trkpt><trkpt lat="44.542405746512124" lon="0.9351089161038938"><ele>113.0</ele><time>2026-04-06T11:46:41Z</time></trkpt><trkpt lat="44.542512075566215" lon="0.9351268132386971"><ele>113.0</ele><time>2026-04-06T11:46:43Z</time></trkpt><trkpt lat="44.542630819745796" lon="0.9351592003825996"><ele>113.0</ele><time>2026-04-06T11:46:45Z</time></trkpt><trkpt lat="44.54267733640948" lon="0.9352201875605427"><ele>113.00000000000001</ele><time>2026-04-06T11:46:46Z</time></trkpt><trkpt lat="44.542771704699256" lon="0.9353253935664794"><ele>113.00000000000001</ele><time>2026-04-06T11:46:48Z</time></trkpt><trkpt lat="44.5428393307144" lon="0.9354130738043795"><ele>113.0</ele><time>2026-04-06T11:46:50Z</time></trkpt><trkpt lat="44.542921572162484" lon="0.9354941784479541"><ele>113.0</ele><time>2026-04-06T11:46:52Z</time></trkpt><trkpt lat="44.54302810349503" lon="0.9355513237948552"><ele>112.66666666666666</ele><time>2026-04-06T11:46:54Z</time></trkpt><trkpt lat="44.54309649855444" lon="0.9355728432901681"><ele>112.33333333333333</ele><time>2026-04-06T11:46:55Z</time></trkpt><trkpt lat="44.54317171054186" lon="0.9355823257883261"><ele>112.0</ele><time>2026-04-06T11:46:56Z</time></trkpt><trkpt lat="44.54325178647015" lon="0.9356162997404007"><ele>111.66666666666666</ele><time>2026-04-06T11:46:58Z</time></trkpt><trkpt lat="44.5432239682039" lon="0.9357405232284555"><ele>111.33333333333333</ele><time>2026-04-06T11:46:59Z</time></trkpt><trkpt lat="44.54318589321104" lon="0.9358325735357346"><ele>111.0</ele><time>2026-04-06T11:47:00Z</time></trkpt><trkpt lat="44.543108082887265" lon="0.935912642290637"><ele>112.6</ele><time>2026-04-06T11:47:01Z</time></trkpt><trkpt lat="44.543019640364676" lon="0.9359794963562483"><ele>114.19999999999999</ele><time>2026-04-06T11:47:02Z</time></trkpt><trkpt lat="44.54291895323744" lon="0.9360428610722473"><ele>115.80000000000001</ele><time>2026-04-06T11:47:03Z</time></trkpt><trkpt lat="44.542810880775576" lon="0.9360848901589921"><ele>117.4</ele><time>2026-04-06T11:47:04Z</time></trkpt><trkpt lat="44.542693766055855" lon="0.9361073288436559"><ele>119.0</ele><time>2026-04-06T11:47:05Z</time></trkpt><trkpt lat="44.54258154688868" lon="0.9361620778603972"><ele>120.6</ele><time>2026-04-06T11:47:06Z</time></trkpt><trkpt lat="44.54246913730084" lon="0.9362112554589773"><ele>122.2</ele><time>2026-04-06T11:47:07Z</time></trkpt><trkpt lat="44.542360073087636" lon="0.9362376584977231"><ele>123.79999999999998</ele><time>2026-04-06T11:47:08Z</time></trkpt><trkpt lat="44.54228272214023" lon="0.9362582631498598"><ele>125.39999999999999</ele><time>2026-04-06T11:47:09Z</time></trkpt><trkpt lat="44.542218112418844" lon="0.9363077029056249"><ele>127.0</ele><time>2026-04-06T11:47:10Z</time></trkpt><trkpt lat="44.54214773508634" lon="0.9364136383164506"><ele>127.0</ele><time>2026-04-06T11:47:11Z</time></trkpt><trkpt lat="44.542069568254725" lon="0.9365292052261404"><ele>126.99999999999999</ele><time>2026-04-06T11:47:12Z</time></trkpt><trkpt lat="44.54199245502057" lon="0.9366482746683876"><ele>126.99999999999999</ele><time>2026-04-06T11:47:13Z</time></trkpt><trkpt lat="44.541915072553444" lon="0.9367700188369738"><ele>127.0</ele><time>2026-04-06T11:47:14Z</time></trkpt><trkpt lat="44.541843164986254" lon="0.93685183988439"><ele>127.0</ele><time>2026-04-06T11:47:15Z</time></trkpt><trkpt lat="44.54177805082525" lon="0.9369141436726914"><ele>128.6</ele><time>2026-04-06T11:47:16Z</time></trkpt><trkpt lat="44.5417112826816" lon="0.9369929300771638"><ele>130.2</ele><time>2026-04-06T11:47:17Z</time></trkpt><trkpt lat="44.54163773286405" lon="0.937083322818407"><ele>131.8</ele><time>2026-04-06T11:47:17.999Z</time></trkpt><trkpt lat="44.54156246359751" lon="0.9371918590139596"><ele>133.4</ele><time>2026-04-06T11:47:18.999Z</time></trkpt><trkpt lat="44.54148031015311" lon="0.9373156561905592"><ele>135.0</ele><time>2026-04-06T11:47:19.999Z</time></trkpt><trkpt lat="44.54140074464383" lon="0.9374479791315466"><ele>137.0</ele><time>2026-04-06T11:47:20.999Z</time></trkpt><trkpt lat="44.5413388437193" lon="0.9375987975666048"><ele>139.0</ele><time>2026-04-06T11:47:21.999Z</time></trkpt><trkpt lat="44.54128008677592" lon="0.9377303213905482"><ele>141.0</ele><time>2026-04-06T11:47:22.999Z</time></trkpt><trkpt lat="44.54121949915121" lon="0.9378027877497637"><ele>143.0</ele><time>2026-04-06T11:47:23.999Z</time></trkpt><trkpt lat="44.54116284831365" lon="0.9378789382168156"><ele>145.0</ele><time>2026-04-06T11:47:24.999Z</time></trkpt><trkpt lat="44.5410982780637" lon="0.9379123144893242"><ele>145.0</ele><time>2026-04-06T11:47:25.999Z</time></trkpt><trkpt lat="44.541039299684684" lon="0.9379537806975559"><ele>145.0</ele><time>2026-04-06T11:47:26.999Z</time></trkpt><trkpt lat="44.54096174289626" lon="0.9379840594167185"><ele>145.0</ele><time>2026-04-06T11:47:27.999Z</time></trkpt><trkpt lat="44.54087107821949" lon="0.938017273907146"><ele>145.0</ele><time>2026-04-06T11:47:28.999Z</time></trkpt><trkpt lat="44.540769785235625" lon="0.9380534704524263"><ele>145.0</ele><time>2026-04-06T11:47:29.999Z</time></trkpt><trkpt lat="44.54067414884912" lon="0.9380863133763587"><ele>145.0</ele><time>2026-04-06T11:47:30.999Z</time></trkpt><trkpt lat="44.540592747259716" lon="0.9381304423478731"><ele>145.0</ele><time>2026-04-06T11:47:31.999Z</time></trkpt><trkpt lat="44.54052763778792" lon="0.9382084346397025"><ele>145.0</ele><time>2026-04-06T11:47:32.999Z</time></trkpt><trkpt lat="44.5404834732363" lon="0.9383323992327682"><ele>145.0</ele><time>2026-04-06T11:47:33.999Z</time></trkpt><trkpt lat="44.540448823530305" lon="0.9384735834986334"><ele>145.0</ele><time>2026-04-06T11:47:34.999Z</time></trkpt><trkpt lat="44.54042402560964" lon="0.9385842927723893"><ele>145.0</ele><time>2026-04-06T11:47:35.999Z</time></trkpt><trkpt lat="44.5403943741005" lon="0.9386961493321415"><ele>144.6</ele><time>2026-04-06T11:47:36.999Z</time></trkpt><trkpt lat="44.54035793369242" lon="0.9388280331790385"><ele>144.2</ele><time>2026-04-06T11:47:37.999Z</time></trkpt><trkpt lat="44.540316026182595" lon="0.938984566947542"><ele>143.8</ele><time>2026-04-06T11:47:38.999Z</time></trkpt><trkpt lat="44.540269469093396" lon="0.939122785297099"><ele>143.4</ele><time>2026-04-06T11:47:39.999Z</time></trkpt><trkpt lat="44.54023928704889" lon="0.9392336212868472"><ele>143.0</ele><time>2026-04-06T11:47:40.999Z</time></trkpt><trkpt lat="44.540212588977965" lon="0.9393530054991487"><ele>143.0</ele><time>2026-04-06T11:47:41.999Z</time></trkpt><trkpt lat="44.5401961379604" lon="0.9394688758633127"><ele>143.0</ele><time>2026-04-06T11:47:42.999Z</time></trkpt><trkpt lat="44.54018859539591" lon="0.9395655559017102"><ele>143.0</ele><time>2026-04-06T11:47:43.999Z</time></trkpt><trkpt lat="44.54016810789316" lon="0.939663735026208"><ele>143.0</ele><time>2026-04-06T11:47:44.999Z</time></trkpt><trkpt lat="44.540158024518725" lon="0.9397669514607297"><ele>143.0</ele><time>2026-04-06T11:47:45.999Z</time></trkpt><trkpt lat="44.54015553469513" lon="0.9398748391210325"><ele>143.0</ele><time>2026-04-06T11:47:46.999Z</time></trkpt><trkpt lat="44.54015935757352" lon="0.9399990526211"><ele>141.99999999999997</ele><time>2026-04-06T11:47:47.999Z</time></trkpt><trkpt lat="44.540166755477905" lon="0.9400947908021239"><ele>141.0</ele><time>2026-04-06T11:47:48.999Z</time></trkpt><trkpt lat="44.54017254596762" lon="0.940201749685101"><ele>140.0</ele><time>2026-04-06T11:47:49.999Z</time></trkpt><trkpt lat="44.54016530746351" lon="0.9403168582502198"><ele>139.0</ele><time>2026-04-06T11:47:50.999Z</time></trkpt><trkpt lat="44.54016965973368" lon="0.9404071453992411"><ele>138.0</ele><time>2026-04-06T11:47:51.999Z</time></trkpt><trkpt lat="44.54018665761996" lon="0.9405069152636814"><ele>136.99999999999997</ele><time>2026-04-06T11:47:52.999Z</time></trkpt><trkpt lat="44.5401897190191" lon="0.9405979951829115"><ele>136.0</ele><time>2026-04-06T11:47:53.999Z</time></trkpt><trkpt lat="44.54019842997994" lon="0.9406951969381167"><ele>136.0</ele><time>2026-04-06T11:47:54.999Z</time></trkpt><trkpt lat="44.54019715589009" lon="0.9407894983507422"><ele>136.0</ele><time>2026-04-06T11:47:55.999Z</time></trkpt><trkpt lat="44.540197942772075" lon="0.9408833558099985"><ele>136.0</ele><time>2026-04-06T11:47:56.999Z</time></trkpt><trkpt lat="44.54019154322701" lon="0.9410528866993647"><ele>136.0</ele><time>2026-04-06T11:47:58.999Z</time></trkpt><trkpt lat="44.54020463846348" lon="0.9412041623053413"><ele>136.0</ele><time>2026-04-06T11:48:01Z</time></trkpt><trkpt lat="44.54020941543163" lon="0.9413135314172643"><ele>136.0</ele><time>2026-04-06T11:48:03Z</time></trkpt><trkpt lat="44.540245351569716" lon="0.9413998974940511"><ele>134.6</ele><time>2026-04-06T11:49:00Z</time></trkpt><trkpt lat="44.54023931181251" lon="0.9415117851321321"><ele>133.2</ele><time>2026-04-06T11:49:02Z</time></trkpt><trkpt lat="44.54024935733663" lon="0.94170362167021"><ele>131.8</ele><time>2026-04-06T11:49:04Z</time></trkpt><trkpt lat="44.54024040828935" lon="0.9418674612182931"><ele>130.4</ele><time>2026-04-06T11:49:06Z</time></trkpt><trkpt lat="44.54022775636559" lon="0.9419589816032018"><ele>129.0</ele><time>2026-04-06T11:49:07Z</time></trkpt><trkpt lat="44.54021202833584" lon="0.9420669427510991"><ele>127.0</ele><time>2026-04-06T11:49:08Z</time></trkpt><trkpt lat="44.54020235764963" lon="0.9422111742350707"><ele>125.0</ele><time>2026-04-06T11:49:09Z</time></trkpt><trkpt lat="44.54021830706321" lon="0.9423601927373204"><ele>123.0</ele><time>2026-04-06T11:49:10Z</time></trkpt><trkpt lat="44.54022010187478" lon="0.9424947999194794"><ele>121.0</ele><time>2026-04-06T11:49:11Z</time></trkpt><trkpt lat="44.540211727756336" lon="0.9425898937583901"><ele>119.0</ele><time>2026-04-06T11:49:12Z</time></trkpt><trkpt lat="44.54017992102055" lon="0.9427560753669937"><ele>117.16666666666666</ele><time>2026-04-06T11:49:13.999Z</time></trkpt><trkpt lat="44.54018401666974" lon="0.9428675489457432"><ele>115.33333333333333</ele><time>2026-04-06T11:49:15.999Z</time></trkpt><trkpt lat="44.540127735703976" lon="0.9429396008607677"><ele>113.5</ele><time>2026-04-06T11:49:18.999Z</time></trkpt><trkpt lat="44.54004723666479" lon="0.9429142325990412"><ele>111.66666666666666</ele><time>2026-04-06T11:50:10Z</time></trkpt><trkpt lat="44.53996160929584" lon="0.9429027547341795"><ele>109.83333333333333</ele><time>2026-04-06T11:50:13Z</time></trkpt><trkpt lat="44.53990955024655" lon="0.94298604705247"><ele>108.0</ele><time>2026-04-06T11:50:16Z</time></trkpt><trkpt lat="44.539937769198694" lon="0.9430784184243881"><ele>108.0</ele><time>2026-04-06T11:50:28Z</time></trkpt><trkpt lat="44.539947091350385" lon="0.9431806856695305"><ele>108.00000000000001</ele><time>2026-04-06T11:50:31Z</time></trkpt><trkpt lat="44.53997672014821" lon="0.9433005652136748"><ele>108.00000000000001</ele><time>2026-04-06T11:50:33Z</time></trkpt><trkpt lat="44.540015191811904" lon="0.9434488816106302"><ele>108.0</ele><time>2026-04-06T11:50:35Z</time></trkpt><trkpt lat="44.54005156218251" lon="0.9435700161773133"><ele>108.0</ele><time>2026-04-06T11:50:36Z</time></trkpt><trkpt lat="44.54011559624738" lon="0.9437284489596011"><ele>105.25</ele><time>2026-04-06T11:50:37Z</time></trkpt><trkpt lat="44.54017186343024" lon="0.9439142978719546"><ele>102.5</ele><time>2026-04-06T11:50:38Z</time></trkpt><trkpt lat="44.540220348158584" lon="0.9440619094650958"><ele>99.75</ele><time>2026-04-06T11:50:39Z</time></trkpt><trkpt lat="44.54025076766371" lon="0.9442190747109444"><ele>97.0</ele><time>2026-04-06T11:50:40Z</time></trkpt><trkpt lat="44.54028751477041" lon="0.944341890497855"><ele>96.19999999999999</ele><time>2026-04-06T11:50:41Z</time></trkpt><trkpt lat="44.54032026020791" lon="0.9444513321850835"><ele>95.4</ele><time>2026-04-06T11:50:42Z</time></trkpt><trkpt lat="44.5403680275067" lon="0.9445580846424595"><ele>94.6</ele><time>2026-04-06T11:50:44Z</time></trkpt><trkpt lat="44.540222503065046" lon="0.9446105402290934"><ele>93.80000000000001</ele><time>2026-04-06T11:50:52Z</time></trkpt><trkpt lat="44.54015671975317" lon="0.9446236228683152"><ele>93.0</ele><time>2026-04-06T11:50:56Z</time></trkpt><trkpt lat="44.54001293513551" lon="0.9446718401764603"><ele>93.0</ele><time>2026-04-06T11:50:58Z</time></trkpt><trkpt lat="44.539915221243035" lon="0.9446993504913166"><ele>93.0</ele><time>2026-04-06T11:50:59Z</time></trkpt><trkpt lat="44.53980588792468" lon="0.9447323845421083"><ele>93.0</ele><time>2026-04-06T11:51:00Z</time></trkpt><trkpt lat="44.53967846666229" lon="0.9447500533174875"><ele>93.0</ele><time>2026-04-06T11:51:01Z</time></trkpt><trkpt lat="44.53956778681601" lon="0.9447661791987498"><ele>93.0</ele><time>2026-04-06T11:51:02Z</time></trkpt><trkpt lat="44.53944768516233" lon="0.944758658306514"><ele>93.0</ele><time>2026-04-06T11:51:03Z</time></trkpt><trkpt lat="44.539336196158764" lon="0.9447367230221362"><ele>93.0</ele><time>2026-04-06T11:51:04Z</time></trkpt><trkpt lat="44.53920728739279" lon="0.9446712737779223"><ele>93.0</ele><time>2026-04-06T11:51:05Z</time></trkpt><trkpt lat="44.53907049341343" lon="0.9446068778993825"><ele>93.0</ele><time>2026-04-06T11:51:06Z</time></trkpt><trkpt lat="44.53895396451986" lon="0.9445484124386618"><ele>93.0</ele><time>2026-04-06T11:51:07Z</time></trkpt><trkpt lat="44.53884900862175" lon="0.9444418867253255"><ele>93.0</ele><time>2026-04-06T11:51:08Z</time></trkpt><trkpt lat="44.53872869310567" lon="0.944323232808713"><ele>93.0</ele><time>2026-04-06T11:51:09Z</time></trkpt><trkpt lat="44.53860779172239" lon="0.9442174240256855"><ele>93.0</ele><time>2026-04-06T11:51:10Z</time></trkpt><trkpt lat="44.53846791591004" lon="0.9441166796218874"><ele>93.0</ele><time>2026-04-06T11:51:11Z</time></trkpt><trkpt lat="44.53831703811171" lon="0.9440217543105779"><ele>93.0</ele><time>2026-04-06T11:51:12Z</time></trkpt><trkpt lat="44.538165919454784" lon="0.9439209580325446"><ele>93.0</ele><time>2026-04-06T11:51:13Z</time></trkpt><trkpt lat="44.53802385110175" lon="0.9438301183544444"><ele>93.0</ele><time>2026-04-06T11:51:14Z</time></trkpt><trkpt lat="44.53787804472294" lon="0.9437462812984857"><ele>93.0</ele><time>2026-04-06T11:51:15Z</time></trkpt><trkpt lat="44.5377459885891" lon="0.9436743971034987"><ele>93.0</ele><time>2026-04-06T11:51:16Z</time></trkpt><trkpt lat="44.537631842337774" lon="0.943649482186996"><ele>93.0</ele><time>2026-04-06T11:51:17Z</time></trkpt><trkpt lat="44.53753017207105" lon="0.9436345873856632"><ele>93.0</ele><time>2026-04-06T11:51:18Z</time></trkpt><trkpt lat="44.53742166496766" lon="0.943542743536557"><ele>93.0</ele><time>2026-04-06T11:51:19Z</time></trkpt><trkpt lat="44.537326007108476" lon="0.9434749145563497"><ele>93.0</ele><time>2026-04-06T11:51:20Z</time></trkpt><trkpt lat="44.537251936978514" lon="0.943405079551116"><ele>93.0</ele><time>2026-04-06T11:51:21Z</time></trkpt><trkpt lat="44.53717895591991" lon="0.943357715677718"><ele>93.0</ele><time>2026-04-06T11:51:21.999Z</time></trkpt><trkpt lat="44.53709749955053" lon="0.9433347439175257"><ele>93.0</ele><time>2026-04-06T11:51:22.999Z</time></trkpt><trkpt lat="44.53702829762504" lon="0.9433512066616617"><ele>93.0</ele><time>2026-04-06T11:51:23.999Z</time></trkpt><trkpt lat="44.53693090843298" lon="0.943423251707068"><ele>93.0</ele><time>2026-04-06T11:51:25.999Z</time></trkpt><trkpt lat="44.53685782603872" lon="0.943406102913245"><ele>93.0</ele><time>2026-04-06T11:51:27.999Z</time></trkpt><trkpt lat="44.536784040140965" lon="0.9433559981884984"><ele>93.0</ele><time>2026-04-06T11:51:29.999Z</time></trkpt><trkpt lat="44.53672595629283" lon="0.9433013547614479"><ele>93.0</ele><time>2026-04-06T11:51:30.999Z</time></trkpt><trkpt lat="44.53663396475934" lon="0.9432539440324543"><ele>93.0</ele><time>2026-04-06T11:51:31.999Z</time></trkpt><trkpt lat="44.5365368801472" lon="0.943200314523253"><ele>93.0</ele><time>2026-04-06T11:51:32.999Z</time></trkpt><trkpt lat="44.53643895117796" lon="0.9431209804530872"><ele>93.0</ele><time>2026-04-06T11:51:33.999Z</time></trkpt><trkpt lat="44.53635810816514" lon="0.943060480759722"><ele>93.0</ele><time>2026-04-06T11:51:34.999Z</time></trkpt><trkpt lat="44.536276304542625" lon="0.9430203683678793"><ele>93.0</ele><time>2026-04-06T11:51:35.999Z</time></trkpt><trkpt lat="44.536206682392695" lon="0.9429898730298424"><ele>93.0</ele><time>2026-04-06T11:51:36.999Z</time></trkpt><trkpt lat="44.5361352950282" lon="0.9429311764767707"><ele>93.0</ele><time>2026-04-06T11:51:37.999Z</time></trkpt><trkpt lat="44.53604632437857" lon="0.9428883800719684"><ele>93.0</ele><time>2026-04-06T11:51:38.999Z</time></trkpt><trkpt lat="44.53597126502118" lon="0.9428527745183797"><ele>92.83333333333333</ele><time>2026-04-06T11:51:39.999Z</time></trkpt><trkpt lat="44.535895922535815" lon="0.9427951786033846"><ele>92.66666666666667</ele><time>2026-04-06T11:51:40.999Z</time></trkpt><trkpt lat="44.535819642366896" lon="0.9427671824533382"><ele>92.5</ele><time>2026-04-06T11:51:41.999Z</time></trkpt><trkpt lat="44.53574580909307" lon="0.942743958862919"><ele>92.33333333333334</ele><time>2026-04-06T11:51:42.999Z</time></trkpt><trkpt lat="44.53567170326883" lon="0.9427287705504264"><ele>92.16666666666667</ele><time>2026-04-06T11:51:43.999Z</time></trkpt><trkpt lat="44.53557937260766" lon="0.9426927654636261"><ele>92.0</ele><time>2026-04-06T11:51:45.999Z</time></trkpt><trkpt lat="44.5355015185226" lon="0.9426500742725832"><ele>92.0</ele><time>2026-04-06T11:51:49.999Z</time></trkpt><trkpt lat="44.53543383510034" lon="0.9426261897447132"><ele>92.0</ele><time>2026-04-06T11:51:52.999Z</time></trkpt><trkpt lat="44.53535104378812" lon="0.9426020139363024"><ele>92.0</ele><time>2026-04-06T11:51:54.999Z</time></trkpt><trkpt lat="44.53524173656693" lon="0.9425672015659994"><ele>92.0</ele><time>2026-04-06T11:51:56.999Z</time></trkpt><trkpt lat="44.53514139316004" lon="0.9425435817487761"><ele>92.0</ele><time>2026-04-06T11:51:58.999Z</time></trkpt><trkpt lat="44.535076069664505" lon="0.9425382004991809"><ele>92.0</ele><time>2026-04-06T11:51:59.999Z</time></trkpt><trkpt lat="44.53497311724258" lon="0.9425980430202296"><ele>91.8</ele><time>2026-04-06T11:52:01.999Z</time></trkpt><trkpt lat="44.53489449087896" lon="0.9427313195350578"><ele>91.6</ele><time>2026-04-06T11:52:03.999Z</time></trkpt><trkpt lat="44.53486184291792" lon="0.942808021672855"><ele>91.39999999999999</ele><time>2026-04-06T11:52:04.999Z</time></trkpt><trkpt lat="44.534830492734336" lon="0.9429337691185344"><ele>91.19999999999999</ele><time>2026-04-06T11:52:05.999Z</time></trkpt><trkpt lat="44.534865990713314" lon="0.9430918435679346"><ele>91.0</ele><time>2026-04-06T11:52:06.999Z</time></trkpt><trkpt lat="44.534941185344266" lon="0.9431864755993051"><ele>91.0</ele><time>2026-04-06T11:52:07.999Z</time></trkpt><trkpt lat="44.53501858274569" lon="0.94327111311095"><ele>91.0</ele><time>2026-04-06T11:52:08.999Z</time></trkpt><trkpt lat="44.53508424748454" lon="0.9433476637837288"><ele>91.0</ele><time>2026-04-06T11:52:09.999Z</time></trkpt><trkpt lat="44.53511122370681" lon="0.9434285136847493"><ele>91.0</ele><time>2026-04-06T11:52:10.999Z</time></trkpt><trkpt lat="44.53541663781327" lon="0.9432137107913663"><ele>91.19999999999999</ele><time>2026-04-06T11:52:11.999Z</time></trkpt><trkpt lat="44.53551049649583" lon="0.9432700609489576"><ele>91.39999999999999</ele><time>2026-04-06T11:52:13Z</time></trkpt><trkpt lat="44.5356088608698" lon="0.9433422056472736"><ele>91.6</ele><time>2026-04-06T11:52:14Z</time></trkpt><trkpt lat="44.535695228510775" lon="0.9434539548921"><ele>91.8</ele><time>2026-04-06T11:52:15Z</time></trkpt><trkpt lat="44.53578190713095" lon="0.9435192513895043"><ele>92.0</ele><time>2026-04-06T11:52:16Z</time></trkpt><trkpt lat="44.53585414271468" lon="0.9435548792423142"><ele>92.16666666666667</ele><time>2026-04-06T11:52:17Z</time></trkpt><trkpt lat="44.53593894102152" lon="0.9436640634628227"><ele>92.33333333333334</ele><time>2026-04-06T11:52:19Z</time></trkpt><trkpt lat="44.53599059938985" lon="0.9437192480848827"><ele>92.5</ele><time>2026-04-06T11:52:21Z</time></trkpt><trkpt lat="44.53605022167957" lon="0.9437843846220481"><ele>92.66666666666667</ele><time>2026-04-06T11:52:24Z</time></trkpt><trkpt lat="44.536124237408515" lon="0.9438652678816771"><ele>92.83333333333333</ele><time>2026-04-06T11:52:42Z</time></trkpt><trkpt lat="44.53617853174657" lon="0.9439245998095301"><ele>93.0</ele><time>2026-04-06T11:52:43Z</time></trkpt><trkpt lat="44.5362528274627" lon="0.9440032044622414"><ele>93.0</ele><time>2026-04-06T11:52:45Z</time></trkpt><trkpt lat="44.53632192905781" lon="0.9440756248934093"><ele>93.0</ele><time>2026-04-06T11:52:47Z</time></trkpt><trkpt lat="44.53637534336701" lon="0.9441296234584736"><ele>93.0</ele><time>2026-04-06T11:52:50Z</time></trkpt><trkpt lat="44.53649431337536" lon="0.9442245176451622"><ele>93.0</ele><time>2026-04-06T11:52:54Z</time></trkpt><trkpt lat="44.53658748072409" lon="0.9442822830938811"><ele>93.0</ele><time>2026-04-06T11:52:55Z</time></trkpt><trkpt lat="44.53669102732939" lon="0.9443284874040456"><ele>93.0</ele><time>2026-04-06T11:52:56Z</time></trkpt><trkpt lat="44.53678300638153" lon="0.944358706546237"><ele>93.0</ele><time>2026-04-06T11:52:57Z</time></trkpt><trkpt lat="44.53686352036199" lon="0.944382551257149"><ele>93.0</ele><time>2026-04-06T11:52:58Z</time></trkpt><trkpt lat="44.536930752007116" lon="0.9444035101520887"><ele>93.0</ele><time>2026-04-06T11:52:59Z</time></trkpt><trkpt lat="44.53704129480739" lon="0.9444438646503667"><ele>93.0</ele><time>2026-04-06T11:53:01Z</time></trkpt><trkpt lat="44.537115860226926" lon="0.9444741457818272"><ele>93.0</ele><time>2026-04-06T11:53:03Z</time></trkpt><trkpt lat="44.53722090842198" lon="0.9444907646466136"><ele>93.0</ele><time>2026-04-06T11:53:05Z</time></trkpt><trkpt lat="44.53728051629187" lon="0.9444298739492626"><ele>93.0</ele><time>2026-04-06T11:53:08Z</time></trkpt><trkpt lat="44.537147388501666" lon="0.9441430964344402"><ele>93.0</ele><time>2026-04-06T11:53:11Z</time></trkpt><trkpt lat="44.53709695235667" lon="0.9442092439724522"><ele>93.0</ele><time>2026-04-06T11:53:14Z</time></trkpt><trkpt lat="44.53714513232392" lon="0.9442788011688068"><ele>92.60000000000001</ele><time>2026-04-06T12:00:29.999Z</time></trkpt><trkpt lat="44.53721060875337" lon="0.944349118491338"><ele>92.2</ele><time>2026-04-06T12:00:31.999Z</time></trkpt><trkpt lat="44.53712553189406" lon="0.9445392563427074"><ele>91.8</ele><time>2026-04-06T12:00:32.999Z</time></trkpt><trkpt lat="44.53717490352043" lon="0.9446028557296522"><ele>91.4</ele><time>2026-04-06T12:00:35.999Z</time></trkpt><trkpt lat="44.537216913403704" lon="0.9446886212104164"><ele>91.0</ele><time>2026-04-06T12:00:41Z</time></trkpt><trkpt lat="44.53720747567375" lon="0.9447904125321245"><ele>91.0</ele><time>2026-04-06T12:00:43Z</time></trkpt><trkpt lat="44.53720573216194" lon="0.9449016959043891"><ele>91.0</ele><time>2026-04-06T12:00:45Z</time></trkpt><trkpt lat="44.53722819709196" lon="0.9449892015648257"><ele>91.0</ele><time>2026-04-06T12:00:46Z</time></trkpt><trkpt lat="44.53723833158544" lon="0.9450915814939385"><ele>91.0</ele><time>2026-04-06T12:00:47Z</time></trkpt><trkpt lat="44.53725625146578" lon="0.9452196065000399"><ele>91.0</ele><time>2026-04-06T12:00:48Z</time></trkpt><trkpt lat="44.537270505048774" lon="0.9453371397560204"><ele>91.0</ele><time>2026-04-06T12:00:49Z</time></trkpt><trkpt lat="44.53728663537496" lon="0.945438811351125"><ele>91.0</ele><time>2026-04-06T12:00:50Z</time></trkpt><trkpt lat="44.53730144196045" lon="0.9455532704752417"><ele>91.0</ele><time>2026-04-06T12:00:51Z</time></trkpt><trkpt lat="44.537320112869196" lon="0.9456561151150122"><ele>91.0</ele><time>2026-04-06T12:00:52Z</time></trkpt><trkpt lat="44.53734034543911" lon="0.9457517657143606"><ele>91.0</ele><time>2026-04-06T12:00:53Z</time></trkpt><trkpt lat="44.53736911522244" lon="0.945893875489058"><ele>91.0</ele><time>2026-04-06T12:00:55Z</time></trkpt><trkpt lat="44.53738974730723" lon="0.9460082480849676"><ele>91.0</ele><time>2026-04-06T12:00:57Z</time></trkpt><trkpt lat="44.5374167640982" lon="0.9461282616240911"><ele>93.0</ele><time>2026-04-06T12:00:59Z</time></trkpt><trkpt lat="44.53742640430785" lon="0.9462445537483328"><ele>95.0</ele><time>2026-04-06T12:01:01Z</time></trkpt><trkpt lat="44.537433596726295" lon="0.946344534164173"><ele>97.0</ele><time>2026-04-06T12:01:05Z</time></trkpt><trkpt lat="44.53731359673889" lon="0.9464398751087829"><ele>99.0</ele><time>2026-04-06T12:01:07Z</time></trkpt><trkpt lat="44.53725540540477" lon="0.9464908327970762"><ele>101.0</ele><time>2026-04-06T12:01:08Z</time></trkpt><trkpt lat="44.53716600101521" lon="0.9465325489713777"><ele>101.0</ele><time>2026-04-06T12:01:09Z</time></trkpt><trkpt lat="44.537080405914686" lon="0.9466029625324507"><ele>101.0</ele><time>2026-04-06T12:01:10Z</time></trkpt><trkpt lat="44.53697220037043" lon="0.9466983898797559"><ele>101.0</ele><time>2026-04-06T12:01:11Z</time></trkpt><trkpt lat="44.53688110272627" lon="0.9467860304141413"><ele>101.0</ele><time>2026-04-06T12:01:12Z</time></trkpt><trkpt lat="44.53680502463819" lon="0.9468625908661182"><ele>101.0</ele><time>2026-04-06T12:01:13Z</time></trkpt><trkpt lat="44.53674623557661" lon="0.9469217525370008"><ele>99.75</ele><time>2026-04-06T12:01:14Z</time></trkpt><trkpt lat="44.53669050569827" lon="0.9469778357560118"><ele>98.5</ele><time>2026-04-06T12:01:15Z</time></trkpt><trkpt lat="44.536620337227205" lon="0.9470484491082513"><ele>97.25</ele><time>2026-04-06T12:01:18Z</time></trkpt><trkpt lat="44.53656852589158" lon="0.9471005889063279"><ele>96.0</ele><time>2026-04-06T12:01:22Z</time></trkpt><trkpt lat="44.53663377022586" lon="0.947425734256778"><ele>96.0</ele><time>2026-04-06T12:01:30Z</time></trkpt><trkpt lat="44.536623666688236" lon="0.9475261937419112"><ele>96.0</ele><time>2026-04-06T12:01:41Z</time></trkpt><trkpt lat="44.53652216144786" lon="0.9476608001796375"><ele>96.0</ele><time>2026-04-06T12:01:43Z</time></trkpt><trkpt lat="44.53644965042283" lon="0.9477091157692774"><ele>96.0</ele><time>2026-04-06T12:01:44Z</time></trkpt><trkpt lat="44.53636864032546" lon="0.9477512273708669"><ele>96.0</ele><time>2026-04-06T12:01:45Z</time></trkpt><trkpt lat="44.53628565779182" lon="0.9477992613901353"><ele>96.4</ele><time>2026-04-06T12:01:46Z</time></trkpt><trkpt lat="44.53619940462061" lon="0.9478428606638498"><ele>96.8</ele><time>2026-04-06T12:01:47Z</time></trkpt><trkpt lat="44.5360920905613" lon="0.9478854295358196"><ele>97.2</ele><time>2026-04-06T12:01:48Z</time></trkpt><trkpt lat="44.535994380974216" lon="0.9479227729822451"><ele>97.60000000000001</ele><time>2026-04-06T12:01:49Z</time></trkpt><trkpt lat="44.53591007742729" lon="0.9479553089306559"><ele>98.0</ele><time>2026-04-06T12:01:50Z</time></trkpt><trkpt lat="44.53583982846279" lon="0.9479944791892633"><ele>98.0</ele><time>2026-04-06T12:01:51Z</time></trkpt><trkpt lat="44.53577625998857" lon="0.9480414268395712"><ele>98.0</ele><time>2026-04-06T12:01:52Z</time></trkpt><trkpt lat="44.535679118250535" lon="0.9480892981616503"><ele>98.0</ele><time>2026-04-06T12:01:54Z</time></trkpt><trkpt lat="44.53560856501632" lon="0.9481712254725447"><ele>98.0</ele><time>2026-04-06T12:01:56Z</time></trkpt><trkpt lat="44.535537838952216" lon="0.9482374036120221"><ele>98.0</ele><time>2026-04-06T12:01:58Z</time></trkpt><trkpt lat="44.535445566347775" lon="0.9483227363598224"><ele>97.4</ele><time>2026-04-06T12:02:00Z</time></trkpt><trkpt lat="44.5353523307773" lon="0.948402125605225"><ele>96.80000000000001</ele><time>2026-04-06T12:02:02Z</time></trkpt><trkpt lat="44.535297309121134" lon="0.948455362995027"><ele>96.2</ele><time>2026-04-06T12:02:03Z</time></trkpt><trkpt lat="44.535220837498365" lon="0.948526977933848"><ele>95.6</ele><time>2026-04-06T12:02:04Z</time></trkpt><trkpt lat="44.53512656351736" lon="0.9486115999131535"><ele>95.0</ele><time>2026-04-06T12:02:05Z</time></trkpt><trkpt lat="44.534992239525735" lon="0.9486473857479126"><ele>95.0</ele><time>2026-04-06T12:02:06Z</time></trkpt><trkpt lat="44.534874072818155" lon="0.9486239122589881"><ele>95.0</ele><time>2026-04-06T12:02:07Z</time></trkpt><trkpt lat="44.53475992346485" lon="0.9485967274996817"><ele>95.0</ele><time>2026-04-06T12:02:08Z</time></trkpt><trkpt lat="44.534591412680435" lon="0.9485622369889233"><ele>95.0</ele><time>2026-04-06T12:02:09Z</time></trkpt><trkpt lat="44.53449793273072" lon="0.9488162885615675"><ele>95.4</ele><time>2026-04-06T12:02:10Z</time></trkpt><trkpt lat="44.5344137861202" lon="0.9488928016827661"><ele>95.8</ele><time>2026-04-06T12:02:11Z</time></trkpt><trkpt lat="44.534341675227395" lon="0.9489594785158059"><ele>96.19999999999999</ele><time>2026-04-06T12:02:12Z</time></trkpt><trkpt lat="44.53430460803619" lon="0.9490361804138634"><ele>96.6</ele><time>2026-04-06T12:02:13Z</time></trkpt><trkpt lat="44.53426071625399" lon="0.9491614421151741"><ele>97.0</ele><time>2026-04-06T12:02:15Z</time></trkpt><trkpt lat="44.53424189587408" lon="0.949310738777411"><ele>98.33333333333334</ele><time>2026-04-06T12:02:17Z</time></trkpt><trkpt lat="44.53423218627578" lon="0.9494055304310298"><ele>99.66666666666667</ele><time>2026-04-06T12:02:18Z</time></trkpt><trkpt lat="44.53422193382457" lon="0.9495056214262988"><ele>101.0</ele><time>2026-04-06T12:02:19Z</time></trkpt><trkpt lat="44.53421069241238" lon="0.9496153669605611"><ele>102.33333333333334</ele><time>2026-04-06T12:02:20Z</time></trkpt><trkpt lat="44.53419838083437" lon="0.9497326715522227"><ele>103.66666666666667</ele><time>2026-04-06T12:02:21Z</time></trkpt><trkpt lat="44.534186144459504" lon="0.9498496133083751"><ele>105.0</ele><time>2026-04-06T12:02:22Z</time></trkpt><trkpt lat="44.534173619169245" lon="0.9499721383007265"><ele>105.6</ele><time>2026-04-06T12:02:23Z</time></trkpt><trkpt lat="44.534160647258965" lon="0.9501028900756286"><ele>106.2</ele><time>2026-04-06T12:02:24Z</time></trkpt><trkpt lat="44.534150038077044" lon="0.9502349412471326"><ele>106.80000000000001</ele><time>2026-04-06T12:02:25Z</time></trkpt><trkpt lat="44.53413994316387" lon="0.9503653823620194"><ele>107.4</ele><time>2026-04-06T12:02:26Z</time></trkpt><trkpt lat="44.53413216965288" lon="0.9505024022421186"><ele>108.0</ele><time>2026-04-06T12:02:27Z</time></trkpt><trkpt lat="44.534126472971266" lon="0.9506366202679856"><ele>108.0</ele><time>2026-04-06T12:02:28Z</time></trkpt><trkpt lat="44.5341239756523" lon="0.9507800667382668"><ele>108.00000000000001</ele><time>2026-04-06T12:02:29Z</time></trkpt><trkpt lat="44.534138943054025" lon="0.9509243237483074"><ele>108.00000000000001</ele><time>2026-04-06T12:02:30Z</time></trkpt><trkpt lat="44.534132187013576" lon="0.9510681330781502"><ele>108.0</ele><time>2026-04-06T12:02:31Z</time></trkpt><trkpt lat="44.53413024492191" lon="0.9512215939503426"><ele>108.0</ele><time>2026-04-06T12:02:31.999Z</time></trkpt><trkpt lat="44.53413188544273" lon="0.9513572415012507"><ele>108.0</ele><time>2026-04-06T12:02:32.999Z</time></trkpt><trkpt lat="44.53412880685447" lon="0.9515184906394916"><ele>108.0</ele><time>2026-04-06T12:02:33.999Z</time></trkpt><trkpt lat="44.534124137937546" lon="0.9516778422480366"><ele>108.0</ele><time>2026-04-06T12:02:34.999Z</time></trkpt><trkpt lat="44.53411485066716" lon="0.9518386388427215"><ele>108.0</ele><time>2026-04-06T12:02:35.999Z</time></trkpt><trkpt lat="44.53410618456489" lon="0.9520041236754655"><ele>109.0</ele><time>2026-04-06T12:02:36.999Z</time></trkpt><trkpt lat="44.53408279160103" lon="0.9521660184445246"><ele>110.0</ele><time>2026-04-06T12:02:37.999Z</time></trkpt><trkpt lat="44.534034287145374" lon="0.9523068458270955"><ele>111.0</ele><time>2026-04-06T12:02:38.999Z</time></trkpt><trkpt lat="44.53398605059435" lon="0.952448842569462"><ele>112.0</ele><time>2026-04-06T12:02:39.999Z</time></trkpt><trkpt lat="44.53392664519832" lon="0.9525935186679303"><ele>112.75</ele><time>2026-04-06T12:02:40.999Z</time></trkpt><trkpt lat="44.533870938151736" lon="0.9527299739252231"><ele>113.5</ele><time>2026-04-06T12:02:41.999Z</time></trkpt><trkpt lat="44.533813630819594" lon="0.9528676467684647"><ele>114.25</ele><time>2026-04-06T12:02:43Z</time></trkpt><trkpt lat="44.533765507751404" lon="0.9530054543911566"><ele>115.0</ele><time>2026-04-06T12:02:44Z</time></trkpt><trkpt lat="44.53371941211223" lon="0.9531526048265595"><ele>115.0</ele><time>2026-04-06T12:02:45Z</time></trkpt><trkpt lat="44.53367262500675" lon="0.9532990099449756"><ele>115.0</ele><time>2026-04-06T12:02:46Z</time></trkpt><trkpt lat="44.533636054809996" lon="0.9534535125777786"><ele>115.0</ele><time>2026-04-06T12:02:47Z</time></trkpt><trkpt lat="44.53359899046781" lon="0.953601102335546"><ele>115.0</ele><time>2026-04-06T12:02:48Z</time></trkpt><trkpt lat="44.53355867670952" lon="0.953766831784227"><ele>117.0</ele><time>2026-04-06T12:02:49Z</time></trkpt><trkpt lat="44.533519790325386" lon="0.9539289201990437"><ele>119.0</ele><time>2026-04-06T12:02:50Z</time></trkpt><trkpt lat="44.53347577872488" lon="0.9541108653238939"><ele>121.0</ele><time>2026-04-06T12:02:51Z</time></trkpt><trkpt lat="44.53343691410827" lon="0.9542680452487613"><ele>123.0</ele><time>2026-04-06T12:02:52Z</time></trkpt><trkpt lat="44.533427506597334" lon="0.9544058611565768"><ele>123.33333333333333</ele><time>2026-04-06T12:02:53Z</time></trkpt><trkpt lat="44.53340191481329" lon="0.9545236238379804"><ele>123.66666666666666</ele><time>2026-04-06T12:02:54Z</time></trkpt><trkpt lat="44.533413221218446" lon="0.9546347080982585"><ele>124.0</ele><time>2026-04-06T12:02:55Z</time></trkpt><trkpt lat="44.53339795937497" lon="0.954729260849421"><ele>124.33333333333333</ele><time>2026-04-06T12:02:56Z</time></trkpt><trkpt lat="44.5333836350678" lon="0.9548330315656853"><ele>124.66666666666666</ele><time>2026-04-06T12:02:57Z</time></trkpt><trkpt lat="44.5333872199962" lon="0.9549334746659752"><ele>125.0</ele><time>2026-04-06T12:02:58Z</time></trkpt><trkpt lat="44.53337698316511" lon="0.9550315899962692"><ele>124.99999999999999</ele><time>2026-04-06T12:02:59Z</time></trkpt><trkpt lat="44.53336398677474" lon="0.9551197991603034"><ele>125.0</ele><time>2026-04-06T12:03:00Z</time></trkpt><trkpt lat="44.5333555685045" lon="0.9552247621262943"><ele>125.0</ele><time>2026-04-06T12:03:01Z</time></trkpt><trkpt lat="44.533306646909764" lon="0.955321113978604"><ele>125.0</ele><time>2026-04-06T12:03:02Z</time></trkpt><trkpt lat="44.533259533900285" lon="0.9554201960860136"><ele>124.99999999999999</ele><time>2026-04-06T12:03:03Z</time></trkpt><trkpt lat="44.53320642510839" lon="0.9555254742760668"><ele>125.0</ele><time>2026-04-06T12:03:04Z</time></trkpt><trkpt lat="44.533151821670494" lon="0.9556262068580694"><ele>125.0</ele><time>2026-04-06T12:03:05Z</time></trkpt><trkpt lat="44.533101216925196" lon="0.9557541578438489"><ele>125.0</ele><time>2026-04-06T12:03:06Z</time></trkpt><trkpt lat="44.53302622979114" lon="0.9558810935838923"><ele>125.0</ele><time>2026-04-06T12:03:07Z</time></trkpt><trkpt lat="44.532944848119726" lon="0.9560159788966435"><ele>125.0</ele><time>2026-04-06T12:03:08Z</time></trkpt><trkpt lat="44.53285297380641" lon="0.9561618021237578"><ele>126.5</ele><time>2026-04-06T12:03:09Z</time></trkpt><trkpt lat="44.532767373962805" lon="0.9563179748904284"><ele>128.0</ele><time>2026-04-06T12:03:10Z</time></trkpt><trkpt lat="44.532683972812265" lon="0.9564874740903953"><ele>129.5</ele><time>2026-04-06T12:03:11Z</time></trkpt><trkpt lat="44.53259171358904" lon="0.9566567879034172"><ele>131.0</ele><time>2026-04-06T12:03:12Z</time></trkpt><trkpt lat="44.53248955561619" lon="0.956826099473255"><ele>131.25</ele><time>2026-04-06T12:03:13Z</time></trkpt><trkpt lat="44.532400633481174" lon="0.956996580441041"><ele>131.5</ele><time>2026-04-06T12:03:14Z</time></trkpt><trkpt lat="44.53231829184959" lon="0.9571336495347773"><ele>131.75</ele><time>2026-04-06T12:03:15Z</time></trkpt><trkpt lat="44.532235633019766" lon="0.957271100105488"><ele>132.0</ele><time>2026-04-06T12:03:16Z</time></trkpt><trkpt lat="44.53214470400902" lon="0.9574079768173467"><ele>132.75</ele><time>2026-04-06T12:03:17Z</time></trkpt><trkpt lat="44.53202933820912" lon="0.9574931654031871"><ele>133.5</ele><time>2026-04-06T12:03:18Z</time></trkpt><trkpt lat="44.531923352564846" lon="0.9575863057273011"><ele>134.25</ele><time>2026-04-06T12:03:19Z</time></trkpt><trkpt lat="44.53180862230208" lon="0.9576858539042244"><ele>135.0</ele><time>2026-04-06T12:03:20Z</time></trkpt><trkpt lat="44.5316896561497" lon="0.9577941147109951"><ele>136.0</ele><time>2026-04-06T12:03:21Z</time></trkpt><trkpt lat="44.53156333606571" lon="0.9579019408594566"><ele>137.0</ele><time>2026-04-06T12:03:22Z</time></trkpt><trkpt lat="44.53142044792386" lon="0.9580127647980551"><ele>138.0</ele><time>2026-04-06T12:03:23Z</time></trkpt><trkpt lat="44.53127775743155" lon="0.9581216282505577"><ele>138.5</ele><time>2026-04-06T12:03:24Z</time></trkpt><trkpt lat="44.53113113784172" lon="0.9582223294897909"><ele>139.0</ele><time>2026-04-06T12:03:25Z</time></trkpt><trkpt lat="44.53100484403104" lon="0.9583134240362925"><ele>139.5</ele><time>2026-04-06T12:03:26Z</time></trkpt><trkpt lat="44.530899495993644" lon="0.9583869955449856"><ele>140.0</ele><time>2026-04-06T12:03:27Z</time></trkpt><trkpt lat="44.53081896635406" lon="0.958436571065084"><ele>140.0</ele><time>2026-04-06T12:03:28Z</time></trkpt><trkpt lat="44.530757374660894" lon="0.9584732426974413"><ele>140.0</ele><time>2026-04-06T12:03:29Z</time></trkpt><trkpt lat="44.53067024591718" lon="0.958328650449374"><ele>140.0</ele><time>2026-04-06T12:03:32Z</time></trkpt><trkpt lat="44.530600918107076" lon="0.9582463393697224"><ele>140.0</ele><time>2026-04-06T12:03:33Z</time></trkpt><trkpt lat="44.530518322222115" lon="0.9581559404361943"><ele>140.0</ele><time>2026-04-06T12:03:34Z</time></trkpt><trkpt lat="44.53043658177223" lon="0.9581014106855765"><ele>140.2</ele><time>2026-04-06T12:03:35Z</time></trkpt><trkpt lat="44.53035301835586" lon="0.9580219857632857"><ele>140.4</ele><time>2026-04-06T12:03:36Z</time></trkpt><trkpt lat="44.53027985610719" lon="0.9579493834203334"><ele>140.6</ele><time>2026-04-06T12:03:37Z</time></trkpt><trkpt lat="44.53018999617043" lon="0.9578649340333937"><ele>140.8</ele><time>2026-04-06T12:03:38Z</time></trkpt><trkpt lat="44.530115017483595" lon="0.957773689456889"><ele>141.0</ele><time>2026-04-06T12:03:39Z</time></trkpt><trkpt lat="44.53004687376011" lon="0.9576911823763561"><ele>141.0</ele><time>2026-04-06T12:03:40Z</time></trkpt><trkpt lat="44.52997927245346" lon="0.9576280253966721"><ele>141.0</ele><time>2026-04-06T12:03:41Z</time></trkpt><trkpt lat="44.52992971870601" lon="0.9575281963991481"><ele>141.0</ele><time>2026-04-06T12:03:42Z</time></trkpt><trkpt lat="44.529872783932774" lon="0.9574193063743038"><ele>141.0</ele><time>2026-04-06T12:03:43Z</time></trkpt><trkpt lat="44.52984219250255" lon="0.9572877622263489"><ele>141.0</ele><time>2026-04-06T12:03:44Z</time></trkpt><trkpt lat="44.52986359964052" lon="0.9571666900544512"><ele>140.25</ele><time>2026-04-06T12:03:45Z</time></trkpt><trkpt lat="44.5298976194121" lon="0.9570224442987172"><ele>139.5</ele><time>2026-04-06T12:03:46Z</time></trkpt><trkpt lat="44.52989449397042" lon="0.9568586309948373"><ele>138.75</ele><time>2026-04-06T12:03:47Z</time></trkpt><trkpt lat="44.52985753976478" lon="0.9566950502830391"><ele>138.0</ele><time>2026-04-06T12:03:48Z</time></trkpt><trkpt lat="44.529777889712946" lon="0.9565408153999259"><ele>138.0</ele><time>2026-04-06T12:03:49Z</time></trkpt><trkpt lat="44.5296908496656" lon="0.95641874975363"><ele>138.0</ele><time>2026-04-06T12:03:50Z</time></trkpt><trkpt lat="44.52964676225955" lon="0.9562829007096145"><ele>138.0</ele><time>2026-04-06T12:03:51Z</time></trkpt><trkpt lat="44.5295892412367" lon="0.9561669250508134"><ele>138.0</ele><time>2026-04-06T12:03:52Z</time></trkpt><trkpt lat="44.52952938165718" lon="0.9560286686628623"><ele>138.0</ele><time>2026-04-06T12:03:53Z</time></trkpt><trkpt lat="44.52947504906087" lon="0.9559010658331725"><ele>138.8</ele><time>2026-04-06T12:03:54Z</time></trkpt><trkpt lat="44.52941621466191" lon="0.9557800993799463"><ele>139.60000000000002</ele><time>2026-04-06T12:03:55Z</time></trkpt><trkpt lat="44.529363055088595" lon="0.9556628245915847"><ele>140.39999999999998</ele><time>2026-04-06T12:03:56Z</time></trkpt><trkpt lat="44.52931816650831" lon="0.9555593032222145"><ele>141.2</ele><time>2026-04-06T12:03:57Z</time></trkpt><trkpt lat="44.529247199738656" lon="0.9554720793621388"><ele>142.0</ele><time>2026-04-06T12:03:58Z</time></trkpt><trkpt lat="44.52916088205072" lon="0.9553896275551929"><ele>142.0</ele><time>2026-04-06T12:03:59Z</time></trkpt><trkpt lat="44.52906410079524" lon="0.9553411161887854"><ele>142.0</ele><time>2026-04-06T12:04:00Z</time></trkpt><trkpt lat="44.52897530053492" lon="0.9552754679386165"><ele>142.0</ele><time>2026-04-06T12:04:01Z</time></trkpt><trkpt lat="44.5288943674306" lon="0.9552289535941215"><ele>142.0</ele><time>2026-04-06T12:04:02Z</time></trkpt><trkpt lat="44.52880748768703" lon="0.955201134378627"><ele>142.0</ele><time>2026-04-06T12:04:03Z</time></trkpt><trkpt lat="44.528736508142735" lon="0.9551550664494927"><ele>142.28571428571428</ele><time>2026-04-06T12:04:04Z</time></trkpt><trkpt lat="44.528671110533836" lon="0.9551076504946093"><ele>142.57142857142856</ele><time>2026-04-06T12:04:05Z</time></trkpt><trkpt lat="44.52860573046176" lon="0.9550576276693543"><ele>142.85714285714286</ele><time>2026-04-06T12:04:06Z</time></trkpt><trkpt lat="44.52855468674167" lon="0.9550001948334069"><ele>143.14285714285714</ele><time>2026-04-06T12:04:07Z</time></trkpt><trkpt lat="44.52849276116281" lon="0.9549647453588489"><ele>143.42857142857144</ele><time>2026-04-06T12:04:08Z</time></trkpt><trkpt lat="44.528431457288285" lon="0.9549119628791696"><ele>143.71428571428572</ele><time>2026-04-06T12:04:09Z</time></trkpt><trkpt lat="44.528366001378856" lon="0.9548542113709322"><ele>144.0</ele><time>2026-04-06T12:04:10Z</time></trkpt><trkpt lat="44.52829936533914" lon="0.9548069991867093"><ele>143.66666666666666</ele><time>2026-04-06T12:04:11Z</time></trkpt><trkpt lat="44.52822713078467" lon="0.954756281723569"><ele>143.33333333333334</ele><time>2026-04-06T12:04:12Z</time></trkpt><trkpt lat="44.52815834018541" lon="0.9547043781152239"><ele>143.0</ele><time>2026-04-06T12:04:13Z</time></trkpt><trkpt lat="44.52807028493867" lon="0.9546061300224399"><ele>142.66666666666669</ele><time>2026-04-06T12:04:15Z</time></trkpt><trkpt lat="44.52801231349559" lon="0.9545386332938663"><ele>142.33333333333334</ele><time>2026-04-06T12:04:16Z</time></trkpt><trkpt lat="44.52794752138311" lon="0.9544620113844684"><ele>142.0</ele><time>2026-04-06T12:04:17Z</time></trkpt><trkpt lat="44.527858752769085" lon="0.9543837479088547"><ele>142.0</ele><time>2026-04-06T12:04:18Z</time></trkpt><trkpt lat="44.52775945150072" lon="0.9543279041414633"><ele>142.0</ele><time>2026-04-06T12:04:19Z</time></trkpt><trkpt lat="44.52765817940161" lon="0.9542696591685718"><ele>142.0</ele><time>2026-04-06T12:04:20Z</time></trkpt><trkpt lat="44.52754685130847" lon="0.9542369526967451"><ele>142.0</ele><time>2026-04-06T12:04:21Z</time></trkpt><trkpt lat="44.52746368131065" lon="0.9542075614736083"><ele>142.0</ele><time>2026-04-06T12:04:22Z</time></trkpt><trkpt lat="44.527390979798874" lon="0.9541750778852539"><ele>140.83333333333334</ele><time>2026-04-06T12:04:23Z</time></trkpt><trkpt lat="44.527315440531865" lon="0.9541417265225145"><ele>139.66666666666669</ele><time>2026-04-06T12:04:24Z</time></trkpt><trkpt lat="44.52723768563874" lon="0.9540961150172003"><ele>138.5</ele><time>2026-04-06T12:04:25Z</time></trkpt><trkpt lat="44.52716310031105" lon="0.9540923664512361"><ele>137.33333333333334</ele><time>2026-04-06T12:04:26Z</time></trkpt><trkpt lat="44.527076660924585" lon="0.954060410670435"><ele>136.16666666666666</ele><time>2026-04-06T12:04:27Z</time></trkpt><trkpt lat="44.52698986925652" lon="0.954031670551198"><ele>135.0</ele><time>2026-04-06T12:04:28Z</time></trkpt><trkpt lat="44.526903356782384" lon="0.9540090388125605"><ele>134.16666666666666</ele><time>2026-04-06T12:04:29Z</time></trkpt><trkpt lat="44.5268151464769" lon="0.9539906474491389"><ele>133.33333333333334</ele><time>2026-04-06T12:04:30Z</time></trkpt><trkpt lat="44.52673901607261" lon="0.9539716423148975"><ele>132.5</ele><time>2026-04-06T12:04:31Z</time></trkpt><trkpt lat="44.52662737749003" lon="0.9539480090991378"><ele>131.66666666666669</ele><time>2026-04-06T12:04:33Z</time></trkpt><trkpt lat="44.52653492556112" lon="0.9539405658391509"><ele>130.83333333333334</ele><time>2026-04-06T12:04:34.999Z</time></trkpt><trkpt lat="44.52646569836669" lon="0.9539706180970259"><ele>130.0</ele><time>2026-04-06T12:04:37.999Z</time></trkpt><trkpt lat="44.52646745683638" lon="0.9541841692808892"><ele>131.0</ele><time>2026-04-06T12:04:38.999Z</time></trkpt><trkpt lat="44.52639759489249" lon="0.9542854633999986"><ele>132.0</ele><time>2026-04-06T12:04:40.999Z</time></trkpt><trkpt lat="44.52634553244309" lon="0.9544168419571334"><ele>133.0</ele><time>2026-04-06T12:04:41.999Z</time></trkpt><trkpt lat="44.526287247619535" lon="0.9545413045680362"><ele>134.0</ele><time>2026-04-06T12:04:42.999Z</time></trkpt><trkpt lat="44.52621551556627" lon="0.9546558381650501"><ele>135.0</ele><time>2026-04-06T12:04:43.999Z</time></trkpt><trkpt lat="44.52619348018615" lon="0.954746916083298"><ele>135.4</ele><time>2026-04-06T12:04:44.999Z</time></trkpt><trkpt lat="44.52617151546868" lon="0.9548569542008188"><ele>135.8</ele><time>2026-04-06T12:04:45.999Z</time></trkpt><trkpt lat="44.52615678928638" lon="0.954945852348595"><ele>136.2</ele><time>2026-04-06T12:04:46.999Z</time></trkpt><trkpt lat="44.52622939533423" lon="0.9550804935372669"><ele>136.6</ele><time>2026-04-06T12:04:49Z</time></trkpt><trkpt lat="44.52629389475011" lon="0.9551654996242414"><ele>137.0</ele><time>2026-04-06T12:04:50Z</time></trkpt><trkpt lat="44.52639448171109" lon="0.9552417504670213"><ele>138.25</ele><time>2026-04-06T12:04:51Z</time></trkpt><trkpt lat="44.52648847565232" lon="0.9553265127318742"><ele>139.5</ele><time>2026-04-06T12:04:52Z</time></trkpt><trkpt lat="44.526609895770086" lon="0.9554041090562715"><ele>140.75</ele><time>2026-04-06T12:04:53Z</time></trkpt><trkpt lat="44.52673355290541" lon="0.955487822240242"><ele>142.0</ele><time>2026-04-06T12:04:54Z</time></trkpt><trkpt lat="44.526822632660284" lon="0.9555811814834638"><ele>142.0</ele><time>2026-04-06T12:04:55Z</time></trkpt><trkpt lat="44.52689499206789" lon="0.9556570654719172"><ele>142.0</ele><time>2026-04-06T12:04:56Z</time></trkpt><trkpt lat="44.526922710113766" lon="0.9557844105297281"><ele>142.0</ele><time>2026-04-06T12:04:58Z</time></trkpt><trkpt lat="44.52687595509218" lon="0.9558473604801153"><ele>142.0</ele><time>2026-04-06T12:04:59Z</time></trkpt><trkpt lat="44.52680890160344" lon="0.955920328812498"><ele>142.0</ele><time>2026-04-06T12:05:00Z</time></trkpt><trkpt lat="44.52673732772017" lon="0.9560340642034932"><ele>142.0</ele><time>2026-04-06T12:05:01Z</time></trkpt><trkpt lat="44.52668063590551" lon="0.9561154185661205"><ele>143.16666666666669</ele><time>2026-04-06T12:05:02Z</time></trkpt><trkpt lat="44.52663481188143" lon="0.9561826206019528"><ele>144.33333333333334</ele><time>2026-04-06T12:05:03Z</time></trkpt><trkpt lat="44.5266306301935" lon="0.9563017845786888"><ele>145.5</ele><time>2026-04-06T12:05:05Z</time></trkpt><trkpt lat="44.52665469077907" lon="0.9563877478602599"><ele>146.66666666666666</ele><time>2026-04-06T12:05:06Z</time></trkpt><trkpt lat="44.526684425536544" lon="0.9565658768816354"><ele>147.83333333333331</ele><time>2026-04-06T12:05:08Z</time></trkpt><trkpt lat="44.52670455968797" lon="0.9566555785727512"><ele>149.0</ele><time>2026-04-06T12:05:09Z</time></trkpt><trkpt lat="44.526708264549356" lon="0.9567506547991569"><ele>150.0</ele><time>2026-04-06T12:05:10Z</time></trkpt><trkpt lat="44.526726547112965" lon="0.9568875929095867"><ele>151.0</ele><time>2026-04-06T12:05:19Z</time></trkpt><trkpt lat="44.52671848097772" lon="0.956977907371248"><ele>152.0</ele><time>2026-04-06T12:05:20Z</time></trkpt><trkpt lat="44.52670335467396" lon="0.9570844101574705"><ele>153.0</ele><time>2026-04-06T12:05:21Z</time></trkpt><trkpt lat="44.526704493417235" lon="0.9572033802717613"><ele>154.0</ele><time>2026-04-06T12:05:22Z</time></trkpt><trkpt lat="44.52669961753972" lon="0.957315068425427"><ele>155.0</ele><time>2026-04-06T12:05:23Z</time></trkpt><trkpt lat="44.526643563781256" lon="0.957449017441006"><ele>155.0</ele><time>2026-04-06T12:05:25Z</time></trkpt><trkpt lat="44.526563359810304" lon="0.9574551582339633"><ele>155.0</ele><time>2026-04-06T12:05:26Z</time></trkpt><trkpt lat="44.52648767104829" lon="0.9574168050898227"><ele>155.0</ele><time>2026-04-06T12:05:27Z</time></trkpt><trkpt lat="44.526432600773205" lon="0.957466176805298"><ele>155.0</ele><time>2026-04-06T12:05:30Z</time></trkpt><trkpt lat="44.52644420219999" lon="0.9575623591325468"><ele>155.0</ele><time>2026-04-06T12:05:41Z</time></trkpt><trkpt lat="44.526479396754276" lon="0.957666957961438"><ele>155.0</ele><time>2026-04-06T12:05:43Z</time></trkpt><trkpt lat="44.52648485284115" lon="0.9577723773746568"><ele>156.33333333333331</ele><time>2026-04-06T12:05:45Z</time></trkpt><trkpt lat="44.52647926051692" lon="0.9578668801212374"><ele>157.66666666666666</ele><time>2026-04-06T12:05:47Z</time></trkpt><trkpt lat="44.52650132054151" lon="0.9579751369647657"><ele>159.0</ele><time>2026-04-06T12:09:05Z</time></trkpt><trkpt lat="44.526507208912534" lon="0.9580669598271494"><ele>160.33333333333334</ele><time>2026-04-06T12:09:08Z</time></trkpt><trkpt lat="44.52650370750296" lon="0.9582000695803968"><ele>161.66666666666669</ele><time>2026-04-06T12:09:12Z</time></trkpt><trkpt lat="44.526482457043265" lon="0.9583056291899914"><ele>163.0</ele><time>2026-04-06T12:09:21Z</time></trkpt><trkpt lat="44.52646082446951" lon="0.9584306730498918"><ele>163.4</ele><time>2026-04-06T12:09:23Z</time></trkpt><trkpt lat="44.526434653762216" lon="0.9585939387030317"><ele>163.8</ele><time>2026-04-06T12:09:25Z</time></trkpt><trkpt lat="44.52641394591514" lon="0.9586867377480149"><ele>164.2</ele><time>2026-04-06T12:09:26Z</time></trkpt><trkpt lat="44.52637895246041" lon="0.958763527573256"><ele>164.6</ele><time>2026-04-06T12:09:27Z</time></trkpt><trkpt lat="44.52631166098771" lon="0.9589164006620441"><ele>165.0</ele><time>2026-04-06T12:09:29Z</time></trkpt><trkpt lat="44.52629902499541" lon="0.9590478074714303"><ele>165.0</ele><time>2026-04-06T12:09:30Z</time></trkpt><trkpt lat="44.52626524792729" lon="0.9591777827766506"><ele>165.0</ele><time>2026-04-06T12:09:31Z</time></trkpt><trkpt lat="44.526241546108686" lon="0.9592846093625966"><ele>165.0</ele><time>2026-04-06T12:09:32Z</time></trkpt><trkpt lat="44.52618124937158" lon="0.9593833861311805"><ele>165.0</ele><time>2026-04-06T12:09:34Z</time></trkpt><trkpt lat="44.5261233074317" lon="0.9595385755972652"><ele>165.0</ele><time>2026-04-06T12:09:36Z</time></trkpt><trkpt lat="44.526064366812676" lon="0.9596475587419145"><ele>163.8</ele><time>2026-04-06T12:09:38Z</time></trkpt><trkpt lat="44.52596993509296" lon="0.9596904421269782"><ele>162.6</ele><time>2026-04-06T12:09:40Z</time></trkpt><trkpt lat="44.52585364844397" lon="0.9597348225934416"><ele>161.4</ele><time>2026-04-06T12:09:42Z</time></trkpt><trkpt lat="44.52575192544866" lon="0.959738140936696"><ele>160.2</ele><time>2026-04-06T12:09:44Z</time></trkpt><trkpt lat="44.52564101743441" lon="0.9597373485027273"><ele>159.0</ele><time>2026-04-06T12:09:46Z</time></trkpt><trkpt lat="44.52554550289614" lon="0.9597555891873893"><ele>159.0</ele><time>2026-04-06T12:09:47Z</time></trkpt><trkpt lat="44.525476866048145" lon="0.9597338332716289"><ele>159.0</ele><time>2026-04-06T12:09:48Z</time></trkpt><trkpt lat="44.5253701628606" lon="0.959644146853805"><ele>159.0</ele><time>2026-04-06T12:09:50Z</time></trkpt><trkpt lat="44.525307519205555" lon="0.9595915425752869"><ele>159.0</ele><time>2026-04-06T12:09:51Z</time></trkpt><trkpt lat="44.52518250138987" lon="0.9594934647429748"><ele>159.0</ele><time>2026-04-06T12:09:53Z</time></trkpt><trkpt lat="44.525113239847705" lon="0.9594034328933747"><ele>159.16666666666666</ele><time>2026-04-06T12:09:54Z</time></trkpt><trkpt lat="44.52505912780052" lon="0.9593572083491887"><ele>159.33333333333334</ele><time>2026-04-06T12:09:55Z</time></trkpt><trkpt lat="44.525010134682944" lon="0.9592942407851415"><ele>159.5</ele><time>2026-04-06T12:09:56Z</time></trkpt><trkpt lat="44.5249260904067" lon="0.9592255609032485"><ele>159.66666666666669</ele><time>2026-04-06T12:09:58Z</time></trkpt><trkpt lat="44.52484149665243" lon="0.9591539003089626"><ele>159.83333333333334</ele><time>2026-04-06T12:10:00Z</time></trkpt><trkpt lat="44.5247382782591" lon="0.9590731224133654"><ele>160.0</ele><time>2026-04-06T12:10:02Z</time></trkpt><trkpt lat="44.524668419226344" lon="0.959046968638519"><ele>160.0</ele><time>2026-04-06T12:10:03Z</time></trkpt><trkpt lat="44.52459876467358" lon="0.959016261884429"><ele>160.0</ele><time>2026-04-06T12:10:04Z</time></trkpt><trkpt lat="44.524503350649105" lon="0.9589782953103919"><ele>160.0</ele><time>2026-04-06T12:10:06Z</time></trkpt><trkpt lat="44.524393937252725" lon="0.9589112679885614"><ele>160.0</ele><time>2026-04-06T12:10:08Z</time></trkpt><trkpt lat="44.524304153255635" lon="0.9588366820661888"><ele>160.0</ele><time>2026-04-06T12:10:10Z</time></trkpt><trkpt lat="44.52423006663345" lon="0.9587175713286972"><ele>159.0</ele><time>2026-04-06T12:10:12Z</time></trkpt><trkpt lat="44.52416680353306" lon="0.9586339285610881"><ele>158.0</ele><time>2026-04-06T12:10:13Z</time></trkpt><trkpt lat="44.524101840287045" lon="0.9585497627476353"><ele>157.0</ele><time>2026-04-06T12:10:14Z</time></trkpt><trkpt lat="44.52405021728187" lon="0.958471481013624"><ele>156.0</ele><time>2026-04-06T12:10:15Z</time></trkpt><trkpt lat="44.524002404140184" lon="0.9584065100598482"><ele>155.0</ele><time>2026-04-06T12:10:16Z</time></trkpt><trkpt lat="44.5239179597763" lon="0.9583601434840736"><ele>154.0</ele><time>2026-04-06T12:10:17Z</time></trkpt><trkpt lat="44.523826125295265" lon="0.9583220648087625"><ele>151.8</ele><time>2026-04-06T12:10:18Z</time></trkpt><trkpt lat="44.52371060959558" lon="0.9583216590302306"><ele>149.60000000000002</ele><time>2026-04-06T12:10:19Z</time></trkpt><trkpt lat="44.52361269365856" lon="0.9583045745938112"><ele>147.4</ele><time>2026-04-06T12:10:19.999Z</time></trkpt><trkpt lat="44.52354099041208" lon="0.9582524755564646"><ele>145.20000000000002</ele><time>2026-04-06T12:10:20.999Z</time></trkpt><trkpt lat="44.52348066396384" lon="0.9581877115231456"><ele>143.0</ele><time>2026-04-06T12:10:21.999Z</time></trkpt><trkpt lat="44.52342330575647" lon="0.9581072079234486"><ele>143.0</ele><time>2026-04-06T12:10:22.999Z</time></trkpt><trkpt lat="44.523333935638426" lon="0.9580611141903199"><ele>143.0</ele><time>2026-04-06T12:10:23.999Z</time></trkpt><trkpt lat="44.5232295902765" lon="0.9580274048155599"><ele>143.0</ele><time>2026-04-06T12:10:24.999Z</time></trkpt><trkpt lat="44.523163624229674" lon="0.9579660172686918"><ele>143.0</ele><time>2026-04-06T12:10:25.999Z</time></trkpt><trkpt lat="44.52308775072699" lon="0.9579153523635505"><ele>143.0</ele><time>2026-04-06T12:10:27.999Z</time></trkpt><trkpt lat="44.52311298479399" lon="0.9578129356947096"><ele>143.0</ele><time>2026-04-06T12:10:29.999Z</time></trkpt><trkpt lat="44.52313185650949" lon="0.9577200852866706"><ele>143.0</ele><time>2026-04-06T12:10:30.999Z</time></trkpt><trkpt lat="44.523176998726065" lon="0.9576382993193585"><ele>143.0</ele><time>2026-04-06T12:10:31.999Z</time></trkpt><trkpt lat="44.523232753211545" lon="0.9575909152836467"><ele>143.0</ele><time>2026-04-06T12:10:32.999Z</time></trkpt><trkpt lat="44.523275481032115" lon="0.957429936503628"><ele>143.0</ele><time>2026-04-06T12:10:34.999Z</time></trkpt><trkpt lat="44.52342529564217" lon="0.9574192333156231"><ele>143.0</ele><time>2026-04-06T12:10:36.999Z</time></trkpt><trkpt lat="44.52349024320659" lon="0.9574029587128797"><ele>143.16666666666666</ele><time>2026-04-06T12:10:37.999Z</time></trkpt><trkpt lat="44.523517311843065" lon="0.9572928704845333"><ele>143.33333333333331</ele><time>2026-04-06T12:10:38.999Z</time></trkpt><trkpt lat="44.52354435771484" lon="0.9571979487918549"><ele>143.5</ele><time>2026-04-06T12:10:39.999Z</time></trkpt><trkpt lat="44.523570807052685" lon="0.9570814137835175"><ele>143.66666666666666</ele><time>2026-04-06T12:10:41.999Z</time></trkpt><trkpt lat="44.52360399252253" lon="0.9569639223575017"><ele>143.83333333333334</ele><time>2026-04-06T12:10:44.999Z</time></trkpt><trkpt lat="44.523646605319605" lon="0.9568730937739082"><ele>144.0</ele><time>2026-04-06T12:10:47.999Z</time></trkpt><trkpt lat="44.52368964324498" lon="0.9568071868658841"><ele>147.0</ele><time>2026-04-06T12:10:49.999Z</time></trkpt><trkpt lat="44.52373516476039" lon="0.956724949235946"><ele>150.0</ele><time>2026-04-06T12:11:05.999Z</time></trkpt><trkpt lat="44.52384659054336" lon="0.956785281771277"><ele>153.0</ele><time>2026-04-06T12:11:07.999Z</time></trkpt><trkpt lat="44.52396723546214" lon="0.956850384983806"><ele>156.0</ele><time>2026-04-06T12:11:09.999Z</time></trkpt><trkpt lat="44.524089991351815" lon="0.9569014354457106"><ele>156.0</ele><time>2026-04-06T12:11:11.999Z</time></trkpt><trkpt lat="44.524162874957675" lon="0.9568933956519124"><ele>156.0</ele><time>2026-04-06T12:11:12.999Z</time></trkpt><trkpt lat="44.524228887196834" lon="0.9568827484831658"><ele>156.0</ele><time>2026-04-06T12:11:13.999Z</time></trkpt><trkpt lat="44.52429484589713" lon="0.9568994402587624"><ele>156.0</ele><time>2026-04-06T12:11:14.999Z</time></trkpt><trkpt lat="44.524328081694556" lon="0.9570633925171999"><ele>156.0</ele><time>2026-04-06T12:11:16.999Z</time></trkpt><trkpt lat="44.52432396154991" lon="0.9571777284167288"><ele>156.0</ele><time>2026-04-06T12:11:17.999Z</time></trkpt><trkpt lat="44.52437963405233" lon="0.9572519016368032"><ele>156.0</ele><time>2026-04-06T12:11:40Z</time></trkpt><trkpt lat="44.52443479844508" lon="0.9573000610409715"><ele>156.0</ele><time>2026-04-06T12:11:42Z</time></trkpt><trkpt lat="44.52450526966904" lon="0.9573993083616138"><ele>156.0</ele><time>2026-04-06T12:11:45Z</time></trkpt><trkpt lat="44.52461332989812" lon="0.9574176251216385"><ele>156.0</ele><time>2026-04-06T12:11:47Z</time></trkpt><trkpt lat="44.52464520206157" lon="0.9573362699889439"><ele>156.0</ele><time>2026-04-06T12:11:48Z</time></trkpt><trkpt lat="44.52471561278251" lon="0.9573093407342131"><ele>156.0</ele><time>2026-04-06T12:12:02Z</time></trkpt><trkpt lat="44.52478639651649" lon="0.9572352239283407"><ele>157.83333333333334</ele><time>2026-04-06T12:12:05Z</time></trkpt><trkpt lat="44.524746593197825" lon="0.9571292289658258"><ele>159.66666666666666</ele><time>2026-04-06T12:12:18.999Z</time></trkpt><trkpt lat="44.524714809044305" lon="0.9570340461956763"><ele>161.5</ele><time>2026-04-06T12:12:20.999Z</time></trkpt><trkpt lat="44.52470462418541" lon="0.9569223804705743"><ele>163.33333333333331</ele><time>2026-04-06T12:12:22.999Z</time></trkpt><trkpt lat="44.5247670884224" lon="0.9568004103410062"><ele>165.16666666666666</ele><time>2026-04-06T12:12:24.999Z</time></trkpt><trkpt lat="44.5247978420607" lon="0.9566899591007499"><ele>167.0</ele><time>2026-04-06T12:12:26.999Z</time></trkpt><trkpt lat="44.524883247756854" lon="0.9567101811965742"><ele>167.0</ele><time>2026-04-06T12:12:28.999Z</time></trkpt><trkpt lat="44.52496816246057" lon="0.9566693028407489"><ele>167.0</ele><time>2026-04-06T12:12:30.999Z</time></trkpt><trkpt lat="44.52505468323271" lon="0.9567306995051214"><ele>167.0</ele><time>2026-04-06T12:12:32.999Z</time></trkpt><trkpt lat="44.52514970073873" lon="0.9567885655693281"><ele>167.0</ele><time>2026-04-06T12:12:33.999Z</time></trkpt><trkpt lat="44.52523424450688" lon="0.9568227971008055"><ele>167.0</ele><time>2026-04-06T12:12:34.999Z</time></trkpt><trkpt lat="44.52529830511013" lon="0.9568521980260714"><ele>167.0</ele><time>2026-04-06T12:12:35.999Z</time></trkpt><trkpt lat="44.5254022346682" lon="0.956905242252913"><ele>167.0</ele><time>2026-04-06T12:12:37.999Z</time></trkpt><trkpt lat="44.52546184254775" lon="0.9569609545136349"><ele>167.0</ele><time>2026-04-06T12:12:38.999Z</time></trkpt><trkpt lat="44.52551340253388" lon="0.9570315638374379"><ele>167.0</ele><time>2026-04-06T12:12:39.999Z</time></trkpt><trkpt lat="44.52561555863294" lon="0.9570583504887605"><ele>167.0</ele><time>2026-04-06T12:12:41.999Z</time></trkpt><trkpt lat="44.525712284382635" lon="0.9571085939990506"><ele>167.0</ele><time>2026-04-06T12:12:43.999Z</time></trkpt><trkpt lat="44.52577373817827" lon="0.9571374464352986"><ele>167.0</ele><time>2026-04-06T12:12:44.999Z</time></trkpt><trkpt lat="44.525835613280925" lon="0.9571661286434727"><ele>167.0</ele><time>2026-04-06T12:12:45.999Z</time></trkpt><trkpt lat="44.52595149030301" lon="0.9572252833804537"><ele>167.0</ele><time>2026-04-06T12:12:47.999Z</time></trkpt><trkpt lat="44.526025026696324" lon="0.9572690068024147"><ele>167.0</ele><time>2026-04-06T12:12:48.999Z</time></trkpt><trkpt lat="44.52609827799825" lon="0.9572930695504768"><ele>167.0</ele><time>2026-04-06T12:12:49.999Z</time></trkpt><trkpt lat="44.52617180035186" lon="0.9573397865411224"><ele>167.0</ele><time>2026-04-06T12:12:50.999Z</time></trkpt><trkpt lat="44.52624554239301" lon="0.9573701685079813"><ele>167.0</ele><time>2026-04-06T12:12:51.999Z</time></trkpt><trkpt lat="44.52635144431089" lon="0.9574200002091277"><ele>166.33333333333331</ele><time>2026-04-06T12:12:52.999Z</time></trkpt><trkpt lat="44.52641082856289" lon="0.9574496065601898"><ele>165.66666666666666</ele><time>2026-04-06T12:12:53.999Z</time></trkpt><trkpt lat="44.52644443119894" lon="0.9575450687958775"><ele>165.0</ele><time>2026-04-06T12:14:11Z</time></trkpt><trkpt lat="44.52646505895793" lon="0.9576734831057456"><ele>164.33333333333334</ele><time>2026-04-06T12:14:13Z</time></trkpt><trkpt lat="44.52642124910118" lon="0.957805471099777"><ele>163.66666666666669</ele><time>2026-04-06T12:14:15Z</time></trkpt><trkpt lat="44.526406669175635" lon="0.9579514330954542"><ele>163.0</ele><time>2026-04-06T12:14:17Z</time></trkpt><trkpt lat="44.52643493424916" lon="0.9580431016993772"><ele>163.0</ele><time>2026-04-06T12:14:17.999Z</time></trkpt><trkpt lat="44.52646941248789" lon="0.9581438557049723"><ele>163.0</ele><time>2026-04-06T12:14:18.999Z</time></trkpt><trkpt lat="44.52645976112719" lon="0.958314664639124"><ele>163.0</ele><time>2026-04-06T12:14:20.999Z</time></trkpt><trkpt lat="44.526440909689775" lon="0.958405019574863"><ele>163.0</ele><time>2026-04-06T12:14:21.999Z</time></trkpt><trkpt lat="44.526414924582994" lon="0.9584864954755923"><ele>163.0</ele><time>2026-04-06T12:14:22.999Z</time></trkpt><trkpt lat="44.52640028890566" lon="0.9585934151309929"><ele>163.0</ele><time>2026-04-06T12:14:23.999Z</time></trkpt><trkpt lat="44.526385402227596" lon="0.9587076367493081"><ele>163.33333333333334</ele><time>2026-04-06T12:14:24.999Z</time></trkpt><trkpt lat="44.526352457694514" lon="0.9588062363617664"><ele>163.66666666666669</ele><time>2026-04-06T12:14:25.999Z</time></trkpt><trkpt lat="44.52631204639985" lon="0.958884344583299"><ele>164.0</ele><time>2026-04-06T12:14:26.999Z</time></trkpt><trkpt lat="44.52628626807091" lon="0.9589830821018049"><ele>164.33333333333334</ele><time>2026-04-06T12:14:27.999Z</time></trkpt><trkpt lat="44.52626008600078" lon="0.9590782900676503"><ele>164.66666666666666</ele><time>2026-04-06T12:14:28.999Z</time></trkpt><trkpt lat="44.52624714811656" lon="0.9592158016518503"><ele>165.0</ele><time>2026-04-06T12:14:30.999Z</time></trkpt><trkpt lat="44.526300831833744" lon="0.9593305771327422"><ele>164.2</ele><time>2026-04-06T12:14:32.999Z</time></trkpt><trkpt lat="44.52639063750683" lon="0.9594173961546579"><ele>163.4</ele><time>2026-04-06T12:14:34.999Z</time></trkpt><trkpt lat="44.5264612031249" lon="0.9594188709396598"><ele>162.60000000000002</ele><time>2026-04-06T12:14:35.999Z</time></trkpt><trkpt lat="44.52653478224824" lon="0.9593893774798716"><ele>161.8</ele><time>2026-04-06T12:14:36.999Z</time></trkpt><trkpt lat="44.52660177748869" lon="0.9594958495707022"><ele>161.0</ele><time>2026-04-06T12:14:38.999Z</time></trkpt><trkpt lat="44.52667000643448" lon="0.9595922346818688"><ele>161.0</ele><time>2026-04-06T12:14:39.999Z</time></trkpt><trkpt lat="44.52676577897372" lon="0.95967527464664"><ele>161.0</ele><time>2026-04-06T12:14:40.999Z</time></trkpt><trkpt lat="44.52684597294915" lon="0.9597934566109647"><ele>161.0</ele><time>2026-04-06T12:14:41.999Z</time></trkpt><trkpt lat="44.52693337292458" lon="0.9598896591078683"><ele>161.0</ele><time>2026-04-06T12:14:42.999Z</time></trkpt><trkpt lat="44.527048361186424" lon="0.9599874944360444"><ele>161.0</ele><time>2026-04-06T12:14:43.999Z</time></trkpt><trkpt lat="44.5271457161935" lon="0.9600687422143269"><ele>161.0</ele><time>2026-04-06T12:14:44.999Z</time></trkpt><trkpt lat="44.52721922550854" lon="0.9601174540508811"><ele>161.0</ele><time>2026-04-06T12:14:45.999Z</time></trkpt><trkpt lat="44.52729043019162" lon="0.9601842516784513"><ele>161.0</ele><time>2026-04-06T12:14:46.999Z</time></trkpt><trkpt lat="44.52732176490316" lon="0.960273702201602"><ele>161.0</ele><time>2026-04-06T12:14:47.999Z</time></trkpt><trkpt lat="44.5273491171597" lon="0.9604044735525182"><ele>161.0</ele><time>2026-04-06T12:14:49.999Z</time></trkpt><trkpt lat="44.52739848715707" lon="0.9604939256522411"><ele>161.0</ele><time>2026-04-06T12:14:51.999Z</time></trkpt><trkpt lat="44.5274218395109" lon="0.9606544579328694"><ele>161.0</ele><time>2026-04-06T12:14:53.999Z</time></trkpt><trkpt lat="44.52743625002868" lon="0.9607817095178818"><ele>161.0</ele><time>2026-04-06T12:14:54.999Z</time></trkpt><trkpt lat="44.527470950750086" lon="0.9609144319915617"><ele>161.0</ele><time>2026-04-06T12:14:55.999Z</time></trkpt><trkpt lat="44.527492919163016" lon="0.9610623691588752"><ele>161.0</ele><time>2026-04-06T12:14:56.999Z</time></trkpt><trkpt lat="44.52752553603154" lon="0.9612097253059454"><ele>161.0</ele><time>2026-04-06T12:14:57.999Z</time></trkpt><trkpt lat="44.52755588568623" lon="0.9613419811692426"><ele>161.0</ele><time>2026-04-06T12:14:58.999Z</time></trkpt><trkpt lat="44.52753950651636" lon="0.9614710537640093"><ele>161.0</ele><time>2026-04-06T12:14:59.999Z</time></trkpt><trkpt lat="44.52755597359268" lon="0.9616343466558367"><ele>161.0</ele><time>2026-04-06T12:15:00.999Z</time></trkpt><trkpt lat="44.527568266123986" lon="0.9617424309791552"><ele>161.0</ele><time>2026-04-06T12:15:01.999Z</time></trkpt><trkpt lat="44.527538822789424" lon="0.9618527658235998"><ele>161.0</ele><time>2026-04-06T12:15:02.999Z</time></trkpt><trkpt lat="44.52751322541569" lon="0.9619983468851286"><ele>161.0</ele><time>2026-04-06T12:15:03.999Z</time></trkpt><trkpt lat="44.52751753133466" lon="0.9621325345957369"><ele>161.0</ele><time>2026-04-06T12:15:04.999Z</time></trkpt><trkpt lat="44.52749911383538" lon="0.9622515379138832"><ele>161.0</ele><time>2026-04-06T12:15:05.999Z</time></trkpt><trkpt lat="44.52747468779985" lon="0.9623866940267081"><ele>161.0</ele><time>2026-04-06T12:15:06.999Z</time></trkpt><trkpt lat="44.52744943597324" lon="0.9625525894042598"><ele>161.0</ele><time>2026-04-06T12:15:07.999Z</time></trkpt><trkpt lat="44.52743572321103" lon="0.9627351582247228"><ele>161.0</ele><time>2026-04-06T12:15:08.999Z</time></trkpt><trkpt lat="44.52741735855461" lon="0.9629317368693088"><ele>161.0</ele><time>2026-04-06T12:15:09.999Z</time></trkpt><trkpt lat="44.5273962588812" lon="0.9631190777998113"><ele>161.0</ele><time>2026-04-06T12:15:10.999Z</time></trkpt><trkpt lat="44.527370542034845" lon="0.9633220222962726"><ele>161.25</ele><time>2026-04-06T12:15:11.999Z</time></trkpt><trkpt lat="44.527364158682246" lon="0.9635212396973738"><ele>161.5</ele><time>2026-04-06T12:15:12.999Z</time></trkpt><trkpt lat="44.52733926564303" lon="0.9637089123528666"><ele>161.75</ele><time>2026-04-06T12:15:13.999Z</time></trkpt><trkpt lat="44.52731849654781" lon="0.9638510401978889"><ele>162.0</ele><time>2026-04-06T12:15:14.999Z</time></trkpt><trkpt lat="44.52729927709589" lon="0.9639576486852384"><ele>162.0</ele><time>2026-04-06T12:15:15.999Z</time></trkpt><trkpt lat="44.52727193525344" lon="0.964111247139234"><ele>162.0</ele><time>2026-04-06T12:15:17.999Z</time></trkpt><trkpt lat="44.52719829938116" lon="0.9642174495985678"><ele>162.0</ele><time>2026-04-06T12:15:19.999Z</time></trkpt><trkpt lat="44.52715554821137" lon="0.9643620520528279"><ele>162.0</ele><time>2026-04-06T12:15:21.999Z</time></trkpt><trkpt lat="44.52712283813985" lon="0.9644377133792034"><ele>162.0</ele><time>2026-04-06T12:15:22.999Z</time></trkpt><trkpt lat="44.52706250780529" lon="0.9645928045180935"><ele>163.33333333333334</ele><time>2026-04-06T12:15:24.999Z</time></trkpt><trkpt lat="44.52703347346607" lon="0.964674383224386"><ele>164.66666666666666</ele><time>2026-04-06T12:15:25.999Z</time></trkpt><trkpt lat="44.52701018900769" lon="0.9647711909697027"><ele>166.0</ele><time>2026-04-06T12:15:26.999Z</time></trkpt><trkpt lat="44.527004099320514" lon="0.9648693878579053"><ele>167.33333333333331</ele><time>2026-04-06T12:15:27.999Z</time></trkpt><trkpt lat="44.527003482385865" lon="0.9649788060913145"><ele>168.66666666666666</ele><time>2026-04-06T12:15:28.999Z</time></trkpt><trkpt lat="44.52701653546821" lon="0.9650926787894027"><ele>170.0</ele><time>2026-04-06T12:15:29.999Z</time></trkpt><trkpt lat="44.52701532057338" lon="0.965231747025212"><ele>170.25</ele><time>2026-04-06T12:15:30.999Z</time></trkpt><trkpt lat="44.52702406678973" lon="0.9653977214769985"><ele>170.5</ele><time>2026-04-06T12:15:31.999Z</time></trkpt><trkpt lat="44.52701639546953" lon="0.9655885088882024"><ele>170.75</ele><time>2026-04-06T12:15:32.999Z</time></trkpt><trkpt lat="44.52702068197081" lon="0.9657604458350584"><ele>171.0</ele><time>2026-04-06T12:15:33.999Z</time></trkpt><trkpt lat="44.52703643623559" lon="0.9659059550638575"><ele>171.0</ele><time>2026-04-06T12:15:34.999Z</time></trkpt><trkpt lat="44.52707896867531" lon="0.9660235343378769"><ele>171.0</ele><time>2026-04-06T12:15:35.999Z</time></trkpt><trkpt lat="44.527089262187204" lon="0.9661536686320679"><ele>171.0</ele><time>2026-04-06T12:15:36.999Z</time></trkpt><trkpt lat="44.52710078475245" lon="0.9663042078996213"><ele>171.0</ele><time>2026-04-06T12:15:37.999Z</time></trkpt><trkpt lat="44.52711264785372" lon="0.9664591956808859"><ele>171.0</ele><time>2026-04-06T12:15:38.999Z</time></trkpt><trkpt lat="44.527080998078816" lon="0.966572988302053"><ele>174.0</ele><time>2026-04-06T12:15:40Z</time></trkpt><trkpt lat="44.527333418340554" lon="0.9667243501463123"><ele>177.0</ele><time>2026-04-06T12:15:41Z</time></trkpt><trkpt lat="44.527393552275825" lon="0.9668626641762043"><ele>180.0</ele><time>2026-04-06T12:15:42Z</time></trkpt><trkpt lat="44.52744344166594" lon="0.9669995458872054"><ele>180.0</ele><time>2026-04-06T12:15:43Z</time></trkpt><trkpt lat="44.52750729950473" lon="0.9671715790084934"><ele>180.0</ele><time>2026-04-06T12:15:45Z</time></trkpt><trkpt lat="44.52750724885306" lon="0.9672831727919355"><ele>180.0</ele><time>2026-04-06T12:15:46Z</time></trkpt><trkpt lat="44.52752430184602" lon="0.9673927811975667"><ele>180.0</ele><time>2026-04-06T12:15:47Z</time></trkpt><trkpt lat="44.527537143198124" lon="0.9675035784914942"><ele>180.0</ele><time>2026-04-06T12:15:48Z</time></trkpt><trkpt lat="44.527562126311445" lon="0.9676290087237015"><ele>180.8</ele><time>2026-04-06T12:15:49Z</time></trkpt><trkpt lat="44.52760544054387" lon="0.9677534041787096"><ele>181.6</ele><time>2026-04-06T12:15:50Z</time></trkpt><trkpt lat="44.52765481314786" lon="0.967880375839022"><ele>182.39999999999998</ele><time>2026-04-06T12:15:51Z</time></trkpt><trkpt lat="44.52768347937346" lon="0.9679961650291287"><ele>183.2</ele><time>2026-04-06T12:15:52Z</time></trkpt><trkpt lat="44.52773652480435" lon="0.9681261718438282"><ele>184.0</ele><time>2026-04-06T12:15:53Z</time></trkpt><trkpt lat="44.52781786801563" lon="0.9682304405734568"><ele>184.39999999999998</ele><time>2026-04-06T12:15:54Z</time></trkpt><trkpt lat="44.52789884278714" lon="0.9683377307997472"><ele>184.8</ele><time>2026-04-06T12:15:55Z</time></trkpt><trkpt lat="44.527948387098895" lon="0.9684269327571401"><ele>185.2</ele><time>2026-04-06T12:15:56Z</time></trkpt><trkpt lat="44.528049874916086" lon="0.9684730782734814"><ele>185.60000000000002</ele><time>2026-04-06T12:15:58Z</time></trkpt><trkpt lat="44.52807273217765" lon="0.9686019173814508"><ele>186.0</ele><time>2026-04-06T12:16:00Z</time></trkpt><trkpt lat="44.528092914773445" lon="0.9686986648972914"><ele>186.33333333333334</ele><time>2026-04-06T12:16:01Z</time></trkpt><trkpt lat="44.52812235488567" lon="0.9688025277991102"><ele>186.66666666666666</ele><time>2026-04-06T12:16:02Z</time></trkpt><trkpt lat="44.5281911632763" lon="0.9688698873147196"><ele>187.0</ele><time>2026-04-06T12:16:03Z</time></trkpt><trkpt lat="44.528254510656176" lon="0.9689158529744006"><ele>187.33333333333331</ele><time>2026-04-06T12:16:04Z</time></trkpt><trkpt lat="44.52829038249112" lon="0.969073111224904"><ele>187.66666666666666</ele><time>2026-04-06T12:16:06Z</time></trkpt><trkpt lat="44.52828473539181" lon="0.9691791618209936"><ele>188.0</ele><time>2026-04-06T12:16:07Z</time></trkpt><trkpt lat="44.52830707967529" lon="0.9693108687367643"><ele>188.60000000000002</ele><time>2026-04-06T12:16:08Z</time></trkpt><trkpt lat="44.528348010110065" lon="0.96942413352677"><ele>189.20000000000002</ele><time>2026-04-06T12:16:09Z</time></trkpt><trkpt lat="44.52841960816622" lon="0.9695544239249505"><ele>189.8</ele><time>2026-04-06T12:16:11Z</time></trkpt><trkpt lat="44.528438557849796" lon="0.9696592798165284"><ele>190.4</ele><time>2026-04-06T12:16:13Z</time></trkpt><trkpt lat="44.528425790797165" lon="0.9698269995638339"><ele>191.0</ele><time>2026-04-06T12:16:15Z</time></trkpt><trkpt lat="44.528422661639446" lon="0.9699197514663208"><ele>190.8</ele><time>2026-04-06T12:16:16Z</time></trkpt><trkpt lat="44.52836444957282" lon="0.9701031511349525"><ele>190.60000000000002</ele><time>2026-04-06T12:16:18Z</time></trkpt><trkpt lat="44.52833103314227" lon="0.9702177530857878"><ele>190.4</ele><time>2026-04-06T12:16:19Z</time></trkpt><trkpt lat="44.52833537265903" lon="0.9703156890622723"><ele>190.2</ele><time>2026-04-06T12:16:20Z</time></trkpt><trkpt lat="44.528295152821414" lon="0.9704567404535707"><ele>190.0</ele><time>2026-04-06T12:16:22Z</time></trkpt><trkpt lat="44.52826866275902" lon="0.9705388394929625"><ele>190.0</ele><time>2026-04-06T12:16:24Z</time></trkpt><trkpt lat="44.52824014805163" lon="0.9706564805962952"><ele>190.0</ele><time>2026-04-06T12:16:26Z</time></trkpt><trkpt lat="44.528179321442835" lon="0.9707929907508053"><ele>190.0</ele><time>2026-04-06T12:16:28Z</time></trkpt><trkpt lat="44.52813140701402" lon="0.9709055968715871"><ele>190.0</ele><time>2026-04-06T12:16:30Z</time></trkpt><trkpt lat="44.52807395449483" lon="0.9710842452597958"><ele>190.0</ele><time>2026-04-06T12:16:32Z</time></trkpt><trkpt lat="44.52804122916087" lon="0.9712339693515954"><ele>190.0</ele><time>2026-04-06T12:16:34Z</time></trkpt><trkpt lat="44.528022881953994" lon="0.9713219953751344"><ele>190.0</ele><time>2026-04-06T12:16:35Z</time></trkpt><trkpt lat="44.527991764480305" lon="0.971487611068315"><ele>190.0</ele><time>2026-04-06T12:16:37Z</time></trkpt><trkpt lat="44.527965683654784" lon="0.971611924953403"><ele>190.0</ele><time>2026-04-06T12:16:39Z</time></trkpt><trkpt lat="44.5279419432148" lon="0.9717529108346324"><ele>190.0</ele><time>2026-04-06T12:16:41Z</time></trkpt><trkpt lat="44.52789813583072" lon="0.9718292476382938"><ele>186.0</ele><time>2026-04-06T12:16:42Z</time></trkpt><trkpt lat="44.52786597989933" lon="0.9719144800527992"><ele>182.0</ele><time>2026-04-06T12:16:43Z</time></trkpt><trkpt lat="44.52784699873734" lon="0.9720525621207271"><ele>178.0</ele><time>2026-04-06T12:16:45Z</time></trkpt><trkpt lat="44.527798769383175" lon="0.972202655897067"><ele>174.0</ele><time>2026-04-06T12:16:47Z</time></trkpt><trkpt lat="44.527785744870286" lon="0.9723408727601265"><ele>170.0</ele><time>2026-04-06T12:16:49Z</time></trkpt><trkpt lat="44.527760788850216" lon="0.9724427412856994"><ele>169.83333333333331</ele><time>2026-04-06T12:16:51Z</time></trkpt><trkpt lat="44.52773994056332" lon="0.9725698267809444"><ele>169.66666666666666</ele><time>2026-04-06T12:16:53Z</time></trkpt><trkpt lat="44.52774210356108" lon="0.9726652241950601"><ele>169.5</ele><time>2026-04-06T12:16:55Z</time></trkpt><trkpt lat="44.527713659003794" lon="0.9727742103504923"><ele>169.33333333333334</ele><time>2026-04-06T12:16:58Z</time></trkpt><trkpt lat="44.52769757767208" lon="0.9728811987831083"><ele>169.16666666666669</ele><time>2026-04-06T12:17:00Z</time></trkpt><trkpt lat="44.52768702088593" lon="0.972979053952979"><ele>169.0</ele><time>2026-04-06T12:17:02Z</time></trkpt><trkpt lat="44.52766911932464" lon="0.9730889340303452"><ele>169.0</ele><time>2026-04-06T12:17:04Z</time></trkpt><trkpt lat="44.52764626391589" lon="0.9732092175313052"><ele>169.0</ele><time>2026-04-06T12:17:06Z</time></trkpt><trkpt lat="44.52761790157416" lon="0.9733161089451947"><ele>169.0</ele><time>2026-04-06T12:17:08Z</time></trkpt><trkpt lat="44.52758374141121" lon="0.9734145569130201"><ele>169.0</ele><time>2026-04-06T12:17:10Z</time></trkpt><trkpt lat="44.527543579416985" lon="0.9734861842716994"><ele>169.0</ele><time>2026-04-06T12:17:12Z</time></trkpt><trkpt lat="44.52755063336345" lon="0.9735869404147097"><ele>169.0</ele><time>2026-04-06T12:17:15Z</time></trkpt><trkpt lat="44.52759561288912" lon="0.9736502729579752"><ele>169.0</ele><time>2026-04-06T12:17:16Z</time></trkpt><trkpt lat="44.52765065530219" lon="0.973717404939656"><ele>169.6</ele><time>2026-04-06T12:17:17Z</time></trkpt><trkpt lat="44.5276891287068" lon="0.9738238078986322"><ele>170.2</ele><time>2026-04-06T12:17:18Z</time></trkpt><trkpt lat="44.52775735481534" lon="0.9739464147478434"><ele>170.79999999999998</ele><time>2026-04-06T12:17:19Z</time></trkpt><trkpt lat="44.52779094706692" lon="0.9740824235955832"><ele>171.39999999999998</ele><time>2026-04-06T12:17:20Z</time></trkpt><trkpt lat="44.52783392139702" lon="0.9742371441498503"><ele>172.0</ele><time>2026-04-06T12:17:21Z</time></trkpt><trkpt lat="44.527879202915386" lon="0.9743730342540271"><ele>174.2</ele><time>2026-04-06T12:17:22Z</time></trkpt><trkpt lat="44.52793917447537" lon="0.9744995489646532"><ele>176.39999999999998</ele><time>2026-04-06T12:17:23Z</time></trkpt><trkpt lat="44.52798678271202" lon="0.9746223964481603"><ele>178.60000000000002</ele><time>2026-04-06T12:17:24Z</time></trkpt><trkpt lat="44.52803148383475" lon="0.9747483035517298"><ele>180.8</ele><time>2026-04-06T12:17:24.999Z</time></trkpt><trkpt lat="44.52808248969353" lon="0.9748688538389626"><ele>183.0</ele><time>2026-04-06T12:17:25.999Z</time></trkpt><trkpt lat="44.528113732866224" lon="0.9750007413135757"><ele>182.83333333333334</ele><time>2026-04-06T12:17:26.999Z</time></trkpt><trkpt lat="44.528174379059294" lon="0.9750934629930609"><ele>182.66666666666666</ele><time>2026-04-06T12:17:27.999Z</time></trkpt><trkpt lat="44.52823994324948" lon="0.9751615574146106"><ele>182.5</ele><time>2026-04-06T12:17:28.999Z</time></trkpt><trkpt lat="44.5282784307435" lon="0.9752557523413872"><ele>182.33333333333331</ele><time>2026-04-06T12:17:29.999Z</time></trkpt><trkpt lat="44.52831749982331" lon="0.9753733330341254"><ele>182.16666666666666</ele><time>2026-04-06T12:17:30.999Z</time></trkpt><trkpt lat="44.52835671315428" lon="0.9754863666319865"><ele>182.0</ele><time>2026-04-06T12:17:31.999Z</time></trkpt><trkpt lat="44.52840374489327" lon="0.975571978255293"><ele>182.0</ele><time>2026-04-06T12:17:32.999Z</time></trkpt><trkpt lat="44.528455483345276" lon="0.9756372837076428"><ele>182.0</ele><time>2026-04-06T12:17:33.999Z</time></trkpt><trkpt lat="44.52848610480816" lon="0.9757893975809709"><ele>182.0</ele><time>2026-04-06T12:17:35.999Z</time></trkpt><trkpt lat="44.52851855084243" lon="0.9759188945841808"><ele>182.0</ele><time>2026-04-06T12:17:37.999Z</time></trkpt><trkpt lat="44.52853692853483" lon="0.9760352537336304"><ele>182.0</ele><time>2026-04-06T12:17:39.999Z</time></trkpt><trkpt lat="44.52855387192695" lon="0.9761227801720969"><ele>182.0</ele><time>2026-04-06T12:17:42.999Z</time></trkpt><trkpt lat="44.52870228678159" lon="0.9761390407166863"><ele>181.0</ele><time>2026-04-06T12:17:44.999Z</time></trkpt><trkpt lat="44.52869075230989" lon="0.9763013141564687"><ele>180.0</ele><time>2026-04-06T12:17:50Z</time></trkpt><trkpt lat="44.528650192570865" lon="0.976384083493718"><ele>179.0</ele><time>2026-04-06T12:17:58Z</time></trkpt><trkpt lat="44.52860668397953" lon="0.976530677628439"><ele>178.0</ele><time>2026-04-06T12:18:00Z</time></trkpt><trkpt lat="44.52856509824268" lon="0.9766472058174267"><ele>177.0</ele><time>2026-04-06T12:18:01Z</time></trkpt><trkpt lat="44.528518137324646" lon="0.9767669630580283"><ele>175.8</ele><time>2026-04-06T12:18:02Z</time></trkpt><trkpt lat="44.52846978456216" lon="0.976916690485654"><ele>174.6</ele><time>2026-04-06T12:18:03Z</time></trkpt><trkpt lat="44.528418466407466" lon="0.977059251824148"><ele>173.4</ele><time>2026-04-06T12:18:04Z</time></trkpt><trkpt lat="44.528390453742055" lon="0.9771751468895045"><ele>172.20000000000002</ele><time>2026-04-06T12:18:05Z</time></trkpt><trkpt lat="44.52835366890517" lon="0.9772921705363664"><ele>171.0</ele><time>2026-04-06T12:18:06Z</time></trkpt><trkpt lat="44.528322293742846" lon="0.9773824016868755"><ele>171.20000000000002</ele><time>2026-04-06T12:18:07Z</time></trkpt><trkpt lat="44.52831544599274" lon="0.9775364198692702"><ele>171.4</ele><time>2026-04-06T12:18:09Z</time></trkpt><trkpt lat="44.52838945520753" lon="0.9777022388681212"><ele>171.6</ele><time>2026-04-06T12:18:11Z</time></trkpt><trkpt lat="44.52841891475841" lon="0.9778180096730728"><ele>171.8</ele><time>2026-04-06T12:18:12Z</time></trkpt><trkpt lat="44.52848127301873" lon="0.9779178852353194"><ele>172.0</ele><time>2026-04-06T12:18:13Z</time></trkpt><trkpt lat="44.528516815897206" lon="0.9779986364751296"><ele>172.0</ele><time>2026-04-06T12:18:14Z</time></trkpt><trkpt lat="44.528554065412145" lon="0.9780810962408115"><ele>172.0</ele><time>2026-04-06T12:18:15Z</time></trkpt><trkpt lat="44.52859086424872" lon="0.9781875584804105"><ele>172.0</ele><time>2026-04-06T12:18:16Z</time></trkpt><trkpt lat="44.52862950777243" lon="0.9783210637609734"><ele>172.0</ele><time>2026-04-06T12:18:17Z</time></trkpt><trkpt lat="44.52868682951929" lon="0.9784880928199436"><ele>172.0</ele><time>2026-04-06T12:18:18Z</time></trkpt><trkpt lat="44.52871530111476" lon="0.9786661507077308"><ele>172.25</ele><time>2026-04-06T12:18:19Z</time></trkpt><trkpt lat="44.528776458847354" lon="0.9788641919933239"><ele>172.5</ele><time>2026-04-06T12:18:20Z</time></trkpt><trkpt lat="44.52885149158484" lon="0.9790068775945677"><ele>172.75</ele><time>2026-04-06T12:18:21Z</time></trkpt><trkpt lat="44.528890760581184" lon="0.9791401050334748"><ele>173.0</ele><time>2026-04-06T12:18:22Z</time></trkpt><trkpt lat="44.52896631914192" lon="0.9792436736806234"><ele>173.0</ele><time>2026-04-06T12:18:23Z</time></trkpt><trkpt lat="44.52902296069289" lon="0.9793602851331905"><ele>173.0</ele><time>2026-04-06T12:18:24Z</time></trkpt><trkpt lat="44.52908483902031" lon="0.9794500868486591"><ele>173.0</ele><time>2026-04-06T12:18:25Z</time></trkpt><trkpt lat="44.52913877200223" lon="0.9795130942898232"><ele>173.0</ele><time>2026-04-06T12:18:26Z</time></trkpt><trkpt lat="44.529260195124905" lon="0.9795278637239666"><ele>173.0</ele><time>2026-04-06T12:18:27Z</time></trkpt><trkpt lat="44.52938574214937" lon="0.9795767012751992"><ele>173.0</ele><time>2026-04-06T12:18:28Z</time></trkpt><trkpt lat="44.52948876424288" lon="0.9795978293673978"><ele>173.0</ele><time>2026-04-06T12:18:29Z</time></trkpt><trkpt lat="44.52956777356835" lon="0.9796285388862245"><ele>173.0</ele><time>2026-04-06T12:18:30Z</time></trkpt><trkpt lat="44.52962660293037" lon="0.9797171944693633"><ele>173.0</ele><time>2026-04-06T12:18:31Z</time></trkpt><trkpt lat="44.529732618615974" lon="0.9798026018480303"><ele>173.0</ele><time>2026-04-06T12:18:32Z</time></trkpt><trkpt lat="44.52984414264159" lon="0.9799041468524077"><ele>172.60000000000002</ele><time>2026-04-06T12:18:33Z</time></trkpt><trkpt lat="44.52995325528276" lon="0.979967596847504"><ele>172.20000000000002</ele><time>2026-04-06T12:18:34Z</time></trkpt><trkpt lat="44.53003240125065" lon="0.9800570264390887"><ele>171.8</ele><time>2026-04-06T12:18:35Z</time></trkpt><trkpt lat="44.530101102161616" lon="0.980133808484781"><ele>171.4</ele><time>2026-04-06T12:18:36Z</time></trkpt><trkpt lat="44.53016743663127" lon="0.9802044215224901"><ele>171.0</ele><time>2026-04-06T12:18:37Z</time></trkpt><trkpt lat="44.530211471409544" lon="0.9802810628734647"><ele>171.0</ele><time>2026-04-06T12:18:38Z</time></trkpt><trkpt lat="44.530274996103216" lon="0.9803802103942348"><ele>171.0</ele><time>2026-04-06T12:18:40Z</time></trkpt><trkpt lat="44.530316129384495" lon="0.980470976358123"><ele>171.0</ele><time>2026-04-06T12:18:42Z</time></trkpt><trkpt lat="44.5302874193558" lon="0.9805923281728134"><ele>171.0</ele><time>2026-04-06T12:18:44Z</time></trkpt><trkpt lat="44.530250385774266" lon="0.9807542511794799"><ele>171.0</ele><time>2026-04-06T12:18:46Z</time></trkpt><trkpt lat="44.53021430527485" lon="0.980885682830605"><ele>171.33333333333334</ele><time>2026-04-06T12:18:48Z</time></trkpt><trkpt lat="44.530190015615204" lon="0.9809948410649991"><ele>171.66666666666669</ele><time>2026-04-06T12:18:51Z</time></trkpt><trkpt lat="44.53043300861229" lon="0.9811892197319102"><ele>172.0</ele><time>2026-04-06T12:18:52Z</time></trkpt><trkpt lat="44.53052525009827" lon="0.9813236412006658"><ele>172.0</ele><time>2026-04-06T12:18:53Z</time></trkpt><trkpt lat="44.53062819909895" lon="0.9814530927105398"><ele>172.0</ele><time>2026-04-06T12:18:54Z</time></trkpt><trkpt lat="44.53074340315405" lon="0.9815826496205553"><ele>172.0</ele><time>2026-04-06T12:18:55Z</time></trkpt><trkpt lat="44.5308264977801" lon="0.9817012613106684"><ele>172.0</ele><time>2026-04-06T12:18:56Z</time></trkpt><trkpt lat="44.530906574788204" lon="0.9818070884406807"><ele>172.0</ele><time>2026-04-06T12:18:57Z</time></trkpt><trkpt lat="44.530969109341314" lon="0.9819086028614576"><ele>172.0</ele><time>2026-04-06T12:18:58Z</time></trkpt><trkpt lat="44.531040175674484" lon="0.9820061163893815"><ele>172.0</ele><time>2026-04-06T12:18:59Z</time></trkpt><trkpt lat="44.53111731942674" lon="0.9821063761226309"><ele>172.0</ele><time>2026-04-06T12:19:00Z</time></trkpt><trkpt lat="44.53119097321301" lon="0.9822082326266485"><ele>172.0</ele><time>2026-04-06T12:19:01Z</time></trkpt><trkpt lat="44.531246680588254" lon="0.9823231120005805"><ele>170.33333333333334</ele><time>2026-04-06T12:19:02Z</time></trkpt><trkpt lat="44.53131294605458" lon="0.9824340900696267"><ele>168.66666666666669</ele><time>2026-04-06T12:19:03Z</time></trkpt><trkpt lat="44.531380215251254" lon="0.9825055155006595"><ele>167.0</ele><time>2026-04-06T12:19:04Z</time></trkpt><trkpt lat="44.531449121813715" lon="0.982578831399222"><ele>165.33333333333334</ele><time>2026-04-06T12:19:05Z</time></trkpt><trkpt lat="44.531517935287006" lon="0.982626829695108"><ele>163.66666666666666</ele><time>2026-04-06T12:19:06Z</time></trkpt><trkpt lat="44.53159398979894" lon="0.9827032180735311"><ele>162.0</ele><time>2026-04-06T12:19:07Z</time></trkpt><trkpt lat="44.53167282195305" lon="0.9828214604804433"><ele>161.75</ele><time>2026-04-06T12:19:08Z</time></trkpt><trkpt lat="44.53176481669239" lon="0.9829692496448635"><ele>161.5</ele><time>2026-04-06T12:19:09Z</time></trkpt><trkpt lat="44.53185511767908" lon="0.9831110878201385"><ele>161.25</ele><time>2026-04-06T12:19:10Z</time></trkpt><trkpt lat="44.53197460378261" lon="0.9832478997009073"><ele>161.0</ele><time>2026-04-06T12:19:11Z</time></trkpt><trkpt lat="44.5320871621509" lon="0.9834027249971977"><ele>160.20000000000002</ele><time>2026-04-06T12:19:12Z</time></trkpt><trkpt lat="44.53216049897298" lon="0.9835425343544143"><ele>159.4</ele><time>2026-04-06T12:19:13Z</time></trkpt><trkpt lat="44.532246616228015" lon="0.9836642795138859"><ele>158.6</ele><time>2026-04-06T12:19:14Z</time></trkpt><trkpt lat="44.53231310372836" lon="0.9837497768046946"><ele>157.8</ele><time>2026-04-06T12:19:15Z</time></trkpt><trkpt lat="44.53239181829471" lon="0.9838067718758511"><ele>157.0</ele><time>2026-04-06T12:19:16Z</time></trkpt><trkpt lat="44.5324675249475" lon="0.9838479447474664"><ele>157.0</ele><time>2026-04-06T12:19:17Z</time></trkpt><trkpt lat="44.53253225417651" lon="0.9839034362190548"><ele>157.0</ele><time>2026-04-06T12:19:18Z</time></trkpt><trkpt lat="44.532610437593995" lon="0.9839753320718834"><ele>157.0</ele><time>2026-04-06T12:19:20Z</time></trkpt><trkpt lat="44.532692251175085" lon="0.9840345220085411"><ele>157.0</ele><time>2026-04-06T12:19:22Z</time></trkpt><trkpt lat="44.53277588967816" lon="0.9840708733560567"><ele>157.0</ele><time>2026-04-06T12:19:24Z</time></trkpt><trkpt lat="44.53285906120891" lon="0.9841297717886314"><ele>157.0</ele><time>2026-04-06T12:19:27Z</time></trkpt><trkpt lat="44.53291784157546" lon="0.9841865495018761"><ele>157.4</ele><time>2026-04-06T12:19:29Z</time></trkpt><trkpt lat="44.53295830869197" lon="0.9842641093058204"><ele>157.79999999999998</ele><time>2026-04-06T12:19:30.999Z</time></trkpt><trkpt lat="44.533004724967164" lon="0.9843274100602678"><ele>158.2</ele><time>2026-04-06T12:19:32.999Z</time></trkpt><trkpt lat="44.53307259132697" lon="0.9844117257656471"><ele>158.6</ele><time>2026-04-06T12:19:34.999Z</time></trkpt><trkpt lat="44.5331467230936" lon="0.9845303831217792"><ele>159.0</ele><time>2026-04-06T12:19:36.999Z</time></trkpt><trkpt lat="44.533158801467394" lon="0.9847225910969438"><ele>159.0</ele><time>2026-04-06T12:19:38.999Z</time></trkpt><trkpt lat="44.533145838753605" lon="0.9848708795817466"><ele>159.0</ele><time>2026-04-06T12:19:39.999Z</time></trkpt><trkpt lat="44.53312945717031" lon="0.9850463331641683"><ele>159.0</ele><time>2026-04-06T12:19:40.999Z</time></trkpt><trkpt lat="44.533129697627196" lon="0.9852209107051632"><ele>159.0</ele><time>2026-04-06T12:19:41.999Z</time></trkpt><trkpt lat="44.53313189561509" lon="0.9853664629815194"><ele>158.16666666666666</ele><time>2026-04-06T12:19:42.999Z</time></trkpt><trkpt lat="44.533145931830795" lon="0.985478403379511"><ele>157.33333333333334</ele><time>2026-04-06T12:19:43.999Z</time></trkpt><trkpt lat="44.5331655173027" lon="0.9855727176096767"><ele>156.5</ele><time>2026-04-06T12:19:44.999Z</time></trkpt><trkpt lat="44.53320192361952" lon="0.9856530180241501"><ele>155.66666666666669</ele><time>2026-04-06T12:19:45.999Z</time></trkpt><trkpt lat="44.53323775707447" lon="0.9857338334449155"><ele>154.83333333333334</ele><time>2026-04-06T12:19:46.999Z</time></trkpt><trkpt lat="44.53329121734958" lon="0.9858431243679868"><ele>154.0</ele><time>2026-04-06T12:19:49Z</time></trkpt><trkpt lat="44.533276310280456" lon="0.9859422366409937"><ele>153.2</ele><time>2026-04-06T12:19:58Z</time></trkpt><trkpt lat="44.533205836437915" lon="0.9860138239009693"><ele>152.4</ele><time>2026-04-06T12:20:00Z</time></trkpt><trkpt lat="44.5330885329311" lon="0.9861025894031687"><ele>151.6</ele><time>2026-04-06T12:20:02Z</time></trkpt><trkpt lat="44.533027498674656" lon="0.9861636956330223"><ele>150.8</ele><time>2026-04-06T12:20:03Z</time></trkpt><trkpt lat="44.532955013559885" lon="0.9862009975570136"><ele>150.0</ele><time>2026-04-06T12:20:04Z</time></trkpt><trkpt lat="44.53288492172395" lon="0.9862631019720174"><ele>150.0</ele><time>2026-04-06T12:20:05Z</time></trkpt><trkpt lat="44.5328146853493" lon="0.986335615051266"><ele>150.0</ele><time>2026-04-06T12:20:06Z</time></trkpt><trkpt lat="44.53275548866321" lon="0.986418173789857"><ele>150.0</ele><time>2026-04-06T12:20:07Z</time></trkpt><trkpt lat="44.53266852896674" lon="0.9864684614370491"><ele>150.0</ele><time>2026-04-06T12:20:08Z</time></trkpt><trkpt lat="44.53260330068937" lon="0.9865644867700316"><ele>150.0</ele><time>2026-04-06T12:20:09Z</time></trkpt><trkpt lat="44.532530921584915" lon="0.9866337697528967"><ele>150.0</ele><time>2026-04-06T12:20:10Z</time></trkpt><trkpt lat="44.5324560942367" lon="0.9867256816269172"><ele>148.6</ele><time>2026-04-06T12:20:11Z</time></trkpt><trkpt lat="44.532387900339614" lon="0.9868108082088919"><ele>147.2</ele><time>2026-04-06T12:20:12Z</time></trkpt><trkpt lat="44.532338767713505" lon="0.9869118607428503"><ele>145.8</ele><time>2026-04-06T12:20:13Z</time></trkpt><trkpt lat="44.532283170516244" lon="0.9870037747770828"><ele>144.4</ele><time>2026-04-06T12:20:14Z</time></trkpt><trkpt lat="44.53223424091054" lon="0.9871160828810986"><ele>143.0</ele><time>2026-04-06T12:20:15Z</time></trkpt><trkpt lat="44.5321948680392" lon="0.9872436006738415"><ele>143.0</ele><time>2026-04-06T12:20:16Z</time></trkpt><trkpt lat="44.53217327784645" lon="0.9873715465881683"><ele>143.0</ele><time>2026-04-06T12:20:17Z</time></trkpt><trkpt lat="44.53212156037552" lon="0.9874835337896092"><ele>143.0</ele><time>2026-04-06T12:20:18Z</time></trkpt><trkpt lat="44.53208387614159" lon="0.9875826886058203"><ele>143.0</ele><time>2026-04-06T12:20:19Z</time></trkpt><trkpt lat="44.53203339695123" lon="0.9877001066442044"><ele>143.0</ele><time>2026-04-06T12:20:20Z</time></trkpt><trkpt lat="44.5319829041359" lon="0.9878109389483903"><ele>141.66666666666666</ele><time>2026-04-06T12:20:21Z</time></trkpt><trkpt lat="44.53193149676238" lon="0.9879191300812241"><ele>140.33333333333331</ele><time>2026-04-06T12:20:22Z</time></trkpt><trkpt lat="44.53187939845011" lon="0.988006370895242"><ele>139.0</ele><time>2026-04-06T12:20:23Z</time></trkpt><trkpt lat="44.53182729450071" lon="0.9880801416417941"><ele>137.66666666666666</ele><time>2026-04-06T12:20:24Z</time></trkpt><trkpt lat="44.531772171931635" lon="0.9881545105205494"><ele>136.33333333333334</ele><time>2026-04-06T12:20:25Z</time></trkpt><trkpt lat="44.53171448723206" lon="0.9882312700606608"><ele>135.0</ele><time>2026-04-06T12:20:26Z</time></trkpt><trkpt lat="44.53166443861169" lon="0.988307099062269"><ele>133.4</ele><time>2026-04-06T12:20:27Z</time></trkpt><trkpt lat="44.531595870708514" lon="0.9883567132984822"><ele>131.8</ele><time>2026-04-06T12:20:28Z</time></trkpt><trkpt lat="44.53150219771847" lon="0.9884172158205824"><ele>130.2</ele><time>2026-04-06T12:20:30Z</time></trkpt><trkpt lat="44.53161530896641" lon="0.9886232605747246"><ele>128.6</ele><time>2026-04-06T12:20:39Z</time></trkpt><trkpt lat="44.531697096800855" lon="0.9886387283948633"><ele>127.0</ele><time>2026-04-06T12:20:41Z</time></trkpt><trkpt lat="44.531802760476076" lon="0.9886196568482091"><ele>127.0</ele><time>2026-04-06T12:20:43Z</time></trkpt><trkpt lat="44.53193663283197" lon="0.9885655494121042"><ele>126.99999999999999</ele><time>2026-04-06T12:20:45Z</time></trkpt><trkpt lat="44.53200970005239" lon="0.988515784224533"><ele>126.99999999999999</ele><time>2026-04-06T12:20:46Z</time></trkpt><trkpt lat="44.532085436777486" lon="0.9884426044034991"><ele>127.0</ele><time>2026-04-06T12:20:47Z</time></trkpt><trkpt lat="44.53219693824765" lon="0.988344611610877"><ele>127.0</ele><time>2026-04-06T12:20:48Z</time></trkpt><trkpt lat="44.53230300039372" lon="0.9882431091538137"><ele>127.75</ele><time>2026-04-06T12:20:49Z</time></trkpt><trkpt lat="44.532415349809895" lon="0.9881336247737793"><ele>128.5</ele><time>2026-04-06T12:20:50Z</time></trkpt><trkpt lat="44.5325480057639" lon="0.9880074005096369"><ele>129.25</ele><time>2026-04-06T12:20:51Z</time></trkpt><trkpt lat="44.53265316135073" lon="0.9878925028215471"><ele>130.0</ele><time>2026-04-06T12:20:52Z</time></trkpt><trkpt lat="44.53274847511402" lon="0.9878034674617512"><ele>130.0</ele><time>2026-04-06T12:20:53Z</time></trkpt><trkpt lat="44.53283577691314" lon="0.9877379537096455"><ele>130.0</ele><time>2026-04-06T12:20:54Z</time></trkpt><trkpt lat="44.532914779897" lon="0.9877127583365053"><ele>130.0</ele><time>2026-04-06T12:20:55Z</time></trkpt><trkpt lat="44.532988925966905" lon="0.9877087824066916"><ele>130.0</ele><time>2026-04-06T12:20:56Z</time></trkpt><trkpt lat="44.533098064922115" lon="0.9877127645929609"><ele>130.0</ele><time>2026-04-06T12:20:57Z</time></trkpt><trkpt lat="44.53318849645304" lon="0.9877245123764464"><ele>130.16666666666669</ele><time>2026-04-06T12:20:58Z</time></trkpt><trkpt lat="44.53325432136642" lon="0.9877139814341346"><ele>130.33333333333334</ele><time>2026-04-06T12:20:59Z</time></trkpt><trkpt lat="44.533313200506214" lon="0.9878261511178515"><ele>130.5</ele><time>2026-04-06T12:21:01Z</time></trkpt><trkpt lat="44.53334784391851" lon="0.9879113295977321"><ele>130.66666666666666</ele><time>2026-04-06T12:21:06Z</time></trkpt><trkpt lat="44.533387392859915" lon="0.9879932375922278"><ele>130.83333333333331</ele><time>2026-04-06T12:21:08Z</time></trkpt><trkpt lat="44.53343186153068" lon="0.9880856369824117"><ele>131.0</ele><time>2026-04-06T12:21:10Z</time></trkpt><trkpt lat="44.533463832389195" lon="0.9881699803629278"><ele>131.0</ele><time>2026-04-06T12:21:13Z</time></trkpt><trkpt lat="44.53350230644473" lon="0.9882465501978918"><ele>131.0</ele><time>2026-04-06T12:21:26Z</time></trkpt><trkpt lat="44.533547811918915" lon="0.9883319324671084"><ele>131.0</ele><time>2026-04-06T12:21:29Z</time></trkpt><trkpt lat="44.5336273631481" lon="0.9884115273892086"><ele>131.0</ele><time>2026-04-06T12:21:32Z</time></trkpt><trkpt lat="44.533697776285166" lon="0.9884206665423665"><ele>131.0</ele><time>2026-04-06T12:21:33Z</time></trkpt><trkpt lat="44.53379680880486" lon="0.9884241909545484"><ele>131.0</ele><time>2026-04-06T12:21:34Z</time></trkpt><trkpt lat="44.533870376586" lon="0.9884350233478997"><ele>133.2</ele><time>2026-04-06T12:21:35Z</time></trkpt><trkpt lat="44.533930977666934" lon="0.9885485139963649"><ele>135.39999999999998</ele><time>2026-04-06T12:21:37Z</time></trkpt><trkpt lat="44.53391456407085" lon="0.9886609799834706"><ele>137.6</ele><time>2026-04-06T12:21:38Z</time></trkpt><trkpt lat="44.53386204744391" lon="0.9887750011159697"><ele>139.79999999999998</ele><time>2026-04-06T12:21:40Z</time></trkpt><trkpt lat="44.533771126475365" lon="0.9887833543883906"><ele>142.0</ele><time>2026-04-06T12:22:00Z</time></trkpt><trkpt lat="44.53368024186357" lon="0.9888542284286487"><ele>142.0</ele><time>2026-04-06T12:22:02Z</time></trkpt><trkpt lat="44.53358416846413" lon="0.9889229001664701"><ele>142.0</ele><time>2026-04-06T12:22:04Z</time></trkpt><trkpt lat="44.533492267430056" lon="0.9889749859275864"><ele>142.0</ele><time>2026-04-06T12:22:06Z</time></trkpt><trkpt lat="44.53339132519582" lon="0.9890403753821347"><ele>142.0</ele><time>2026-04-06T12:22:08Z</time></trkpt><trkpt lat="44.53330747821395" lon="0.9890833781304404"><ele>142.0</ele><time>2026-04-06T12:22:09Z</time></trkpt><trkpt lat="44.53321460583468" lon="0.9891476172180366"><ele>141.79999999999998</ele><time>2026-04-06T12:22:10Z</time></trkpt><trkpt lat="44.53311284581856" lon="0.9892203461146476"><ele>141.6</ele><time>2026-04-06T12:22:11Z</time></trkpt><trkpt lat="44.533013874902274" lon="0.9893012066831234"><ele>141.39999999999998</ele><time>2026-04-06T12:22:12Z</time></trkpt><trkpt lat="44.53293048381949" lon="0.9893643673784064"><ele>141.2</ele><time>2026-04-06T12:22:13Z</time></trkpt><trkpt lat="44.53286435449416" lon="0.9894092261662779"><ele>141.0</ele><time>2026-04-06T12:22:14Z</time></trkpt><trkpt lat="44.53277978065611" lon="0.9895027307947749"><ele>141.0</ele><time>2026-04-06T12:22:15Z</time></trkpt><trkpt lat="44.532703353489715" lon="0.989588561260975"><ele>141.0</ele><time>2026-04-06T12:22:16Z</time></trkpt><trkpt lat="44.53266328334615" lon="0.9896611651413041"><ele>141.0</ele><time>2026-04-06T12:22:17Z</time></trkpt><trkpt lat="44.53260121449097" lon="0.989740403237766"><ele>141.0</ele><time>2026-04-06T12:22:18Z</time></trkpt><trkpt lat="44.53255003079314" lon="0.9898264050614732"><ele>141.0</ele><time>2026-04-06T12:22:19Z</time></trkpt><trkpt lat="44.53249413389529" lon="0.9899090791826097"><ele>141.0</ele><time>2026-04-06T12:22:20Z</time></trkpt><trkpt lat="44.53244266301676" lon="0.9900554743785325"><ele>142.33333333333334</ele><time>2026-04-06T12:22:22Z</time></trkpt><trkpt lat="44.53241568216027" lon="0.9901692645566086"><ele>143.66666666666666</ele><time>2026-04-06T12:22:24Z</time></trkpt><trkpt lat="44.5323713221507" lon="0.9902960445212102"><ele>145.0</ele><time>2026-04-06T12:22:33Z</time></trkpt><trkpt lat="44.532348946979646" lon="0.9903811440331354"><ele>146.33333333333331</ele><time>2026-04-06T12:22:34Z</time></trkpt><trkpt lat="44.5323251048798" lon="0.99052056141206"><ele>147.66666666666666</ele><time>2026-04-06T12:22:35Z</time></trkpt><trkpt lat="44.53229967055703" lon="0.9906456291362025"><ele>149.0</ele><time>2026-04-06T12:22:36Z</time></trkpt><trkpt lat="44.532281637088225" lon="0.9908043539385114"><ele>150.6</ele><time>2026-04-06T12:22:37Z</time></trkpt><trkpt lat="44.53229330229255" lon="0.9909134528028889"><ele>152.2</ele><time>2026-04-06T12:22:38Z</time></trkpt><trkpt lat="44.53227411749195" lon="0.9910238604080455"><ele>153.79999999999998</ele><time>2026-04-06T12:22:39Z</time></trkpt><trkpt lat="44.53221579217289" lon="0.9911844738880651"><ele>155.4</ele><time>2026-04-06T12:22:41Z</time></trkpt><trkpt lat="44.532163284104186" lon="0.991310426835852"><ele>157.0</ele><time>2026-04-06T12:22:43Z</time></trkpt><trkpt lat="44.53212904115419" lon="0.9913971245667723"><ele>157.0</ele><time>2026-04-06T12:22:47Z</time></trkpt><trkpt lat="44.53207052193728" lon="0.991487635275043"><ele>157.0</ele><time>2026-04-06T12:22:49Z</time></trkpt><trkpt lat="44.53195354092866" lon="0.9915551492831323"><ele>157.0</ele><time>2026-04-06T12:22:51Z</time></trkpt><trkpt lat="44.5318846379944" lon="0.9915560578434777"><ele>157.0</ele><time>2026-04-06T12:22:52Z</time></trkpt><trkpt lat="44.531811249538606" lon="0.9915909659235947"><ele>157.0</ele><time>2026-04-06T12:22:54Z</time></trkpt><trkpt lat="44.53176352918141" lon="0.9916762344107812"><ele>157.0</ele><time>2026-04-06T12:22:56Z</time></trkpt><trkpt lat="44.53170863481543" lon="0.9917305126641985"><ele>158.5</ele><time>2026-04-06T12:22:58Z</time></trkpt><trkpt lat="44.53164698709038" lon="0.99180390717835"><ele>160.0</ele><time>2026-04-06T12:23:10Z</time></trkpt><trkpt lat="44.531554659712256" lon="0.9918920490924749"><ele>161.5</ele><time>2026-04-06T12:23:12Z</time></trkpt><trkpt lat="44.53149017349571" lon="0.9919583247526793"><ele>163.0</ele><time>2026-04-06T12:23:13Z</time></trkpt><trkpt lat="44.53142151673197" lon="0.9920274009256278"><ele>164.5</ele><time>2026-04-06T12:23:14Z</time></trkpt><trkpt lat="44.53134767130799" lon="0.99207288505117"><ele>166.0</ele><time>2026-04-06T12:23:15Z</time></trkpt><trkpt lat="44.53126016163638" lon="0.9921382295236613"><ele>164.33333333333334</ele><time>2026-04-06T12:23:16Z</time></trkpt><trkpt lat="44.531193577808864" lon="0.992220700788137"><ele>162.66666666666669</ele><time>2026-04-06T12:23:17Z</time></trkpt><trkpt lat="44.53113670880276" lon="0.9923115546249156"><ele>161.0</ele><time>2026-04-06T12:23:18Z</time></trkpt><trkpt lat="44.53107385628778" lon="0.9923332136510852"><ele>159.33333333333334</ele><time>2026-04-06T12:23:19Z</time></trkpt><trkpt lat="44.531020573351334" lon="0.9922808258562428"><ele>157.66666666666666</ele><time>2026-04-06T12:23:20Z</time></trkpt><trkpt lat="44.53099595592579" lon="0.9924309220408221"><ele>156.0</ele><time>2026-04-06T12:23:22Z</time></trkpt><trkpt lat="44.530927574430855" lon="0.992489458750185"><ele>157.0</ele><time>2026-04-06T12:23:28Z</time></trkpt><trkpt lat="44.53086495594314" lon="0.9926395823659864"><ele>158.0</ele><time>2026-04-06T12:23:30Z</time></trkpt><trkpt lat="44.530813558131676" lon="0.992777398227478"><ele>159.0</ele><time>2026-04-06T12:23:32Z</time></trkpt><trkpt lat="44.530808677824396" lon="0.9928926075910512"><ele>160.0</ele><time>2026-04-06T12:23:34Z</time></trkpt><trkpt lat="44.53082234079647" lon="0.9929890305230057"><ele>161.0</ele><time>2026-04-06T12:23:36Z</time></trkpt><trkpt lat="44.53077527507251" lon="0.9931087631333211"><ele>161.0</ele><time>2026-04-06T12:23:38Z</time></trkpt><trkpt lat="44.530727477000625" lon="0.993262377958893"><ele>161.0</ele><time>2026-04-06T12:23:40Z</time></trkpt><trkpt lat="44.530695701706826" lon="0.9933541811043456"><ele>161.0</ele><time>2026-04-06T12:23:41Z</time></trkpt><trkpt lat="44.53067380688285" lon="0.9934451481170558"><ele>161.0</ele><time>2026-04-06T12:23:42Z</time></trkpt><trkpt lat="44.53065709708094" lon="0.9935319980906472"><ele>161.0</ele><time>2026-04-06T12:23:42.999Z</time></trkpt><trkpt lat="44.530643584927255" lon="0.9936328806185298"><ele>161.0</ele><time>2026-04-06T12:23:43.999Z</time></trkpt><trkpt lat="44.53060937608416" lon="0.9937312400493401"><ele>162.0</ele><time>2026-04-06T12:23:44.999Z</time></trkpt><trkpt lat="44.53057733992369" lon="0.9938401213938047"><ele>163.0</ele><time>2026-04-06T12:23:45.999Z</time></trkpt><trkpt lat="44.53054065649451" lon="0.9939710785377108"><ele>164.0</ele><time>2026-04-06T12:23:46.999Z</time></trkpt><trkpt lat="44.53050725951748" lon="0.994121710256832"><ele>165.0</ele><time>2026-04-06T12:23:47.999Z</time></trkpt><trkpt lat="44.53047012504272" lon="0.9942963160675719"><ele>166.0</ele><time>2026-04-06T12:23:48.999Z</time></trkpt><trkpt lat="44.53044951385086" lon="0.9944307008948101"><ele>166.33333333333334</ele><time>2026-04-06T12:23:49.999Z</time></trkpt><trkpt lat="44.53041608594183" lon="0.9945341733700751"><ele>166.66666666666669</ele><time>2026-04-06T12:23:50.999Z</time></trkpt><trkpt lat="44.530415457190955" lon="0.9946326946468877"><ele>167.0</ele><time>2026-04-06T12:23:51.999Z</time></trkpt><trkpt lat="44.53039350628228" lon="0.9947860231588984"><ele>167.33333333333334</ele><time>2026-04-06T12:23:53.999Z</time></trkpt><trkpt lat="44.53037151792172" lon="0.9949412891510488"><ele>167.66666666666666</ele><time>2026-04-06T12:23:55.999Z</time></trkpt><trkpt lat="44.53038664984513" lon="0.9950305660968576"><ele>168.0</ele><time>2026-04-06T12:23:56.999Z</time></trkpt><trkpt lat="44.530402517410145" lon="0.9951203970229218"><ele>168.5</ele><time>2026-04-06T12:23:57.999Z</time></trkpt><trkpt lat="44.53041848281219" lon="0.9952189757103717"><ele>169.0</ele><time>2026-04-06T12:23:58.999Z</time></trkpt><trkpt lat="44.53041971367834" lon="0.995318834982511"><ele>169.5</ele><time>2026-04-06T12:24:00Z</time></trkpt><trkpt lat="44.53040427725926" lon="0.9954261258578669"><ele>170.0</ele><time>2026-04-06T12:24:01Z</time></trkpt><trkpt lat="44.530370821882975" lon="0.9955354455949625"><ele>170.5</ele><time>2026-04-06T12:24:02Z</time></trkpt><trkpt lat="44.53032692047931" lon="0.9956421866563241"><ele>171.0</ele><time>2026-04-06T12:24:03Z</time></trkpt><trkpt lat="44.53027714496154" lon="0.9957483034386154"><ele>170.60000000000002</ele><time>2026-04-06T12:24:04Z</time></trkpt><trkpt lat="44.53023002245229" lon="0.9958680735357622"><ele>170.2</ele><time>2026-04-06T12:24:05Z</time></trkpt><trkpt lat="44.53020393276644" lon="0.9959761665732212"><ele>169.8</ele><time>2026-04-06T12:24:06Z</time></trkpt><trkpt lat="44.530242070294854" lon="0.9961335122757281"><ele>169.39999999999998</ele><time>2026-04-06T12:24:08Z</time></trkpt><trkpt lat="44.53029834459299" lon="0.9962086305097156"><ele>169.0</ele><time>2026-04-06T12:24:09Z</time></trkpt><trkpt lat="44.53037671927279" lon="0.9962638709762398"><ele>169.5</ele><time>2026-04-06T12:24:10Z</time></trkpt><trkpt lat="44.53043733747464" lon="0.9963374501272142"><ele>170.0</ele><time>2026-04-06T12:24:11Z</time></trkpt><trkpt lat="44.53049705141861" lon="0.996394282094913"><ele>170.5</ele><time>2026-04-06T12:24:12Z</time></trkpt><trkpt lat="44.530548576528695" lon="0.9964713226250664"><ele>171.0</ele><time>2026-04-06T12:24:13Z</time></trkpt><trkpt lat="44.53058240543614" lon="0.996570690995406"><ele>171.5</ele><time>2026-04-06T12:24:14Z</time></trkpt><trkpt lat="44.53060072524532" lon="0.9966784851956277"><ele>172.0</ele><time>2026-04-06T12:24:15Z</time></trkpt><trkpt lat="44.53062933587086" lon="0.996775811835103"><ele>172.0</ele><time>2026-04-06T12:24:16Z</time></trkpt><trkpt lat="44.53066605201148" lon="0.9968514051071625"><ele>172.0</ele><time>2026-04-06T12:24:17Z</time></trkpt><trkpt lat="44.530724858315985" lon="0.9969135477526947"><ele>172.0</ele><time>2026-04-06T12:24:18Z</time></trkpt><trkpt lat="44.5308052266246" lon="0.9969313961380941"><ele>172.0</ele><time>2026-04-06T12:24:19Z</time></trkpt><trkpt lat="44.530882316652814" lon="0.9969579717048992"><ele>172.0</ele><time>2026-04-06T12:24:20Z</time></trkpt><trkpt lat="44.53096034144088" lon="0.99698068703325"><ele>172.0</ele><time>2026-04-06T12:24:21Z</time></trkpt><trkpt lat="44.53104555729508" lon="0.9969897096288005"><ele>172.0</ele><time>2026-04-06T12:24:22Z</time></trkpt><trkpt lat="44.531138956788155" lon="0.9969772725962689"><ele>172.0</ele><time>2026-04-06T12:24:23Z</time></trkpt><trkpt lat="44.531224598845334" lon="0.9969310693115331"><ele>172.0</ele><time>2026-04-06T12:24:24Z</time></trkpt><trkpt lat="44.53130573604051" lon="0.9968753802027212"><ele>172.0</ele><time>2026-04-06T12:24:25Z</time></trkpt><trkpt lat="44.53138205336179" lon="0.9968048676035498"><ele>172.0</ele><time>2026-04-06T12:24:26Z</time></trkpt><trkpt lat="44.531452086489814" lon="0.9967154724716687"><ele>173.8</ele><time>2026-04-06T12:24:27Z</time></trkpt><trkpt lat="44.531527885215986" lon="0.9966257609052236"><ele>175.6</ele><time>2026-04-06T12:24:28Z</time></trkpt><trkpt lat="44.53160797497933" lon="0.9965281709726043"><ele>177.4</ele><time>2026-04-06T12:24:29Z</time></trkpt><trkpt lat="44.53167967860568" lon="0.9964020703357133"><ele>179.20000000000002</ele><time>2026-04-06T12:24:30Z</time></trkpt><trkpt lat="44.531759855316224" lon="0.9962982799044052"><ele>181.0</ele><time>2026-04-06T12:24:31Z</time></trkpt><trkpt lat="44.53182011093835" lon="0.9961914511043659"><ele>181.0</ele><time>2026-04-06T12:24:32Z</time></trkpt><trkpt lat="44.53190120478889" lon="0.9960970035200468"><ele>181.0</ele><time>2026-04-06T12:24:33Z</time></trkpt><trkpt lat="44.53198806173318" lon="0.9959882846124763"><ele>181.0</ele><time>2026-04-06T12:24:34Z</time></trkpt><trkpt lat="44.53207566485024" lon="0.9958809199426548"><ele>181.0</ele><time>2026-04-06T12:24:35Z</time></trkpt><trkpt lat="44.532149292445695" lon="0.9957873796844805"><ele>181.0</ele><time>2026-04-06T12:24:36Z</time></trkpt><trkpt lat="44.53220392375865" lon="0.9957186131627038"><ele>183.20000000000002</ele><time>2026-04-06T12:24:37Z</time></trkpt><trkpt lat="44.53225797615144" lon="0.9956714837912506"><ele>185.4</ele><time>2026-04-06T12:24:38Z</time></trkpt><trkpt lat="44.53232599680809" lon="0.995602060486309"><ele>187.6</ele><time>2026-04-06T12:24:40Z</time></trkpt><trkpt lat="44.53238163009838" lon="0.9954961265607029"><ele>189.8</ele><time>2026-04-06T12:24:42Z</time></trkpt><trkpt lat="44.53245568481483" lon="0.9954076099326759"><ele>192.0</ele><time>2026-04-06T12:24:44Z</time></trkpt><trkpt lat="44.5326721370875" lon="0.9955915337994944"><ele>192.0</ele><time>2026-04-06T12:24:45Z</time></trkpt><trkpt lat="44.53277495666229" lon="0.9955638504448578"><ele>192.0</ele><time>2026-04-06T12:24:47Z</time></trkpt><trkpt lat="44.532867546501926" lon="0.9955704633814384"><ele>192.0</ele><time>2026-04-06T12:24:48Z</time></trkpt><trkpt lat="44.532931878856765" lon="0.9955607898419445"><ele>192.0</ele><time>2026-04-06T12:24:49Z</time></trkpt><trkpt lat="44.53304291103832" lon="0.9955763164991509"><ele>192.0</ele><time>2026-04-06T12:24:51Z</time></trkpt><trkpt lat="44.533119791560715" lon="0.9956266128103128"><ele>191.75</ele><time>2026-04-06T12:24:53Z</time></trkpt><trkpt lat="44.533197205179995" lon="0.9956875334334058"><ele>191.5</ele><time>2026-04-06T12:24:55Z</time></trkpt><trkpt lat="44.53327873795155" lon="0.9957930679420787"><ele>191.25</ele><time>2026-04-06T12:24:57Z</time></trkpt><trkpt lat="44.53337790410648" lon="0.9959176954088477"><ele>191.0</ele><time>2026-04-06T12:24:59Z</time></trkpt><trkpt lat="44.53347826889396" lon="0.9960074443131579"><ele>191.0</ele><time>2026-04-06T12:25:01Z</time></trkpt><trkpt lat="44.53358766237634" lon="0.9960821037968006"><ele>191.0</ele><time>2026-04-06T12:25:03Z</time></trkpt><trkpt lat="44.53366273009317" lon="0.9961770235594889"><ele>191.0</ele><time>2026-04-06T12:25:05Z</time></trkpt><trkpt lat="44.53372175463917" lon="0.9962309996272164"><ele>191.0</ele><time>2026-04-06T12:25:06Z</time></trkpt><trkpt lat="44.533809731561085" lon="0.9963062526323394"><ele>191.0</ele><time>2026-04-06T12:25:08Z</time></trkpt><trkpt lat="44.533897077612714" lon="0.9963867289959502"><ele>192.33333333333331</ele><time>2026-04-06T12:25:11Z</time></trkpt><trkpt lat="44.53395299932282" lon="0.9964335616720142"><ele>193.66666666666666</ele><time>2026-04-06T12:25:12Z</time></trkpt><trkpt lat="44.53402063830375" lon="0.9964382791464538"><ele>195.0</ele><time>2026-04-06T12:25:13Z</time></trkpt><trkpt lat="44.53409322612216" lon="0.996416942540876"><ele>196.33333333333331</ele><time>2026-04-06T12:25:14Z</time></trkpt><trkpt lat="44.53418511918417" lon="0.9963970013929396"><ele>197.66666666666666</ele><time>2026-04-06T12:25:16Z</time></trkpt><trkpt lat="44.53431997114548" lon="0.9963324516134339"><ele>199.0</ele><time>2026-04-06T12:25:18Z</time></trkpt><trkpt lat="44.5343892219013" lon="0.9963181648505302"><ele>198.99999999999997</ele><time>2026-04-06T12:25:19Z</time></trkpt><trkpt lat="44.534461292686274" lon="0.996332005107232"><ele>199.0</ele><time>2026-04-06T12:25:20Z</time></trkpt><trkpt lat="44.53452901080651" lon="0.9963459419789994"><ele>199.0</ele><time>2026-04-06T12:25:22Z</time></trkpt><trkpt lat="44.53466266807616" lon="0.9963324552959111"><ele>199.0</ele><time>2026-04-06T12:25:24Z</time></trkpt><trkpt lat="44.53474504020501" lon="0.996339688690779"><ele>198.99999999999997</ele><time>2026-04-06T12:25:25Z</time></trkpt><trkpt lat="44.534810529143826" lon="0.9963561850863278"><ele>199.0</ele><time>2026-04-06T12:25:30Z</time></trkpt><trkpt lat="44.53487487017141" lon="0.9963396547709847"><ele>198.42857142857142</ele><time>2026-04-06T12:25:34Z</time></trkpt><trkpt lat="44.53492612839131" lon="0.9962876444150504"><ele>197.85714285714286</ele><time>2026-04-06T12:25:40Z</time></trkpt><trkpt lat="44.53497043081282" lon="0.9962161366239516"><ele>197.28571428571428</ele><time>2026-04-06T12:25:42Z</time></trkpt><trkpt lat="44.535011755143294" lon="0.9961128830226513"><ele>196.71428571428572</ele><time>2026-04-06T12:25:44Z</time></trkpt><trkpt lat="44.53501774671754" lon="0.9960235194947186"><ele>196.14285714285714</ele><time>2026-04-06T12:25:45Z</time></trkpt><trkpt lat="44.53503723357417" lon="0.99592467768823"><ele>195.57142857142856</ele><time>2026-04-06T12:25:47Z</time></trkpt><trkpt lat="44.53510393974102" lon="0.9958282933163883"><ele>195.0</ele><time>2026-04-06T12:28:36Z</time></trkpt><trkpt lat="44.53515703481512" lon="0.9957509720100449"><ele>196.0</ele><time>2026-04-06T12:29:31.001Z</time></trkpt><trkpt lat="44.53520889840613" lon="0.9956984696045655"><ele>197.0</ele><time>2026-04-06T12:30:39Z</time></trkpt><trkpt lat="44.53529508068394" lon="0.9956559406401443"><ele>198.0</ele><time>2026-04-06T12:30:42Z</time></trkpt><trkpt lat="44.53535857582645" lon="0.9956170959003993"><ele>199.0</ele><time>2026-04-06T12:30:44Z</time></trkpt><trkpt lat="44.53544490784533" lon="0.9955603637629168"><ele>200.0</ele><time>2026-04-06T12:30:46Z</time></trkpt><trkpt lat="44.535556680829835" lon="0.9955007481151514"><ele>201.0</ele><time>2026-04-06T12:30:49Z</time></trkpt><trkpt lat="44.53565223916823" lon="0.9953752300743651"><ele>201.0</ele><time>2026-04-06T12:30:51Z</time></trkpt><trkpt lat="44.53575408642529" lon="0.9952773812477236"><ele>201.0</ele><time>2026-04-06T12:30:55Z</time></trkpt><trkpt lat="44.53582212800839" lon="0.995207363321791"><ele>201.0</ele><time>2026-04-06T12:30:58Z</time></trkpt><trkpt lat="44.53588993473853" lon="0.9951776204287843"><ele>201.0</ele><time>2026-04-06T12:31:03Z</time></trkpt><trkpt lat="44.535907563481324" lon="0.9950911743093361"><ele>201.0</ele><time>2026-04-06T12:32:35Z</time></trkpt><trkpt lat="44.535971621419094" lon="0.9950503453144834"><ele>201.0</ele><time>2026-04-06T12:32:57Z</time></trkpt><trkpt lat="44.536008954040064" lon="0.9949120339249167"><ele>201.60000000000002</ele><time>2026-04-06T12:33:00Z</time></trkpt><trkpt lat="44.53606083596372" lon="0.9948337628047145"><ele>202.2</ele><time>2026-04-06T12:33:02Z</time></trkpt><trkpt lat="44.53617947410507" lon="0.9948489150577887"><ele>202.8</ele><time>2026-04-06T12:33:04Z</time></trkpt><trkpt lat="44.536280771991144" lon="0.9948361546839168"><ele>203.39999999999998</ele><time>2026-04-06T12:33:06Z</time></trkpt><trkpt lat="44.536191091554024" lon="0.9948329755497874"><ele>204.0</ele><time>2026-04-06T12:33:20Z</time></trkpt><trkpt lat="44.53613840699236" lon="0.9948816561074608"><ele>204.83333333333334</ele><time>2026-04-06T12:33:23Z</time></trkpt><trkpt lat="44.53618915307386" lon="0.9949532731615461"><ele>205.66666666666669</ele><time>2026-04-06T12:33:30Z</time></trkpt><trkpt lat="44.536251810753875" lon="0.9950220858806808"><ele>206.5</ele><time>2026-04-06T12:33:33Z</time></trkpt><trkpt lat="44.53631219690045" lon="0.9950489262710877"><ele>207.33333333333334</ele><time>2026-04-06T12:33:35Z</time></trkpt><trkpt lat="44.53638000791415" lon="0.9950994685592975"><ele>208.16666666666669</ele><time>2026-04-06T12:33:37Z</time></trkpt><trkpt lat="44.53644031614276" lon="0.9951757792686338"><ele>209.0</ele><time>2026-04-06T12:33:40Z</time></trkpt><trkpt lat="44.53651406591508" lon="0.995268152692763"><ele>207.33333333333334</ele><time>2026-04-06T12:33:44Z</time></trkpt><trkpt lat="44.53658377889881" lon="0.9953190720079882"><ele>205.66666666666669</ele><time>2026-04-06T12:33:47Z</time></trkpt><trkpt lat="44.53665794788282" lon="0.9952965633292487"><ele>204.0</ele><time>2026-04-06T12:33:49Z</time></trkpt><trkpt lat="44.5367481969013" lon="0.9953124983579197"><ele>202.33333333333331</ele><time>2026-04-06T12:33:51Z</time></trkpt><trkpt lat="44.53683587379817" lon="0.9953248993804689"><ele>200.66666666666666</ele><time>2026-04-06T12:33:53Z</time></trkpt><trkpt lat="44.536903604787106" lon="0.9953346659905938"><ele>199.0</ele><time>2026-04-06T12:33:54Z</time></trkpt><trkpt lat="44.5369720397489" lon="0.9953250745323239"><ele>198.99999999999997</ele><time>2026-04-06T12:33:55Z</time></trkpt><trkpt lat="44.53702012004503" lon="0.9954052697550999"><ele>199.0</ele><time>2026-04-06T12:33:58Z</time></trkpt><trkpt lat="44.537038916369" lon="0.9955033129952158"><ele>199.0</ele><time>2026-04-06T12:34:08.001Z</time></trkpt><trkpt lat="44.537023766855796" lon="0.995615189303362"><ele>199.0</ele><time>2026-04-06T12:34:11.001Z</time></trkpt><trkpt lat="44.53699141753095" lon="0.995709735648861"><ele>199.0</ele><time>2026-04-06T12:34:12.999Z</time></trkpt><trkpt lat="44.53697608317708" lon="0.9957965358253423"><ele>198.99999999999997</ele><time>2026-04-06T12:34:14.999Z</time></trkpt><trkpt lat="44.53696889174605" lon="0.9959114342469227"><ele>199.0</ele><time>2026-04-06T12:34:16.999Z</time></trkpt><trkpt lat="44.536960463333685" lon="0.9960216699562164"><ele>197.49999999999997</ele><time>2026-04-06T12:34:18.999Z</time></trkpt><trkpt lat="44.53694373264272" lon="0.9961479998918533"><ele>196.0</ele><time>2026-04-06T12:34:21.999Z</time></trkpt><trkpt lat="44.53693265049498" lon="0.9962712187946043"><ele>194.5</ele><time>2026-04-06T12:34:23.999Z</time></trkpt><trkpt lat="44.536893200726695" lon="0.9963489692220626"><ele>193.0</ele><time>2026-04-06T12:34:24.999Z</time></trkpt><trkpt lat="44.53686277946945" lon="0.9964398409099575"><ele>191.5</ele><time>2026-04-06T12:34:25.999Z</time></trkpt><trkpt lat="44.536860914016614" lon="0.9965637084240516"><ele>190.0</ele><time>2026-04-06T12:34:27.999Z</time></trkpt><trkpt lat="44.53681785355791" lon="0.9967042305680296"><ele>188.5</ele><time>2026-04-06T12:34:29.999Z</time></trkpt><trkpt lat="44.536789578313766" lon="0.9968304097541993"><ele>187.0</ele><time>2026-04-06T12:34:31.999Z</time></trkpt><trkpt lat="44.53677878628241" lon="0.9969395087986418"><ele>185.5</ele><time>2026-04-06T12:34:34Z</time></trkpt><trkpt lat="44.53677236987038" lon="0.9970348280377995"><ele>184.0</ele><time>2026-04-06T12:34:40Z</time></trkpt><trkpt lat="44.536763155323904" lon="0.9971346724491548"><ele>182.5</ele><time>2026-04-06T12:34:44Z</time></trkpt><trkpt lat="44.536812543609976" lon="0.9972881862453464"><ele>181.0</ele><time>2026-04-06T12:34:46Z</time></trkpt><trkpt lat="44.53682222991214" lon="0.9974187068160545"><ele>179.33333333333334</ele><time>2026-04-06T12:34:48Z</time></trkpt><trkpt lat="44.536786744391414" lon="0.9975776610575607"><ele>177.66666666666669</ele><time>2026-04-06T12:34:51Z</time></trkpt><trkpt lat="44.53679558587059" lon="0.9977008157036931"><ele>176.0</ele><time>2026-04-06T12:34:53Z</time></trkpt><trkpt lat="44.53681053100775" lon="0.9978020889778979"><ele>174.33333333333334</ele><time>2026-04-06T12:34:55Z</time></trkpt><trkpt lat="44.53679797616198" lon="0.9979101319597099"><ele>172.66666666666666</ele><time>2026-04-06T12:34:57Z</time></trkpt><trkpt lat="44.53679588252386" lon="0.9979994400411882"><ele>171.0</ele><time>2026-04-06T12:35:01Z</time></trkpt><trkpt lat="44.536782661882285" lon="0.9981253907423272"><ele>171.0</ele><time>2026-04-06T12:35:04Z</time></trkpt><trkpt lat="44.53677259887458" lon="0.998268457104442"><ele>171.0</ele><time>2026-04-06T12:35:06Z</time></trkpt><trkpt lat="44.536769479794486" lon="0.9983888772092078"><ele>171.0</ele><time>2026-04-06T12:35:08Z</time></trkpt><trkpt lat="44.53677665194564" lon="0.9984803341056012"><ele>171.0</ele><time>2026-04-06T12:35:10Z</time></trkpt><trkpt lat="44.536818304507364" lon="0.9985890672375853"><ele>171.0</ele><time>2026-04-06T12:35:13Z</time></trkpt><trkpt lat="44.536799100739074" lon="0.9987126629689506"><ele>171.0</ele><time>2026-04-06T12:35:16Z</time></trkpt><trkpt lat="44.53676742400548" lon="0.9987905846778814"><ele>170.60000000000002</ele><time>2026-04-06T12:35:17Z</time></trkpt><trkpt lat="44.53675078025177" lon="0.9988992646776399"><ele>170.2</ele><time>2026-04-06T12:35:18Z</time></trkpt><trkpt lat="44.536701085719194" lon="0.9990228723591722"><ele>169.8</ele><time>2026-04-06T12:35:19Z</time></trkpt><trkpt lat="44.53664881208312" lon="0.9991424198521848"><ele>169.39999999999998</ele><time>2026-04-06T12:35:20Z</time></trkpt><trkpt lat="44.536576064173445" lon="0.9992591347406857"><ele>169.0</ele><time>2026-04-06T12:35:21Z</time></trkpt><trkpt lat="44.53652463670147" lon="0.9993507247111253"><ele>169.0</ele><time>2026-04-06T12:35:22Z</time></trkpt><trkpt lat="44.53647562753565" lon="0.9994468791179061"><ele>169.0</ele><time>2026-04-06T12:35:23Z</time></trkpt><trkpt lat="44.53644811266699" lon="0.9995590354747711"><ele>169.0</ele><time>2026-04-06T12:35:24Z</time></trkpt><trkpt lat="44.53641619371345" lon="0.9996738973626372"><ele>169.0</ele><time>2026-04-06T12:35:25Z</time></trkpt><trkpt lat="44.53639070793919" lon="0.9997725346575146"><ele>169.0</ele><time>2026-04-06T12:35:26Z</time></trkpt><trkpt lat="44.53637659339441" lon="0.9998730665831544"><ele>169.0</ele><time>2026-04-06T12:35:27Z</time></trkpt><trkpt lat="44.536357460450894" lon="1.0000139865289386"><ele>169.0</ele><time>2026-04-06T12:35:29Z</time></trkpt><trkpt lat="44.536346885513275" lon="1.0001125000145368"><ele>169.0</ele><time>2026-04-06T12:35:37Z</time></trkpt><trkpt lat="44.53631421668518" lon="1.0002071793492109"><ele>169.0</ele><time>2026-04-06T12:36:24Z</time></trkpt><trkpt lat="44.5363117130808" lon="1.0003362432775946"><ele>169.0</ele><time>2026-04-06T12:36:31Z</time></trkpt><trkpt lat="44.53625955570479" lon="1.0004076189975175"><ele>169.0</ele><time>2026-04-06T12:36:38Z</time></trkpt><trkpt lat="44.53620902740021" lon="1.0004758463799461"><ele>169.0</ele><time>2026-04-06T12:36:55Z</time></trkpt><trkpt lat="44.53615331728092" lon="1.0005238342847598"><ele>169.0</ele><time>2026-04-06T12:37:06Z</time></trkpt><trkpt lat="44.53609302046432" lon="1.0005827905349263"><ele>168.0</ele><time>2026-04-06T12:37:14Z</time></trkpt><trkpt lat="44.53603246729736" lon="1.0006530025330052"><ele>167.0</ele><time>2026-04-06T12:37:18Z</time></trkpt><trkpt lat="44.535976471740845" lon="1.0007353575819677"><ele>166.0</ele><time>2026-04-06T12:37:21Z</time></trkpt><trkpt lat="44.535923892185934" lon="1.0008172538825477"><ele>165.0</ele><time>2026-04-06T12:37:24Z</time></trkpt><trkpt lat="44.53589863965599" lon="1.0009539299886947"><ele>164.0</ele><time>2026-04-06T12:37:26Z</time></trkpt><trkpt lat="44.53575290040712" lon="1.0011006327046037"><ele>164.0</ele><time>2026-04-06T12:37:29.001Z</time></trkpt><trkpt lat="44.53567774491807" lon="1.001129819733163"><ele>164.0</ele><time>2026-04-06T12:37:30.001Z</time></trkpt><trkpt lat="44.53560919191165" lon="1.0011593548668636"><ele>164.0</ele><time>2026-04-06T12:37:31.001Z</time></trkpt><trkpt lat="44.535522984431395" lon="1.0012035861326893"><ele>164.0</ele><time>2026-04-06T12:37:32.001Z</time></trkpt><trkpt lat="44.535431423840315" lon="1.0012461557973857"><ele>164.0</ele><time>2026-04-06T12:37:33.001Z</time></trkpt><trkpt lat="44.53537393718061" lon="1.0012946074175997"><ele>164.0</ele><time>2026-04-06T12:37:34.001Z</time></trkpt><trkpt lat="44.53524785502813" lon="1.0014035887359047"><ele>162.0</ele><time>2026-04-06T12:37:36.001Z</time></trkpt><trkpt lat="44.53519431122728" lon="1.0014744422531483"><ele>160.0</ele><time>2026-04-06T12:37:37.001Z</time></trkpt><trkpt lat="44.535096779563894" lon="1.0015111533128382"><ele>158.0</ele><time>2026-04-06T12:37:40.001Z</time></trkpt><trkpt lat="44.53501050153437" lon="1.0015433534535056"><ele>156.0</ele><time>2026-04-06T12:37:43.001Z</time></trkpt><trkpt lat="44.53492603192496" lon="1.0015726415687207"><ele>154.0</ele><time>2026-04-06T12:37:45.001Z</time></trkpt><trkpt lat="44.534814915425784" lon="1.0016015752003549"><ele>154.0</ele><time>2026-04-06T12:37:47.001Z</time></trkpt><trkpt lat="44.53473223628005" lon="1.0016527795844485"><ele>154.0</ele><time>2026-04-06T12:37:50.001Z</time></trkpt><trkpt lat="44.534650168409556" lon="1.0017039673575578"><ele>154.0</ele><time>2026-04-06T12:37:52.001Z</time></trkpt><trkpt lat="44.534556062226876" lon="1.0017402789642262"><ele>154.0</ele><time>2026-04-06T12:37:54.001Z</time></trkpt><trkpt lat="44.53449011647203" lon="1.0017614815098452"><ele>154.0</ele><time>2026-04-06T12:37:55.001Z</time></trkpt><trkpt lat="44.534402256963766" lon="1.001774760129447"><ele>154.0</ele><time>2026-04-06T12:37:56.001Z</time></trkpt><trkpt lat="44.53431723772145" lon="1.0018106624142353"><ele>154.8</ele><time>2026-04-06T12:37:57.001Z</time></trkpt><trkpt lat="44.53424251216718" lon="1.001845192650072"><ele>155.60000000000002</ele><time>2026-04-06T12:37:58.001Z</time></trkpt><trkpt lat="44.53415604152289" lon="1.001884533038149"><ele>156.4</ele><time>2026-04-06T12:38:00.001Z</time></trkpt><trkpt lat="44.53428613422195" lon="1.001965267483877"><ele>157.20000000000002</ele><time>2026-04-06T12:38:31Z</time></trkpt><trkpt lat="44.53436400919358" lon="1.002037653763884"><ele>158.0</ele><time>2026-04-06T12:38:32Z</time></trkpt><trkpt lat="44.534436415646354" lon="1.00217412953411"><ele>158.0</ele><time>2026-04-06T12:38:33Z</time></trkpt><trkpt lat="44.53436725878444" lon="1.0019455984747703"><ele>158.0</ele><time>2026-04-06T12:38:34Z</time></trkpt><trkpt lat="44.53445523456858" lon="1.0020021061312503"><ele>158.0</ele><time>2026-04-06T12:38:37Z</time></trkpt><trkpt lat="44.53456989461559" lon="1.002011809535572"><ele>158.0</ele><time>2026-04-06T12:38:39Z</time></trkpt><trkpt lat="44.534644765985256" lon="1.0020316196471255"><ele>158.5</ele><time>2026-04-06T12:38:40Z</time></trkpt><trkpt lat="44.53471648962702" lon="1.0021610804848515"><ele>159.0</ele><time>2026-04-06T12:38:42Z</time></trkpt><trkpt lat="44.534721877397736" lon="1.002264643443444"><ele>159.5</ele><time>2026-04-06T12:38:43Z</time></trkpt><trkpt lat="44.53473060138056" lon="1.0023688327556313"><ele>160.0</ele><time>2026-04-06T12:38:44Z</time></trkpt><trkpt lat="44.53474332963752" lon="1.002472658508531"><ele>160.5</ele><time>2026-04-06T12:38:45Z</time></trkpt><trkpt lat="44.534776402858675" lon="1.0025822225080252"><ele>161.0</ele><time>2026-04-06T12:38:46Z</time></trkpt><trkpt lat="44.534798099646125" lon="1.002694135610526"><ele>163.16666666666666</ele><time>2026-04-06T12:38:48Z</time></trkpt><trkpt lat="44.534840031282585" lon="1.0027637386603294"><ele>165.33333333333331</ele><time>2026-04-06T12:38:55Z</time></trkpt><trkpt lat="44.53495310709708" lon="1.0028372400239756"><ele>167.5</ele><time>2026-04-06T12:38:57Z</time></trkpt><trkpt lat="44.535030852727814" lon="1.002884291526285"><ele>169.66666666666666</ele><time>2026-04-06T12:38:58Z</time></trkpt><trkpt lat="44.53511048542193" lon="1.0029398303846029"><ele>171.83333333333334</ele><time>2026-04-06T12:38:59Z</time></trkpt><trkpt lat="44.5351903294034" lon="1.0029702160683152"><ele>174.0</ele><time>2026-04-06T12:39:00Z</time></trkpt><trkpt lat="44.53528351229917" lon="1.002982833560059"><ele>174.0</ele><time>2026-04-06T12:39:01Z</time></trkpt><trkpt lat="44.53537329136276" lon="1.0029649444852706"><ele>174.0</ele><time>2026-04-06T12:39:02Z</time></trkpt><trkpt lat="44.53545303751225" lon="1.0029122558945833"><ele>174.0</ele><time>2026-04-06T12:39:03Z</time></trkpt><trkpt lat="44.53552666871162" lon="1.0028566812232032"><ele>174.0</ele><time>2026-04-06T12:39:04Z</time></trkpt><trkpt lat="44.535607664656425" lon="1.0028152097128176"><ele>174.0</ele><time>2026-04-06T12:39:05Z</time></trkpt><trkpt lat="44.5356698375911" lon="1.002769636340089"><ele>174.0</ele><time>2026-04-06T12:39:06Z</time></trkpt><trkpt lat="44.53578382491986" lon="1.002686581187166"><ele>173.6</ele><time>2026-04-06T12:39:08Z</time></trkpt><trkpt lat="44.535885906928705" lon="1.0026246055976458"><ele>173.2</ele><time>2026-04-06T12:39:10Z</time></trkpt><trkpt lat="44.53599012963384" lon="1.002593927473816"><ele>172.79999999999998</ele><time>2026-04-06T12:39:12Z</time></trkpt><trkpt lat="44.53605012282135" lon="1.0025481516105754"><ele>172.39999999999998</ele><time>2026-04-06T12:39:13Z</time></trkpt><trkpt lat="44.53616858499354" lon="1.0024607541692374"><ele>172.0</ele><time>2026-04-06T12:39:15Z</time></trkpt><trkpt lat="44.53622749564732" lon="1.002423911778395"><ele>173.71428571428572</ele><time>2026-04-06T12:39:16Z</time></trkpt><trkpt lat="44.53628861652749" lon="1.00238453124738"><ele>175.42857142857144</ele><time>2026-04-06T12:39:17.001Z</time></trkpt><trkpt lat="44.53635823689357" lon="1.002349167957626"><ele>177.14285714285717</ele><time>2026-04-06T12:39:18.001Z</time></trkpt><trkpt lat="44.536432620871295" lon="1.00232261414261"><ele>178.85714285714286</ele><time>2026-04-06T12:39:19.001Z</time></trkpt><trkpt lat="44.5365032962732" lon="1.0023041666200436"><ele>180.57142857142856</ele><time>2026-04-06T12:39:20.001Z</time></trkpt><trkpt lat="44.536582314001336" lon="1.0022934879152776"><ele>182.2857142857143</ele><time>2026-04-06T12:39:21.001Z</time></trkpt><trkpt lat="44.536661225066524" lon="1.0022975710540176"><ele>184.0</ele><time>2026-04-06T12:39:22.001Z</time></trkpt><trkpt lat="44.53673311007628" lon="1.0023344457097296"><ele>184.0</ele><time>2026-04-06T12:39:23.001Z</time></trkpt><trkpt lat="44.53679795733184" lon="1.0023974427426576"><ele>184.0</ele><time>2026-04-06T12:39:24.001Z</time></trkpt><trkpt lat="44.53682090661079" lon="1.002509444295851"><ele>184.0</ele><time>2026-04-06T12:39:25.001Z</time></trkpt><trkpt lat="44.53685569166481" lon="1.002599472391837"><ele>184.0</ele><time>2026-04-06T12:39:26.001Z</time></trkpt><trkpt lat="44.53688289076563" lon="1.0027035523028138"><ele>184.0</ele><time>2026-04-06T12:39:27.001Z</time></trkpt><trkpt lat="44.536915794562496" lon="1.0027961650755608"><ele>184.0</ele><time>2026-04-06T12:39:28.001Z</time></trkpt><trkpt lat="44.53696996626851" lon="1.0028745987537109"><ele>186.0</ele><time>2026-04-06T12:39:29.001Z</time></trkpt><trkpt lat="44.53702995283152" lon="1.002955211579766"><ele>188.0</ele><time>2026-04-06T12:39:30.001Z</time></trkpt><trkpt lat="44.53711156729676" lon="1.0030350207141607"><ele>190.0</ele><time>2026-04-06T12:39:31.001Z</time></trkpt><trkpt lat="44.53720951261326" lon="1.003079847362109"><ele>192.0</ele><time>2026-04-06T12:39:32.001Z</time></trkpt><trkpt lat="44.537300026683425" lon="1.0031375494014032"><ele>194.0</ele><time>2026-04-06T12:39:33.001Z</time></trkpt><trkpt lat="44.537386808045746" lon="1.0031969127239855"><ele>195.6</ele><time>2026-04-06T12:39:34.001Z</time></trkpt><trkpt lat="44.53747648433975" lon="1.0032632105169805"><ele>197.2</ele><time>2026-04-06T12:39:35.001Z</time></trkpt><trkpt lat="44.537560978055545" lon="1.0033341003260372"><ele>198.79999999999998</ele><time>2026-04-06T12:39:36.001Z</time></trkpt><trkpt lat="44.53764873315304" lon="1.0034238100484336"><ele>200.39999999999998</ele><time>2026-04-06T12:39:37.001Z</time></trkpt><trkpt lat="44.53774814749131" lon="1.0035203568039077"><ele>202.0</ele><time>2026-04-06T12:39:38.001Z</time></trkpt><trkpt lat="44.53784959162876" lon="1.0036219205398635"><ele>203.5</ele><time>2026-04-06T12:39:39.001Z</time></trkpt><trkpt lat="44.53795730607898" lon="1.0037524595566059"><ele>205.0</ele><time>2026-04-06T12:39:40.001Z</time></trkpt><trkpt lat="44.53805867641697" lon="1.0038820583165449"><ele>206.5</ele><time>2026-04-06T12:39:41.001Z</time></trkpt><trkpt lat="44.53816349270775" lon="1.0040167166409695"><ele>208.0</ele><time>2026-04-06T12:39:42.001Z</time></trkpt><trkpt lat="44.53826928216245" lon="1.004165807641455"><ele>208.0</ele><time>2026-04-06T12:39:43.001Z</time></trkpt><trkpt lat="44.538376962386785" lon="1.0042987635761567"><ele>208.0</ele><time>2026-04-06T12:39:44.001Z</time></trkpt><trkpt lat="44.538476266993726" lon="1.0044007728076259"><ele>208.0</ele><time>2026-04-06T12:39:45.001Z</time></trkpt><trkpt lat="44.53857256449324" lon="1.0045020655832155"><ele>208.0</ele><time>2026-04-06T12:39:46.001Z</time></trkpt><trkpt lat="44.5386743525675" lon="1.0045932417496357"><ele>208.0</ele><time>2026-04-06T12:39:47.001Z</time></trkpt><trkpt lat="44.5387542478002" lon="1.004643928954026"><ele>208.0</ele><time>2026-04-06T12:39:48.001Z</time></trkpt><trkpt lat="44.53885391938669" lon="1.00470237353784"><ele>208.0</ele><time>2026-04-06T12:39:50.001Z</time></trkpt><trkpt lat="44.538831554068686" lon="1.0048711989857315"><ele>208.0</ele><time>2026-04-06T12:39:55.001Z</time></trkpt><trkpt lat="44.53882511318576" lon="1.0049913867468296"><ele>208.0</ele><time>2026-04-06T12:39:57.001Z</time></trkpt><trkpt lat="44.5388190435607" lon="1.0051362888698347"><ele>208.0</ele><time>2026-04-06T12:39:59.001Z</time></trkpt><trkpt lat="44.53881955414759" lon="1.0053011915778254"><ele>208.0</ele><time>2026-04-06T12:40:01.001Z</time></trkpt><trkpt lat="44.53884980669072" lon="1.0054682732183846"><ele>208.0</ele><time>2026-04-06T12:40:03.001Z</time></trkpt><trkpt lat="44.53884774293138" lon="1.00556181438661"><ele>208.0</ele><time>2026-04-06T12:40:04.001Z</time></trkpt><trkpt lat="44.53888392032451" lon="1.0056475631023485"><ele>208.0</ele><time>2026-04-06T12:40:05.001Z</time></trkpt><trkpt lat="44.53889171259674" lon="1.0057550546663423"><ele>207.16666666666666</ele><time>2026-04-06T12:40:06.001Z</time></trkpt><trkpt lat="44.538895361833326" lon="1.0058464902985917"><ele>206.33333333333331</ele><time>2026-04-06T12:40:07.001Z</time></trkpt><trkpt lat="44.53889779494321" lon="1.005945145738508"><ele>205.5</ele><time>2026-04-06T12:40:08.001Z</time></trkpt><trkpt lat="44.53887332163732" lon="1.00604729782756"><ele>204.66666666666669</ele><time>2026-04-06T12:40:09.001Z</time></trkpt><trkpt lat="44.5388776786902" lon="1.0061369953256194"><ele>203.83333333333334</ele><time>2026-04-06T12:40:10.001Z</time></trkpt><trkpt lat="44.538895081937895" lon="1.0062920417868952"><ele>203.0</ele><time>2026-04-06T12:40:12.001Z</time></trkpt><trkpt lat="44.538882740545894" lon="1.0064092751559952"><ele>201.2</ele><time>2026-04-06T12:40:16.001Z</time></trkpt><trkpt lat="44.53869348857759" lon="1.0065184287110711"><ele>199.4</ele><time>2026-04-06T12:40:18.001Z</time></trkpt><trkpt lat="44.5386263315146" lon="1.0065968162384478"><ele>197.6</ele><time>2026-04-06T12:40:19.001Z</time></trkpt><trkpt lat="44.5385808550129" lon="1.0066830393027417"><ele>195.79999999999998</ele><time>2026-04-06T12:40:20.001Z</time></trkpt><trkpt lat="44.53855288083872" lon="1.0067794206932674"><ele>194.0</ele><time>2026-04-06T12:40:21.001Z</time></trkpt><trkpt lat="44.538483149051" lon="1.0069258552639924"><ele>193.79999999999998</ele><time>2026-04-06T12:40:22.001Z</time></trkpt><trkpt lat="44.53843394324638" lon="1.0070715993831338"><ele>193.6</ele><time>2026-04-06T12:40:23.001Z</time></trkpt><trkpt lat="44.53839417861099" lon="1.007186341913693"><ele>193.4</ele><time>2026-04-06T12:40:24.001Z</time></trkpt><trkpt lat="44.53834698340735" lon="1.0072870906916451"><ele>193.2</ele><time>2026-04-06T12:40:25.001Z</time></trkpt><trkpt lat="44.53828058032338" lon="1.0073366409226732"><ele>193.0</ele><time>2026-04-06T12:40:26.001Z</time></trkpt><trkpt lat="44.53818287133142" lon="1.0074433059555956"><ele>192.16666666666666</ele><time>2026-04-06T12:40:28.001Z</time></trkpt><trkpt lat="44.53818884110879" lon="1.0075849868925173"><ele>191.33333333333331</ele><time>2026-04-06T12:40:32Z</time></trkpt><trkpt lat="44.53821812820181" lon="1.0076639301693553"><ele>190.5</ele><time>2026-04-06T12:40:33Z</time></trkpt><trkpt lat="44.538286532678704" lon="1.0077451829318635"><ele>189.66666666666666</ele><time>2026-04-06T12:40:34Z</time></trkpt><trkpt lat="44.53834711164211" lon="1.0078154253044105"><ele>188.83333333333331</ele><time>2026-04-06T12:40:35Z</time></trkpt><trkpt lat="44.53827687904805" lon="1.0079437956102886"><ele>188.0</ele><time>2026-04-06T12:40:36Z</time></trkpt><trkpt lat="44.53828282039365" lon="1.0080406748857758"><ele>188.0</ele><time>2026-04-06T12:40:37Z</time></trkpt><trkpt lat="44.53828578253488" lon="1.0081486469439809"><ele>188.0</ele><time>2026-04-06T12:40:38Z</time></trkpt><trkpt lat="44.538287409910524" lon="1.008257931452853"><ele>188.0</ele><time>2026-04-06T12:40:39Z</time></trkpt><trkpt lat="44.53827753392147" lon="1.0083675103846443"><ele>188.0</ele><time>2026-04-06T12:40:40Z</time></trkpt><trkpt lat="44.538279254284795" lon="1.008466787906894"><ele>188.0</ele><time>2026-04-06T12:40:41Z</time></trkpt><trkpt lat="44.5382407591351" lon="1.0086193115141617"><ele>188.0</ele><time>2026-04-06T12:40:43Z</time></trkpt><trkpt lat="44.53822737260339" lon="1.0087060819851692"><ele>186.60000000000002</ele><time>2026-04-06T12:40:45Z</time></trkpt><trkpt lat="44.538162699964055" lon="1.0087970051548962"><ele>185.20000000000002</ele><time>2026-04-06T12:40:48Z</time></trkpt><trkpt lat="44.53810151882782" lon="1.0088683036413497"><ele>183.8</ele><time>2026-04-06T12:40:50Z</time></trkpt><trkpt lat="44.53800400824646" lon="1.0089000677622013"><ele>182.4</ele><time>2026-04-06T12:40:52Z</time></trkpt><trkpt lat="44.537933781149704" lon="1.0088925456033953"><ele>181.0</ele><time>2026-04-06T12:40:53Z</time></trkpt><trkpt lat="44.537807598887134" lon="1.008873773774963"><ele>181.0</ele><time>2026-04-06T12:40:55Z</time></trkpt><trkpt lat="44.53773783013064" lon="1.0089277386309723"><ele>181.0</ele><time>2026-04-06T12:40:57Z</time></trkpt><trkpt lat="44.53778304883555" lon="1.008994540052026"><ele>181.0</ele><time>2026-04-06T12:40:59Z</time></trkpt><trkpt lat="44.53784696653485" lon="1.009073378992809"><ele>181.0</ele><time>2026-04-06T12:41:01Z</time></trkpt><trkpt lat="44.53791185744177" lon="1.0091876922207375"><ele>181.0</ele><time>2026-04-06T12:41:03Z</time></trkpt><trkpt lat="44.53797118026918" lon="1.0092620184839325"><ele>181.0</ele><time>2026-04-06T12:41:04Z</time></trkpt><trkpt lat="44.53803224705369" lon="1.0093506453821062"><ele>179.33333333333334</ele><time>2026-04-06T12:41:05Z</time></trkpt><trkpt lat="44.5380859743994" lon="1.0094226434666564"><ele>177.66666666666669</ele><time>2026-04-06T12:41:06Z</time></trkpt><trkpt lat="44.5381284213803" lon="1.0095132985717137"><ele>176.0</ele><time>2026-04-06T12:41:07Z</time></trkpt><trkpt lat="44.53815804178912" lon="1.0096051919760054"><ele>174.33333333333334</ele><time>2026-04-06T12:41:08Z</time></trkpt><trkpt lat="44.538199025594004" lon="1.0096869910640842"><ele>172.66666666666666</ele><time>2026-04-06T12:41:09Z</time></trkpt><trkpt lat="44.53825994824274" lon="1.0098392681932107"><ele>171.0</ele><time>2026-04-06T12:41:11Z</time></trkpt><trkpt lat="44.538257863809136" lon="1.0099284353081743"><ele>169.4</ele><time>2026-04-06T12:41:12Z</time></trkpt><trkpt lat="44.53823450880288" lon="1.0100110907670548"><ele>167.8</ele><time>2026-04-06T12:41:13Z</time></trkpt><trkpt lat="44.538124722510744" lon="1.0101456313474386"><ele>166.20000000000002</ele><time>2026-04-06T12:41:15.001Z</time></trkpt><trkpt lat="44.53804406076012" lon="1.0102311731633271"><ele>164.60000000000002</ele><time>2026-04-06T12:41:16.001Z</time></trkpt><trkpt lat="44.5379589938141" lon="1.010280150883416"><ele>163.0</ele><time>2026-04-06T12:41:17.001Z</time></trkpt><trkpt lat="44.537887948214305" lon="1.0103278287530668"><ele>161.33333333333334</ele><time>2026-04-06T12:41:18.001Z</time></trkpt><trkpt lat="44.53781402111586" lon="1.0103531358821798"><ele>159.66666666666669</ele><time>2026-04-06T12:41:19.001Z</time></trkpt><trkpt lat="44.53772933785157" lon="1.0103526701199992"><ele>158.0</ele><time>2026-04-06T12:41:20.001Z</time></trkpt><trkpt lat="44.53766574906317" lon="1.0103573784038384"><ele>156.33333333333334</ele><time>2026-04-06T12:41:21.001Z</time></trkpt><trkpt lat="44.53759761225547" lon="1.0103643770689277"><ele>154.66666666666666</ele><time>2026-04-06T12:41:22.001Z</time></trkpt><trkpt lat="44.53749117045944" lon="1.010341057341606"><ele>153.0</ele><time>2026-04-06T12:41:24.001Z</time></trkpt><trkpt lat="44.537381727926245" lon="1.0104024052178573"><ele>153.0</ele><time>2026-04-06T12:41:27.001Z</time></trkpt><trkpt lat="44.53732103680133" lon="1.0105449534230384"><ele>153.0</ele><time>2026-04-06T12:41:29.001Z</time></trkpt><trkpt lat="44.53726570834266" lon="1.0106081277392336"><ele>153.0</ele><time>2026-04-06T12:41:30.001Z</time></trkpt><trkpt lat="44.537213347841096" lon="1.0106966313210828"><ele>153.0</ele><time>2026-04-06T12:41:31.001Z</time></trkpt><trkpt lat="44.53717988267792" lon="1.0107757985124526"><ele>153.0</ele><time>2026-04-06T12:41:32.001Z</time></trkpt><trkpt lat="44.537124753434696" lon="1.0108581879730583"><ele>153.0</ele><time>2026-04-06T12:41:33.001Z</time></trkpt><trkpt lat="44.53706830218689" lon="1.0109424768957205"><ele>151.5</ele><time>2026-04-06T12:41:34.001Z</time></trkpt><trkpt lat="44.53701115473012" lon="1.0110215005129186"><ele>150.0</ele><time>2026-04-06T12:41:35.001Z</time></trkpt><trkpt lat="44.536953751700636" lon="1.0111052136924552"><ele>148.5</ele><time>2026-04-06T12:41:36.001Z</time></trkpt><trkpt lat="44.536882793411074" lon="1.011150313307896"><ele>147.0</ele><time>2026-04-06T12:41:37.001Z</time></trkpt><trkpt lat="44.5368150168367" lon="1.0112068036786022"><ele>145.5</ele><time>2026-04-06T12:41:38.001Z</time></trkpt><trkpt lat="44.536738786843195" lon="1.0112603192596412"><ele>144.0</ele><time>2026-04-06T12:41:39.001Z</time></trkpt><trkpt lat="44.53666176913259" lon="1.0112987311431212"><ele>144.0</ele><time>2026-04-06T12:41:40.001Z</time></trkpt><trkpt lat="44.536580448013005" lon="1.011318048987588"><ele>144.0</ele><time>2026-04-06T12:41:41.001Z</time></trkpt><trkpt lat="44.536505215598154" lon="1.0113333315493984"><ele>144.0</ele><time>2026-04-06T12:41:42.001Z</time></trkpt><trkpt lat="44.53642655718878" lon="1.0113556603870275"><ele>144.0</ele><time>2026-04-06T12:41:43.001Z</time></trkpt><trkpt lat="44.536346855186615" lon="1.0113444193858336"><ele>144.0</ele><time>2026-04-06T12:41:44.001Z</time></trkpt><trkpt lat="44.53622727218378" lon="1.0113515795421375"><ele>144.0</ele><time>2026-04-06T12:41:46.001Z</time></trkpt><trkpt lat="44.5361368059219" lon="1.0113798527426385"><ele>143.4</ele><time>2026-04-06T12:41:48.001Z</time></trkpt><trkpt lat="44.53607477514267" lon="1.0113595419457293"><ele>142.8</ele><time>2026-04-06T12:41:55.001Z</time></trkpt><trkpt lat="44.536119042369336" lon="1.011500173439037"><ele>142.2</ele><time>2026-04-06T12:42:00.001Z</time></trkpt><trkpt lat="44.53613894819881" lon="1.011606636993536"><ele>141.6</ele><time>2026-04-06T12:42:02.001Z</time></trkpt><trkpt lat="44.536191909341426" lon="1.0117272571957372"><ele>141.0</ele><time>2026-04-06T12:42:04.001Z</time></trkpt><trkpt lat="44.53622516079503" lon="1.011862876109782"><ele>141.0</ele><time>2026-04-06T12:42:06.001Z</time></trkpt><trkpt lat="44.53626902429452" lon="1.0119503075704526"><ele>141.0</ele><time>2026-04-06T12:42:08.001Z</time></trkpt><trkpt lat="44.53631631843879" lon="1.0120311912521405"><ele>141.0</ele><time>2026-04-06T12:42:14.001Z</time></trkpt><trkpt lat="44.53622120482198" lon="1.0119005400456353"><ele>141.0</ele><time>2026-04-06T12:42:46.001Z</time></trkpt><trkpt lat="44.53631518120387" lon="1.011436240048185"><ele>141.6</ele><time>2026-04-06T12:42:47.001Z</time></trkpt><trkpt lat="44.53623197252102" lon="1.011385324179141"><ele>142.2</ele><time>2026-04-06T12:42:48.001Z</time></trkpt><trkpt lat="44.53610249315496" lon="1.0114251548320337"><ele>142.8</ele><time>2026-04-06T12:42:49.001Z</time></trkpt><trkpt lat="44.53605328621545" lon="1.0113007320076415"><ele>143.4</ele><time>2026-04-06T12:42:50.001Z</time></trkpt><trkpt lat="44.53599545353756" lon="1.0111992226337583"><ele>144.0</ele><time>2026-04-06T12:42:51.001Z</time></trkpt><trkpt lat="44.535919709784736" lon="1.0111239907688825"><ele>144.8</ele><time>2026-04-06T12:42:52.001Z</time></trkpt><trkpt lat="44.53583549946732" lon="1.0110471494029571"><ele>145.60000000000002</ele><time>2026-04-06T12:42:53.001Z</time></trkpt><trkpt lat="44.535743821842814" lon="1.0109803240156576"><ele>146.4</ele><time>2026-04-06T12:42:54.001Z</time></trkpt><trkpt lat="44.535650873071376" lon="1.0109047432969576"><ele>147.20000000000002</ele><time>2026-04-06T12:42:55.001Z</time></trkpt><trkpt lat="44.535559410770574" lon="1.010811675622163"><ele>148.0</ele><time>2026-04-06T12:42:56.001Z</time></trkpt><trkpt lat="44.53545052912235" lon="1.0107501797406726"><ele>144.25</ele><time>2026-04-06T12:42:57.001Z</time></trkpt><trkpt lat="44.53533296885896" lon="1.0106469564088623"><ele>140.5</ele><time>2026-04-06T12:42:58.001Z</time></trkpt><trkpt lat="44.535217950261675" lon="1.0105477454585474"><ele>136.75</ele><time>2026-04-06T12:42:59.001Z</time></trkpt><trkpt lat="44.535118140254546" lon="1.01041550363765"><ele>133.0</ele><time>2026-04-06T12:43:00.001Z</time></trkpt><trkpt lat="44.535020629382906" lon="1.0103007196366887"><ele>133.0</ele><time>2026-04-06T12:43:01.001Z</time></trkpt><trkpt lat="44.53493080132663" lon="1.0101839793111298"><ele>133.0</ele><time>2026-04-06T12:43:02.001Z</time></trkpt><trkpt lat="44.53484210103256" lon="1.0100644773451604"><ele>133.0</ele><time>2026-04-06T12:43:03.001Z</time></trkpt><trkpt lat="44.53474481101077" lon="1.009958621512519"><ele>133.0</ele><time>2026-04-06T12:43:04.001Z</time></trkpt><trkpt lat="44.53466227242725" lon="1.0098477710375955"><ele>131.8</ele><time>2026-04-06T12:43:05.001Z</time></trkpt><trkpt lat="44.53458626589455" lon="1.009739526186693"><ele>130.60000000000002</ele><time>2026-04-06T12:43:06.001Z</time></trkpt><trkpt lat="44.534518726597675" lon="1.009643425388381"><ele>129.39999999999998</ele><time>2026-04-06T12:43:07.001Z</time></trkpt><trkpt lat="44.53445953564324" lon="1.0095351830641823"><ele>128.2</ele><time>2026-04-06T12:43:08.001Z</time></trkpt><trkpt lat="44.534402867880665" lon="1.0094405660277117"><ele>127.0</ele><time>2026-04-06T12:43:09.001Z</time></trkpt><trkpt lat="44.53434312111129" lon="1.0093410296266725"><ele>127.00000000000001</ele><time>2026-04-06T12:43:10.001Z</time></trkpt><trkpt lat="44.53428853169517" lon="1.0092503871112315"><ele>127.0</ele><time>2026-04-06T12:43:11.001Z</time></trkpt><trkpt lat="44.53424376584139" lon="1.0091534117971552"><ele>127.0</ele><time>2026-04-06T12:43:12.001Z</time></trkpt><trkpt lat="44.53418960093212" lon="1.009060314790538"><ele>127.0</ele><time>2026-04-06T12:43:13.001Z</time></trkpt><trkpt lat="44.5341356026203" lon="1.0089559612179286"><ele>127.00000000000001</ele><time>2026-04-06T12:43:14.001Z</time></trkpt><trkpt lat="44.5340786857818" lon="1.0088463743196403"><ele>127.0</ele><time>2026-04-06T12:43:15.001Z</time></trkpt><trkpt lat="44.53402275697283" lon="1.008734742310343"><ele>127.6</ele><time>2026-04-06T12:43:16.001Z</time></trkpt><trkpt lat="44.53395977526472" lon="1.0086224814412652"><ele>128.2</ele><time>2026-04-06T12:43:17.001Z</time></trkpt><trkpt lat="44.53389123394055" lon="1.008495244683345"><ele>128.8</ele><time>2026-04-06T12:43:18.001Z</time></trkpt><trkpt lat="44.53383194882361" lon="1.0083701005174066"><ele>129.4</ele><time>2026-04-06T12:43:19.001Z</time></trkpt><trkpt lat="44.53376485693123" lon="1.0082330066741159"><ele>130.0</ele><time>2026-04-06T12:43:20.001Z</time></trkpt><trkpt lat="44.53370795493733" lon="1.008095474394952"><ele>130.0</ele><time>2026-04-06T12:43:21.001Z</time></trkpt><trkpt lat="44.533634324163394" lon="1.0079701026026961"><ele>130.0</ele><time>2026-04-06T12:43:22.001Z</time></trkpt><trkpt lat="44.53356022865824" lon="1.0078335919933508"><ele>130.0</ele><time>2026-04-06T12:43:23.001Z</time></trkpt><trkpt lat="44.53349512470311" lon="1.0076945993064486"><ele>130.0</ele><time>2026-04-06T12:43:24.001Z</time></trkpt><trkpt lat="44.533423489650545" lon="1.0075767046715578"><ele>133.25</ele><time>2026-04-06T12:43:25.001Z</time></trkpt><trkpt lat="44.533344353943924" lon="1.0074701241690622"><ele>136.5</ele><time>2026-04-06T12:43:26.001Z</time></trkpt><trkpt lat="44.533250476992166" lon="1.007387361715557"><ele>139.75</ele><time>2026-04-06T12:43:27.001Z</time></trkpt><trkpt lat="44.533136352022694" lon="1.0073507453752721"><ele>143.0</ele><time>2026-04-06T12:43:28.001Z</time></trkpt><trkpt lat="44.533016536826345" lon="1.0073575101287822"><ele>143.0</ele><time>2026-04-06T12:43:29.001Z</time></trkpt><trkpt lat="44.53290273157222" lon="1.0073773485901163"><ele>143.0</ele><time>2026-04-06T12:43:30.001Z</time></trkpt><trkpt lat="44.53279595206787" lon="1.0073961107244933"><ele>143.0</ele><time>2026-04-06T12:43:31.001Z</time></trkpt><trkpt lat="44.53268938526674" lon="1.0074192389487422"><ele>143.0</ele><time>2026-04-06T12:43:32.001Z</time></trkpt><trkpt lat="44.53260315816907" lon="1.0074254411741332"><ele>143.0</ele><time>2026-04-06T12:43:33.001Z</time></trkpt><trkpt lat="44.5325210368452" lon="1.0074421712696047"><ele>142.33333333333331</ele><time>2026-04-06T12:43:34.001Z</time></trkpt><trkpt lat="44.5324483344583" lon="1.0074321776515187"><ele>141.66666666666666</ele><time>2026-04-06T12:43:35.001Z</time></trkpt><trkpt lat="44.532382550871574" lon="1.0074242281981989"><ele>141.0</ele><time>2026-04-06T12:43:36.001Z</time></trkpt><trkpt lat="44.53226564214051" lon="1.007436714123886"><ele>140.33333333333334</ele><time>2026-04-06T12:43:38.001Z</time></trkpt><trkpt lat="44.53220211793312" lon="1.007413304591718"><ele>139.66666666666669</ele><time>2026-04-06T12:43:39.001Z</time></trkpt><trkpt lat="44.532138276312644" lon="1.0074074206667682"><ele>139.0</ele><time>2026-04-06T12:43:40.001Z</time></trkpt><trkpt lat="44.53201764532353" lon="1.0073830002971755"><ele>137.33333333333334</ele><time>2026-04-06T12:43:42.001Z</time></trkpt><trkpt lat="44.5319526164717" lon="1.0073701076908461"><ele>135.66666666666669</ele><time>2026-04-06T12:43:43.001Z</time></trkpt><trkpt lat="44.531888836519734" lon="1.0073383826767435"><ele>134.0</ele><time>2026-04-06T12:43:44.001Z</time></trkpt><trkpt lat="44.53177251113952" lon="1.0072586502079672"><ele>132.33333333333334</ele><time>2026-04-06T12:43:46.001Z</time></trkpt><trkpt lat="44.53171330629391" lon="1.0072111744404735"><ele>130.66666666666666</ele><time>2026-04-06T12:43:47.001Z</time></trkpt><trkpt lat="44.531662861977885" lon="1.0071560274187852"><ele>129.0</ele><time>2026-04-06T12:43:48.001Z</time></trkpt><trkpt lat="44.531609451214806" lon="1.007104450026532"><ele>129.0</ele><time>2026-04-06T12:43:49.001Z</time></trkpt><trkpt lat="44.53149560876622" lon="1.007026234330987"><ele>129.0</ele><time>2026-04-06T12:43:51.001Z</time></trkpt><trkpt lat="44.53144848236026" lon="1.0069648478339832"><ele>129.0</ele><time>2026-04-06T12:43:52.001Z</time></trkpt><trkpt lat="44.53138690325752" lon="1.0069223957323439"><ele>129.0</ele><time>2026-04-06T12:43:53.001Z</time></trkpt><trkpt lat="44.53132442506063" lon="1.006906721429048"><ele>129.0</ele><time>2026-04-06T12:43:54.001Z</time></trkpt><trkpt lat="44.53121898054692" lon="1.0068496820070434"><ele>129.0</ele><time>2026-04-06T12:43:56.001Z</time></trkpt><trkpt lat="44.531106451104655" lon="1.0068519489638754"><ele>127.66666666666667</ele><time>2026-04-06T12:43:58.001Z</time></trkpt><trkpt lat="44.53100427820864" lon="1.0068241638790203"><ele>126.33333333333334</ele><time>2026-04-06T12:44:00.001Z</time></trkpt><trkpt lat="44.53088942600839" lon="1.0067998622048824"><ele>125.0</ele><time>2026-04-06T12:44:02.001Z</time></trkpt><trkpt lat="44.53082122381176" lon="1.0067983957257216"><ele>123.66666666666667</ele><time>2026-04-06T12:44:03.001Z</time></trkpt><trkpt lat="44.53075371485122" lon="1.0067717852570934"><ele>122.33333333333334</ele><time>2026-04-06T12:44:04.001Z</time></trkpt><trkpt lat="44.5306868003925" lon="1.0067384627271774"><ele>121.0</ele><time>2026-04-06T12:44:05.001Z</time></trkpt><trkpt lat="44.53062068981437" lon="1.006707177723069"><ele>120.16666666666667</ele><time>2026-04-06T12:44:06.001Z</time></trkpt><trkpt lat="44.53056526122202" lon="1.00663715686043"><ele>119.33333333333334</ele><time>2026-04-06T12:44:07.001Z</time></trkpt><trkpt lat="44.53050631395313" lon="1.0065810599883769"><ele>118.5</ele><time>2026-04-06T12:44:08.001Z</time></trkpt><trkpt lat="44.53044811563028" lon="1.006516797102109"><ele>117.66666666666666</ele><time>2026-04-06T12:44:09.001Z</time></trkpt><trkpt lat="44.53039128362019" lon="1.0064488496878021"><ele>116.83333333333333</ele><time>2026-04-06T12:44:10.001Z</time></trkpt><trkpt lat="44.53033271052442" lon="1.0063736410779436"><ele>116.0</ele><time>2026-04-06T12:44:11.001Z</time></trkpt><trkpt lat="44.53027205931406" lon="1.0062904619118198"><ele>116.0</ele><time>2026-04-06T12:44:12.001Z</time></trkpt><trkpt lat="44.53020884834665" lon="1.006201363671074"><ele>116.0</ele><time>2026-04-06T12:44:13.001Z</time></trkpt><trkpt lat="44.530144124112894" lon="1.006106200438242"><ele>116.0</ele><time>2026-04-06T12:44:14.001Z</time></trkpt><trkpt lat="44.53006859890705" lon="1.0060132398681598"><ele>116.0</ele><time>2026-04-06T12:44:15.001Z</time></trkpt><trkpt lat="44.53000895166601" lon="1.0059082547001794"><ele>116.0</ele><time>2026-04-06T12:44:16.001Z</time></trkpt><trkpt lat="44.529942491325706" lon="1.0057977246897662"><ele>118.4</ele><time>2026-04-06T12:44:17.001Z</time></trkpt><trkpt lat="44.5298851078773" lon="1.0056643145196456"><ele>120.8</ele><time>2026-04-06T12:44:18.001Z</time></trkpt><trkpt lat="44.529827018708346" lon="1.0055330678763954"><ele>123.20000000000002</ele><time>2026-04-06T12:44:19.001Z</time></trkpt><trkpt lat="44.5297802958862" lon="1.0054471535690441"><ele>125.60000000000001</ele><time>2026-04-06T12:44:20.001Z</time></trkpt><trkpt lat="44.529717673827825" lon="1.0053837008765247"><ele>128.0</ele><time>2026-04-06T12:44:22.001Z</time></trkpt><trkpt lat="44.52959794414017" lon="1.0054923848722634"><ele>125.16666666666666</ele><time>2026-04-06T12:44:26.001Z</time></trkpt><trkpt lat="44.529512684665654" lon="1.0056067344257478"><ele>122.33333333333333</ele><time>2026-04-06T12:44:27.001Z</time></trkpt><trkpt lat="44.52942816693742" lon="1.0056832621018186"><ele>119.5</ele><time>2026-04-06T12:44:28.001Z</time></trkpt><trkpt lat="44.5293651669474" lon="1.0057333615184545"><ele>116.66666666666666</ele><time>2026-04-06T12:44:29.001Z</time></trkpt><trkpt lat="44.52931076318237" lon="1.0057824908420285"><ele>113.83333333333333</ele><time>2026-04-06T12:44:31.001Z</time></trkpt><trkpt lat="44.52926484123476" lon="1.005843388764268"><ele>111.0</ele><time>2026-04-06T12:44:33.001Z</time></trkpt><trkpt lat="44.52922452424231" lon="1.0059477691890428"><ele>110.66666666666667</ele><time>2026-04-06T12:44:35.001Z</time></trkpt><trkpt lat="44.52921388333256" lon="1.0060413046413537"><ele>110.33333333333334</ele><time>2026-04-06T12:44:38.001Z</time></trkpt><trkpt lat="44.52917677534611" lon="1.006131491068514"><ele>110.0</ele><time>2026-04-06T12:44:41.001Z</time></trkpt><trkpt lat="44.529137651828414" lon="1.0062047058646197"><ele>109.66666666666667</ele><time>2026-04-06T12:44:44.001Z</time></trkpt><trkpt lat="44.529102012115686" lon="1.0062850093129765"><ele>109.33333333333334</ele><time>2026-04-06T12:44:45.001Z</time></trkpt><trkpt lat="44.52905063546521" lon="1.006398607501919"><ele>109.0</ele><time>2026-04-06T12:44:46.001Z</time></trkpt><trkpt lat="44.52899696999425" lon="1.0065213272883498"><ele>109.00000000000001</ele><time>2026-04-06T12:44:47.001Z</time></trkpt><trkpt lat="44.528951532987044" lon="1.006639844204468"><ele>109.0</ele><time>2026-04-06T12:44:48.001Z</time></trkpt><trkpt lat="44.528931497088784" lon="1.0067478515803485"><ele>109.0</ele><time>2026-04-06T12:44:49.001Z</time></trkpt><trkpt lat="44.52892574407051" lon="1.006838572873136"><ele>109.0</ele><time>2026-04-06T12:44:50.001Z</time></trkpt><trkpt lat="44.52894411984033" lon="1.006950680638372"><ele>109.00000000000001</ele><time>2026-04-06T12:44:51.001Z</time></trkpt><trkpt lat="44.528895836537046" lon="1.0070987735270525"><ele>109.0</ele><time>2026-04-06T12:44:53.001Z</time></trkpt><trkpt lat="44.528810777130836" lon="1.0071538935852562"><ele>109.4</ele><time>2026-04-06T12:44:54.001Z</time></trkpt><trkpt lat="44.528727727592965" lon="1.0072461114179274"><ele>109.80000000000001</ele><time>2026-04-06T12:44:55.001Z</time></trkpt><trkpt lat="44.528650420125864" lon="1.007356971131459"><ele>110.19999999999999</ele><time>2026-04-06T12:44:56.001Z</time></trkpt><trkpt lat="44.528584383839366" lon="1.0074616144602349"><ele>110.6</ele><time>2026-04-06T12:44:57.001Z</time></trkpt><trkpt lat="44.52850564039774" lon="1.0075351579538587"><ele>111.0</ele><time>2026-04-06T12:44:58.001Z</time></trkpt><trkpt lat="44.5284291383579" lon="1.0076130935056657"><ele>113.66666666666667</ele><time>2026-04-06T12:44:59.001Z</time></trkpt><trkpt lat="44.52836101352754" lon="1.0076971212196435"><ele>116.33333333333334</ele><time>2026-04-06T12:45:00.001Z</time></trkpt><trkpt lat="44.52829294143456" lon="1.0077662484079861"><ele>119.0</ele><time>2026-04-06T12:45:01.001Z</time></trkpt><trkpt lat="44.52821766373574" lon="1.0078402265846869"><ele>121.66666666666667</ele><time>2026-04-06T12:45:02.001Z</time></trkpt><trkpt lat="44.52814265187396" lon="1.0079197349897986"><ele>124.33333333333334</ele><time>2026-04-06T12:45:03.001Z</time></trkpt><trkpt lat="44.52806655221884" lon="1.0079501502509283"><ele>127.0</ele><time>2026-04-06T12:45:04.001Z</time></trkpt><trkpt lat="44.52797405218762" lon="1.007991503904885"><ele>130.4</ele><time>2026-04-06T12:45:05.001Z</time></trkpt><trkpt lat="44.52787840771827" lon="1.0080393391030285"><ele>133.79999999999998</ele><time>2026-04-06T12:45:06.001Z</time></trkpt><trkpt lat="44.5277938927503" lon="1.0081046561745426"><ele>137.2</ele><time>2026-04-06T12:45:07.001Z</time></trkpt><trkpt lat="44.527718535933836" lon="1.0081938212149104"><ele>140.6</ele><time>2026-04-06T12:45:08.001Z</time></trkpt><trkpt lat="44.52763072517016" lon="1.0083000615850664"><ele>144.0</ele><time>2026-04-06T12:45:09.001Z</time></trkpt><trkpt lat="44.52755387457715" lon="1.0083959116450243"><ele>144.4</ele><time>2026-04-06T12:45:11.001Z</time></trkpt><trkpt lat="44.527503215101156" lon="1.008512352972615"><ele>144.8</ele><time>2026-04-06T12:45:57.001Z</time></trkpt><trkpt lat="44.52743762590328" lon="1.0085617569582208"><ele>145.2</ele><time>2026-04-06T12:45:59.001Z</time></trkpt><trkpt lat="44.527362326118585" lon="1.0086619199429767"><ele>145.6</ele><time>2026-04-06T12:46:01.001Z</time></trkpt><trkpt lat="44.52727022688693" lon="1.0086920116999383"><ele>146.0</ele><time>2026-04-06T12:46:05.001Z</time></trkpt><trkpt lat="44.52715054777229" lon="1.0086195612549507"><ele>146.0</ele><time>2026-04-06T12:46:07.001Z</time></trkpt><trkpt lat="44.52708577888897" lon="1.0085344083026047"><ele>146.0</ele><time>2026-04-06T12:46:08.001Z</time></trkpt><trkpt lat="44.526996093319354" lon="1.0084913445722714"><ele>146.0</ele><time>2026-04-06T12:46:10.001Z</time></trkpt><trkpt lat="44.5269271819912" lon="1.0085210843081671"><ele>146.0</ele><time>2026-04-06T12:46:12.001Z</time></trkpt><trkpt lat="44.526835650805616" lon="1.008513386324624"><ele>146.0</ele><time>2026-04-06T12:46:14.001Z</time></trkpt><trkpt lat="44.52672195856335" lon="1.008464274266747"><ele>146.2</ele><time>2026-04-06T12:46:16.001Z</time></trkpt><trkpt lat="44.526614800627556" lon="1.0084180518704875"><ele>146.39999999999998</ele><time>2026-04-06T12:46:18.001Z</time></trkpt><trkpt lat="44.52655134079267" lon="1.0084579893796977"><ele>146.6</ele><time>2026-04-06T12:46:20.001Z</time></trkpt><trkpt lat="44.52649449686583" lon="1.008603441922021"><ele>146.79999999999998</ele><time>2026-04-06T12:46:22.001Z</time></trkpt><trkpt lat="44.52643564119871" lon="1.0086852801463035"><ele>147.0</ele><time>2026-04-06T12:46:24.001Z</time></trkpt><trkpt lat="44.52638547916931" lon="1.008759641848625"><ele>147.0</ele><time>2026-04-06T12:46:25.001Z</time></trkpt><trkpt lat="44.5263242717977" lon="1.0089139535535583"><ele>147.0</ele><time>2026-04-06T12:46:26.001Z</time></trkpt><trkpt lat="44.52625918688767" lon="1.0090320446676626"><ele>147.0</ele><time>2026-04-06T12:46:27.001Z</time></trkpt><trkpt lat="44.526231496414475" lon="1.009126545691998"><ele>147.0</ele><time>2026-04-06T12:46:28.001Z</time></trkpt><trkpt lat="44.52617115035905" lon="1.0091806466227655"><ele>147.0</ele><time>2026-04-06T12:46:29.001Z</time></trkpt><trkpt lat="44.526101288906354" lon="1.0092095999654118"><ele>147.66666666666666</ele><time>2026-04-06T12:46:30.001Z</time></trkpt><trkpt lat="44.5260308171307" lon="1.009217217176904"><ele>148.33333333333334</ele><time>2026-04-06T12:46:31.001Z</time></trkpt><trkpt lat="44.52595017156476" lon="1.0093139866112117"><ele>149.0</ele><time>2026-04-06T12:46:33.001Z</time></trkpt><trkpt lat="44.52596635081892" lon="1.0094083454434692"><ele>149.66666666666669</ele><time>2026-04-06T12:46:34.001Z</time></trkpt><trkpt lat="44.526045441668295" lon="1.0094987208593538"><ele>150.33333333333334</ele><time>2026-04-06T12:46:35.001Z</time></trkpt><trkpt lat="44.52608578592457" lon="1.0095761295714731"><ele>151.0</ele><time>2026-04-06T12:46:36.001Z</time></trkpt><trkpt lat="44.52610135868307" lon="1.009696267554918"><ele>151.0</ele><time>2026-04-06T12:46:37.001Z</time></trkpt><trkpt lat="44.52610873468379" lon="1.0098259876302838"><ele>151.0</ele><time>2026-04-06T12:46:38.001Z</time></trkpt><trkpt lat="44.526107905964736" lon="1.0099700981900612"><ele>151.0</ele><time>2026-04-06T12:46:39.001Z</time></trkpt><trkpt lat="44.52609124670859" lon="1.010125994029683"><ele>151.0</ele><time>2026-04-06T12:46:40.001Z</time></trkpt><trkpt lat="44.52605947790575" lon="1.0102488673608787"><ele>151.0</ele><time>2026-04-06T12:46:41.001Z</time></trkpt><trkpt lat="44.52602711838055" lon="1.0103330750715147"><ele>151.66666666666669</ele><time>2026-04-06T12:46:42.001Z</time></trkpt><trkpt lat="44.52600649489443" lon="1.0104221833158826"><ele>152.33333333333334</ele><time>2026-04-06T12:46:44.001Z</time></trkpt><trkpt lat="44.525993098628255" lon="1.0105774406693049"><ele>153.0</ele><time>2026-04-06T12:47:05.001Z</time></trkpt><trkpt lat="44.5259563122955" lon="1.0106660076917657"><ele>153.66666666666666</ele><time>2026-04-06T12:47:06Z</time></trkpt><trkpt lat="44.52589529148215" lon="1.0107850737742927"><ele>154.33333333333331</ele><time>2026-04-06T12:47:08Z</time></trkpt><trkpt lat="44.52584771440199" lon="1.0108448587072496"><ele>155.0</ele><time>2026-04-06T12:47:09Z</time></trkpt><trkpt lat="44.52578525139394" lon="1.0109194524832714"><ele>155.0</ele><time>2026-04-06T12:47:10Z</time></trkpt><trkpt lat="44.525715974017395" lon="1.0109687730889705"><ele>155.0</ele><time>2026-04-06T12:47:11Z</time></trkpt><trkpt lat="44.52564844578326" lon="1.011001737271674"><ele>155.0</ele><time>2026-04-06T12:47:12Z</time></trkpt><trkpt lat="44.525521284291" lon="1.0110582339003886"><ele>155.0</ele><time>2026-04-06T12:47:14Z</time></trkpt><trkpt lat="44.52546199909166" lon="1.0110900123229885"><ele>155.0</ele><time>2026-04-06T12:47:15Z</time></trkpt><trkpt lat="44.525378110671205" lon="1.0111609111679676"><ele>155.0</ele><time>2026-04-06T12:47:17Z</time></trkpt><trkpt lat="44.52526917000136" lon="1.0111931327204022"><ele>155.8</ele><time>2026-04-06T12:47:19Z</time></trkpt><trkpt lat="44.525200278324014" lon="1.0112188553946588"><ele>156.6</ele><time>2026-04-06T12:47:21Z</time></trkpt><trkpt lat="44.525110051843704" lon="1.011262339177272"><ele>157.4</ele><time>2026-04-06T12:47:23Z</time></trkpt><trkpt lat="44.52500170543615" lon="1.0112554674683432"><ele>158.2</ele><time>2026-04-06T12:47:25Z</time></trkpt><trkpt lat="44.52488601222519" lon="1.0113287788879446"><ele>159.0</ele><time>2026-04-06T12:47:27Z</time></trkpt><trkpt lat="44.524815146111315" lon="1.0113602666864558"><ele>159.0</ele><time>2026-04-06T12:47:28Z</time></trkpt><trkpt lat="44.52476760150903" lon="1.0114625635127963"><ele>159.0</ele><time>2026-04-06T12:47:30Z</time></trkpt><trkpt lat="44.52476582407642" lon="1.0115597554847622"><ele>159.0</ele><time>2026-04-06T12:47:32Z</time></trkpt><trkpt lat="44.52476578084402" lon="1.0116936556209062"><ele>159.0</ele><time>2026-04-06T12:47:34Z</time></trkpt><trkpt lat="44.52475697857572" lon="1.0118580939222281"><ele>159.0</ele><time>2026-04-06T12:47:36Z</time></trkpt><trkpt lat="44.524728237112896" lon="1.0120117010094913"><ele>158.16666666666666</ele><time>2026-04-06T12:47:38Z</time></trkpt><trkpt lat="44.524696981473376" lon="1.0121008012245167"><ele>157.33333333333334</ele><time>2026-04-06T12:47:39Z</time></trkpt><trkpt lat="44.52464968898411" lon="1.0122090463758875"><ele>156.5</ele><time>2026-04-06T12:47:40Z</time></trkpt><trkpt lat="44.5246120197895" lon="1.0123235198286318"><ele>155.66666666666669</ele><time>2026-04-06T12:47:41Z</time></trkpt><trkpt lat="44.524575137372636" lon="1.0124139865157813"><ele>154.83333333333334</ele><time>2026-04-06T12:47:42Z</time></trkpt><trkpt lat="44.52451772207739" lon="1.0125012096496953"><ele>154.0</ele><time>2026-04-06T12:47:43Z</time></trkpt><trkpt lat="44.52445121249639" lon="1.0125612286792718"><ele>154.0</ele><time>2026-04-06T12:47:44Z</time></trkpt><trkpt lat="44.52436877434285" lon="1.0126121191031956"><ele>154.0</ele><time>2026-04-06T12:47:45Z</time></trkpt><trkpt lat="44.52427312210841" lon="1.0126649139834016"><ele>154.0</ele><time>2026-04-06T12:47:46Z</time></trkpt><trkpt lat="44.524193536193366" lon="1.0127153628823105"><ele>154.0</ele><time>2026-04-06T12:47:47Z</time></trkpt><trkpt lat="44.524125875315654" lon="1.0127304332104816"><ele>154.0</ele><time>2026-04-06T12:47:48Z</time></trkpt><trkpt lat="44.524004416373735" lon="1.012681070403765"><ele>154.0</ele><time>2026-04-06T12:47:50.001Z</time></trkpt><trkpt lat="44.52388376547573" lon="1.012697390612882"><ele>154.0</ele><time>2026-04-06T12:47:52.001Z</time></trkpt><trkpt lat="44.5238111850376" lon="1.012722753374413"><ele>154.0</ele><time>2026-04-06T12:47:53.001Z</time></trkpt><trkpt lat="44.5237290645595" lon="1.0127657903216347"><ele>154.0</ele><time>2026-04-06T12:47:54.001Z</time></trkpt><trkpt lat="44.52360938907009" lon="1.0128170595214148"><ele>154.0</ele><time>2026-04-06T12:47:55.001Z</time></trkpt><trkpt lat="44.52349617221122" lon="1.012884506671275"><ele>155.2</ele><time>2026-04-06T12:47:56.001Z</time></trkpt><trkpt lat="44.52337482856055" lon="1.012936146543202"><ele>156.4</ele><time>2026-04-06T12:47:57.001Z</time></trkpt><trkpt lat="44.523269537763575" lon="1.0129679274608367"><ele>157.6</ele><time>2026-04-06T12:47:58.001Z</time></trkpt><trkpt lat="44.52318570030207" lon="1.012992712286645"><ele>158.8</ele><time>2026-04-06T12:47:59.001Z</time></trkpt><trkpt lat="44.52312021022881" lon="1.0130043180767405"><ele>160.0</ele><time>2026-04-06T12:48:00.001Z</time></trkpt><trkpt lat="44.52301200986531" lon="1.0130618455636158"><ele>160.0</ele><time>2026-04-06T12:48:02.001Z</time></trkpt><trkpt lat="44.522918483412695" lon="1.0131829502979488"><ele>160.0</ele><time>2026-04-06T12:48:04.001Z</time></trkpt><trkpt lat="44.52285978757318" lon="1.0132546622218928"><ele>160.0</ele><time>2026-04-06T12:48:06.001Z</time></trkpt><trkpt lat="44.52282785042011" lon="1.0133383508005664"><ele>160.0</ele><time>2026-04-06T12:49:03.001Z</time></trkpt><trkpt lat="44.522794704688124" lon="1.0135097129688662"><ele>160.0</ele><time>2026-04-06T12:49:05.001Z</time></trkpt><trkpt lat="44.522787582806" lon="1.0136159601913208"><ele>158.5</ele><time>2026-04-06T12:49:06.001Z</time></trkpt><trkpt lat="44.52279748040762" lon="1.0137356684382686"><ele>157.0</ele><time>2026-04-06T12:49:07.001Z</time></trkpt><trkpt lat="44.52280261013789" lon="1.0138276232396493"><ele>155.5</ele><time>2026-04-06T12:49:08Z</time></trkpt><trkpt lat="44.52282191085443" lon="1.013978278627811"><ele>154.0</ele><time>2026-04-06T12:49:10Z</time></trkpt><trkpt lat="44.522823373706586" lon="1.0141226722417411"><ele>152.5</ele><time>2026-04-06T12:49:12Z</time></trkpt><trkpt lat="44.52279159378974" lon="1.0142154574343847"><ele>151.0</ele><time>2026-04-06T12:49:14Z</time></trkpt><trkpt lat="44.522728150447726" lon="1.014305492265795"><ele>148.16666666666669</ele><time>2026-04-06T12:49:16Z</time></trkpt><trkpt lat="44.522687680971444" lon="1.0144010104994794"><ele>145.33333333333334</ele><time>2026-04-06T12:49:19Z</time></trkpt><trkpt lat="44.522701074407536" lon="1.0145080143590006"><ele>142.5</ele><time>2026-04-06T12:49:21Z</time></trkpt><trkpt lat="44.52271521795056" lon="1.0146135731357588"><ele>139.66666666666666</ele><time>2026-04-06T12:49:23Z</time></trkpt><trkpt lat="44.522736159111844" lon="1.0147308659996193"><ele>136.83333333333331</ele><time>2026-04-06T12:49:25Z</time></trkpt><trkpt lat="44.52277991501169" lon="1.014856450652335"><ele>134.0</ele><time>2026-04-06T12:49:27Z</time></trkpt><trkpt lat="44.522855633376096" lon="1.0149806129362997"><ele>131.6</ele><time>2026-04-06T12:49:29Z</time></trkpt><trkpt lat="44.522955934605065" lon="1.0150639936094388"><ele>129.2</ele><time>2026-04-06T12:49:31Z</time></trkpt><trkpt lat="44.523018317389074" lon="1.015083932692327"><ele>126.79999999999998</ele><time>2026-04-06T12:49:32Z</time></trkpt><trkpt lat="44.52308521551765" lon="1.0151004538817057"><ele>124.39999999999999</ele><time>2026-04-06T12:49:33Z</time></trkpt><trkpt lat="44.52316396600517" lon="1.0152579312128993"><ele>122.0</ele><time>2026-04-06T12:49:35Z</time></trkpt><trkpt lat="44.52325593803095" lon="1.0153663114250862"><ele>122.0</ele><time>2026-04-06T12:49:37Z</time></trkpt><trkpt lat="44.52334576844209" lon="1.0154916547817796"><ele>122.0</ele><time>2026-04-06T12:49:39Z</time></trkpt><trkpt lat="44.52337641615022" lon="1.0156437605414315"><ele>122.0</ele><time>2026-04-06T12:49:41Z</time></trkpt><trkpt lat="44.52339856907768" lon="1.0158260886365964"><ele>122.0</ele><time>2026-04-06T12:49:43Z</time></trkpt><trkpt lat="44.523411493833606" lon="1.0159364750806306"><ele>120.66666666666666</ele><time>2026-04-06T12:49:44Z</time></trkpt><trkpt lat="44.52342012649259" lon="1.0160359572445952"><ele>119.33333333333333</ele><time>2026-04-06T12:49:45Z</time></trkpt><trkpt lat="44.52342314996874" lon="1.0161246825681056"><ele>118.0</ele><time>2026-04-06T12:49:46Z</time></trkpt><trkpt lat="44.52343685681803" lon="1.0162109910643577"><ele>116.66666666666666</ele><time>2026-04-06T12:49:47Z</time></trkpt><trkpt lat="44.52340414578823" lon="1.0163006845235238"><ele>115.33333333333333</ele><time>2026-04-06T12:49:49Z</time></trkpt><trkpt lat="44.52352757092468" lon="1.0163227322731705"><ele>114.0</ele><time>2026-04-06T12:49:52Z</time></trkpt><trkpt lat="44.52359344585717" lon="1.0163048340690215"><ele>114.0</ele><time>2026-04-06T12:49:53Z</time></trkpt><trkpt lat="44.52369512667468" lon="1.0162675100916139"><ele>114.0</ele><time>2026-04-06T12:49:54Z</time></trkpt><trkpt lat="44.52380117787387" lon="1.0162285099704638"><ele>114.0</ele><time>2026-04-06T12:49:55Z</time></trkpt><trkpt lat="44.52393969515146" lon="1.016186052372767"><ele>114.0</ele><time>2026-04-06T12:49:56Z</time></trkpt><trkpt lat="44.5240747072614" lon="1.0161391979654566"><ele>114.16666666666667</ele><time>2026-04-06T12:49:57Z</time></trkpt><trkpt lat="44.524171788555385" lon="1.0161070327481911"><ele>114.33333333333334</ele><time>2026-04-06T12:49:58Z</time></trkpt><trkpt lat="44.524261718148324" lon="1.0160870943800382"><ele>114.5</ele><time>2026-04-06T12:49:59Z</time></trkpt><trkpt lat="44.5243314968463" lon="1.0160707474816024"><ele>114.66666666666667</ele><time>2026-04-06T12:50:00Z</time></trkpt><trkpt lat="44.52439927142384" lon="1.0160562200835466"><ele>114.83333333333334</ele><time>2026-04-06T12:50:01Z</time></trkpt><trkpt lat="44.52444701873609" lon="1.0161535738442853"><ele>115.0</ele><time>2026-04-06T12:50:03Z</time></trkpt><trkpt lat="44.52441887946013" lon="1.0163479346949729"><ele>115.0</ele><time>2026-04-06T12:50:05Z</time></trkpt><trkpt lat="44.52447182594286" lon="1.016456954718295"><ele>115.0</ele><time>2026-04-06T12:50:06Z</time></trkpt><trkpt lat="44.52451242560559" lon="1.016583917367203"><ele>115.0</ele><time>2026-04-06T12:50:07Z</time></trkpt><trkpt lat="44.52455041873654" lon="1.0167246387725264"><ele>115.0</ele><time>2026-04-06T12:50:08Z</time></trkpt><trkpt lat="44.52457628265008" lon="1.0168690217946492"><ele>115.0</ele><time>2026-04-06T12:50:09Z</time></trkpt><trkpt lat="44.5246057860258" lon="1.0169705323388996"><ele>114.2</ele><time>2026-04-06T12:50:10Z</time></trkpt><trkpt lat="44.524659176797094" lon="1.017055712590941"><ele>113.4</ele><time>2026-04-06T12:50:11Z</time></trkpt><trkpt lat="44.52477229280042" lon="1.0171116368400634"><ele>112.6</ele><time>2026-04-06T12:50:13Z</time></trkpt><trkpt lat="44.524796079909436" lon="1.0172744236495488"><ele>111.8</ele><time>2026-04-06T12:50:15Z</time></trkpt><trkpt lat="44.52481966948947" lon="1.0174024994070698"><ele>111.0</ele><time>2026-04-06T12:50:17Z</time></trkpt><trkpt lat="44.52485751595802" lon="1.0174906827607986"><ele>110.19999999999999</ele><time>2026-04-06T12:50:19Z</time></trkpt><trkpt lat="44.52488478783364" lon="1.01761419106458"><ele>109.39999999999999</ele><time>2026-04-06T12:50:22Z</time></trkpt><trkpt lat="44.52492098548167" lon="1.0177389057476305"><ele>108.6</ele><time>2026-04-06T12:50:25Z</time></trkpt><trkpt lat="44.52495970232055" lon="1.0178816687154155"><ele>107.8</ele><time>2026-04-06T12:50:27Z</time></trkpt><trkpt lat="44.52499291489188" lon="1.0180013571578217"><ele>107.0</ele><time>2026-04-06T12:50:29Z</time></trkpt><trkpt lat="44.52505151917911" lon="1.0180711732745247"><ele>106.99999999999999</ele><time>2026-04-06T12:50:32.001Z</time></trkpt><trkpt lat="44.525118611888004" lon="1.0180960224115"><ele>107.0</ele><time>2026-04-06T12:50:40.001Z</time></trkpt><trkpt lat="44.525186743543095" lon="1.0180664490425424"><ele>107.0</ele><time>2026-04-06T12:50:42.001Z</time></trkpt><trkpt lat="44.5252816544735" lon="1.018046341901667"><ele>107.0</ele><time>2026-04-06T12:50:44.001Z</time></trkpt><trkpt lat="44.52540933438616" lon="1.0180318174468979"><ele>106.99999999999999</ele><time>2026-04-06T12:50:46.001Z</time></trkpt><trkpt lat="44.525489146274076" lon="1.018018158482884"><ele>107.0</ele><time>2026-04-06T12:50:47.001Z</time></trkpt><trkpt lat="44.525565181552444" lon="1.0180254269883542"><ele>108.16666666666666</ele><time>2026-04-06T12:50:48.001Z</time></trkpt><trkpt lat="44.52564333521713" lon="1.0180312765401418"><ele>109.33333333333333</ele><time>2026-04-06T12:50:50.001Z</time></trkpt><trkpt lat="44.52571162580108" lon="1.018091510960463"><ele>110.5</ele><time>2026-04-06T12:50:52.001Z</time></trkpt><trkpt lat="44.525792208573485" lon="1.0181789977952653"><ele>111.66666666666666</ele><time>2026-04-06T12:50:55.001Z</time></trkpt><trkpt lat="44.525890287370544" lon="1.0182760840505056"><ele>112.83333333333333</ele><time>2026-04-06T12:50:57.001Z</time></trkpt><trkpt lat="44.52593626180207" lon="1.0183466253600832"><ele>114.0</ele><time>2026-04-06T12:50:58.001Z</time></trkpt><trkpt lat="44.525978462389524" lon="1.01843134662905"><ele>114.5</ele><time>2026-04-06T12:50:59.001Z</time></trkpt><trkpt lat="44.52603561907753" lon="1.0184864139243899"><ele>115.0</ele><time>2026-04-06T12:51:00.001Z</time></trkpt><trkpt lat="44.52608859491577" lon="1.0185367366832052"><ele>115.5</ele><time>2026-04-06T12:51:01Z</time></trkpt><trkpt lat="44.526207489268295" lon="1.0185901100496646"><ele>116.0</ele><time>2026-04-06T12:51:03Z</time></trkpt><trkpt lat="44.52626657025286" lon="1.0186290800892863"><ele>116.5</ele><time>2026-04-06T12:51:04Z</time></trkpt><trkpt lat="44.52633385927024" lon="1.0187034257925958"><ele>117.0</ele><time>2026-04-06T12:51:05Z</time></trkpt><trkpt lat="44.52640550189437" lon="1.0188032757644867"><ele>117.16666666666667</ele><time>2026-04-06T12:51:06Z</time></trkpt><trkpt lat="44.52646268895227" lon="1.0188845670586817"><ele>117.33333333333334</ele><time>2026-04-06T12:51:07Z</time></trkpt><trkpt lat="44.52651859628283" lon="1.0189356842978732"><ele>117.5</ele><time>2026-04-06T12:51:08Z</time></trkpt><trkpt lat="44.52659182420418" lon="1.018983074039247"><ele>117.66666666666667</ele><time>2026-04-06T12:51:09Z</time></trkpt><trkpt lat="44.52666031927996" lon="1.0190107845781458"><ele>117.83333333333334</ele><time>2026-04-06T12:51:10Z</time></trkpt><trkpt lat="44.52672775275797" lon="1.0190531966799992"><ele>118.0</ele><time>2026-04-06T12:51:11Z</time></trkpt><trkpt lat="44.52680503561716" lon="1.0191286825207593"><ele>119.00000000000001</ele><time>2026-04-06T12:51:12Z</time></trkpt><trkpt lat="44.52687755582311" lon="1.0191887411004577"><ele>120.0</ele><time>2026-04-06T12:51:13Z</time></trkpt><trkpt lat="44.52693122297669" lon="1.0192410721437004"><ele>121.0</ele><time>2026-04-06T12:51:14Z</time></trkpt><trkpt lat="44.52700491613273" lon="1.0192355913963282"><ele>122.0</ele><time>2026-04-06T12:51:16Z</time></trkpt><trkpt lat="44.527138437151066" lon="1.0192300715133888"><ele>123.00000000000001</ele><time>2026-04-06T12:51:18Z</time></trkpt><trkpt lat="44.52723070814224" lon="1.0192337000270173"><ele>124.0</ele><time>2026-04-06T12:51:19Z</time></trkpt><trkpt lat="44.52732238776971" lon="1.0192084644003179"><ele>125.0</ele><time>2026-04-06T12:51:20Z</time></trkpt><trkpt lat="44.52739602724999" lon="1.0192081218204034"><ele>126.0</ele><time>2026-04-06T12:51:21Z</time></trkpt><trkpt lat="44.52747899158746" lon="1.0191659385255132"><ele>127.0</ele><time>2026-04-06T12:51:23Z</time></trkpt><trkpt lat="44.52755052862307" lon="1.019128312613095"><ele>128.0</ele><time>2026-04-06T12:51:25Z</time></trkpt><trkpt lat="44.52768558541277" lon="1.0190504478060305"><ele>129.0</ele><time>2026-04-06T12:51:27Z</time></trkpt><trkpt lat="44.527768711679535" lon="1.0189850882046316"><ele>129.5</ele><time>2026-04-06T12:51:28Z</time></trkpt><trkpt lat="44.5278422745953" lon="1.0189487364618297"><ele>130.0</ele><time>2026-04-06T12:51:29Z</time></trkpt><trkpt lat="44.52790728534092" lon="1.0188915288732707"><ele>130.5</ele><time>2026-04-06T12:51:31Z</time></trkpt><trkpt lat="44.527980941519054" lon="1.018886516665931"><ele>131.0</ele><time>2026-04-06T12:51:33Z</time></trkpt><trkpt lat="44.528062834072" lon="1.018933720941777"><ele>131.5</ele><time>2026-04-06T12:51:35Z</time></trkpt><trkpt lat="44.528125718333136" lon="1.0188746813646077"><ele>132.0</ele><time>2026-04-06T12:51:37Z</time></trkpt><trkpt lat="44.528172594768364" lon="1.018799247254831"><ele>133.57142857142856</ele><time>2026-04-06T12:51:48Z</time></trkpt><trkpt lat="44.5282363855148" lon="1.018744457874907"><ele>135.14285714285714</ele><time>2026-04-06T12:51:50Z</time></trkpt><trkpt lat="44.528293303642855" lon="1.0186636469965986"><ele>136.71428571428572</ele><time>2026-04-06T12:51:52Z</time></trkpt><trkpt lat="44.52834230625937" lon="1.0185900351399328"><ele>138.28571428571428</ele><time>2026-04-06T12:51:55Z</time></trkpt><trkpt lat="44.52840518696827" lon="1.0185217393591437"><ele>139.85714285714286</ele><time>2026-04-06T12:51:58Z</time></trkpt><trkpt lat="44.52847130043671" lon="1.0184747418451923"><ele>141.42857142857142</ele><time>2026-04-06T12:52:01Z</time></trkpt><trkpt lat="44.528512598012924" lon="1.018407588557196"><ele>143.0</ele><time>2026-04-06T12:52:32Z</time></trkpt><trkpt lat="44.528573628233765" lon="1.018342365959293"><ele>145.28571428571428</ele><time>2026-04-06T12:52:35Z</time></trkpt><trkpt lat="44.528632004893076" lon="1.0182855198424534"><ele>147.57142857142856</ele><time>2026-04-06T12:52:40Z</time></trkpt><trkpt lat="44.528702900967275" lon="1.018249261529324"><ele>149.85714285714283</ele><time>2026-04-06T12:52:42Z</time></trkpt><trkpt lat="44.528748513815046" lon="1.0181791938414793"><ele>152.14285714285714</ele><time>2026-04-06T12:52:44Z</time></trkpt><trkpt lat="44.528817809175074" lon="1.018142269951342"><ele>154.42857142857144</ele><time>2026-04-06T12:52:47Z</time></trkpt><trkpt lat="44.528910464460495" lon="1.0181443937679984"><ele>156.7142857142857</ele><time>2026-04-06T12:52:50Z</time></trkpt><trkpt lat="44.52897715051504" lon="1.0181235117445893"><ele>159.0</ele><time>2026-04-06T12:52:52Z</time></trkpt><trkpt lat="44.52901516874467" lon="1.0182001966865604"><ele>158.83333333333334</ele><time>2026-04-06T12:52:54Z</time></trkpt><trkpt lat="44.529096868218346" lon="1.0182595695330137"><ele>158.66666666666666</ele><time>2026-04-06T12:52:57Z</time></trkpt><trkpt lat="44.52914778013673" lon="1.0183592497244707"><ele>158.5</ele><time>2026-04-06T12:52:59Z</time></trkpt><trkpt lat="44.52921148500624" lon="1.0184135623993762"><ele>158.33333333333331</ele><time>2026-04-06T12:53:01Z</time></trkpt><trkpt lat="44.52926243800769" lon="1.0184705354835795"><ele>158.16666666666666</ele><time>2026-04-06T12:53:03Z</time></trkpt><trkpt lat="44.52934353408535" lon="1.01845003464779"><ele>158.0</ele><time>2026-04-06T12:53:05Z</time></trkpt><trkpt lat="44.52940867060235" lon="1.0184469697483916"><ele>158.0</ele><time>2026-04-06T12:53:07Z</time></trkpt><trkpt lat="44.52947394491059" lon="1.0184847061344133"><ele>158.0</ele><time>2026-04-06T12:53:09Z</time></trkpt><trkpt lat="44.52954833853631" lon="1.0185187039210188"><ele>158.0</ele><time>2026-04-06T12:53:11Z</time></trkpt><trkpt lat="44.52959092883276" lon="1.0186286226334054"><ele>158.0</ele><time>2026-04-06T12:53:13Z</time></trkpt><trkpt lat="44.529608585665656" lon="1.0187787634255243"><ele>158.0</ele><time>2026-04-06T12:53:15Z</time></trkpt><trkpt lat="44.52961618084388" lon="1.0189199579307118"><ele>158.0</ele><time>2026-04-06T12:53:17Z</time></trkpt><trkpt lat="44.52968590605694" lon="1.019005520692242"><ele>160.83333333333331</ele><time>2026-04-06T12:53:19Z</time></trkpt><trkpt lat="44.529751576133535" lon="1.0190600249702475"><ele>163.66666666666666</ele><time>2026-04-06T12:53:21Z</time></trkpt><trkpt lat="44.529860669042165" lon="1.0190762024995301"><ele>166.5</ele><time>2026-04-06T12:53:24Z</time></trkpt><trkpt lat="44.529925046334064" lon="1.019048375304338"><ele>169.33333333333334</ele><time>2026-04-06T12:53:25Z</time></trkpt><trkpt lat="44.530042154914604" lon="1.0190450978331085"><ele>172.16666666666669</ele><time>2026-04-06T12:53:27Z</time></trkpt><trkpt lat="44.530116744128705" lon="1.0190276828522757"><ele>175.0</ele><time>2026-04-06T12:53:29Z</time></trkpt><trkpt lat="44.53021705757314" lon="1.0189798357437925"><ele>175.0</ele><time>2026-04-06T12:53:31Z</time></trkpt><trkpt lat="44.53029806597806" lon="1.0189525677970765"><ele>175.0</ele><time>2026-04-06T12:53:33Z</time></trkpt><trkpt lat="44.53036291377783" lon="1.0188792218940401"><ele>175.0</ele><time>2026-04-06T12:53:35Z</time></trkpt><trkpt lat="44.530439437089086" lon="1.0188048801538765"><ele>175.0</ele><time>2026-04-06T12:53:38Z</time></trkpt><trkpt lat="44.530495854234275" lon="1.0187374539471343"><ele>175.0</ele><time>2026-04-06T12:53:40Z</time></trkpt><trkpt lat="44.530554575430536" lon="1.018681232161668"><ele>175.0</ele><time>2026-04-06T12:53:42Z</time></trkpt><trkpt lat="44.53061146674503" lon="1.018624974017133"><ele>177.83333333333334</ele><time>2026-04-06T12:53:45Z</time></trkpt><trkpt lat="44.530692673973775" lon="1.01861503064263"><ele>180.66666666666669</ele><time>2026-04-06T12:53:52Z</time></trkpt><trkpt lat="44.530764016101365" lon="1.0185863295165818"><ele>183.5</ele><time>2026-04-06T12:53:54Z</time></trkpt><trkpt lat="44.53083510888674" lon="1.0186289763528944"><ele>186.33333333333334</ele><time>2026-04-06T12:53:57Z</time></trkpt><trkpt lat="44.53093466182354" lon="1.0186662455504152"><ele>189.16666666666666</ele><time>2026-04-06T12:53:59Z</time></trkpt><trkpt lat="44.53103538057946" lon="1.0187093683539072"><ele>192.0</ele><time>2026-04-06T12:54:01Z</time></trkpt><trkpt lat="44.53111467260415" lon="1.0187798404638755"><ele>192.0</ele><time>2026-04-06T12:54:03Z</time></trkpt><trkpt lat="44.531141976045525" lon="1.0189016297955718"><ele>192.0</ele><time>2026-04-06T12:54:05Z</time></trkpt><trkpt lat="44.53122878402778" lon="1.0189509305942799"><ele>192.0</ele><time>2026-04-06T12:54:07Z</time></trkpt><trkpt lat="44.531322305131184" lon="1.0190381354208855"><ele>192.0</ele><time>2026-04-06T12:54:09Z</time></trkpt><trkpt lat="44.53141540802738" lon="1.0190678649602363"><ele>192.0</ele><time>2026-04-06T12:54:11Z</time></trkpt><trkpt lat="44.53152108365781" lon="1.0190357191022203"><ele>193.8</ele><time>2026-04-06T12:54:13Z</time></trkpt><trkpt lat="44.53163140354681" lon="1.0190392710080112"><ele>195.6</ele><time>2026-04-06T12:54:15Z</time></trkpt><trkpt lat="44.53173828464395" lon="1.0190436741132116"><ele>197.4</ele><time>2026-04-06T12:54:18Z</time></trkpt><trkpt lat="44.53183029524717" lon="1.0190381819638836"><ele>199.20000000000002</ele><time>2026-04-06T12:54:19Z</time></trkpt><trkpt lat="44.5318993786803" lon="1.0190051118464878"><ele>201.0</ele><time>2026-04-06T12:54:20Z</time></trkpt><trkpt lat="44.5320044450408" lon="1.0190562189270849"><ele>202.5</ele><time>2026-04-06T12:54:22Z</time></trkpt><trkpt lat="44.532075614916" lon="1.0190807235502204"><ele>204.0</ele><time>2026-04-06T12:54:23Z</time></trkpt><trkpt lat="44.53215445921936" lon="1.0190923424714124"><ele>205.5</ele><time>2026-04-06T12:54:24Z</time></trkpt><trkpt lat="44.53224036754296" lon="1.019134310562768"><ele>207.0</ele><time>2026-04-06T12:54:25Z</time></trkpt><trkpt lat="44.53230564733798" lon="1.019116024763955"><ele>208.5</ele><time>2026-04-06T12:54:26Z</time></trkpt><trkpt lat="44.53237433060936" lon="1.0190495422322028"><ele>210.0</ele><time>2026-04-06T12:54:35Z</time></trkpt><trkpt lat="44.53244246587023" lon="1.0190723591854893"><ele>210.0</ele><time>2026-04-06T12:54:47Z</time></trkpt><trkpt lat="44.53250693733839" lon="1.0191055455511555"><ele>210.0</ele><time>2026-04-06T12:55:05Z</time></trkpt><trkpt lat="44.53254148641398" lon="1.019185830311035"><ele>210.0</ele><time>2026-04-06T12:55:07Z</time></trkpt><trkpt lat="44.53263739451056" lon="1.0192234423207347"><ele>210.0</ele><time>2026-04-06T12:55:09Z</time></trkpt><trkpt lat="44.53271470494674" lon="1.0192149977441045"><ele>210.0</ele><time>2026-04-06T12:55:10Z</time></trkpt><trkpt lat="44.53280569473929" lon="1.0191915873004338"><ele>210.0</ele><time>2026-04-06T12:55:11Z</time></trkpt><trkpt lat="44.532904396086764" lon="1.0191846420336925"><ele>210.33333333333334</ele><time>2026-04-06T12:55:12Z</time></trkpt><trkpt lat="44.533005127300136" lon="1.0191606837548053"><ele>210.66666666666669</ele><time>2026-04-06T12:55:13Z</time></trkpt><trkpt lat="44.53308925172002" lon="1.0191504392001731"><ele>211.0</ele><time>2026-04-06T12:55:14Z</time></trkpt><trkpt lat="44.53315791229597" lon="1.019131551102155"><ele>211.33333333333334</ele><time>2026-04-06T12:55:15Z</time></trkpt><trkpt lat="44.53326521428778" lon="1.019096963848843"><ele>211.66666666666669</ele><time>2026-04-06T12:55:17Z</time></trkpt><trkpt lat="44.53333261241622" lon="1.0191167195334596"><ele>212.0</ele><time>2026-04-06T12:55:20Z</time></trkpt><trkpt lat="44.53338660483783" lon="1.0192374143760736"><ele>215.0</ele><time>2026-04-06T12:55:23Z</time></trkpt><trkpt lat="44.5333670016084" lon="1.019330480664906"><ele>215.0</ele><time>2026-04-06T12:55:26Z</time></trkpt></trkseg><trkseg><trkpt lat="44.53333066406135" lon="1.0194702424470004"><ele>215.00000000000003</ele><time>2026-04-06T13:39:18Z</time></trkpt><trkpt lat="44.53337371676687" lon="1.019543150694922"><ele>215.0</ele><time>2026-04-06T13:39:23Z</time></trkpt><trkpt lat="44.53343651367488" lon="1.0194544509107364"><ele>215.0</ele><time>2026-04-06T13:39:27Z</time></trkpt><trkpt lat="44.533380557056326" lon="1.0193627697419796"><ele>215.0</ele><time>2026-04-06T13:39:29Z</time></trkpt><trkpt lat="44.533311492182655" lon="1.019429282680059"><ele>215.00000000000003</ele><time>2026-04-06T13:39:32Z</time></trkpt><trkpt lat="44.533355103218234" lon="1.0195488056389561"><ele>215.0</ele><time>2026-04-06T13:39:34Z</time></trkpt><trkpt lat="44.53344936143126" lon="1.0195788032504496"><ele>215.0</ele><time>2026-04-06T13:39:36Z</time></trkpt><trkpt lat="44.53356941333649" lon="1.019610165857177"><ele>215.0</ele><time>2026-04-06T13:39:38Z</time></trkpt><trkpt lat="44.53362291725986" lon="1.0196938454141578"><ele>215.0</ele><time>2026-04-06T13:39:40Z</time></trkpt><trkpt lat="44.53369074503566" lon="1.0197307162068197"><ele>215.0</ele><time>2026-04-06T13:39:43Z</time></trkpt><trkpt lat="44.533748401838864" lon="1.0195829762009183"><ele>215.0</ele><time>2026-04-06T13:39:46Z</time></trkpt><trkpt lat="44.53375390955844" lon="1.0194609593810033"><ele>214.0</ele><time>2026-04-06T13:39:47.001Z</time></trkpt><trkpt lat="44.53376285160043" lon="1.0193123575969816"><ele>213.0</ele><time>2026-04-06T13:39:49.001Z</time></trkpt><trkpt lat="44.533748325110274" lon="1.0191629383750331"><ele>212.0</ele><time>2026-04-06T13:39:51.001Z</time></trkpt><trkpt lat="44.533738680392155" lon="1.019020703293427"><ele>211.0</ele><time>2026-04-06T13:39:53.001Z</time></trkpt><trkpt lat="44.53373048328557" lon="1.018901443921151"><ele>210.0</ele><time>2026-04-06T13:39:55.001Z</time></trkpt><trkpt lat="44.53372303003579" lon="1.0187783539298914"><ele>210.0</ele><time>2026-04-06T13:39:57.001Z</time></trkpt><trkpt lat="44.53371768508746" lon="1.0186900824925424"><ele>210.0</ele><time>2026-04-06T13:39:59.001Z</time></trkpt><trkpt lat="44.533711095385684" lon="1.0185974664240374"><ele>210.0</ele><time>2026-04-06T13:40:02.001Z</time></trkpt><trkpt lat="44.5337019569915" lon="1.0184758665018792"><ele>210.0</ele><time>2026-04-06T13:40:06.001Z</time></trkpt><trkpt lat="44.53369405537709" lon="1.0183819897730908"><ele>210.0</ele><time>2026-04-06T13:40:08.001Z</time></trkpt><trkpt lat="44.5336829030311" lon="1.0182466238786791"><ele>210.0</ele><time>2026-04-06T13:40:11Z</time></trkpt><trkpt lat="44.53367244604834" lon="1.0181196983141267"><ele>210.0</ele><time>2026-04-06T13:40:14Z</time></trkpt><trkpt lat="44.53366323568307" lon="1.0180079039039323"><ele>210.0</ele><time>2026-04-06T13:40:17Z</time></trkpt><trkpt lat="44.53365534451057" lon="1.0179121217599025"><ele>210.0</ele><time>2026-04-06T13:40:20Z</time></trkpt><trkpt lat="44.53364645648981" lon="1.0178042400457041"><ele>210.0</ele><time>2026-04-06T13:40:22Z</time></trkpt><trkpt lat="44.53364919707784" lon="1.0177106200289234"><ele>210.0</ele><time>2026-04-06T13:40:24Z</time></trkpt><trkpt lat="44.534137200627484" lon="1.0175422799799767"><ele>205.83333333333334</ele><time>2026-04-06T13:40:26Z</time></trkpt><trkpt lat="44.53421721020953" lon="1.0174540992088847"><ele>201.66666666666666</ele><time>2026-04-06T13:40:28Z</time></trkpt><trkpt lat="44.534285479733555" lon="1.0174007752167922"><ele>197.5</ele><time>2026-04-06T13:40:32Z</time></trkpt><trkpt lat="44.53435858110873" lon="1.017343762287947"><ele>193.33333333333331</ele><time>2026-04-06T13:40:35Z</time></trkpt><trkpt lat="44.53441892215545" lon="1.0172748885741834"><ele>189.16666666666666</ele><time>2026-04-06T13:40:38Z</time></trkpt><trkpt lat="44.534468735090954" lon="1.0172192765276025"><ele>185.0</ele><time>2026-04-06T13:40:40Z</time></trkpt><trkpt lat="44.53451097876404" lon="1.017143120890816"><ele>185.0</ele><time>2026-04-06T13:40:42Z</time></trkpt><trkpt lat="44.53454334238979" lon="1.0170636667456951"><ele>185.0</ele><time>2026-04-06T13:40:44Z</time></trkpt><trkpt lat="44.534580257105844" lon="1.016987287810722"><ele>185.0</ele><time>2026-04-06T13:40:46Z</time></trkpt><trkpt lat="44.534663006485005" lon="1.0168920118201359"><ele>185.0</ele><time>2026-04-06T13:40:49Z</time></trkpt><trkpt lat="44.5347026639993" lon="1.016816324259488"><ele>185.0</ele><time>2026-04-06T13:40:51Z</time></trkpt><trkpt lat="44.53474260305065" lon="1.01674080396899"><ele>185.0</ele><time>2026-04-06T13:40:53Z</time></trkpt><trkpt lat="44.53478797052668" lon="1.016634991300145"><ele>181.7142857142857</ele><time>2026-04-06T13:40:56Z</time></trkpt><trkpt lat="44.53482026260441" lon="1.0165504165575987"><ele>178.42857142857142</ele><time>2026-04-06T13:40:58Z</time></trkpt><trkpt lat="44.534836316344816" lon="1.0164545011103234"><ele>175.14285714285714</ele><time>2026-04-06T13:41:01Z</time></trkpt><trkpt lat="44.5348383153016" lon="1.0163529324442566"><ele>171.85714285714283</ele><time>2026-04-06T13:41:03Z</time></trkpt><trkpt lat="44.53488912601804" lon="1.0162827649898274"><ele>168.57142857142856</ele><time>2026-04-06T13:41:05Z</time></trkpt><trkpt lat="44.53494350770211" lon="1.016197544974734"><ele>165.28571428571428</ele><time>2026-04-06T13:41:09Z</time></trkpt><trkpt lat="44.53498458463475" lon="1.0161248917788208"><ele>162.0</ele><time>2026-04-06T13:41:13Z</time></trkpt><trkpt lat="44.53505304318521" lon="1.0160396667060245"><ele>162.0</ele><time>2026-04-06T13:41:16Z</time></trkpt><trkpt lat="44.535077635488804" lon="1.0159562923190448"><ele>162.0</ele><time>2026-04-06T13:41:19Z</time></trkpt><trkpt lat="44.53512450946465" lon="1.015864318243449"><ele>162.0</ele><time>2026-04-06T13:41:21Z</time></trkpt><trkpt lat="44.53519035189454" lon="1.0157577667108322"><ele>162.0</ele><time>2026-04-06T13:41:23Z</time></trkpt><trkpt lat="44.53523581310975" lon="1.0156796741598255"><ele>162.0</ele><time>2026-04-06T13:41:26Z</time></trkpt><trkpt lat="44.535281712517495" lon="1.0155871220864228"><ele>162.0</ele><time>2026-04-06T13:41:29Z</time></trkpt><trkpt lat="44.53532052647349" lon="1.015493607419377"><ele>160.0</ele><time>2026-04-06T13:41:32Z</time></trkpt><trkpt lat="44.53536020831409" lon="1.0154079898296973"><ele>158.0</ele><time>2026-04-06T13:41:34Z</time></trkpt><trkpt lat="44.53541226129042" lon="1.015331643487884"><ele>156.0</ele><time>2026-04-06T13:41:36Z</time></trkpt><trkpt lat="44.53546242569888" lon="1.0152426448698626"><ele>154.0</ele><time>2026-04-06T13:41:38Z</time></trkpt><trkpt lat="44.5354584064667" lon="1.0151539784418049"><ele>152.0</ele><time>2026-04-06T13:41:39Z</time></trkpt><trkpt lat="44.535413909165825" lon="1.0150828395685019"><ele>150.0</ele><time>2026-04-06T13:41:40Z</time></trkpt><trkpt lat="44.535352694068315" lon="1.015015110119889"><ele>148.0</ele><time>2026-04-06T13:41:41Z</time></trkpt><trkpt lat="44.535277078833424" lon="1.0149709163783427"><ele>148.0</ele><time>2026-04-06T13:41:42Z</time></trkpt><trkpt lat="44.53519951973464" lon="1.0149453214049176"><ele>148.0</ele><time>2026-04-06T13:41:43Z</time></trkpt><trkpt lat="44.53506170392952" lon="1.0149403838486943"><ele>148.0</ele><time>2026-04-06T13:41:45Z</time></trkpt><trkpt lat="44.534981855609296" lon="1.014984566005155"><ele>148.0</ele><time>2026-04-06T13:41:46Z</time></trkpt><trkpt lat="44.53490271617311" lon="1.0150283019674724"><ele>148.0</ele><time>2026-04-06T13:41:47Z</time></trkpt><trkpt lat="44.534828500665895" lon="1.0150700354087643"><ele>148.0</ele><time>2026-04-06T13:41:48Z</time></trkpt><trkpt lat="44.534759848460276" lon="1.0151132878693245"><ele>148.0</ele><time>2026-04-06T13:41:49Z</time></trkpt><trkpt lat="44.534698995765346" lon="1.0151510877515246"><ele>148.0</ele><time>2026-04-06T13:41:50Z</time></trkpt><trkpt lat="44.53464015334368" lon="1.015184883962232"><ele>148.0</ele><time>2026-04-06T13:41:51Z</time></trkpt><trkpt lat="44.53457934450096" lon="1.0152142593495173"><ele>148.0</ele><time>2026-04-06T13:41:52Z</time></trkpt><trkpt lat="44.53445933494472" lon="1.01523926994121"><ele>148.0</ele><time>2026-04-06T13:41:54Z</time></trkpt><trkpt lat="44.534392376194255" lon="1.0152297565015282"><ele>150.0</ele><time>2026-04-06T13:41:55Z</time></trkpt><trkpt lat="44.534292648479" lon="1.015148948850683"><ele>152.0</ele><time>2026-04-06T13:41:57Z</time></trkpt><trkpt lat="44.53423979686109" lon="1.015090683953993"><ele>154.0</ele><time>2026-04-06T13:41:58Z</time></trkpt><trkpt lat="44.53420547652429" lon="1.0150093414131176"><ele>156.0</ele><time>2026-04-06T13:41:59Z</time></trkpt><trkpt lat="44.53416268708029" lon="1.0149106185893317"><ele>158.0</ele><time>2026-04-06T13:42:00Z</time></trkpt><trkpt lat="44.53410459970167" lon="1.014808964606121"><ele>160.0</ele><time>2026-04-06T13:42:01Z</time></trkpt><trkpt lat="44.53406013794125" lon="1.014679191092436"><ele>160.0</ele><time>2026-04-06T13:42:02Z</time></trkpt><trkpt lat="44.53400498914792" lon="1.014539774463532"><ele>160.0</ele><time>2026-04-06T13:42:03Z</time></trkpt><trkpt lat="44.53395791899481" lon="1.0143800903047338"><ele>160.0</ele><time>2026-04-06T13:42:04Z</time></trkpt><trkpt lat="44.5339061713065" lon="1.0142318667851822"><ele>160.0</ele><time>2026-04-06T13:42:05Z</time></trkpt><trkpt lat="44.53386666988897" lon="1.0141067853494328"><ele>161.16666666666669</ele><time>2026-04-06T13:42:06Z</time></trkpt><trkpt lat="44.53383693995304" lon="1.014009040025086"><ele>162.33333333333334</ele><time>2026-04-06T13:42:07Z</time></trkpt><trkpt lat="44.53379643978339" lon="1.0139310243003978"><ele>163.5</ele><time>2026-04-06T13:42:08Z</time></trkpt><trkpt lat="44.53376031619902" lon="1.0137993309886764"><ele>164.66666666666666</ele><time>2026-04-06T13:42:10Z</time></trkpt><trkpt lat="44.53372462092731" lon="1.0136883511182793"><ele>165.83333333333331</ele><time>2026-04-06T13:42:12Z</time></trkpt><trkpt lat="44.53369597853073" lon="1.0135894756277832"><ele>167.0</ele><time>2026-04-06T13:42:14Z</time></trkpt><trkpt lat="44.533650804377594" lon="1.0134705614794985"><ele>166.85714285714286</ele><time>2026-04-06T13:42:16Z</time></trkpt><trkpt lat="44.53360442837227" lon="1.0134084577796687"><ele>166.71428571428572</ele><time>2026-04-06T13:42:17Z</time></trkpt><trkpt lat="44.53354751264423" lon="1.0133530150446457"><ele>166.57142857142856</ele><time>2026-04-06T13:42:18Z</time></trkpt><trkpt lat="44.533480864645355" lon="1.0133140596073296"><ele>166.42857142857144</ele><time>2026-04-06T13:42:19Z</time></trkpt><trkpt lat="44.533394223600865" lon="1.0133125656870507"><ele>166.2857142857143</ele><time>2026-04-06T13:42:20Z</time></trkpt><trkpt lat="44.53332950407831" lon="1.0133180090819065"><ele>166.14285714285714</ele><time>2026-04-06T13:42:21Z</time></trkpt><trkpt lat="44.53326429921001" lon="1.0133499835964461"><ele>166.0</ele><time>2026-04-06T13:42:22Z</time></trkpt><trkpt lat="44.53320612572785" lon="1.0133986999250897"><ele>167.60000000000002</ele><time>2026-04-06T13:42:23Z</time></trkpt><trkpt lat="44.53307177344752" lon="1.01341070758171"><ele>169.2</ele><time>2026-04-06T13:42:25Z</time></trkpt><trkpt lat="44.53299106825622" lon="1.0134122656960205"><ele>170.8</ele><time>2026-04-06T13:42:26Z</time></trkpt><trkpt lat="44.532901251505606" lon="1.0134149635134166"><ele>172.39999999999998</ele><time>2026-04-06T13:42:27Z</time></trkpt><trkpt lat="44.532821207312104" lon="1.0134201569661607"><ele>174.0</ele><time>2026-04-06T13:42:28Z</time></trkpt><trkpt lat="44.53272274650854" lon="1.0134289786241797"><ele>174.0</ele><time>2026-04-06T13:42:29Z</time></trkpt><trkpt lat="44.53263957805397" lon="1.013436364645111"><ele>174.0</ele><time>2026-04-06T13:42:30Z</time></trkpt><trkpt lat="44.532561366088274" lon="1.013440325553189"><ele>174.0</ele><time>2026-04-06T13:42:31Z</time></trkpt><trkpt lat="44.532487950559975" lon="1.0134387814245804"><ele>174.0</ele><time>2026-04-06T13:42:32Z</time></trkpt><trkpt lat="44.532411064572436" lon="1.0134295127969493"><ele>174.0</ele><time>2026-04-06T13:42:33Z</time></trkpt><trkpt lat="44.53233593005766" lon="1.013429611472047"><ele>174.0</ele><time>2026-04-06T13:42:34Z</time></trkpt><trkpt lat="44.532250921956134" lon="1.0134013569003582"><ele>174.0</ele><time>2026-04-06T13:42:35Z</time></trkpt><trkpt lat="44.532170404902146" lon="1.0133701911032673"><ele>174.0</ele><time>2026-04-06T13:42:36Z</time></trkpt><trkpt lat="44.5320907312571" lon="1.013341098732746"><ele>174.0</ele><time>2026-04-06T13:42:37Z</time></trkpt><trkpt lat="44.532017407177676" lon="1.0133042647188162"><ele>174.0</ele><time>2026-04-06T13:42:38Z</time></trkpt><trkpt lat="44.53194413238179" lon="1.0132693705268772"><ele>174.0</ele><time>2026-04-06T13:42:39Z</time></trkpt><trkpt lat="44.53186762892056" lon="1.0132377753691861"><ele>174.0</ele><time>2026-04-06T13:42:40Z</time></trkpt><trkpt lat="44.53180518156889" lon="1.013187514717191"><ele>171.79999999999998</ele><time>2026-04-06T13:42:41Z</time></trkpt><trkpt lat="44.53174714573716" lon="1.0131053248996917"><ele>169.6</ele><time>2026-04-06T13:42:42Z</time></trkpt><trkpt lat="44.53172285467074" lon="1.0129665421546121"><ele>167.4</ele><time>2026-04-06T13:42:43Z</time></trkpt><trkpt lat="44.531676644210286" lon="1.0128457612220674"><ele>165.2</ele><time>2026-04-06T13:42:44Z</time></trkpt><trkpt lat="44.531649387869855" lon="1.0127100627646752"><ele>163.0</ele><time>2026-04-06T13:42:45Z</time></trkpt><trkpt lat="44.53160122629769" lon="1.0126057711526006"><ele>163.0</ele><time>2026-04-06T13:42:46Z</time></trkpt><trkpt lat="44.5315331366577" lon="1.012528133359191"><ele>163.0</ele><time>2026-04-06T13:42:47Z</time></trkpt><trkpt lat="44.531444250108535" lon="1.0124789433290735"><ele>163.0</ele><time>2026-04-06T13:42:48Z</time></trkpt><trkpt lat="44.5313636658241" lon="1.0124391854539512"><ele>163.0</ele><time>2026-04-06T13:42:49Z</time></trkpt><trkpt lat="44.531271695479006" lon="1.0124035724716527"><ele>163.0</ele><time>2026-04-06T13:42:50Z</time></trkpt><trkpt lat="44.53118195115517" lon="1.0123494294486"><ele>161.5</ele><time>2026-04-06T13:42:51Z</time></trkpt><trkpt lat="44.53112036353424" lon="1.0122571511267493"><ele>160.0</ele><time>2026-04-06T13:42:52Z</time></trkpt><trkpt lat="44.531065255728144" lon="1.012165682085404"><ele>158.5</ele><time>2026-04-06T13:42:53Z</time></trkpt><trkpt lat="44.53101853913324" lon="1.0120573618348492"><ele>157.0</ele><time>2026-04-06T13:42:54Z</time></trkpt><trkpt lat="44.530971415656474" lon="1.0119427310155604"><ele>155.5</ele><time>2026-04-06T13:42:55Z</time></trkpt><trkpt lat="44.53092852490388" lon="1.0118370292694112"><ele>154.0</ele><time>2026-04-06T13:42:56Z</time></trkpt><trkpt lat="44.530887463670865" lon="1.0117331173274775"><ele>153.66666666666669</ele><time>2026-04-06T13:42:57Z</time></trkpt><trkpt lat="44.530855686371474" lon="1.011634557413305"><ele>153.33333333333334</ele><time>2026-04-06T13:42:58Z</time></trkpt><trkpt lat="44.530837782938015" lon="1.0115228352457273"><ele>153.0</ele><time>2026-04-06T13:42:59Z</time></trkpt><trkpt lat="44.530841551898526" lon="1.0114096226517144"><ele>152.66666666666666</ele><time>2026-04-06T13:43:00Z</time></trkpt><trkpt lat="44.530862341747245" lon="1.0113028282107255"><ele>152.33333333333331</ele><time>2026-04-06T13:43:01Z</time></trkpt><trkpt lat="44.530899548827904" lon="1.0112064729522403"><ele>152.0</ele><time>2026-04-06T13:43:02Z</time></trkpt><trkpt lat="44.530926812645006" lon="1.0111020338353216"><ele>152.0</ele><time>2026-04-06T13:43:03Z</time></trkpt><trkpt lat="44.53097529292947" lon="1.0110212199980175"><ele>152.0</ele><time>2026-04-06T13:43:04Z</time></trkpt><trkpt lat="44.53101917957022" lon="1.0109351190864617"><ele>152.0</ele><time>2026-04-06T13:43:05Z</time></trkpt><trkpt lat="44.53106554815731" lon="1.0108577762735742"><ele>152.0</ele><time>2026-04-06T13:43:06Z</time></trkpt><trkpt lat="44.53113160556327" lon="1.0108086847490454"><ele>152.0</ele><time>2026-04-06T13:43:07Z</time></trkpt><trkpt lat="44.53118742500348" lon="1.0107527191743337"><ele>152.0</ele><time>2026-04-06T13:43:08Z</time></trkpt><trkpt lat="44.531239912214666" lon="1.0106863512987454"><ele>152.0</ele><time>2026-04-06T13:43:09Z</time></trkpt><trkpt lat="44.53129428065022" lon="1.0106391574593805"><ele>150.16666666666666</ele><time>2026-04-06T13:43:10Z</time></trkpt><trkpt lat="44.531353178089844" lon="1.0105886052009556"><ele>148.33333333333331</ele><time>2026-04-06T13:43:11Z</time></trkpt><trkpt lat="44.53141422654434" lon="1.0105417448397476"><ele>146.5</ele><time>2026-04-06T13:43:12Z</time></trkpt><trkpt lat="44.53147075681805" lon="1.010493151235206"><ele>144.66666666666666</ele><time>2026-04-06T13:43:13Z</time></trkpt><trkpt lat="44.53152564558197" lon="1.01043965820012"><ele>142.83333333333334</ele><time>2026-04-06T13:43:14Z</time></trkpt><trkpt lat="44.53161223776995" lon="1.010304460348571"><ele>141.0</ele><time>2026-04-06T13:43:16Z</time></trkpt><trkpt lat="44.53166171189369" lon="1.0102418847046895"><ele>141.0</ele><time>2026-04-06T13:43:17Z</time></trkpt><trkpt lat="44.53169581805114" lon="1.010148899518671"><ele>141.0</ele><time>2026-04-06T13:43:18Z</time></trkpt><trkpt lat="44.53171384746388" lon="1.0100468944808403"><ele>141.0</ele><time>2026-04-06T13:43:19Z</time></trkpt><trkpt lat="44.53171663173182" lon="1.0099508976798406"><ele>141.0</ele><time>2026-04-06T13:43:20Z</time></trkpt><trkpt lat="44.53168006794366" lon="1.0098565051679855"><ele>141.0</ele><time>2026-04-06T13:43:21Z</time></trkpt><trkpt lat="44.5316317290118" lon="1.0097836799044566"><ele>141.0</ele><time>2026-04-06T13:43:22Z</time></trkpt><trkpt lat="44.53157065816848" lon="1.0097288424325168"><ele>141.0</ele><time>2026-04-06T13:43:23Z</time></trkpt><trkpt lat="44.531507741751376" lon="1.009677162630102"><ele>141.16666666666666</ele><time>2026-04-06T13:43:24Z</time></trkpt><trkpt lat="44.531448521752445" lon="1.0096413622047244"><ele>141.33333333333334</ele><time>2026-04-06T13:43:25Z</time></trkpt><trkpt lat="44.53133827269161" lon="1.009572775898203"><ele>141.5</ele><time>2026-04-06T13:43:27Z</time></trkpt><trkpt lat="44.531280130949696" lon="1.0095346571290325"><ele>141.66666666666669</ele><time>2026-04-06T13:43:28Z</time></trkpt><trkpt lat="44.53119930737078" lon="1.0094575076960102"><ele>141.83333333333334</ele><time>2026-04-06T13:43:30Z</time></trkpt><trkpt lat="44.53124781685537" lon="1.009362423926033"><ele>142.0</ele><time>2026-04-06T13:43:34Z</time></trkpt><trkpt lat="44.531276958915676" lon="1.0092672351919278"><ele>137.83333333333334</ele><time>2026-04-06T13:43:36Z</time></trkpt><trkpt lat="44.53131541258029" lon="1.00913557063425"><ele>133.66666666666669</ele><time>2026-04-06T13:43:38Z</time></trkpt><trkpt lat="44.531377618817466" lon="1.0090585026216972"><ele>129.5</ele><time>2026-04-06T13:43:41Z</time></trkpt><trkpt lat="44.53145795205972" lon="1.0090706792760824"><ele>125.33333333333334</ele><time>2026-04-06T13:43:43.999Z</time></trkpt><trkpt lat="44.53154600311163" lon="1.0090860456288915"><ele>121.16666666666667</ele><time>2026-04-06T13:43:46.999Z</time></trkpt><trkpt lat="44.53161352088375" lon="1.0090997354219513"><ele>117.0</ele><time>2026-04-06T13:43:49.999Z</time></trkpt><trkpt lat="44.53169719109976" lon="1.009113101021325"><ele>117.0</ele><time>2026-04-06T13:43:51.999Z</time></trkpt><trkpt lat="44.5318145710082" lon="1.0091226830009563"><ele>116.99999999999999</ele><time>2026-04-06T13:43:53.999Z</time></trkpt><trkpt lat="44.53191769663325" lon="1.0091192924027923"><ele>116.99999999999999</ele><time>2026-04-06T13:43:55.999Z</time></trkpt><trkpt lat="44.532012163350885" lon="1.009119354936354"><ele>117.0</ele><time>2026-04-06T13:43:57.999Z</time></trkpt><trkpt lat="44.532096570566566" lon="1.0090918651181024"><ele>117.0</ele><time>2026-04-06T13:43:59.999Z</time></trkpt><trkpt lat="44.53218414067319" lon="1.0090466704685084"><ele>116.83333333333333</ele><time>2026-04-06T13:44:01.999Z</time></trkpt><trkpt lat="44.532246682629825" lon="1.0089641988101716"><ele>116.66666666666666</ele><time>2026-04-06T13:44:03.999Z</time></trkpt><trkpt lat="44.532315000413014" lon="1.0088986784427232"><ele>116.5</ele><time>2026-04-06T13:44:05.999Z</time></trkpt><trkpt lat="44.532376627941375" lon="1.0088395320108028"><ele>116.33333333333333</ele><time>2026-04-06T13:44:07.999Z</time></trkpt><trkpt lat="44.532451338319106" lon="1.0087747393782898"><ele>116.16666666666666</ele><time>2026-04-06T13:44:09.999Z</time></trkpt><trkpt lat="44.53253717435197" lon="1.0086727259161938"><ele>116.0</ele><time>2026-04-06T13:44:12Z</time></trkpt><trkpt lat="44.532626734648936" lon="1.0085543410200444"><ele>116.0</ele><time>2026-04-06T13:44:14Z</time></trkpt><trkpt lat="44.53267206534013" lon="1.0084564128217686"><ele>116.0</ele><time>2026-04-06T13:44:15Z</time></trkpt><trkpt lat="44.53272201508055" lon="1.0083404938459348"><ele>116.0</ele><time>2026-04-06T13:44:16Z</time></trkpt><trkpt lat="44.53277578817547" lon="1.008212946686344"><ele>116.0</ele><time>2026-04-06T13:44:17Z</time></trkpt><trkpt lat="44.53283869238092" lon="1.0080668670471933"><ele>116.0</ele><time>2026-04-06T13:44:18Z</time></trkpt><trkpt lat="44.532909729832525" lon="1.0079048207437105"><ele>118.33333333333333</ele><time>2026-04-06T13:44:19Z</time></trkpt><trkpt lat="44.532969088695026" lon="1.0077689780932142"><ele>120.66666666666666</ele><time>2026-04-06T13:44:20Z</time></trkpt><trkpt lat="44.53301664225992" lon="1.0076596497236685"><ele>123.0</ele><time>2026-04-06T13:44:21Z</time></trkpt><trkpt lat="44.53305699852883" lon="1.0075668677643648"><ele>125.33333333333334</ele><time>2026-04-06T13:44:22Z</time></trkpt><trkpt lat="44.53307613609591" lon="1.0074792261485546"><ele>127.66666666666667</ele><time>2026-04-06T13:44:23Z</time></trkpt><trkpt lat="44.53310243353163" lon="1.0073924602079845"><ele>130.0</ele><time>2026-04-06T13:44:25Z</time></trkpt><trkpt lat="44.532955197478834" lon="1.0073873335702663"><ele>131.8</ele><time>2026-04-06T13:44:27Z</time></trkpt><trkpt lat="44.53283556849721" lon="1.0074088570707875"><ele>133.6</ele><time>2026-04-06T13:44:29Z</time></trkpt><trkpt lat="44.53270569026502" lon="1.0074101723190922"><ele>135.4</ele><time>2026-04-06T13:44:31Z</time></trkpt><trkpt lat="44.53263780001459" lon="1.007416314096374"><ele>137.2</ele><time>2026-04-06T13:44:32Z</time></trkpt><trkpt lat="44.53256564647078" lon="1.007419895124231"><ele>139.0</ele><time>2026-04-06T13:44:33Z</time></trkpt><trkpt lat="44.53249280900812" lon="1.0074217301792647"><ele>139.0</ele><time>2026-04-06T13:44:34Z</time></trkpt><trkpt lat="44.53241192352848" lon="1.0074233244314958"><ele>139.0</ele><time>2026-04-06T13:44:35Z</time></trkpt><trkpt lat="44.53233170433241" lon="1.0074362438503093"><ele>139.0</ele><time>2026-04-06T13:44:36Z</time></trkpt><trkpt lat="44.53225383897227" lon="1.0074402021005822"><ele>139.0</ele><time>2026-04-06T13:44:37Z</time></trkpt><trkpt lat="44.532178112984276" lon="1.0074134191357396"><ele>139.0</ele><time>2026-04-06T13:44:38Z</time></trkpt><trkpt lat="44.53209859278975" lon="1.007402796316208"><ele>139.0</ele><time>2026-04-06T13:44:39Z</time></trkpt><trkpt lat="44.53202153086776" lon="1.0074074859659155"><ele>137.33333333333334</ele><time>2026-04-06T13:44:40Z</time></trkpt><trkpt lat="44.53194359873675" lon="1.0073559040570494"><ele>135.66666666666669</ele><time>2026-04-06T13:44:41Z</time></trkpt><trkpt lat="44.53186869498314" lon="1.0073416685682168"><ele>134.0</ele><time>2026-04-06T13:44:42Z</time></trkpt><trkpt lat="44.5317934162555" lon="1.0072914070194"><ele>132.33333333333334</ele><time>2026-04-06T13:44:43Z</time></trkpt><trkpt lat="44.53171750976664" lon="1.0072210017673615"><ele>130.66666666666666</ele><time>2026-04-06T13:44:44Z</time></trkpt><trkpt lat="44.5316378661046" lon="1.007150133512682"><ele>129.0</ele><time>2026-04-06T13:44:45Z</time></trkpt><trkpt lat="44.53156425405845" lon="1.007061361523834"><ele>129.0</ele><time>2026-04-06T13:44:46Z</time></trkpt><trkpt lat="44.53148533567245" lon="1.0069982223902425"><ele>129.0</ele><time>2026-04-06T13:44:47Z</time></trkpt><trkpt lat="44.531396678555296" lon="1.0069377470865641"><ele>129.0</ele><time>2026-04-06T13:44:48Z</time></trkpt><trkpt lat="44.53129297679762" lon="1.0068841350185145"><ele>129.0</ele><time>2026-04-06T13:44:49Z</time></trkpt><trkpt lat="44.531181287556926" lon="1.0068536653543945"><ele>129.0</ele><time>2026-04-06T13:44:50Z</time></trkpt><trkpt lat="44.53105530072385" lon="1.006837638691451"><ele>127.0</ele><time>2026-04-06T13:44:51Z</time></trkpt><trkpt lat="44.530934639818284" lon="1.006831607326786"><ele>125.0</ele><time>2026-04-06T13:44:52Z</time></trkpt><trkpt lat="44.5308122136959" lon="1.0067996309595855"><ele>123.0</ele><time>2026-04-06T13:44:53Z</time></trkpt><trkpt lat="44.53070791045004" lon="1.0067315978700058"><ele>121.0</ele><time>2026-04-06T13:44:54Z</time></trkpt><trkpt lat="44.53061133995292" lon="1.0066760905792098"><ele>120.0</ele><time>2026-04-06T13:44:55Z</time></trkpt><trkpt lat="44.53052597314991" lon="1.0065998475316966"><ele>119.0</ele><time>2026-04-06T13:44:56Z</time></trkpt><trkpt lat="44.53044150032805" lon="1.0065094005153106"><ele>118.0</ele><time>2026-04-06T13:44:57Z</time></trkpt><trkpt lat="44.53035957132846" lon="1.0064398915371557"><ele>117.0</ele><time>2026-04-06T13:44:58Z</time></trkpt><trkpt lat="44.530291781224676" lon="1.0063491050816171"><ele>116.0</ele><time>2026-04-06T13:44:59Z</time></trkpt><trkpt lat="44.53022809387577" lon="1.0062373013514998"><ele>116.0</ele><time>2026-04-06T13:45:00Z</time></trkpt><trkpt lat="44.530157755275646" lon="1.0061414588499982"><ele>116.0</ele><time>2026-04-06T13:45:01Z</time></trkpt><trkpt lat="44.530091241051" lon="1.006030853454851"><ele>116.0</ele><time>2026-04-06T13:45:02Z</time></trkpt><trkpt lat="44.530020736762346" lon="1.005913015958815"><ele>116.0</ele><time>2026-04-06T13:45:03Z</time></trkpt><trkpt lat="44.52996322244077" lon="1.0057987941413857"><ele>116.0</ele><time>2026-04-06T13:45:04Z</time></trkpt><trkpt lat="44.529900370814424" lon="1.0056827397919132"><ele>118.4</ele><time>2026-04-06T13:45:05Z</time></trkpt><trkpt lat="44.529848605743055" lon="1.0055816709171985"><ele>120.8</ele><time>2026-04-06T13:45:06Z</time></trkpt><trkpt lat="44.52979035680002" lon="1.0054787449782492"><ele>123.20000000000002</ele><time>2026-04-06T13:45:07Z</time></trkpt><trkpt lat="44.529728123974586" lon="1.0053854435662268"><ele>125.60000000000001</ele><time>2026-04-06T13:45:08Z</time></trkpt><trkpt lat="44.529663215069235" lon="1.005290952726606"><ele>128.0</ele><time>2026-04-06T13:45:09Z</time></trkpt><trkpt lat="44.529598261647536" lon="1.005212303442204"><ele>126.33333333333333</ele><time>2026-04-06T13:45:10Z</time></trkpt><trkpt lat="44.52952998204525" lon="1.0051441383033184"><ele>124.66666666666666</ele><time>2026-04-06T13:45:11Z</time></trkpt><trkpt lat="44.52946497566759" lon="1.005054992033452"><ele>123.0</ele><time>2026-04-06T13:45:12Z</time></trkpt><trkpt lat="44.52938863434383" lon="1.0049807305828933"><ele>121.33333333333334</ele><time>2026-04-06T13:45:13Z</time></trkpt><trkpt lat="44.5293138749252" lon="1.0049040854966838"><ele>119.66666666666667</ele><time>2026-04-06T13:45:14Z</time></trkpt><trkpt lat="44.52924556665951" lon="1.0048269471355162"><ele>118.0</ele><time>2026-04-06T13:45:15Z</time></trkpt><trkpt lat="44.529167967866314" lon="1.0047514626341245"><ele>118.0</ele><time>2026-04-06T13:45:16Z</time></trkpt><trkpt lat="44.52910149615589" lon="1.0046553514176988"><ele>118.00000000000001</ele><time>2026-04-06T13:45:17Z</time></trkpt><trkpt lat="44.52905391723254" lon="1.0045328460976766"><ele>118.00000000000001</ele><time>2026-04-06T13:45:18Z</time></trkpt><trkpt lat="44.52900483771977" lon="1.0044130930431614"><ele>118.0</ele><time>2026-04-06T13:45:19Z</time></trkpt><trkpt lat="44.52895977174434" lon="1.004285827793203"><ele>118.0</ele><time>2026-04-06T13:45:20Z</time></trkpt><trkpt lat="44.52892399091238" lon="1.004156562668045"><ele>119.2</ele><time>2026-04-06T13:45:21Z</time></trkpt><trkpt lat="44.52888909397303" lon="1.004031589501829"><ele>120.4</ele><time>2026-04-06T13:45:22Z</time></trkpt><trkpt lat="44.52885224215365" lon="1.0038996153373156"><ele>121.60000000000001</ele><time>2026-04-06T13:45:23Z</time></trkpt><trkpt lat="44.52881490881817" lon="1.0037659167554545"><ele>122.80000000000001</ele><time>2026-04-06T13:45:24Z</time></trkpt><trkpt lat="44.528775386522504" lon="1.0036243789906767"><ele>124.0</ele><time>2026-04-06T13:45:25Z</time></trkpt><trkpt lat="44.5287376243876" lon="1.0034893789367785"><ele>120.6</ele><time>2026-04-06T13:45:26Z</time></trkpt><trkpt lat="44.52868498864134" lon="1.0033515416307668"><ele>117.2</ele><time>2026-04-06T13:45:27Z</time></trkpt><trkpt lat="44.52864880739551" lon="1.0032128024675502"><ele>113.79999999999998</ele><time>2026-04-06T13:45:28Z</time></trkpt><trkpt lat="44.528619050002916" lon="1.0030901735293665"><ele>110.39999999999999</ele><time>2026-04-06T13:45:29Z</time></trkpt><trkpt lat="44.52858475624508" lon="1.0029820372901304"><ele>107.0</ele><time>2026-04-06T13:45:30Z</time></trkpt><trkpt lat="44.528565749828715" lon="1.0028776795529877"><ele>106.99999999999999</ele><time>2026-04-06T13:45:30.999Z</time></trkpt><trkpt lat="44.52855683020363" lon="1.0027787062640476"><ele>107.0</ele><time>2026-04-06T13:45:31.999Z</time></trkpt><trkpt lat="44.528554118185646" lon="1.002674682362446"><ele>107.0</ele><time>2026-04-06T13:45:32.999Z</time></trkpt><trkpt lat="44.528554739722885" lon="1.0025716555112802"><ele>107.0</ele><time>2026-04-06T13:45:33.999Z</time></trkpt><trkpt lat="44.528549439108616" lon="1.0024650473232226"><ele>106.99999999999999</ele><time>2026-04-06T13:45:34.999Z</time></trkpt><trkpt lat="44.52854379016069" lon="1.0023510318249784"><ele>107.0</ele><time>2026-04-06T13:45:35.999Z</time></trkpt><trkpt lat="44.52854016707983" lon="1.0022334873196022"><ele>107.49999999999999</ele><time>2026-04-06T13:45:36.999Z</time></trkpt><trkpt lat="44.52853352164738" lon="1.00211126247772"><ele>108.0</ele><time>2026-04-06T13:45:37.999Z</time></trkpt><trkpt lat="44.5285380718437" lon="1.0019906543803028"><ele>108.5</ele><time>2026-04-06T13:45:38.999Z</time></trkpt><trkpt lat="44.528511430538394" lon="1.0018719348471092"><ele>109.0</ele><time>2026-04-06T13:45:39.999Z</time></trkpt><trkpt lat="44.528451858295305" lon="1.0017762862437078"><ele>109.49999999999999</ele><time>2026-04-06T13:45:40.999Z</time></trkpt><trkpt lat="44.52840969710129" lon="1.0016646549142325"><ele>110.0</ele><time>2026-04-06T13:45:41.999Z</time></trkpt><trkpt lat="44.52831537188784" lon="1.001613883794944"><ele>110.49999999999999</ele><time>2026-04-06T13:45:42.999Z</time></trkpt><trkpt lat="44.52823342828798" lon="1.0015657655775527"><ele>111.0</ele><time>2026-04-06T13:45:43.999Z</time></trkpt><trkpt lat="44.52815487851593" lon="1.0015148136232441"><ele>111.5</ele><time>2026-04-06T13:45:44.999Z</time></trkpt><trkpt lat="44.528077932064534" lon="1.0014721384921352"><ele>112.0</ele><time>2026-04-06T13:45:45.999Z</time></trkpt><trkpt lat="44.52801182513871" lon="1.0014048187715017"><ele>112.49999999999999</ele><time>2026-04-06T13:45:46.999Z</time></trkpt><trkpt lat="44.52793494670815" lon="1.0013538003387203"><ele>113.0</ele><time>2026-04-06T13:45:47.999Z</time></trkpt><trkpt lat="44.52785463151581" lon="1.0012956739598085"><ele>113.0</ele><time>2026-04-06T13:45:48.999Z</time></trkpt><trkpt lat="44.527779331930084" lon="1.001223698382577"><ele>113.00000000000001</ele><time>2026-04-06T13:45:49.999Z</time></trkpt><trkpt lat="44.5277070022069" lon="1.0011276927383175"><ele>113.00000000000001</ele><time>2026-04-06T13:45:50.999Z</time></trkpt><trkpt lat="44.527646433919195" lon="1.0010160336719673"><ele>113.0</ele><time>2026-04-06T13:45:51.999Z</time></trkpt><trkpt lat="44.52758296788695" lon="1.0008901066874805"><ele>113.0</ele><time>2026-04-06T13:45:52.999Z</time></trkpt><trkpt lat="44.52751504869096" lon="1.000794770171919"><ele>113.2</ele><time>2026-04-06T13:45:53.999Z</time></trkpt><trkpt lat="44.52746751432236" lon="1.0006858812356234"><ele>113.4</ele><time>2026-04-06T13:45:54.999Z</time></trkpt><trkpt lat="44.52741991487136" lon="1.0005830385585763"><ele>113.60000000000001</ele><time>2026-04-06T13:45:55.999Z</time></trkpt><trkpt lat="44.527388390000844" lon="1.0004572086639019"><ele>113.80000000000001</ele><time>2026-04-06T13:45:56.999Z</time></trkpt><trkpt lat="44.527359514100496" lon="1.0003387094567875"><ele>114.0</ele><time>2026-04-06T13:45:57.999Z</time></trkpt><trkpt lat="44.52734098200973" lon="1.0002068521258556"><ele>114.0</ele><time>2026-04-06T13:45:58.999Z</time></trkpt><trkpt lat="44.52733140164365" lon="1.0000693983446798"><ele>114.0</ele><time>2026-04-06T13:45:59.999Z</time></trkpt><trkpt lat="44.527319854724084" lon="0.9999249502644311"><ele>114.0</ele><time>2026-04-06T13:46:00.999Z</time></trkpt><trkpt lat="44.52726309741017" lon="0.9997831317088601"><ele>114.0</ele><time>2026-04-06T13:46:01.999Z</time></trkpt><trkpt lat="44.527200418614036" lon="0.9996434977697932"><ele>114.0</ele><time>2026-04-06T13:46:02.999Z</time></trkpt><trkpt lat="44.52712328759148" lon="0.999515083180017"><ele>114.0</ele><time>2026-04-06T13:46:03.999Z</time></trkpt><trkpt lat="44.52706519407769" lon="0.9993745577542607"><ele>114.0</ele><time>2026-04-06T13:46:04.999Z</time></trkpt><trkpt lat="44.52701455722334" lon="0.9992287889448369"><ele>114.0</ele><time>2026-04-06T13:46:05.999Z</time></trkpt><trkpt lat="44.5270122480075" lon="0.9990713178181532"><ele>114.0</ele><time>2026-04-06T13:46:06.999Z</time></trkpt><trkpt lat="44.52702935478848" lon="0.9988903353414001"><ele>114.80000000000001</ele><time>2026-04-06T13:46:07.999Z</time></trkpt><trkpt lat="44.52704037250524" lon="0.9986980579600365"><ele>115.60000000000001</ele><time>2026-04-06T13:46:08.999Z</time></trkpt><trkpt lat="44.52706382563791" lon="0.9985436754228509"><ele>116.4</ele><time>2026-04-06T13:46:09.999Z</time></trkpt><trkpt lat="44.527057164223294" lon="0.9984139493843539"><ele>117.2</ele><time>2026-04-06T13:46:10.999Z</time></trkpt><trkpt lat="44.52703066881592" lon="0.9982706254023742"><ele>118.0</ele><time>2026-04-06T13:46:11.999Z</time></trkpt><trkpt lat="44.52698616927976" lon="0.9981454097434626"><ele>119.4</ele><time>2026-04-06T13:46:12.999Z</time></trkpt><trkpt lat="44.526919165948996" lon="0.9980323217229955"><ele>120.80000000000001</ele><time>2026-04-06T13:46:13.999Z</time></trkpt><trkpt lat="44.526859124895346" lon="0.9979078545410166"><ele>122.2</ele><time>2026-04-06T13:46:14.999Z</time></trkpt><trkpt lat="44.526815599712606" lon="0.9977769076792593"><ele>123.6</ele><time>2026-04-06T13:46:15.999Z</time></trkpt><trkpt lat="44.5267688102119" lon="0.9976417257387391"><ele>125.0</ele><time>2026-04-06T13:46:16.999Z</time></trkpt><trkpt lat="44.52672258241624" lon="0.9975107709563307"><ele>124.8</ele><time>2026-04-06T13:46:17.999Z</time></trkpt><trkpt lat="44.52668441240609" lon="0.9973675395742757"><ele>124.6</ele><time>2026-04-06T13:46:18.999Z</time></trkpt><trkpt lat="44.52664986768625" lon="0.9972339845733177"><ele>124.4</ele><time>2026-04-06T13:46:19.999Z</time></trkpt><trkpt lat="44.5266137537581" lon="0.9970922560863753"><ele>124.2</ele><time>2026-04-06T13:46:20.999Z</time></trkpt><trkpt lat="44.52658911120092" lon="0.9969557890997264"><ele>124.0</ele><time>2026-04-06T13:46:22Z</time></trkpt><trkpt lat="44.526565647471614" lon="0.9968054709015037"><ele>124.0</ele><time>2026-04-06T13:46:23Z</time></trkpt><trkpt lat="44.52654161425248" lon="0.9966569264885324"><ele>124.0</ele><time>2026-04-06T13:46:24Z</time></trkpt><trkpt lat="44.52652267340497" lon="0.9965171461472265"><ele>124.0</ele><time>2026-04-06T13:46:25Z</time></trkpt><trkpt lat="44.526505297415284" lon="0.9963689157567822"><ele>124.0</ele><time>2026-04-06T13:46:26Z</time></trkpt><trkpt lat="44.52648941508844" lon="0.99621761377001"><ele>124.0</ele><time>2026-04-06T13:46:27Z</time></trkpt><trkpt lat="44.526471424530015" lon="0.9960837477162727"><ele>124.0</ele><time>2026-04-06T13:46:28Z</time></trkpt><trkpt lat="44.526460623119085" lon="0.995934838677207"><ele>124.0</ele><time>2026-04-06T13:46:29Z</time></trkpt><trkpt lat="44.52646243697541" lon="0.9957899252453618"><ele>124.0</ele><time>2026-04-06T13:46:30Z</time></trkpt><trkpt lat="44.52646060862612" lon="0.9956493915785263"><ele>124.0</ele><time>2026-04-06T13:46:31Z</time></trkpt><trkpt lat="44.526466622209114" lon="0.9955132454058943"><ele>124.0</ele><time>2026-04-06T13:46:32Z</time></trkpt><trkpt lat="44.52647010681905" lon="0.9953726300502164"><ele>124.2</ele><time>2026-04-06T13:46:33Z</time></trkpt><trkpt lat="44.52647676841341" lon="0.9952327407273163"><ele>124.4</ele><time>2026-04-06T13:46:34Z</time></trkpt><trkpt lat="44.52648241547262" lon="0.9951030019931311"><ele>124.6</ele><time>2026-04-06T13:46:35Z</time></trkpt><trkpt lat="44.52647794701077" lon="0.9949649293500579"><ele>124.8</ele><time>2026-04-06T13:46:36Z</time></trkpt><trkpt lat="44.52645252716724" lon="0.9948341276779579"><ele>125.0</ele><time>2026-04-06T13:46:37Z</time></trkpt><trkpt lat="44.52641683898744" lon="0.9946937228615821"><ele>125.25</ele><time>2026-04-06T13:46:38Z</time></trkpt><trkpt lat="44.52637038574052" lon="0.9945575446185584"><ele>125.5</ele><time>2026-04-06T13:46:39Z</time></trkpt><trkpt lat="44.526318867116245" lon="0.994409487390084"><ele>125.75</ele><time>2026-04-06T13:46:40Z</time></trkpt><trkpt lat="44.52625936430686" lon="0.9942642719468036"><ele>126.0</ele><time>2026-04-06T13:46:41Z</time></trkpt><trkpt lat="44.526221414145176" lon="0.994092647334468"><ele>132.0</ele><time>2026-04-06T13:46:42Z</time></trkpt><trkpt lat="44.52618412401021" lon="0.993906875560286"><ele>138.0</ele><time>2026-04-06T13:46:43Z</time></trkpt><trkpt lat="44.52619135451039" lon="0.993702906997511"><ele>144.0</ele><time>2026-04-06T13:46:44Z</time></trkpt><trkpt lat="44.526207992193235" lon="0.9935037741602348"><ele>150.0</ele><time>2026-04-06T13:46:45Z</time></trkpt><trkpt lat="44.52622701822384" lon="0.9933169105651628"><ele>146.4</ele><time>2026-04-06T13:46:46Z</time></trkpt><trkpt lat="44.52627929737244" lon="0.9931819987461113"><ele>142.8</ele><time>2026-04-06T13:46:47Z</time></trkpt><trkpt lat="44.52633291228665" lon="0.9930794447103527"><ele>139.2</ele><time>2026-04-06T13:46:48Z</time></trkpt><trkpt lat="44.52638469117564" lon="0.9929811152404904"><ele>135.6</ele><time>2026-04-06T13:46:49Z</time></trkpt><trkpt lat="44.5264372566372" lon="0.9928737958918767"><ele>132.0</ele><time>2026-04-06T13:46:50Z</time></trkpt><trkpt lat="44.526496921394425" lon="0.9927772519960482"><ele>132.0</ele><time>2026-04-06T13:46:51Z</time></trkpt><trkpt lat="44.52655747079878" lon="0.9926694134683707"><ele>132.0</ele><time>2026-04-06T13:46:52Z</time></trkpt><trkpt lat="44.52662390915134" lon="0.9925578006039962"><ele>132.0</ele><time>2026-04-06T13:46:53Z</time></trkpt><trkpt lat="44.526684212060765" lon="0.9924496884777296"><ele>132.0</ele><time>2026-04-06T13:46:54Z</time></trkpt><trkpt lat="44.52674565709954" lon="0.9923398711392486"><ele>132.0</ele><time>2026-04-06T13:46:55Z</time></trkpt><trkpt lat="44.526787419488564" lon="0.9922181008992507"><ele>134.0</ele><time>2026-04-06T13:46:56Z</time></trkpt><trkpt lat="44.526816122657614" lon="0.9920923868553357"><ele>136.0</ele><time>2026-04-06T13:46:57Z</time></trkpt><trkpt lat="44.52681661958508" lon="0.9919573230827977"><ele>138.0</ele><time>2026-04-06T13:46:58Z</time></trkpt><trkpt lat="44.52678107239068" lon="0.9918327342492741"><ele>140.0</ele><time>2026-04-06T13:46:59Z</time></trkpt><trkpt lat="44.52674322439174" lon="0.9916939000032793"><ele>142.0</ele><time>2026-04-06T13:47:00Z</time></trkpt><trkpt lat="44.52667649220503" lon="0.9915695403214965"><ele>143.0</ele><time>2026-04-06T13:47:01Z</time></trkpt><trkpt lat="44.52662338928869" lon="0.9914386662879718"><ele>144.0</ele><time>2026-04-06T13:47:02Z</time></trkpt><trkpt lat="44.526573660457395" lon="0.9912841312150336"><ele>145.0</ele><time>2026-04-06T13:47:03Z</time></trkpt><trkpt lat="44.52650478313533" lon="0.9911235948461238"><ele>146.0</ele><time>2026-04-06T13:47:04Z</time></trkpt><trkpt lat="44.52643844500472" lon="0.9909504978268376"><ele>145.75</ele><time>2026-04-06T13:47:05Z</time></trkpt><trkpt lat="44.526378884672866" lon="0.9907556021183639"><ele>145.5</ele><time>2026-04-06T13:47:06Z</time></trkpt><trkpt lat="44.526367377652186" lon="0.9905517827248468"><ele>145.25</ele><time>2026-04-06T13:47:07Z</time></trkpt><trkpt lat="44.52636495565149" lon="0.9903506020332903"><ele>145.0</ele><time>2026-04-06T13:47:08Z</time></trkpt><trkpt lat="44.5263621452939" lon="0.9901362906056982"><ele>146.25</ele><time>2026-04-06T13:47:09Z</time></trkpt><trkpt lat="44.52635262139876" lon="0.98994659961643"><ele>147.5</ele><time>2026-04-06T13:47:10Z</time></trkpt><trkpt lat="44.52640297700952" lon="0.9897915031911919"><ele>148.75</ele><time>2026-04-06T13:47:11Z</time></trkpt><trkpt lat="44.5264435147198" lon="0.9896137127718213"><ele>150.0</ele><time>2026-04-06T13:47:12Z</time></trkpt><trkpt lat="44.52647983953154" lon="0.9894523937074072"><ele>150.0</ele><time>2026-04-06T13:47:13Z</time></trkpt><trkpt lat="44.52650738859668" lon="0.9892674007716876"><ele>150.0</ele><time>2026-04-06T13:47:14Z</time></trkpt><trkpt lat="44.5265396677127" lon="0.9891073330330797"><ele>150.0</ele><time>2026-04-06T13:47:15Z</time></trkpt><trkpt lat="44.5265730892162" lon="0.9889368097988515"><ele>150.0</ele><time>2026-04-06T13:47:16Z</time></trkpt><trkpt lat="44.5266078057437" lon="0.9887710118134351"><ele>150.0</ele><time>2026-04-06T13:47:17Z</time></trkpt><trkpt lat="44.52664946500484" lon="0.9885996828441249"><ele>150.0</ele><time>2026-04-06T13:47:18Z</time></trkpt><trkpt lat="44.5267027704858" lon="0.9884517886448355"><ele>150.0</ele><time>2026-04-06T13:47:19Z</time></trkpt><trkpt lat="44.52674058148666" lon="0.9882771717825449"><ele>150.0</ele><time>2026-04-06T13:47:20Z</time></trkpt><trkpt lat="44.52679233241715" lon="0.9881196896833033"><ele>150.0</ele><time>2026-04-06T13:47:21Z</time></trkpt><trkpt lat="44.5268615806182" lon="0.9879771754818694"><ele>150.0</ele><time>2026-04-06T13:47:22Z</time></trkpt><trkpt lat="44.526969226599796" lon="0.9878836235618724"><ele>150.0</ele><time>2026-04-06T13:47:23Z</time></trkpt><trkpt lat="44.52706882338481" lon="0.9878093708647684"><ele>150.0</ele><time>2026-04-06T13:47:24Z</time></trkpt><trkpt lat="44.52717345354248" lon="0.9877179573157675"><ele>150.0</ele><time>2026-04-06T13:47:25Z</time></trkpt><trkpt lat="44.52728283576892" lon="0.9876523886416415"><ele>150.0</ele><time>2026-04-06T13:47:26Z</time></trkpt><trkpt lat="44.527387926534345" lon="0.9875760286263618"><ele>150.0</ele><time>2026-04-06T13:47:27Z</time></trkpt><trkpt lat="44.527474195219796" lon="0.9874796484520271"><ele>150.0</ele><time>2026-04-06T13:47:28Z</time></trkpt><trkpt lat="44.52755778685289" lon="0.9873923276439074"><ele>150.0</ele><time>2026-04-06T13:47:29Z</time></trkpt><trkpt lat="44.52761428065704" lon="0.9872848513061094"><ele>150.0</ele><time>2026-04-06T13:47:30Z</time></trkpt><trkpt lat="44.52764301224327" lon="0.9871470565043767"><ele>150.0</ele><time>2026-04-06T13:47:31Z</time></trkpt><trkpt lat="44.527679109953304" lon="0.9870224069107786"><ele>150.0</ele><time>2026-04-06T13:47:32Z</time></trkpt><trkpt lat="44.5277015472216" lon="0.9868903705062771"><ele>150.0</ele><time>2026-04-06T13:47:33Z</time></trkpt><trkpt lat="44.52772032231358" lon="0.9867544352435814"><ele>150.5</ele><time>2026-04-06T13:47:34Z</time></trkpt><trkpt lat="44.52773763779842" lon="0.9866187384199564"><ele>151.0</ele><time>2026-04-06T13:47:35Z</time></trkpt><trkpt lat="44.52775453585044" lon="0.9864864047781178"><ele>151.5</ele><time>2026-04-06T13:47:36Z</time></trkpt><trkpt lat="44.527764608621176" lon="0.9863562731886268"><ele>152.0</ele><time>2026-04-06T13:47:37Z</time></trkpt><trkpt lat="44.52777714914852" lon="0.9862395657378575"><ele>152.5</ele><time>2026-04-06T13:47:38Z</time></trkpt><trkpt lat="44.527796057115104" lon="0.9861376655403801"><ele>153.0</ele><time>2026-04-06T13:47:39Z</time></trkpt><trkpt lat="44.52781470848962" lon="0.9860325892037515"><ele>153.0</ele><time>2026-04-06T13:47:40Z</time></trkpt><trkpt lat="44.527837423006886" lon="0.9859252471314499"><ele>153.0</ele><time>2026-04-06T13:47:41Z</time></trkpt><trkpt lat="44.52786660379393" lon="0.985818422994846"><ele>153.0</ele><time>2026-04-06T13:47:42Z</time></trkpt><trkpt lat="44.527906363851265" lon="0.9857119368746767"><ele>153.0</ele><time>2026-04-06T13:47:43Z</time></trkpt><trkpt lat="44.52797665273163" lon="0.9856287829670446"><ele>153.0</ele><time>2026-04-06T13:47:44Z</time></trkpt><trkpt lat="44.528041589735956" lon="0.985536676060033"><ele>153.0</ele><time>2026-04-06T13:47:45Z</time></trkpt><trkpt lat="44.52811443143779" lon="0.9854486253643285"><ele>154.20000000000002</ele><time>2026-04-06T13:47:46Z</time></trkpt><trkpt lat="44.52818891688508" lon="0.9853429382745643"><ele>155.4</ele><time>2026-04-06T13:47:47Z</time></trkpt><trkpt lat="44.52827619048112" lon="0.9852514295036137"><ele>156.60000000000002</ele><time>2026-04-06T13:47:48Z</time></trkpt><trkpt lat="44.528365335568274" lon="0.9851582609195262"><ele>157.8</ele><time>2026-04-06T13:47:49Z</time></trkpt><trkpt lat="44.52847087665337" lon="0.9850957547532426"><ele>159.0</ele><time>2026-04-06T13:47:50Z</time></trkpt><trkpt lat="44.52856608212311" lon="0.9850229902875689"><ele>159.0</ele><time>2026-04-06T13:47:51Z</time></trkpt><trkpt lat="44.52863984921637" lon="0.9849378435778379"><ele>159.0</ele><time>2026-04-06T13:47:52Z</time></trkpt><trkpt lat="44.528718062862474" lon="0.984885891142353"><ele>159.0</ele><time>2026-04-06T13:47:53Z</time></trkpt><trkpt lat="44.5287802415041" lon="0.9848374630600882"><ele>159.0</ele><time>2026-04-06T13:47:54Z</time></trkpt><trkpt lat="44.52884473240842" lon="0.9847768453884148"><ele>159.0</ele><time>2026-04-06T13:47:55Z</time></trkpt><trkpt lat="44.528916853520585" lon="0.984713597074064"><ele>159.0</ele><time>2026-04-06T13:47:56Z</time></trkpt><trkpt lat="44.52899068424817" lon="0.9846421869064629"><ele>159.8</ele><time>2026-04-06T13:47:57Z</time></trkpt><trkpt lat="44.52905819212773" lon="0.9845630231149549"><ele>160.60000000000002</ele><time>2026-04-06T13:47:58Z</time></trkpt><trkpt lat="44.52911399792797" lon="0.9844461688581317"><ele>161.4</ele><time>2026-04-06T13:47:59Z</time></trkpt><trkpt lat="44.5291599321185" lon="0.9843393251451845"><ele>162.20000000000002</ele><time>2026-04-06T13:48:00Z</time></trkpt><trkpt lat="44.529180511427526" lon="0.984218123227156"><ele>163.0</ele><time>2026-04-06T13:48:01Z</time></trkpt><trkpt lat="44.52918472742724" lon="0.9840755224339082"><ele>163.60000000000002</ele><time>2026-04-06T13:48:02Z</time></trkpt><trkpt lat="44.52920617426453" lon="0.9839314608514834"><ele>164.20000000000002</ele><time>2026-04-06T13:48:03Z</time></trkpt><trkpt lat="44.52922527240719" lon="0.9837930078184903"><ele>164.8</ele><time>2026-04-06T13:48:04Z</time></trkpt><trkpt lat="44.529263694903776" lon="0.9836545515421888"><ele>165.4</ele><time>2026-04-06T13:48:05Z</time></trkpt><trkpt lat="44.52932232208138" lon="0.9835419999873992"><ele>166.0</ele><time>2026-04-06T13:48:06Z</time></trkpt><trkpt lat="44.52940021342814" lon="0.9834305454195593"><ele>165.8</ele><time>2026-04-06T13:48:07Z</time></trkpt><trkpt lat="44.52948124580496" lon="0.9833201125336608"><ele>165.60000000000002</ele><time>2026-04-06T13:48:08Z</time></trkpt><trkpt lat="44.52955983709847" lon="0.9832083577896362"><ele>165.4</ele><time>2026-04-06T13:48:09Z</time></trkpt><trkpt lat="44.529612491658774" lon="0.9830821762605421"><ele>165.2</ele><time>2026-04-06T13:48:10Z</time></trkpt><trkpt lat="44.52968595808728" lon="0.982949341026374"><ele>165.0</ele><time>2026-04-06T13:48:10.999Z</time></trkpt><trkpt lat="44.529730209885116" lon="0.9827848909905281"><ele>166.25</ele><time>2026-04-06T13:48:11.999Z</time></trkpt><trkpt lat="44.52976972338861" lon="0.9826221448662212"><ele>167.5</ele><time>2026-04-06T13:48:12.999Z</time></trkpt><trkpt lat="44.52980666617257" lon="0.9824632787499593"><ele>168.75</ele><time>2026-04-06T13:48:13.999Z</time></trkpt><trkpt lat="44.5298426226982" lon="0.9823078272638865"><ele>170.0</ele><time>2026-04-06T13:48:14.999Z</time></trkpt><trkpt lat="44.52986762555393" lon="0.9821221471523937"><ele>171.25</ele><time>2026-04-06T13:48:15.999Z</time></trkpt><trkpt lat="44.529927649976116" lon="0.9819329052294351"><ele>172.5</ele><time>2026-04-06T13:48:16.999Z</time></trkpt><trkpt lat="44.529968161303735" lon="0.9817350422262872"><ele>173.75</ele><time>2026-04-06T13:48:17.999Z</time></trkpt><trkpt lat="44.530011483202124" lon="0.9815465272167542"><ele>175.0</ele><time>2026-04-06T13:48:19Z</time></trkpt><trkpt lat="44.53006477182269" lon="0.9814065846655391"><ele>175.2</ele><time>2026-04-06T13:48:20Z</time></trkpt><trkpt lat="44.53011407292083" lon="0.9812819078775259"><ele>175.4</ele><time>2026-04-06T13:48:21Z</time></trkpt><trkpt lat="44.53015567901964" lon="0.9811767853250979"><ele>175.60000000000002</ele><time>2026-04-06T13:48:22Z</time></trkpt><trkpt lat="44.530184059209304" lon="0.9810431231503609"><ele>175.8</ele><time>2026-04-06T13:48:23Z</time></trkpt><trkpt lat="44.53022846609723" lon="0.9809354131737269"><ele>176.0</ele><time>2026-04-06T13:48:24Z</time></trkpt><trkpt lat="44.530259256946216" lon="0.9808252124241063"><ele>175.0</ele><time>2026-04-06T13:48:25Z</time></trkpt><trkpt lat="44.53027856414225" lon="0.9807120743544523"><ele>174.0</ele><time>2026-04-06T13:48:26Z</time></trkpt><trkpt lat="44.53029669157814" lon="0.980619112495675"><ele>173.0</ele><time>2026-04-06T13:48:27Z</time></trkpt><trkpt lat="44.5303263692528" lon="0.9804710643127202"><ele>172.0</ele><time>2026-04-06T13:48:29Z</time></trkpt><trkpt lat="44.53036426914688" lon="0.9803739708923861"><ele>171.0</ele><time>2026-04-06T13:48:31Z</time></trkpt><trkpt lat="44.53025592144205" lon="0.9802836996433393"><ele>171.0</ele><time>2026-04-06T13:48:32Z</time></trkpt><trkpt lat="44.53020975650934" lon="0.9802158486886764"><ele>171.0</ele><time>2026-04-06T13:48:33Z</time></trkpt><trkpt lat="44.530145661534135" lon="0.980126734097311"><ele>171.0</ele><time>2026-04-06T13:48:34Z</time></trkpt><trkpt lat="44.53007083191562" lon="0.9800232135782314"><ele>171.0</ele><time>2026-04-06T13:48:35Z</time></trkpt><trkpt lat="44.5299733807286" lon="0.9799242604689435"><ele>171.0</ele><time>2026-04-06T13:48:36Z</time></trkpt><trkpt lat="44.52984778797391" lon="0.9798631582055818"><ele>171.4</ele><time>2026-04-06T13:48:37Z</time></trkpt><trkpt lat="44.529730731452524" lon="0.9797708600252076"><ele>171.8</ele><time>2026-04-06T13:48:38Z</time></trkpt><trkpt lat="44.529636114153696" lon="0.97966839987221"><ele>172.20000000000002</ele><time>2026-04-06T13:48:39Z</time></trkpt><trkpt lat="44.529551316012615" lon="0.9795940815457201"><ele>172.60000000000002</ele><time>2026-04-06T13:48:40Z</time></trkpt><trkpt lat="44.52948304443586" lon="0.9795382062988244"><ele>173.0</ele><time>2026-04-06T13:48:41Z</time></trkpt><trkpt lat="44.529386455718374" lon="0.9795269812433643"><ele>173.0</ele><time>2026-04-06T13:48:42Z</time></trkpt><trkpt lat="44.529271408601375" lon="0.9795133563739751"><ele>173.0</ele><time>2026-04-06T13:48:43Z</time></trkpt><trkpt lat="44.52915592495081" lon="0.9794680322335645"><ele>173.0</ele><time>2026-04-06T13:48:44Z</time></trkpt><trkpt lat="44.52907726676336" lon="0.9794090054788428"><ele>173.0</ele><time>2026-04-06T13:48:45Z</time></trkpt><trkpt lat="44.52902872827977" lon="0.9792994558081344"><ele>173.0</ele><time>2026-04-06T13:48:46Z</time></trkpt><trkpt lat="44.528980208057604" lon="0.9792185085150832"><ele>173.0</ele><time>2026-04-06T13:48:47Z</time></trkpt><trkpt lat="44.528903999932226" lon="0.9791081609498261"><ele>173.0</ele><time>2026-04-06T13:48:49Z</time></trkpt><trkpt lat="44.52885430800916" lon="0.9789986013178664"><ele>173.0</ele><time>2026-04-06T13:48:51Z</time></trkpt><trkpt lat="44.52880957805702" lon="0.9788809806928676"><ele>173.0</ele><time>2026-04-06T13:48:53Z</time></trkpt><trkpt lat="44.52877461611314" lon="0.9787934975146972"><ele>173.0</ele><time>2026-04-06T13:48:54Z</time></trkpt><trkpt lat="44.528750408570865" lon="0.9787084099366062"><ele>173.0</ele><time>2026-04-06T13:48:55Z</time></trkpt><trkpt lat="44.528731238129566" lon="0.97859118965801"><ele>173.2</ele><time>2026-04-06T13:48:56Z</time></trkpt><trkpt lat="44.528695126765314" lon="0.9784454924286468"><ele>173.4</ele><time>2026-04-06T13:48:57Z</time></trkpt><trkpt lat="44.52865736389284" lon="0.9782910854791682"><ele>173.6</ele><time>2026-04-06T13:48:58Z</time></trkpt><trkpt lat="44.52861867174561" lon="0.9781684368085762"><ele>173.79999999999998</ele><time>2026-04-06T13:48:59Z</time></trkpt><trkpt lat="44.52857414382908" lon="0.978048061185549"><ele>174.0</ele><time>2026-04-06T13:49:00Z</time></trkpt><trkpt lat="44.52852341598037" lon="0.9779401594027627"><ele>173.6</ele><time>2026-04-06T13:49:01Z</time></trkpt><trkpt lat="44.52846447165979" lon="0.9778269965996979"><ele>173.2</ele><time>2026-04-06T13:49:02Z</time></trkpt><trkpt lat="44.52841017792434" lon="0.9777030666728209"><ele>172.79999999999998</ele><time>2026-04-06T13:49:03Z</time></trkpt><trkpt lat="44.52837102266103" lon="0.9775977299072348"><ele>172.39999999999998</ele><time>2026-04-06T13:49:04Z</time></trkpt><trkpt lat="44.52832934400606" lon="0.9774659562401884"><ele>172.0</ele><time>2026-04-06T13:49:06Z</time></trkpt><trkpt lat="44.52835253601901" lon="0.9773778334753532"><ele>171.8</ele><time>2026-04-06T13:49:08Z</time></trkpt><trkpt lat="44.52837611928157" lon="0.9772479962400425"><ele>171.6</ele><time>2026-04-06T13:49:10Z</time></trkpt><trkpt lat="44.5284100891301" lon="0.9771615954901037"><ele>171.4</ele><time>2026-04-06T13:49:11Z</time></trkpt><trkpt lat="44.52844001517407" lon="0.9770767970084273"><ele>171.20000000000002</ele><time>2026-04-06T13:49:12Z</time></trkpt><trkpt lat="44.52848711724842" lon="0.9769144464455305"><ele>171.0</ele><time>2026-04-06T13:49:14Z</time></trkpt><trkpt lat="44.52854749413669" lon="0.9767530505953971"><ele>171.85714285714283</ele><time>2026-04-06T13:49:16Z</time></trkpt><trkpt lat="44.52857699044495" lon="0.9766714589208733"><ele>172.71428571428572</ele><time>2026-04-06T13:49:17Z</time></trkpt><trkpt lat="44.52860307186683" lon="0.9765854003317139"><ele>173.57142857142856</ele><time>2026-04-06T13:49:18Z</time></trkpt><trkpt lat="44.52863321642635" lon="0.9765044499613101"><ele>174.42857142857142</ele><time>2026-04-06T13:49:19Z</time></trkpt><trkpt lat="44.52866548210157" lon="0.9764170779309765"><ele>175.28571428571428</ele><time>2026-04-06T13:49:20Z</time></trkpt><trkpt lat="44.52871008677487" lon="0.9763445950352336"><ele>176.14285714285714</ele><time>2026-04-06T13:49:21Z</time></trkpt><trkpt lat="44.52872030614621" lon="0.976224256097023"><ele>177.0</ele><time>2026-04-06T13:49:23Z</time></trkpt><trkpt lat="44.528674138645435" lon="0.976130205119685"><ele>177.0</ele><time>2026-04-06T13:49:25Z</time></trkpt><trkpt lat="44.528572456350865" lon="0.976086180572998"><ele>177.0</ele><time>2026-04-06T13:49:27Z</time></trkpt><trkpt lat="44.52855113860095" lon="0.9759298339653308"><ele>177.0</ele><time>2026-04-06T13:49:29Z</time></trkpt><trkpt lat="44.52852549100489" lon="0.9758081523624615"><ele>177.0</ele><time>2026-04-06T13:49:30Z</time></trkpt><trkpt lat="44.52849079498331" lon="0.9757171450390929"><ele>177.0</ele><time>2026-04-06T13:49:31Z</time></trkpt><trkpt lat="44.52846405415762" lon="0.9756340115538011"><ele>177.0</ele><time>2026-04-06T13:49:32Z</time></trkpt><trkpt lat="44.52843366232249" lon="0.9754817240293843"><ele>178.25</ele><time>2026-04-06T13:49:34Z</time></trkpt><trkpt lat="44.52839867880375" lon="0.9753532005898948"><ele>179.5</ele><time>2026-04-06T13:49:35Z</time></trkpt><trkpt lat="44.52840683613323" lon="0.9752300403636321"><ele>180.75</ele><time>2026-04-06T13:49:36Z</time></trkpt><trkpt lat="44.528219200161615" lon="0.975141917380063"><ele>182.0</ele><time>2026-04-06T13:49:37Z</time></trkpt><trkpt lat="44.52816937066613" lon="0.9750645687435276"><ele>182.2</ele><time>2026-04-06T13:49:38Z</time></trkpt><trkpt lat="44.528102807269676" lon="0.9749763533334014"><ele>182.39999999999998</ele><time>2026-04-06T13:49:39Z</time></trkpt><trkpt lat="44.528056093175984" lon="0.9748628343650066"><ele>182.60000000000002</ele><time>2026-04-06T13:49:40Z</time></trkpt><trkpt lat="44.52801875444061" lon="0.9747317809188577"><ele>182.8</ele><time>2026-04-06T13:49:41Z</time></trkpt><trkpt lat="44.52796746254879" lon="0.9746047590731829"><ele>183.0</ele><time>2026-04-06T13:49:42Z</time></trkpt><trkpt lat="44.52791829985192" lon="0.9744906723729987"><ele>182.2</ele><time>2026-04-06T13:49:43Z</time></trkpt><trkpt lat="44.52786950538436" lon="0.974371172467032"><ele>181.4</ele><time>2026-04-06T13:49:44Z</time></trkpt><trkpt lat="44.52782393297177" lon="0.9742563214598361"><ele>180.6</ele><time>2026-04-06T13:49:45Z</time></trkpt><trkpt lat="44.52778640997559" lon="0.9741416295256369"><ele>179.79999999999998</ele><time>2026-04-06T13:49:46Z</time></trkpt><trkpt lat="44.52776116207226" lon="0.9740133277543899"><ele>179.0</ele><time>2026-04-06T13:49:47Z</time></trkpt><trkpt lat="44.52773404705256" lon="0.9738970761503463"><ele>177.83333333333331</ele><time>2026-04-06T13:49:48Z</time></trkpt><trkpt lat="44.52768301109398" lon="0.9737892009092233"><ele>176.66666666666666</ele><time>2026-04-06T13:49:49Z</time></trkpt><trkpt lat="44.527626640243405" lon="0.9737197150112041"><ele>175.5</ele><time>2026-04-06T13:49:50Z</time></trkpt><trkpt lat="44.527551520962675" lon="0.9736346684324663"><ele>174.33333333333334</ele><time>2026-04-06T13:49:52Z</time></trkpt><trkpt lat="44.527513076116975" lon="0.9735559391052674"><ele>173.16666666666669</ele><time>2026-04-06T13:49:56Z</time></trkpt><trkpt lat="44.52749556952106" lon="0.9734654700799831"><ele>172.0</ele><time>2026-04-06T13:49:58Z</time></trkpt><trkpt lat="44.52746625790829" lon="0.9733729466757888"><ele>171.39999999999998</ele><time>2026-04-06T13:50:00Z</time></trkpt><trkpt lat="44.52742964642968" lon="0.9732398950768096"><ele>170.79999999999998</ele><time>2026-04-06T13:50:02Z</time></trkpt><trkpt lat="44.5273792703023" lon="0.9731122868172496"><ele>170.2</ele><time>2026-04-06T13:50:04Z</time></trkpt><trkpt lat="44.52734319072977" lon="0.9730000942926577"><ele>169.6</ele><time>2026-04-06T13:50:06Z</time></trkpt><trkpt lat="44.52729205670723" lon="0.9728421721406835"><ele>169.0</ele><time>2026-04-06T13:50:08Z</time></trkpt><trkpt lat="44.527256119916586" lon="0.9727135056177557"><ele>169.0</ele><time>2026-04-06T13:50:09Z</time></trkpt><trkpt lat="44.52720213718199" lon="0.9725646944480908"><ele>169.0</ele><time>2026-04-06T13:50:10Z</time></trkpt><trkpt lat="44.52713312838016" lon="0.972399447934757"><ele>169.0</ele><time>2026-04-06T13:50:11Z</time></trkpt><trkpt lat="44.527077324093455" lon="0.9722766634641296"><ele>169.0</ele><time>2026-04-06T13:50:12Z</time></trkpt><trkpt lat="44.52703305736483" lon="0.9721654749646879"><ele>167.5</ele><time>2026-04-06T13:50:13Z</time></trkpt><trkpt lat="44.52699404032876" lon="0.9720628260953587"><ele>166.0</ele><time>2026-04-06T13:50:14Z</time></trkpt><trkpt lat="44.52695048202526" lon="0.9719570273057122"><ele>164.5</ele><time>2026-04-06T13:50:15Z</time></trkpt><trkpt lat="44.52690960185005" lon="0.9718628627992755"><ele>163.0</ele><time>2026-04-06T13:50:16Z</time></trkpt><trkpt lat="44.52687865298298" lon="0.9717704442565436"><ele>161.5</ele><time>2026-04-06T13:50:17Z</time></trkpt><trkpt lat="44.52684824339206" lon="0.9716812383547342"><ele>160.0</ele><time>2026-04-06T13:50:18Z</time></trkpt><trkpt lat="44.52680987984199" lon="0.9715800462523031"><ele>159.2</ele><time>2026-04-06T13:50:19Z</time></trkpt><trkpt lat="44.5267635226423" lon="0.9714731191746943"><ele>158.4</ele><time>2026-04-06T13:50:20Z</time></trkpt><trkpt lat="44.526711134530856" lon="0.9713351833982723"><ele>157.6</ele><time>2026-04-06T13:50:21Z</time></trkpt><trkpt lat="44.52664426944382" lon="0.9712101860947828"><ele>156.8</ele><time>2026-04-06T13:50:22Z</time></trkpt><trkpt lat="44.526583625154295" lon="0.9711197849079645"><ele>156.0</ele><time>2026-04-06T13:50:23Z</time></trkpt><trkpt lat="44.526527407161566" lon="0.9710218728998897"><ele>156.0</ele><time>2026-04-06T13:50:24Z</time></trkpt><trkpt lat="44.52647838497391" lon="0.9709332232753737"><ele>156.0</ele><time>2026-04-06T13:50:25Z</time></trkpt><trkpt lat="44.52641334294654" lon="0.9708439077601535"><ele>156.0</ele><time>2026-04-06T13:50:26Z</time></trkpt><trkpt lat="44.52638051684125" lon="0.97075912214502"><ele>156.0</ele><time>2026-04-06T13:50:27Z</time></trkpt><trkpt lat="44.52634495379115" lon="0.9706538648940697"><ele>156.0</ele><time>2026-04-06T13:50:28Z</time></trkpt><trkpt lat="44.52631911746399" lon="0.9705483241895875"><ele>156.0</ele><time>2026-04-06T13:50:29Z</time></trkpt><trkpt lat="44.52630264379833" lon="0.9704214480644685"><ele>155.83333333333334</ele><time>2026-04-06T13:50:30Z</time></trkpt><trkpt lat="44.52628371619887" lon="0.9702935658386779"><ele>155.66666666666666</ele><time>2026-04-06T13:50:31Z</time></trkpt><trkpt lat="44.526256479281635" lon="0.9701870389894272"><ele>155.5</ele><time>2026-04-06T13:50:32Z</time></trkpt><trkpt lat="44.526228206071025" lon="0.9701079978803308"><ele>155.33333333333331</ele><time>2026-04-06T13:50:33Z</time></trkpt><trkpt lat="44.52618432616789" lon="0.9699589906405076"><ele>155.16666666666666</ele><time>2026-04-06T13:50:35Z</time></trkpt><trkpt lat="44.52615410843022" lon="0.9698584022035691"><ele>155.0</ele><time>2026-04-06T13:50:37Z</time></trkpt><trkpt lat="44.526121366040655" lon="0.9697605568320863"><ele>153.5</ele><time>2026-04-06T13:50:39Z</time></trkpt><trkpt lat="44.52607297664391" lon="0.969613776908433"><ele>152.0</ele><time>2026-04-06T13:50:41Z</time></trkpt><trkpt lat="44.526045455089715" lon="0.9695259091252746"><ele>150.5</ele><time>2026-04-06T13:50:42Z</time></trkpt><trkpt lat="44.52601168707186" lon="0.9694480065752894"><ele>149.0</ele><time>2026-04-06T13:50:43Z</time></trkpt><trkpt lat="44.525976193185414" lon="0.9693679108884034"><ele>147.5</ele><time>2026-04-06T13:50:44Z</time></trkpt><trkpt lat="44.525950258077756" lon="0.9692519657153259"><ele>146.0</ele><time>2026-04-06T13:50:45Z</time></trkpt><trkpt lat="44.525897634168615" lon="0.9691046941698971"><ele>146.0</ele><time>2026-04-06T13:50:46Z</time></trkpt><trkpt lat="44.52584730667268" lon="0.9689421257903477"><ele>146.0</ele><time>2026-04-06T13:50:47Z</time></trkpt><trkpt lat="44.52576781094425" lon="0.9688133411902049"><ele>146.0</ele><time>2026-04-06T13:50:48Z</time></trkpt><trkpt lat="44.52570688748109" lon="0.9686885975591153"><ele>146.0</ele><time>2026-04-06T13:50:49Z</time></trkpt><trkpt lat="44.525658035191434" lon="0.968571666361935"><ele>146.0</ele><time>2026-04-06T13:50:50Z</time></trkpt><trkpt lat="44.525602650049755" lon="0.9684689007757797"><ele>146.0</ele><time>2026-04-06T13:50:51Z</time></trkpt><trkpt lat="44.52554428200322" lon="0.968376398376448"><ele>146.0</ele><time>2026-04-06T13:50:52Z</time></trkpt><trkpt lat="44.52548971364424" lon="0.9682924751394633"><ele>146.0</ele><time>2026-04-06T13:50:53Z</time></trkpt><trkpt lat="44.52544346136001" lon="0.9682241282762893"><ele>146.0</ele><time>2026-04-06T13:50:54Z</time></trkpt><trkpt lat="44.52539224662285" lon="0.9681135682185181"><ele>146.0</ele><time>2026-04-06T13:50:56Z</time></trkpt><trkpt lat="44.52544699207389" lon="0.9680116494764374"><ele>145.6</ele><time>2026-04-06T13:50:59Z</time></trkpt><trkpt lat="44.525534526421055" lon="0.9679673702669205"><ele>145.2</ele><time>2026-04-06T13:51:01Z</time></trkpt><trkpt lat="44.5255956828866" lon="0.9679079339104248"><ele>144.8</ele><time>2026-04-06T13:51:02Z</time></trkpt><trkpt lat="44.52567324572296" lon="0.9678053443685749"><ele>144.4</ele><time>2026-04-06T13:51:03Z</time></trkpt><trkpt lat="44.5257442750247" lon="0.9677085012377018"><ele>144.0</ele><time>2026-04-06T13:51:04Z</time></trkpt><trkpt lat="44.52581874713106" lon="0.9676317415447712"><ele>144.0</ele><time>2026-04-06T13:51:05Z</time></trkpt><trkpt lat="44.525912709921684" lon="0.9675430574359711"><ele>144.0</ele><time>2026-04-06T13:51:06Z</time></trkpt><trkpt lat="44.52600329487098" lon="0.9674586084516119"><ele>144.0</ele><time>2026-04-06T13:51:07Z</time></trkpt><trkpt lat="44.52609807537719" lon="0.9673410616842046"><ele>144.0</ele><time>2026-04-06T13:51:08Z</time></trkpt><trkpt lat="44.52619022689991" lon="0.9672353637193207"><ele>148.75</ele><time>2026-04-06T13:51:09Z</time></trkpt><trkpt lat="44.52627829588587" lon="0.9671273697871733"><ele>153.5</ele><time>2026-04-06T13:51:10Z</time></trkpt><trkpt lat="44.52638071790045" lon="0.9670358882005425"><ele>158.25</ele><time>2026-04-06T13:51:11Z</time></trkpt><trkpt lat="44.52646489053282" lon="0.9669173872278859"><ele>163.0</ele><time>2026-04-06T13:51:12Z</time></trkpt><trkpt lat="44.526564712699674" lon="0.9668138168787269"><ele>163.0</ele><time>2026-04-06T13:51:13Z</time></trkpt><trkpt lat="44.52665227749006" lon="0.9667107537176007"><ele>163.0</ele><time>2026-04-06T13:51:14Z</time></trkpt><trkpt lat="44.52675535379403" lon="0.9666114251003722"><ele>163.0</ele><time>2026-04-06T13:51:15Z</time></trkpt><trkpt lat="44.52685094335161" lon="0.9665298516593634"><ele>163.0</ele><time>2026-04-06T13:51:16Z</time></trkpt><trkpt lat="44.52692832475369" lon="0.966458425840986"><ele>163.0</ele><time>2026-04-06T13:51:17Z</time></trkpt><trkpt lat="44.52700259691431" lon="0.9664002188201272"><ele>164.33333333333334</ele><time>2026-04-06T13:51:18Z</time></trkpt><trkpt lat="44.52706825224821" lon="0.9663617110930086"><ele>165.66666666666669</ele><time>2026-04-06T13:51:19Z</time></trkpt><trkpt lat="44.52712367606044" lon="0.966295414464022"><ele>167.0</ele><time>2026-04-06T13:51:20Z</time></trkpt><trkpt lat="44.52714019275092" lon="0.9662030693128022"><ele>168.33333333333334</ele><time>2026-04-06T13:51:21Z</time></trkpt><trkpt lat="44.52713066488642" lon="0.9660932469464707"><ele>169.66666666666666</ele><time>2026-04-06T13:51:22Z</time></trkpt><trkpt lat="44.52712470938027" lon="0.9659605550401682"><ele>171.0</ele><time>2026-04-06T13:51:24Z</time></trkpt><trkpt lat="44.52726861182496" lon="0.9658966595686733"><ele>169.83333333333334</ele><time>2026-04-06T13:51:26Z</time></trkpt><trkpt lat="44.5273375036578" lon="0.965846818247408"><ele>168.66666666666666</ele><time>2026-04-06T13:51:27Z</time></trkpt><trkpt lat="44.52740658137467" lon="0.965794934816835"><ele>167.5</ele><time>2026-04-06T13:51:28Z</time></trkpt><trkpt lat="44.527498735139794" lon="0.9657487401859384"><ele>166.33333333333331</ele><time>2026-04-06T13:51:29Z</time></trkpt><trkpt lat="44.52758488780544" lon="0.965717087685957"><ele>165.16666666666666</ele><time>2026-04-06T13:51:30Z</time></trkpt><trkpt lat="44.52767359201384" lon="0.9656674761543914"><ele>164.0</ele><time>2026-04-06T13:51:31Z</time></trkpt><trkpt lat="44.527775531032844" lon="0.9656168915492888"><ele>164.0</ele><time>2026-04-06T13:51:32Z</time></trkpt><trkpt lat="44.527879742936" lon="0.9655760011235773"><ele>164.0</ele><time>2026-04-06T13:51:33Z</time></trkpt><trkpt lat="44.52797744769354" lon="0.9655418425319153"><ele>164.0</ele><time>2026-04-06T13:51:34Z</time></trkpt><trkpt lat="44.528082177916616" lon="0.9654795280100886"><ele>164.0</ele><time>2026-04-06T13:51:35Z</time></trkpt><trkpt lat="44.528197250436214" lon="0.9654153121364097"><ele>164.0</ele><time>2026-04-06T13:51:36Z</time></trkpt><trkpt lat="44.52833280992269" lon="0.9653479433876374"><ele>162.5</ele><time>2026-04-06T13:51:37Z</time></trkpt><trkpt lat="44.52847225250661" lon="0.9652720267866167"><ele>161.0</ele><time>2026-04-06T13:51:38Z</time></trkpt><trkpt lat="44.52859002253133" lon="0.9651969794628474"><ele>159.5</ele><time>2026-04-06T13:51:39Z</time></trkpt><trkpt lat="44.52868744916777" lon="0.9651160560222324"><ele>158.0</ele><time>2026-04-06T13:51:40Z</time></trkpt><trkpt lat="44.52877633165926" lon="0.9650617391229036"><ele>156.33333333333331</ele><time>2026-04-06T13:51:41Z</time></trkpt><trkpt lat="44.52885746465413" lon="0.9650000925066679"><ele>154.66666666666666</ele><time>2026-04-06T13:51:42Z</time></trkpt><trkpt lat="44.5288986639254" lon="0.9649213906934287"><ele>153.0</ele><time>2026-04-06T13:51:43Z</time></trkpt><trkpt lat="44.528927734050335" lon="0.964775807034166"><ele>151.33333333333334</ele><time>2026-04-06T13:51:45Z</time></trkpt><trkpt lat="44.52889753710376" lon="0.9646741100104506"><ele>149.66666666666669</ele><time>2026-04-06T13:51:47Z</time></trkpt><trkpt lat="44.52885116908989" lon="0.9645762515315194"><ele>148.0</ele><time>2026-04-06T13:51:49Z</time></trkpt><trkpt lat="44.52885917777499" lon="0.9644639373163646"><ele>148.0</ele><time>2026-04-06T13:51:52Z</time></trkpt><trkpt lat="44.52889233697849" lon="0.9643857423118929"><ele>148.0</ele><time>2026-04-06T13:51:55Z</time></trkpt><trkpt lat="44.52897075796736" lon="0.9642231172226015"><ele>148.0</ele><time>2026-04-06T13:51:57Z</time></trkpt><trkpt lat="44.52902459078833" lon="0.9641010231854101"><ele>148.0</ele><time>2026-04-06T13:51:58Z</time></trkpt><trkpt lat="44.52907549513738" lon="0.9639808689720316"><ele>148.0</ele><time>2026-04-06T13:51:59Z</time></trkpt><trkpt lat="44.52911556801365" lon="0.9638644680895145"><ele>148.16666666666669</ele><time>2026-04-06T13:52:00Z</time></trkpt><trkpt lat="44.52915404147158" lon="0.9637775554564336"><ele>148.33333333333334</ele><time>2026-04-06T13:52:01Z</time></trkpt><trkpt lat="44.52920982526667" lon="0.9637109877673952"><ele>148.5</ele><time>2026-04-06T13:52:02Z</time></trkpt><trkpt lat="44.52929161584939" lon="0.9636532500275166"><ele>148.66666666666666</ele><time>2026-04-06T13:52:03Z</time></trkpt><trkpt lat="44.529363793781435" lon="0.963570029977949"><ele>148.83333333333331</ele><time>2026-04-06T13:52:04Z</time></trkpt><trkpt lat="44.529417953486835" lon="0.9634278297120858"><ele>149.0</ele><time>2026-04-06T13:52:05Z</time></trkpt><trkpt lat="44.52947082376102" lon="0.9632478834523344"><ele>149.0</ele><time>2026-04-06T13:52:06Z</time></trkpt><trkpt lat="44.52949179345325" lon="0.9630627634132947"><ele>149.0</ele><time>2026-04-06T13:52:07Z</time></trkpt><trkpt lat="44.529489875481886" lon="0.9628932661133277"><ele>149.0</ele><time>2026-04-06T13:52:08Z</time></trkpt><trkpt lat="44.52948041789728" lon="0.9627676594808724"><ele>149.0</ele><time>2026-04-06T13:52:09Z</time></trkpt><trkpt lat="44.52946313558834" lon="0.962672193210974"><ele>149.0</ele><time>2026-04-06T13:52:10Z</time></trkpt><trkpt lat="44.52947515262393" lon="0.9625156524722693"><ele>149.66666666666666</ele><time>2026-04-06T13:52:12Z</time></trkpt><trkpt lat="44.52949681133615" lon="0.962432710898897"><ele>150.33333333333331</ele><time>2026-04-06T13:52:13Z</time></trkpt><trkpt lat="44.52952984616617" lon="0.9623410941904943"><ele>151.0</ele><time>2026-04-06T13:52:14Z</time></trkpt><trkpt lat="44.5295938393495" lon="0.9622490768553043"><ele>151.66666666666666</ele><time>2026-04-06T13:52:15Z</time></trkpt><trkpt lat="44.52967374828418" lon="0.9621498456875162"><ele>152.33333333333334</ele><time>2026-04-06T13:52:16Z</time></trkpt><trkpt lat="44.52975303137946" lon="0.9620411709015748"><ele>153.0</ele><time>2026-04-06T13:52:17Z</time></trkpt><trkpt lat="44.5298085647958" lon="0.9619548347922461"><ele>152.0</ele><time>2026-04-06T13:52:18Z</time></trkpt><trkpt lat="44.529873399319285" lon="0.9617635398929393"><ele>151.0</ele><time>2026-04-06T13:52:20Z</time></trkpt><trkpt lat="44.52991452836743" lon="0.961647500679507"><ele>150.0</ele><time>2026-04-06T13:52:21Z</time></trkpt><trkpt lat="44.529948586132896" lon="0.9615210260018018"><ele>149.0</ele><time>2026-04-06T13:52:22Z</time></trkpt><trkpt lat="44.529981821173315" lon="0.9614034577090942"><ele>148.0</ele><time>2026-04-06T13:52:23Z</time></trkpt><trkpt lat="44.53001088972313" lon="0.9612678878832652"><ele>148.0</ele><time>2026-04-06T13:52:24Z</time></trkpt><trkpt lat="44.530029152345314" lon="0.9611424592137072"><ele>148.0</ele><time>2026-04-06T13:52:25Z</time></trkpt><trkpt lat="44.53006401345616" lon="0.9610403668705664"><ele>148.0</ele><time>2026-04-06T13:52:26Z</time></trkpt><trkpt lat="44.53011280981034" lon="0.960931372852153"><ele>148.0</ele><time>2026-04-06T13:52:27Z</time></trkpt><trkpt lat="44.53015196210658" lon="0.9607879105689525"><ele>148.0</ele><time>2026-04-06T13:52:28Z</time></trkpt><trkpt lat="44.53017822212481" lon="0.9606503213561263"><ele>148.33333333333334</ele><time>2026-04-06T13:52:29Z</time></trkpt><trkpt lat="44.530203238976526" lon="0.9605192397484977"><ele>148.66666666666669</ele><time>2026-04-06T13:52:30Z</time></trkpt><trkpt lat="44.53021033071923" lon="0.960392993780734"><ele>149.0</ele><time>2026-04-06T13:52:31Z</time></trkpt><trkpt lat="44.530219238195734" lon="0.9602916868120916"><ele>149.33333333333334</ele><time>2026-04-06T13:52:32Z</time></trkpt><trkpt lat="44.530211687852045" lon="0.960193085936107"><ele>149.66666666666666</ele><time>2026-04-06T13:52:33Z</time></trkpt><trkpt lat="44.53019407725436" lon="0.9600721392522387"><ele>150.0</ele><time>2026-04-06T13:52:35Z</time></trkpt><trkpt lat="44.53018711934117" lon="0.9599447633610776"><ele>150.0</ele><time>2026-04-06T13:52:56Z</time></trkpt><trkpt lat="44.53019439108179" lon="0.9598336973912023"><ele>150.0</ele><time>2026-04-06T13:52:58Z</time></trkpt><trkpt lat="44.53018912873882" lon="0.9597396955485745"><ele>150.0</ele><time>2026-04-06T13:53:00Z</time></trkpt><trkpt lat="44.530188315191346" lon="0.9596351128646866"><ele>150.0</ele><time>2026-04-06T13:53:02Z</time></trkpt><trkpt lat="44.530172862292545" lon="0.9594572063764468"><ele>150.0</ele><time>2026-04-06T13:53:04Z</time></trkpt><trkpt lat="44.5301570749974" lon="0.959315355172729"><ele>150.0</ele><time>2026-04-06T13:53:06Z</time></trkpt><trkpt lat="44.530153541339935" lon="0.9592223064587693"><ele>150.0</ele><time>2026-04-06T13:53:07Z</time></trkpt><trkpt lat="44.53016930275657" lon="0.9590973717457937"><ele>150.0</ele><time>2026-04-06T13:53:08Z</time></trkpt><trkpt lat="44.530219576097274" lon="0.9589700559223862"><ele>150.0</ele><time>2026-04-06T13:53:09Z</time></trkpt><trkpt lat="44.53028444237741" lon="0.9588516623158684"><ele>150.0</ele><time>2026-04-06T13:53:10Z</time></trkpt><trkpt lat="44.53033465497215" lon="0.9587654774415685"><ele>150.0</ele><time>2026-04-06T13:53:11Z</time></trkpt><trkpt lat="44.530388980490464" lon="0.9586357571928483"><ele>148.0</ele><time>2026-04-06T13:53:13Z</time></trkpt><trkpt lat="44.53046427698433" lon="0.9586226752200622"><ele>146.0</ele><time>2026-04-06T13:53:16Z</time></trkpt><trkpt lat="44.530555517512894" lon="0.9585769687442383"><ele>144.0</ele><time>2026-04-06T13:53:19Z</time></trkpt><trkpt lat="44.530624452950654" lon="0.958559335577364"><ele>142.0</ele><time>2026-04-06T13:53:20Z</time></trkpt><trkpt lat="44.5307135957593" lon="0.9585162250067527"><ele>140.0</ele><time>2026-04-06T13:53:21Z</time></trkpt><trkpt lat="44.530825862381306" lon="0.9584889587699297"><ele>140.0</ele><time>2026-04-06T13:53:22Z</time></trkpt><trkpt lat="44.530944834287396" lon="0.9584225979324035"><ele>140.0</ele><time>2026-04-06T13:53:23Z</time></trkpt><trkpt lat="44.531073512034325" lon="0.9583302515039853"><ele>140.0</ele><time>2026-04-06T13:53:24Z</time></trkpt><trkpt lat="44.53120912282677" lon="0.9582249444856281"><ele>140.0</ele><time>2026-04-06T13:53:25Z</time></trkpt><trkpt lat="44.531346877542084" lon="0.9581195083824045"><ele>139.33333333333331</ele><time>2026-04-06T13:53:26Z</time></trkpt><trkpt lat="44.5314809688476" lon="0.9579852126618845"><ele>138.66666666666666</ele><time>2026-04-06T13:53:27Z</time></trkpt><trkpt lat="44.531633792313855" lon="0.9578670770525107"><ele>138.0</ele><time>2026-04-06T13:53:28Z</time></trkpt><trkpt lat="44.53178771233903" lon="0.957736472666005"><ele>138.0</ele><time>2026-04-06T13:53:29Z</time></trkpt><trkpt lat="44.53193684315382" lon="0.9576113387574092"><ele>138.0</ele><time>2026-04-06T13:53:30Z</time></trkpt><trkpt lat="44.53206796335169" lon="0.9574973417703387"><ele>138.0</ele><time>2026-04-06T13:53:31Z</time></trkpt><trkpt lat="44.5321849729862" lon="0.9573765246583942"><ele>136.0</ele><time>2026-04-06T13:53:32Z</time></trkpt><trkpt lat="44.53229281980132" lon="0.9572464550310876"><ele>134.0</ele><time>2026-04-06T13:53:33Z</time></trkpt><trkpt lat="44.53239309306211" lon="0.9570651615365654"><ele>132.0</ele><time>2026-04-06T13:53:34Z</time></trkpt><trkpt lat="44.53249562587993" lon="0.9568738848053633"><ele>131.66666666666666</ele><time>2026-04-06T13:53:35Z</time></trkpt><trkpt lat="44.53260346314894" lon="0.9566782940782399"><ele>131.33333333333331</ele><time>2026-04-06T13:53:36Z</time></trkpt><trkpt lat="44.53271589836004" lon="0.956475378842497"><ele>131.0</ele><time>2026-04-06T13:53:37Z</time></trkpt><trkpt lat="44.532829006951395" lon="0.9562712482290179"><ele>129.5</ele><time>2026-04-06T13:53:38Z</time></trkpt><trkpt lat="44.53293372581638" lon="0.9560857964846672"><ele>128.0</ele><time>2026-04-06T13:53:39Z</time></trkpt><trkpt lat="44.53302634609757" lon="0.9559252933849878"><ele>126.5</ele><time>2026-04-06T13:53:40Z</time></trkpt><trkpt lat="44.53310538131349" lon="0.9557864999961412"><ele>125.0</ele><time>2026-04-06T13:53:41Z</time></trkpt><trkpt lat="44.533173483624374" lon="0.9556631542786709"><ele>125.0</ele><time>2026-04-06T13:53:42Z</time></trkpt><trkpt lat="44.5332402477679" lon="0.9555392235538142"><ele>125.0</ele><time>2026-04-06T13:53:43Z</time></trkpt><trkpt lat="44.53330175199907" lon="0.9554148592332653"><ele>125.0</ele><time>2026-04-06T13:53:44Z</time></trkpt><trkpt lat="44.53334896538701" lon="0.9553018956855239"><ele>125.0</ele><time>2026-04-06T13:53:45Z</time></trkpt><trkpt lat="44.53338319850774" lon="0.9551997738877613"><ele>125.0</ele><time>2026-04-06T13:53:46Z</time></trkpt><trkpt lat="44.53340066668344" lon="0.9551034759548233"><ele>125.0</ele><time>2026-04-06T13:53:47Z</time></trkpt><trkpt lat="44.53341342431705" lon="0.95501650024167"><ele>125.0</ele><time>2026-04-06T13:53:48Z</time></trkpt><trkpt lat="44.53342063280666" lon="0.954847805038752"><ele>125.0</ele><time>2026-04-06T13:53:50Z</time></trkpt><trkpt lat="44.53342702953189" lon="0.9546983410107048"><ele>125.0</ele><time>2026-04-06T13:53:52Z</time></trkpt><trkpt lat="44.53342872195441" lon="0.9545160938728858"><ele>125.0</ele><time>2026-04-06T13:53:54Z</time></trkpt><trkpt lat="44.533441402908174" lon="0.9544149254078795"><ele>125.0</ele><time>2026-04-06T13:53:55Z</time></trkpt><trkpt lat="44.533452766105654" lon="0.9542872843261251"><ele>125.0</ele><time>2026-04-06T13:53:56Z</time></trkpt><trkpt lat="44.53349401902679" lon="0.9541390111754315"><ele>125.0</ele><time>2026-04-06T13:53:57Z</time></trkpt><trkpt lat="44.53353747603446" lon="0.9539585001316059"><ele>125.0</ele><time>2026-04-06T13:53:58Z</time></trkpt><trkpt lat="44.53359130853083" lon="0.9537498350306165"><ele>124.33333333333333</ele><time>2026-04-06T13:53:59Z</time></trkpt><trkpt lat="44.53365295539901" lon="0.9535215050481574"><ele>123.66666666666666</ele><time>2026-04-06T13:54:00Z</time></trkpt><trkpt lat="44.53371102883374" lon="0.9532816564859932"><ele>123.0</ele><time>2026-04-06T13:54:01Z</time></trkpt><trkpt lat="44.53378358782208" lon="0.953037809777071"><ele>121.0</ele><time>2026-04-06T13:54:02Z</time></trkpt><trkpt lat="44.533861832349324" lon="0.952814884601342"><ele>119.0</ele><time>2026-04-06T13:54:03Z</time></trkpt><trkpt lat="44.53393426222946" lon="0.9526113516824088"><ele>117.0</ele><time>2026-04-06T13:54:04Z</time></trkpt><trkpt lat="44.534018751956246" lon="0.9524313054785591"><ele>115.75</ele><time>2026-04-06T13:54:05Z</time></trkpt><trkpt lat="44.53408305961864" lon="0.9522429067622414"><ele>114.5</ele><time>2026-04-06T13:54:06Z</time></trkpt><trkpt lat="44.534128303384826" lon="0.9520494518694982"><ele>113.25</ele><time>2026-04-06T13:54:07Z</time></trkpt><trkpt lat="44.53413317331537" lon="0.9518397059390834"><ele>112.0</ele><time>2026-04-06T13:54:08Z</time></trkpt><trkpt lat="44.534135392693" lon="0.9516259507732466"><ele>110.66666666666667</ele><time>2026-04-06T13:54:09Z</time></trkpt><trkpt lat="44.53413732307638" lon="0.9513912590874578"><ele>109.33333333333334</ele><time>2026-04-06T13:54:10Z</time></trkpt><trkpt lat="44.534154193777304" lon="0.9511394176935337"><ele>108.0</ele><time>2026-04-06T13:54:11Z</time></trkpt><trkpt lat="44.53415650359982" lon="0.9508776509724314"><ele>108.0</ele><time>2026-04-06T13:54:12Z</time></trkpt><trkpt lat="44.53415394770751" lon="0.9506138439236791"><ele>108.0</ele><time>2026-04-06T13:54:13Z</time></trkpt><trkpt lat="44.53416942640463" lon="0.9503477132795134"><ele>108.0</ele><time>2026-04-06T13:54:14Z</time></trkpt><trkpt lat="44.53418043178824" lon="0.9501016950894032"><ele>107.25</ele><time>2026-04-06T13:54:15Z</time></trkpt><trkpt lat="44.534199463394984" lon="0.9498865493124365"><ele>106.5</ele><time>2026-04-06T13:54:16Z</time></trkpt><trkpt lat="44.534220154052996" lon="0.9497065195917928"><ele>105.75</ele><time>2026-04-06T13:54:17Z</time></trkpt><trkpt lat="44.53423773706693" lon="0.9495398234378584"><ele>105.0</ele><time>2026-04-06T13:54:18Z</time></trkpt><trkpt lat="44.534256005494726" lon="0.9493867889859906"><ele>105.0</ele><time>2026-04-06T13:54:19Z</time></trkpt><trkpt lat="44.53427597852778" lon="0.949245449570206"><ele>105.0</ele><time>2026-04-06T13:54:20Z</time></trkpt><trkpt lat="44.534289433055946" lon="0.94911341912579"><ele>105.0</ele><time>2026-04-06T13:54:21Z</time></trkpt><trkpt lat="44.53431634854902" lon="0.9490002709105079"><ele>105.0</ele><time>2026-04-06T13:54:22Z</time></trkpt><trkpt lat="44.53438282797552" lon="0.9489056932434738"><ele>105.0</ele><time>2026-04-06T13:54:23Z</time></trkpt><trkpt lat="44.53448666585935" lon="0.948915942705939"><ele>103.33333333333333</ele><time>2026-04-06T13:54:24Z</time></trkpt><trkpt lat="44.534586694126816" lon="0.9489054595851009"><ele>101.66666666666667</ele><time>2026-04-06T13:54:25Z</time></trkpt><trkpt lat="44.53466046543466" lon="0.9488365463474076"><ele>100.0</ele><time>2026-04-06T13:54:26Z</time></trkpt><trkpt lat="44.53473197452834" lon="0.9487592635666747"><ele>98.33333333333334</ele><time>2026-04-06T13:54:27Z</time></trkpt><trkpt lat="44.53479778215911" lon="0.9486804529097274"><ele>96.66666666666667</ele><time>2026-04-06T13:54:28Z</time></trkpt><trkpt lat="44.534832734602944" lon="0.9485758362261592"><ele>95.0</ele><time>2026-04-06T13:54:29Z</time></trkpt><trkpt lat="44.53486361612893" lon="0.9484808763101578"><ele>95.0</ele><time>2026-04-06T13:54:30Z</time></trkpt><trkpt lat="44.53493590405635" lon="0.9484357179287451"><ele>95.0</ele><time>2026-04-06T13:54:31Z</time></trkpt><trkpt lat="44.53502234117034" lon="0.9484078892686097"><ele>95.0</ele><time>2026-04-06T13:54:32Z</time></trkpt><trkpt lat="44.53510522261389" lon="0.9483640271301311"><ele>95.0</ele><time>2026-04-06T13:54:33Z</time></trkpt><trkpt lat="44.535191402035714" lon="0.9483040378050926"><ele>95.0</ele><time>2026-04-06T13:54:34Z</time></trkpt><trkpt lat="44.53528099414499" lon="0.9482489248889108"><ele>95.75</ele><time>2026-04-06T13:54:35Z</time></trkpt><trkpt lat="44.53538200645334" lon="0.9481875470281416"><ele>96.5</ele><time>2026-04-06T13:54:36Z</time></trkpt><trkpt lat="44.535494124517136" lon="0.9481069406055193"><ele>97.25</ele><time>2026-04-06T13:54:37Z</time></trkpt><trkpt lat="44.53561674944079" lon="0.948008345062893"><ele>98.0</ele><time>2026-04-06T13:54:38Z</time></trkpt><trkpt lat="44.535740239948005" lon="0.9478987726794142"><ele>98.0</ele><time>2026-04-06T13:54:39Z</time></trkpt><trkpt lat="44.535878230130386" lon="0.9477874387179821"><ele>98.0</ele><time>2026-04-06T13:54:40Z</time></trkpt><trkpt lat="44.53602352139529" lon="0.9476702233009333"><ele>98.0</ele><time>2026-04-06T13:54:41Z</time></trkpt><trkpt lat="44.53616967844975" lon="0.9475365160713158"><ele>97.33333333333333</ele><time>2026-04-06T13:54:42Z</time></trkpt><trkpt lat="44.536316527498165" lon="0.9473949423412924"><ele>96.66666666666666</ele><time>2026-04-06T13:54:43Z</time></trkpt><trkpt lat="44.53646166119962" lon="0.9472393525695707"><ele>96.0</ele><time>2026-04-06T13:54:44Z</time></trkpt><trkpt lat="44.53661603010451" lon="0.9470884028847953"><ele>96.0</ele><time>2026-04-06T13:54:45Z</time></trkpt><trkpt lat="44.536772522083076" lon="0.9469353597134142"><ele>96.0</ele><time>2026-04-06T13:54:46Z</time></trkpt><trkpt lat="44.53693127346389" lon="0.946780242150467"><ele>96.0</ele><time>2026-04-06T13:54:47Z</time></trkpt><trkpt lat="44.53707529242829" lon="0.9466486858076635"><ele>97.0</ele><time>2026-04-06T13:54:48Z</time></trkpt><trkpt lat="44.53719543116453" lon="0.9465501553368966"><ele>98.0</ele><time>2026-04-06T13:54:49Z</time></trkpt><trkpt lat="44.537293947835884" lon="0.9464750976804684"><ele>99.0</ele><time>2026-04-06T13:54:50Z</time></trkpt><trkpt lat="44.53737872567987" lon="0.9464309493529326"><ele>100.0</ele><time>2026-04-06T13:54:51Z</time></trkpt><trkpt lat="44.53747496761452" lon="0.9463780365027822"><ele>101.0</ele><time>2026-04-06T13:54:53Z</time></trkpt><trkpt lat="44.53747755695054" lon="0.946233526939411"><ele>100.99999999999999</ele><time>2026-04-06T13:54:56Z</time></trkpt><trkpt lat="44.53742291791183" lon="0.946093167600029"><ele>101.0</ele><time>2026-04-06T13:54:58Z</time></trkpt><trkpt lat="44.53742014983939" lon="0.9460033052705807"><ele>101.0</ele><time>2026-04-06T13:54:59Z</time></trkpt><trkpt lat="44.53740042796526" lon="0.9459077081876912"><ele>101.0</ele><time>2026-04-06T13:55:00Z</time></trkpt><trkpt lat="44.53736502156706" lon="0.9458081342950859"><ele>100.99999999999999</ele><time>2026-04-06T13:55:01Z</time></trkpt><trkpt lat="44.53734904197588" lon="0.945691213507334"><ele>101.0</ele><time>2026-04-06T13:55:02Z</time></trkpt><trkpt lat="44.53732718921137" lon="0.945565345802056"><ele>99.0</ele><time>2026-04-06T13:55:03Z</time></trkpt><trkpt lat="44.5373067890513" lon="0.9454420202817804"><ele>97.0</ele><time>2026-04-06T13:55:04Z</time></trkpt><trkpt lat="44.537284736685685" lon="0.9453145262373356"><ele>95.0</ele><time>2026-04-06T13:55:05Z</time></trkpt><trkpt lat="44.53726462818632" lon="0.945185725653967"><ele>93.0</ele><time>2026-04-06T13:55:06Z</time></trkpt><trkpt lat="44.53724505695342" lon="0.945058179058874"><ele>91.0</ele><time>2026-04-06T13:55:07Z</time></trkpt><trkpt lat="44.53722724390088" lon="0.9449260210203406"><ele>91.0</ele><time>2026-04-06T13:55:08Z</time></trkpt><trkpt lat="44.537218148318765" lon="0.9447945041196698"><ele>91.0</ele><time>2026-04-06T13:55:09Z</time></trkpt><trkpt lat="44.537199119512465" lon="0.9446577120502079"><ele>91.0</ele><time>2026-04-06T13:55:10Z</time></trkpt><trkpt lat="44.53717018619399" lon="0.9445400929104157"><ele>91.0</ele><time>2026-04-06T13:55:11Z</time></trkpt><trkpt lat="44.53710598015684" lon="0.9444406836677736"><ele>91.0</ele><time>2026-04-06T13:55:12Z</time></trkpt><trkpt lat="44.53701705584293" lon="0.9443795299502561"><ele>91.4</ele><time>2026-04-06T13:55:13Z</time></trkpt><trkpt lat="44.536914448448115" lon="0.9443494473474217"><ele>91.8</ele><time>2026-04-06T13:55:14Z</time></trkpt><trkpt lat="44.536816628393034" lon="0.9443207439244554"><ele>92.2</ele><time>2026-04-06T13:55:15Z</time></trkpt><trkpt lat="44.53672139925029" lon="0.9442972620469243"><ele>92.60000000000001</ele><time>2026-04-06T13:55:16Z</time></trkpt><trkpt lat="44.53662446787838" lon="0.9442601390423094"><ele>93.0</ele><time>2026-04-06T13:55:17Z</time></trkpt><trkpt lat="44.536526015775515" lon="0.9442175118786008"><ele>93.0</ele><time>2026-04-06T13:55:18Z</time></trkpt><trkpt lat="44.53643992049535" lon="0.9441550618154096"><ele>93.0</ele><time>2026-04-06T13:55:19Z</time></trkpt><trkpt lat="44.536354286782206" lon="0.9440761927472637"><ele>93.0</ele><time>2026-04-06T13:55:20Z</time></trkpt><trkpt lat="44.53627101532864" lon="0.9439785080341498"><ele>93.0</ele><time>2026-04-06T13:55:21Z</time></trkpt><trkpt lat="44.53619078631916" lon="0.9438995819477166"><ele>93.0</ele><time>2026-04-06T13:55:22Z</time></trkpt><trkpt lat="44.53610980885425" lon="0.9438175676918553"><ele>92.2</ele><time>2026-04-06T13:55:23Z</time></trkpt><trkpt lat="44.5360386785381" lon="0.9437126861894748"><ele>91.4</ele><time>2026-04-06T13:55:24Z</time></trkpt><trkpt lat="44.535944174823655" lon="0.9436313949209533"><ele>90.60000000000001</ele><time>2026-04-06T13:55:25Z</time></trkpt><trkpt lat="44.53586263869094" lon="0.9435432159882776"><ele>89.80000000000001</ele><time>2026-04-06T13:55:26Z</time></trkpt><trkpt lat="44.53576927335458" lon="0.9434698614877444"><ele>89.0</ele><time>2026-04-06T13:55:27Z</time></trkpt><trkpt lat="44.53566566622025" lon="0.943405220557437"><ele>89.5</ele><time>2026-04-06T13:55:28Z</time></trkpt><trkpt lat="44.5355559039906" lon="0.9433016650063658"><ele>90.0</ele><time>2026-04-06T13:55:29Z</time></trkpt><trkpt lat="44.53543409907724" lon="0.9432195244743151"><ele>90.5</ele><time>2026-04-06T13:55:30Z</time></trkpt><trkpt lat="44.53529620078228" lon="0.9431601101603253"><ele>91.0</ele><time>2026-04-06T13:55:31Z</time></trkpt><trkpt lat="44.53517414721486" lon="0.94308752550487"><ele>91.0</ele><time>2026-04-06T13:55:32Z</time></trkpt><trkpt lat="44.53507014025526" lon="0.9430588275137963"><ele>91.0</ele><time>2026-04-06T13:55:33Z</time></trkpt><trkpt lat="44.534977412387676" lon="0.9430268464849623"><ele>91.0</ele><time>2026-04-06T13:55:34Z</time></trkpt><trkpt lat="44.534905351822374" lon="0.9429465845478674"><ele>91.0</ele><time>2026-04-06T13:55:35Z</time></trkpt><trkpt lat="44.53489067213121" lon="0.942814477477554"><ele>91.0</ele><time>2026-04-06T13:55:36Z</time></trkpt><trkpt lat="44.53489230199506" lon="0.9427023142137404"><ele>91.0</ele><time>2026-04-06T13:55:37Z</time></trkpt><trkpt lat="44.534903065058884" lon="0.9426127779926368"><ele>91.0</ele><time>2026-04-06T13:55:38Z</time></trkpt><trkpt lat="44.53502898958808" lon="0.9425232105781175"><ele>91.0</ele><time>2026-04-06T13:55:40Z</time></trkpt><trkpt lat="44.53510860214803" lon="0.9425579655893704"><ele>91.0</ele><time>2026-04-06T13:55:41Z</time></trkpt><trkpt lat="44.5351835668778" lon="0.942571872673615"><ele>91.0</ele><time>2026-04-06T13:55:42Z</time></trkpt><trkpt lat="44.535290008186145" lon="0.9425827599105872"><ele>91.25</ele><time>2026-04-06T13:55:43Z</time></trkpt><trkpt lat="44.535412555458684" lon="0.9426380387306383"><ele>91.5</ele><time>2026-04-06T13:55:44Z</time></trkpt><trkpt lat="44.53555110449488" lon="0.9426882159261312"><ele>91.75</ele><time>2026-04-06T13:55:45Z</time></trkpt><trkpt lat="44.53567054953678" lon="0.9427531611651749"><ele>92.0</ele><time>2026-04-06T13:55:46Z</time></trkpt><trkpt lat="44.535782757402124" lon="0.9427710403443346"><ele>92.0</ele><time>2026-04-06T13:55:47Z</time></trkpt><trkpt lat="44.53587167112089" lon="0.9428001186140562"><ele>92.0</ele><time>2026-04-06T13:55:48Z</time></trkpt><trkpt lat="44.53593687961983" lon="0.9427305773687799"><ele>92.0</ele><time>2026-04-06T13:55:49Z</time></trkpt><trkpt lat="44.536019777915165" lon="0.9426972954611079"><ele>92.0</ele><time>2026-04-06T13:55:51Z</time></trkpt><trkpt lat="44.53609825167944" lon="0.9426289615587149"><ele>92.0</ele><time>2026-04-06T13:55:53Z</time></trkpt><trkpt lat="44.53632047669454" lon="0.9422761808184956"><ele>93.0</ele><time>2026-04-06T13:55:54Z</time></trkpt><trkpt lat="44.53674003804709" lon="0.9433304013105971"><ele>93.0</ele><time>2026-04-06T13:56:01Z</time></trkpt><trkpt lat="44.53682737726692" lon="0.9433946209410262"><ele>93.0</ele><time>2026-04-06T13:56:03Z</time></trkpt><trkpt lat="44.53690098124694" lon="0.9434066823317334"><ele>93.0</ele><time>2026-04-06T13:56:07Z</time></trkpt><trkpt lat="44.53700979532263" lon="0.943377144874977"><ele>93.0</ele><time>2026-04-06T13:56:09Z</time></trkpt><trkpt lat="44.53706873381686" lon="0.9433427923097958"><ele>93.0</ele><time>2026-04-06T13:56:10Z</time></trkpt><trkpt lat="44.53713462624947" lon="0.9433470268154555"><ele>93.0</ele><time>2026-04-06T13:56:11Z</time></trkpt><trkpt lat="44.53721614682596" lon="0.9433701898139734"><ele>93.0</ele><time>2026-04-06T13:56:12Z</time></trkpt><trkpt lat="44.53730412105463" lon="0.9434397590676276"><ele>93.0</ele><time>2026-04-06T13:56:13Z</time></trkpt><trkpt lat="44.537403641155166" lon="0.9435207545215126"><ele>93.0</ele><time>2026-04-06T13:56:14Z</time></trkpt><trkpt lat="44.53751032647122" lon="0.9435923418610512"><ele>93.0</ele><time>2026-04-06T13:56:15Z</time></trkpt><trkpt lat="44.53763127346625" lon="0.9436650484446544"><ele>93.0</ele><time>2026-04-06T13:56:16Z</time></trkpt><trkpt lat="44.537773224270914" lon="0.943725753385556"><ele>93.0</ele><time>2026-04-06T13:56:17Z</time></trkpt><trkpt lat="44.53791584388445" lon="0.9437886000441826"><ele>93.0</ele><time>2026-04-06T13:56:18Z</time></trkpt><trkpt lat="44.538067597603664" lon="0.9438618265843898"><ele>93.0</ele><time>2026-04-06T13:56:19Z</time></trkpt><trkpt lat="44.538216149310486" lon="0.9439619613796034"><ele>93.0</ele><time>2026-04-06T13:56:20Z</time></trkpt><trkpt lat="44.538358282040896" lon="0.9440721035708485"><ele>93.0</ele><time>2026-04-06T13:56:21Z</time></trkpt><trkpt lat="44.53851353422998" lon="0.9441722280787672"><ele>93.0</ele><time>2026-04-06T13:56:22Z</time></trkpt><trkpt lat="44.538667608890734" lon="0.944293505453923"><ele>93.0</ele><time>2026-04-06T13:56:23Z</time></trkpt><trkpt lat="44.53879376247002" lon="0.9443683225101644"><ele>93.0</ele><time>2026-04-06T13:56:24Z</time></trkpt><trkpt lat="44.53890636586722" lon="0.9444820608040779"><ele>93.0</ele><time>2026-04-06T13:56:25Z</time></trkpt><trkpt lat="44.53900405685595" lon="0.9445772480247215"><ele>93.0</ele><time>2026-04-06T13:56:26Z</time></trkpt><trkpt lat="44.539105419087775" lon="0.9446458207966729"><ele>93.0</ele><time>2026-04-06T13:56:27Z</time></trkpt><trkpt lat="44.53922780768933" lon="0.9446975107709972"><ele>93.0</ele><time>2026-04-06T13:56:28Z</time></trkpt><trkpt lat="44.539355357769146" lon="0.9447267621357962"><ele>93.0</ele><time>2026-04-06T13:56:29Z</time></trkpt><trkpt lat="44.53948425219995" lon="0.9447424196624252"><ele>93.0</ele><time>2026-04-06T13:56:30Z</time></trkpt><trkpt lat="44.53960452199081" lon="0.9447273527743841"><ele>93.0</ele><time>2026-04-06T13:56:31Z</time></trkpt><trkpt lat="44.539751825527325" lon="0.9447385628194501"><ele>93.0</ele><time>2026-04-06T13:56:32Z</time></trkpt><trkpt lat="44.53989850907174" lon="0.9446924925396931"><ele>93.0</ele><time>2026-04-06T13:56:33Z</time></trkpt><trkpt lat="44.540049087230315" lon="0.9446486070582756"><ele>93.0</ele><time>2026-04-06T13:56:34Z</time></trkpt><trkpt lat="44.54017332302496" lon="0.944618135999333"><ele>93.0</ele><time>2026-04-06T13:56:35Z</time></trkpt><trkpt lat="44.54025703603959" lon="0.9445967663222152"><ele>93.0</ele><time>2026-04-06T13:56:36Z</time></trkpt><trkpt lat="44.54032122472515" lon="0.9445882426936968"><ele>93.0</ele><time>2026-04-06T13:56:37Z</time></trkpt><trkpt lat="44.54023657502981" lon="0.9446104723302962"><ele>93.0</ele><time>2026-04-06T13:56:57Z</time></trkpt><trkpt lat="44.54011616154544" lon="0.9446528268474029"><ele>93.0</ele><time>2026-04-06T13:56:58Z</time></trkpt><trkpt lat="44.540008984878966" lon="0.9446842701720634"><ele>93.0</ele><time>2026-04-06T13:56:59Z</time></trkpt><trkpt lat="44.53988672098915" lon="0.9447234823124505"><ele>93.0</ele><time>2026-04-06T13:57:00Z</time></trkpt><trkpt lat="44.539748651748326" lon="0.9447418359045606"><ele>93.0</ele><time>2026-04-06T13:57:01Z</time></trkpt><trkpt lat="44.53962837120638" lon="0.9447636780169788"><ele>93.0</ele><time>2026-04-06T13:57:02Z</time></trkpt><trkpt lat="44.539526915134076" lon="0.9447731206709191"><ele>93.0</ele><time>2026-04-06T13:57:03Z</time></trkpt><trkpt lat="44.53942824838281" lon="0.9447515140487753"><ele>93.0</ele><time>2026-04-06T13:57:04Z</time></trkpt><trkpt lat="44.53934054527554" lon="0.9447389481874245"><ele>93.0</ele><time>2026-04-06T13:57:05Z</time></trkpt><trkpt lat="44.53926506775124" lon="0.9447246109150038"><ele>93.0</ele><time>2026-04-06T13:57:06Z</time></trkpt><trkpt lat="44.53916236909175" lon="0.9446766416603353"><ele>93.0</ele><time>2026-04-06T13:57:08Z</time></trkpt><trkpt lat="44.53926879370423" lon="0.9446971747971358"><ele>93.0</ele><time>2026-04-06T13:57:30Z</time></trkpt><trkpt lat="44.539338772122775" lon="0.9447205465893619"><ele>93.0</ele><time>2026-04-06T13:57:31Z</time></trkpt><trkpt lat="44.539422751383256" lon="0.9447456841778317"><ele>93.0</ele><time>2026-04-06T13:57:32Z</time></trkpt><trkpt lat="44.539523272038814" lon="0.9447596509365627"><ele>93.0</ele><time>2026-04-06T13:57:33Z</time></trkpt><trkpt lat="44.53963750995999" lon="0.9447614025283482"><ele>93.0</ele><time>2026-04-06T13:57:34Z</time></trkpt><trkpt lat="44.53976449695296" lon="0.9447379523533543"><ele>93.0</ele><time>2026-04-06T13:57:35Z</time></trkpt><trkpt lat="44.53987883314742" lon="0.9446952653615324"><ele>93.0</ele><time>2026-04-06T13:57:36Z</time></trkpt><trkpt lat="44.53997198276671" lon="0.9446650654703129"><ele>93.0</ele><time>2026-04-06T13:57:37Z</time></trkpt><trkpt lat="44.54006238886" lon="0.9446426235129756"><ele>93.0</ele><time>2026-04-06T13:57:38Z</time></trkpt><trkpt lat="44.54015618288167" lon="0.9446295517724612"><ele>93.0</ele><time>2026-04-06T13:57:39Z</time></trkpt><trkpt lat="44.54023775983768" lon="0.9446100814505718"><ele>93.0</ele><time>2026-04-06T13:57:40Z</time></trkpt><trkpt lat="44.54030335266273" lon="0.944594350654365"><ele>93.0</ele><time>2026-04-06T13:57:41Z</time></trkpt><trkpt lat="44.540361285090896" lon="0.9445408977159223"><ele>93.0</ele><time>2026-04-06T13:57:43Z</time></trkpt><trkpt lat="44.54030363326618" lon="0.9443757025566875"><ele>93.0</ele><time>2026-04-06T13:57:45Z</time></trkpt><trkpt lat="44.5402542958245" lon="0.9442563926050345"><ele>93.0</ele><time>2026-04-06T13:57:46Z</time></trkpt><trkpt lat="44.54021811152509" lon="0.94412331057074"><ele>93.0</ele><time>2026-04-06T13:57:47Z</time></trkpt><trkpt lat="44.54018758788422" lon="0.9439872837259824"><ele>93.0</ele><time>2026-04-06T13:57:48Z</time></trkpt><trkpt lat="44.54016966593394" lon="0.9438264106910783"><ele>93.0</ele><time>2026-04-06T13:57:49Z</time></trkpt><trkpt lat="44.540120826116954" lon="0.9436724807708424"><ele>93.80000000000001</ele><time>2026-04-06T13:57:50Z</time></trkpt><trkpt lat="44.54006593118202" lon="0.9434993289675692"><ele>94.6</ele><time>2026-04-06T13:57:51Z</time></trkpt><trkpt lat="44.54002452744365" lon="0.9433549372944905"><ele>95.4</ele><time>2026-04-06T13:57:52Z</time></trkpt><trkpt lat="44.53999936340663" lon="0.9432482206901007"><ele>96.19999999999999</ele><time>2026-04-06T13:57:53Z</time></trkpt><trkpt lat="44.539971456111104" lon="0.9431359839837764"><ele>97.0</ele><time>2026-04-06T13:57:54Z</time></trkpt><trkpt lat="44.53994295029261" lon="0.9430542590818923"><ele>99.19999999999999</ele><time>2026-04-06T13:57:55Z</time></trkpt><trkpt lat="44.53991044379114" lon="0.9429749478975684"><ele>101.4</ele><time>2026-04-06T13:57:57Z</time></trkpt><trkpt lat="44.54008536014749" lon="0.942915441247922"><ele>103.60000000000001</ele><time>2026-04-06T13:58:01Z</time></trkpt><trkpt lat="44.54017872211355" lon="0.9428916675758721"><ele>105.80000000000001</ele><time>2026-04-06T13:58:03Z</time></trkpt><trkpt lat="44.54018568957003" lon="0.942793265729555"><ele>108.0</ele><time>2026-04-06T13:58:05Z</time></trkpt><trkpt lat="44.54016858828633" lon="0.9427057845347264"><ele>108.0</ele><time>2026-04-06T13:58:07Z</time></trkpt><trkpt lat="44.540172186509906" lon="0.9425978477861741"><ele>108.0</ele><time>2026-04-06T13:58:09Z</time></trkpt><trkpt lat="44.540182797634266" lon="0.9424476286347646"><ele>108.0</ele><time>2026-04-06T13:58:11Z</time></trkpt><trkpt lat="44.54019123671991" lon="0.9423360979858655"><ele>108.0</ele><time>2026-04-06T13:58:12Z</time></trkpt><trkpt lat="44.54020348393484" lon="0.9422212404156324"><ele>108.0</ele><time>2026-04-06T13:58:13Z</time></trkpt><trkpt lat="44.540212399421314" lon="0.9421015452512912"><ele>108.0</ele><time>2026-04-06T13:58:14Z</time></trkpt><trkpt lat="44.54021776909936" lon="0.9419722565557149"><ele>110.2</ele><time>2026-04-06T13:58:15Z</time></trkpt><trkpt lat="44.54021301515881" lon="0.9418547480909211"><ele>112.4</ele><time>2026-04-06T13:58:16Z</time></trkpt><trkpt lat="44.54020686799052" lon="0.9417181781776044"><ele>114.60000000000001</ele><time>2026-04-06T13:58:17Z</time></trkpt><trkpt lat="44.54020376663314" lon="0.9415439943927673"><ele>116.80000000000001</ele><time>2026-04-06T13:58:18Z</time></trkpt><trkpt lat="44.540184441297605" lon="0.9413759888940277"><ele>119.0</ele><time>2026-04-06T13:58:19Z</time></trkpt><trkpt lat="44.5401785811486" lon="0.9411838498916476"><ele>121.5</ele><time>2026-04-06T13:58:20Z</time></trkpt><trkpt lat="44.540165750938684" lon="0.9409864250005282"><ele>124.0</ele><time>2026-04-06T13:58:21Z</time></trkpt><trkpt lat="44.5401655682887" lon="0.9407814344946633"><ele>126.5</ele><time>2026-04-06T13:58:22Z</time></trkpt><trkpt lat="44.54015393147276" lon="0.9405933503673843"><ele>129.0</ele><time>2026-04-06T13:58:23Z</time></trkpt><trkpt lat="44.540154722261505" lon="0.9403811307099447"><ele>130.75</ele><time>2026-04-06T13:58:24Z</time></trkpt><trkpt lat="44.54014058897056" lon="0.9401804612916449"><ele>132.5</ele><time>2026-04-06T13:58:25Z</time></trkpt><trkpt lat="44.54013601994018" lon="0.9399723269170036"><ele>134.25</ele><time>2026-04-06T13:58:26Z</time></trkpt><trkpt lat="44.54012557120642" lon="0.9397953121334602"><ele>136.0</ele><time>2026-04-06T13:58:27Z</time></trkpt><trkpt lat="44.540136326147575" lon="0.939652614055193"><ele>136.6</ele><time>2026-04-06T13:58:28Z</time></trkpt><trkpt lat="44.540152358765496" lon="0.9395543238031693"><ele>137.2</ele><time>2026-04-06T13:58:29Z</time></trkpt><trkpt lat="44.54019205787045" lon="0.9394208176485455"><ele>137.8</ele><time>2026-04-06T13:58:31Z</time></trkpt><trkpt lat="44.54020762682295" lon="0.9393112967326638"><ele>138.4</ele><time>2026-04-06T13:58:33Z</time></trkpt><trkpt lat="44.54022852892109" lon="0.939187643845587"><ele>139.0</ele><time>2026-04-06T13:58:35Z</time></trkpt><trkpt lat="44.540281236051605" lon="0.9390248470328917"><ele>139.0</ele><time>2026-04-06T13:58:37Z</time></trkpt><trkpt lat="44.5403087939038" lon="0.9389185401363319"><ele>139.0</ele><time>2026-04-06T13:58:38Z</time></trkpt><trkpt lat="44.54033723109983" lon="0.9387931464644027"><ele>139.0</ele><time>2026-04-06T13:58:39Z</time></trkpt><trkpt lat="44.540382499821334" lon="0.9386547074678512"><ele>139.0</ele><time>2026-04-06T13:58:40Z</time></trkpt><trkpt lat="44.540413031773625" lon="0.9385362783758924"><ele>139.0</ele><time>2026-04-06T13:58:41Z</time></trkpt><trkpt lat="44.54044628291818" lon="0.9384411164651383"><ele>139.0</ele><time>2026-04-06T13:58:42Z</time></trkpt><trkpt lat="44.54047820950158" lon="0.938343926094402"><ele>140.0</ele><time>2026-04-06T13:58:43Z</time></trkpt><trkpt lat="44.54051117672051" lon="0.9382374799749047"><ele>141.0</ele><time>2026-04-06T13:58:44Z</time></trkpt><trkpt lat="44.54054363645471" lon="0.9381574798398494"><ele>142.0</ele><time>2026-04-06T13:58:45Z</time></trkpt><trkpt lat="44.54059575917903" lon="0.9380974516988364"><ele>143.0</ele><time>2026-04-06T13:58:46Z</time></trkpt><trkpt lat="44.540667813924806" lon="0.9380588700717717"><ele>144.0</ele><time>2026-04-06T13:58:47Z</time></trkpt><trkpt lat="44.540750471705806" lon="0.9380302711179376"><ele>145.0</ele><time>2026-04-06T13:58:48Z</time></trkpt><trkpt lat="44.54083659338569" lon="0.9380028172933971"><ele>145.0</ele><time>2026-04-06T13:58:49Z</time></trkpt><trkpt lat="44.54094986862206" lon="0.9379600346413957"><ele>145.0</ele><time>2026-04-06T13:58:50Z</time></trkpt><trkpt lat="44.54105814322114" lon="0.9379005635685591"><ele>145.0</ele><time>2026-04-06T13:58:51Z</time></trkpt><trkpt lat="44.54114514854666" lon="0.9378324456897779"><ele>145.0</ele><time>2026-04-06T13:58:52Z</time></trkpt><trkpt lat="44.54120728530166" lon="0.9377636361844143"><ele>145.0</ele><time>2026-04-06T13:58:53Z</time></trkpt><trkpt lat="44.541278901718115" lon="0.9376423665322015"><ele>142.5</ele><time>2026-04-06T13:58:54Z</time></trkpt><trkpt lat="44.54136028608949" lon="0.937489742891143"><ele>140.0</ele><time>2026-04-06T13:58:55Z</time></trkpt><trkpt lat="44.5414366396317" lon="0.9373420370465956"><ele>137.5</ele><time>2026-04-06T13:58:56Z</time></trkpt><trkpt lat="44.54149833219469" lon="0.93720364967665"><ele>135.0</ele><time>2026-04-06T13:58:57Z</time></trkpt><trkpt lat="44.54158401006292" lon="0.9370871316687869"><ele>135.0</ele><time>2026-04-06T13:58:58Z</time></trkpt><trkpt lat="44.541666647180676" lon="0.9369801906180564"><ele>135.0</ele><time>2026-04-06T13:58:59Z</time></trkpt><trkpt lat="44.54174877428694" lon="0.9368813439565675"><ele>135.0</ele><time>2026-04-06T13:59:00Z</time></trkpt><trkpt lat="44.541822285318204" lon="0.936808591738689"><ele>135.0</ele><time>2026-04-06T13:59:01Z</time></trkpt><trkpt lat="44.54189304683132" lon="0.9367147941314733"><ele>135.0</ele><time>2026-04-06T13:59:02Z</time></trkpt><trkpt lat="44.54196448575737" lon="0.9366267291544311"><ele>133.66666666666666</ele><time>2026-04-06T13:59:03Z</time></trkpt><trkpt lat="44.542032936636296" lon="0.9365426595041745"><ele>132.33333333333334</ele><time>2026-04-06T13:59:04Z</time></trkpt><trkpt lat="44.54210108482143" lon="0.9364620761323613"><ele>131.0</ele><time>2026-04-06T13:59:05Z</time></trkpt><trkpt lat="44.54216343251503" lon="0.9363626275622309"><ele>129.66666666666669</ele><time>2026-04-06T13:59:06Z</time></trkpt><trkpt lat="44.54222483176471" lon="0.9362855569384325"><ele>128.33333333333334</ele><time>2026-04-06T13:59:07Z</time></trkpt><trkpt lat="44.54229111140426" lon="0.9362305230347759"><ele>127.0</ele><time>2026-04-06T13:59:08Z</time></trkpt><trkpt lat="44.54235477885035" lon="0.9362013848059878"><ele>127.0</ele><time>2026-04-06T13:59:09Z</time></trkpt><trkpt lat="44.54242990971764" lon="0.9361843866249306"><ele>126.99999999999999</ele><time>2026-04-06T13:59:10Z</time></trkpt><trkpt lat="44.54249309227403" lon="0.9361747471488798"><ele>126.99999999999999</ele><time>2026-04-06T13:59:11Z</time></trkpt><trkpt lat="44.54260209889256" lon="0.936138748283214"><ele>127.0</ele><time>2026-04-06T13:59:13Z</time></trkpt><trkpt lat="44.54271602568221" lon="0.9361013996970329"><ele>127.0</ele><time>2026-04-06T13:59:15Z</time></trkpt><trkpt lat="44.542824760801366" lon="0.9360394301845372"><ele>125.66666666666667</ele><time>2026-04-06T13:59:17Z</time></trkpt><trkpt lat="44.54294204567101" lon="0.9359949512043318"><ele>124.33333333333334</ele><time>2026-04-06T13:59:19Z</time></trkpt><trkpt lat="44.54300932819963" lon="0.9359513418099641"><ele>123.0</ele><time>2026-04-06T13:59:20Z</time></trkpt><trkpt lat="44.54306844733135" lon="0.9359037421572854"><ele>121.66666666666666</ele><time>2026-04-06T13:59:21Z</time></trkpt><trkpt lat="44.54313217529385" lon="0.9358621113184379"><ele>120.33333333333333</ele><time>2026-04-06T13:59:22Z</time></trkpt><trkpt lat="44.54317272898272" lon="0.9357921333046055"><ele>119.0</ele><time>2026-04-06T13:59:23Z</time></trkpt><trkpt lat="44.543219117855294" lon="0.935685738121643"><ele>117.66666666666666</ele><time>2026-04-06T13:59:25Z</time></trkpt><trkpt lat="44.543263718263255" lon="0.9356219153109886"><ele>116.33333333333333</ele><time>2026-04-06T13:59:29Z</time></trkpt><trkpt lat="44.543330235060644" lon="0.935607742882248"><ele>115.0</ele><time>2026-04-06T13:59:31Z</time></trkpt><trkpt lat="44.54343181509925" lon="0.935652972455174"><ele>113.66666666666666</ele><time>2026-04-06T13:59:33Z</time></trkpt><trkpt lat="44.54349573673668" lon="0.9356861002159406"><ele>112.33333333333333</ele><time>2026-04-06T13:59:34Z</time></trkpt><trkpt lat="44.5436066615212" lon="0.9357675505055587"><ele>111.0</ele><time>2026-04-06T13:59:36Z</time></trkpt><trkpt lat="44.54367798196662" lon="0.9358194391954089"><ele>111.0</ele><time>2026-04-06T13:59:37Z</time></trkpt><trkpt lat="44.54374300789684" lon="0.9358702887168071"><ele>111.0</ele><time>2026-04-06T13:59:38Z</time></trkpt><trkpt lat="44.543810967833586" lon="0.9359266374923755"><ele>111.0</ele><time>2026-04-06T13:59:39Z</time></trkpt><trkpt lat="44.543879061463215" lon="0.9359696845002862"><ele>111.0</ele><time>2026-04-06T13:59:40Z</time></trkpt><trkpt lat="44.543954473938165" lon="0.9360069429295885"><ele>111.0</ele><time>2026-04-06T13:59:41Z</time></trkpt><trkpt lat="44.54402729622012" lon="0.9360299708163476"><ele>111.0</ele><time>2026-04-06T13:59:42Z</time></trkpt><trkpt lat="44.5441038849607" lon="0.9360358627102255"><ele>112.0</ele><time>2026-04-06T13:59:43Z</time></trkpt><trkpt lat="44.54417961951081" lon="0.9360286804141634"><ele>113.0</ele><time>2026-04-06T13:59:44Z</time></trkpt><trkpt lat="44.54424831124837" lon="0.9360317384093387"><ele>114.0</ele><time>2026-04-06T13:59:45Z</time></trkpt><trkpt lat="44.544324473528576" lon="0.9360264867874994"><ele>115.0</ele><time>2026-04-06T13:59:46Z</time></trkpt><trkpt lat="44.54440055710739" lon="0.9360167722304399"><ele>116.0</ele><time>2026-04-06T13:59:47Z</time></trkpt><trkpt lat="44.544480232213566" lon="0.936004017220634"><ele>117.0</ele><time>2026-04-06T13:59:48Z</time></trkpt><trkpt lat="44.54456200964554" lon="0.9359835527299009"><ele>117.0</ele><time>2026-04-06T13:59:49Z</time></trkpt><trkpt lat="44.544643150379706" lon="0.9359508919093258"><ele>117.0</ele><time>2026-04-06T13:59:50Z</time></trkpt><trkpt lat="44.54472569260196" lon="0.9359345654910438"><ele>117.0</ele><time>2026-04-06T13:59:51Z</time></trkpt><trkpt lat="44.5447914041201" lon="0.9359025056375528"><ele>117.0</ele><time>2026-04-06T13:59:52Z</time></trkpt><trkpt lat="44.54485607864194" lon="0.9358431032606187"><ele>117.0</ele><time>2026-04-06T13:59:53Z</time></trkpt><trkpt lat="44.544930793607556" lon="0.9358173443486022"><ele>117.0</ele><time>2026-04-06T13:59:54Z</time></trkpt><trkpt lat="44.54499813094457" lon="0.9357752271083913"><ele>116.66666666666667</ele><time>2026-04-06T13:59:55Z</time></trkpt><trkpt lat="44.54506688181298" lon="0.9357107584411356"><ele>116.33333333333334</ele><time>2026-04-06T13:59:56Z</time></trkpt><trkpt lat="44.54514592485799" lon="0.9356684095990159"><ele>116.0</ele><time>2026-04-06T13:59:57Z</time></trkpt><trkpt lat="44.54522008214542" lon="0.9356194261481615"><ele>115.66666666666667</ele><time>2026-04-06T13:59:58Z</time></trkpt><trkpt lat="44.54529541992852" lon="0.9355668016561988"><ele>115.33333333333334</ele><time>2026-04-06T13:59:59Z</time></trkpt><trkpt lat="44.545362298733664" lon="0.935525176039125"><ele>115.0</ele><time>2026-04-06T14:00:00Z</time></trkpt><trkpt lat="44.545425612295745" lon="0.9354952388758865"><ele>115.0</ele><time>2026-04-06T14:00:01Z</time></trkpt><trkpt lat="44.545484437703074" lon="0.9354526047405076"><ele>115.0</ele><time>2026-04-06T14:00:02Z</time></trkpt><trkpt lat="44.54555831206081" lon="0.9354068661046733"><ele>115.0</ele><time>2026-04-06T14:00:03Z</time></trkpt><trkpt lat="44.545638467297145" lon="0.9353517507790111"><ele>115.0</ele><time>2026-04-06T14:00:04Z</time></trkpt></trkseg></trk></gpx>